<?xml version="1.0" encoding="UTF-8" standalone="no" ?>
<gpx xmlns="http://www.topografix.com/GPX/1/1" xmlns:xsi="http://www.w3.org/2001/XMLSchema-instance" xsi:schemaLocation="http://www.topografix.com/GPX/1/1 http://www.topografix.com/GPX/1/1/gpx.xsd" version="1.1" creator="VisuGPX - https://www.visugpx.com">
  <metadata>
    <name>Valempoulières,Fontaine du Fou,La Madone,Le long des Moidons</name>
    <desc><![CDATA[
]]></desc>
  </metadata>
  <trk>
    <name><![CDATA[Valempoulières,Fontaine du Fou,La Madone,Le long des Moidons_1]]></name>
    <extensions>
      <line xmlns="http://www.topografix.com/GPX/gpx_style/0/2">
        <color>0000FF</color>
        <width>4</width>
      </line>
    </extensions>
    <trkseg>
      <trkpt lat="46.85758" lon="5.89789">
        <ele>657.5</ele>
        <time>2021-07-18T07:47:25Z</time>
      </trkpt>
      <trkpt lat="46.85756" lon="5.89796">
        <ele>657.1</ele>
        <time>2021-07-18T07:47:30Z</time>
      </trkpt>
      <trkpt lat="46.85753" lon="5.89801">
        <ele>650.2</ele>
        <time>2021-07-18T07:47:38Z</time>
      </trkpt>
      <trkpt lat="46.85749" lon="5.89804">
        <ele>623.3</ele>
        <time>2021-07-18T07:49:00Z</time>
      </trkpt>
      <trkpt lat="46.85754" lon="5.89799">
        <ele>626.2</ele>
        <time>2021-07-18T07:49:11Z</time>
      </trkpt>
      <trkpt lat="46.85757" lon="5.89793">
        <ele>626.8</ele>
        <time>2021-07-18T07:49:15Z</time>
      </trkpt>
      <trkpt lat="46.85759" lon="5.89787">
        <ele>626.4</ele>
        <time>2021-07-18T07:49:20Z</time>
      </trkpt>
      <trkpt lat="46.85757" lon="5.89794">
        <ele>626</ele>
        <time>2021-07-18T07:49:37Z</time>
      </trkpt>
      <trkpt lat="46.85758" lon="5.89801">
        <ele>624.8</ele>
        <time>2021-07-18T07:49:47Z</time>
      </trkpt>
      <trkpt lat="46.85762" lon="5.89802">
        <ele>625.9</ele>
        <time>2021-07-18T07:49:55Z</time>
      </trkpt>
      <trkpt lat="46.85765" lon="5.89807">
        <ele>626.3</ele>
        <time>2021-07-18T07:50:00Z</time>
      </trkpt>
      <trkpt lat="46.85769" lon="5.89812">
        <ele>627.1</ele>
        <time>2021-07-18T07:50:06Z</time>
      </trkpt>
      <trkpt lat="46.85773" lon="5.89817">
        <ele>627.5</ele>
        <time>2021-07-18T07:50:14Z</time>
      </trkpt>
      <trkpt lat="46.85776" lon="5.89821">
        <ele>627.9</ele>
        <time>2021-07-18T07:50:21Z</time>
      </trkpt>
      <trkpt lat="46.85781" lon="5.89823">
        <ele>628</ele>
        <time>2021-07-18T07:50:27Z</time>
      </trkpt>
      <trkpt lat="46.85786" lon="5.89823">
        <ele>628.6</ele>
        <time>2021-07-18T07:50:36Z</time>
      </trkpt>
      <trkpt lat="46.85783" lon="5.89828">
        <ele>628.9</ele>
        <time>2021-07-18T07:50:44Z</time>
      </trkpt>
      <trkpt lat="46.85785" lon="5.89835">
        <ele>629.3</ele>
        <time>2021-07-18T07:50:48Z</time>
      </trkpt>
      <trkpt lat="46.85788" lon="5.89842">
        <ele>629.7</ele>
        <time>2021-07-18T07:50:52Z</time>
      </trkpt>
      <trkpt lat="46.8579" lon="5.8985">
        <ele>630.3</ele>
        <time>2021-07-18T07:50:56Z</time>
      </trkpt>
      <trkpt lat="46.8579" lon="5.89857">
        <ele>631</ele>
        <time>2021-07-18T07:51:00Z</time>
      </trkpt>
      <trkpt lat="46.85789" lon="5.89864">
        <ele>631.2</ele>
        <time>2021-07-18T07:51:04Z</time>
      </trkpt>
      <trkpt lat="46.85792" lon="5.8987">
        <ele>631.5</ele>
        <time>2021-07-18T07:51:09Z</time>
      </trkpt>
      <trkpt lat="46.85797" lon="5.89872">
        <ele>631.7</ele>
        <time>2021-07-18T07:51:15Z</time>
      </trkpt>
      <trkpt lat="46.85801" lon="5.89875">
        <ele>632</ele>
        <time>2021-07-18T07:51:23Z</time>
      </trkpt>
      <trkpt lat="46.85804" lon="5.89881">
        <ele>632.3</ele>
        <time>2021-07-18T07:51:38Z</time>
      </trkpt>
      <trkpt lat="46.85802" lon="5.89887">
        <ele>632.4</ele>
        <time>2021-07-18T07:51:46Z</time>
      </trkpt>
      <trkpt lat="46.85797" lon="5.89887">
        <ele>634.4</ele>
        <time>2021-07-18T07:52:22Z</time>
      </trkpt>
      <trkpt lat="46.85793" lon="5.89891">
        <ele>635.2</ele>
        <time>2021-07-18T07:52:32Z</time>
      </trkpt>
      <trkpt lat="46.85798" lon="5.89893">
        <ele>635.8</ele>
        <time>2021-07-18T07:52:47Z</time>
      </trkpt>
      <trkpt lat="46.85799" lon="5.89899">
        <ele>643.7</ele>
        <time>2021-07-18T07:53:26Z</time>
      </trkpt>
      <trkpt lat="46.858" lon="5.89906">
        <ele>646.7</ele>
        <time>2021-07-18T07:53:35Z</time>
      </trkpt>
      <trkpt lat="46.858" lon="5.89913">
        <ele>651.5</ele>
        <time>2021-07-18T07:53:59Z</time>
      </trkpt>
      <trkpt lat="46.85803" lon="5.89922">
        <ele>652.6</ele>
        <time>2021-07-18T07:54:02Z</time>
      </trkpt>
      <trkpt lat="46.85805" lon="5.89928">
        <ele>653.4</ele>
        <time>2021-07-18T07:54:05Z</time>
      </trkpt>
      <trkpt lat="46.85808" lon="5.89934">
        <ele>654.1</ele>
        <time>2021-07-18T07:54:09Z</time>
      </trkpt>
      <trkpt lat="46.8581" lon="5.8994">
        <ele>654.1</ele>
        <time>2021-07-18T07:54:14Z</time>
      </trkpt>
      <trkpt lat="46.85812" lon="5.89947">
        <ele>653.2</ele>
        <time>2021-07-18T07:54:20Z</time>
      </trkpt>
      <trkpt lat="46.85814" lon="5.89954">
        <ele>651.9</ele>
        <time>2021-07-18T07:54:25Z</time>
      </trkpt>
      <trkpt lat="46.85817" lon="5.8996">
        <ele>650.8</ele>
        <time>2021-07-18T07:54:29Z</time>
      </trkpt>
      <trkpt lat="46.85821" lon="5.89965">
        <ele>649.9</ele>
        <time>2021-07-18T07:54:33Z</time>
      </trkpt>
      <trkpt lat="46.85823" lon="5.89972">
        <ele>649.6</ele>
        <time>2021-07-18T07:54:37Z</time>
      </trkpt>
      <trkpt lat="46.85824" lon="5.89978">
        <ele>650</ele>
        <time>2021-07-18T07:54:41Z</time>
      </trkpt>
      <trkpt lat="46.85826" lon="5.89985">
        <ele>650.4</ele>
        <time>2021-07-18T07:54:45Z</time>
      </trkpt>
      <trkpt lat="46.85824" lon="5.89992">
        <ele>650.3</ele>
        <time>2021-07-18T07:54:50Z</time>
      </trkpt>
      <trkpt lat="46.85822" lon="5.89998">
        <ele>649.7</ele>
        <time>2021-07-18T07:54:56Z</time>
      </trkpt>
      <trkpt lat="46.85825" lon="5.90003">
        <ele>649</ele>
        <time>2021-07-18T07:55:01Z</time>
      </trkpt>
      <trkpt lat="46.85826" lon="5.9001">
        <ele>648.2</ele>
        <time>2021-07-18T07:55:05Z</time>
      </trkpt>
      <trkpt lat="46.85823" lon="5.90016">
        <ele>646.9</ele>
        <time>2021-07-18T07:55:11Z</time>
      </trkpt>
      <trkpt lat="46.85822" lon="5.90023">
        <ele>646.4</ele>
        <time>2021-07-18T07:55:15Z</time>
      </trkpt>
      <trkpt lat="46.85824" lon="5.90029">
        <ele>645.9</ele>
        <time>2021-07-18T07:55:19Z</time>
      </trkpt>
      <trkpt lat="46.85828" lon="5.90035">
        <ele>644.9</ele>
        <time>2021-07-18T07:55:24Z</time>
      </trkpt>
      <trkpt lat="46.85826" lon="5.90041">
        <ele>643.9</ele>
        <time>2021-07-18T07:55:28Z</time>
      </trkpt>
      <trkpt lat="46.85824" lon="5.90048">
        <ele>642.8</ele>
        <time>2021-07-18T07:55:32Z</time>
      </trkpt>
      <trkpt lat="46.85824" lon="5.90055">
        <ele>641.4</ele>
        <time>2021-07-18T07:55:37Z</time>
      </trkpt>
      <trkpt lat="46.85828" lon="5.9006">
        <ele>639.5</ele>
        <time>2021-07-18T07:55:42Z</time>
      </trkpt>
      <trkpt lat="46.85832" lon="5.90063">
        <ele>638.5</ele>
        <time>2021-07-18T07:55:45Z</time>
      </trkpt>
      <trkpt lat="46.85837" lon="5.90068">
        <ele>637.7</ele>
        <time>2021-07-18T07:55:48Z</time>
      </trkpt>
      <trkpt lat="46.8584" lon="5.90072">
        <ele>637.1</ele>
        <time>2021-07-18T07:55:51Z</time>
      </trkpt>
      <trkpt lat="46.85841" lon="5.90079">
        <ele>636</ele>
        <time>2021-07-18T07:55:55Z</time>
      </trkpt>
      <trkpt lat="46.85844" lon="5.90084">
        <ele>635.3</ele>
        <time>2021-07-18T07:55:58Z</time>
      </trkpt>
      <trkpt lat="46.85846" lon="5.9009">
        <ele>635</ele>
        <time>2021-07-18T07:56:01Z</time>
      </trkpt>
      <trkpt lat="46.85848" lon="5.90098">
        <ele>634.8</ele>
        <time>2021-07-18T07:56:06Z</time>
      </trkpt>
      <trkpt lat="46.85847" lon="5.90106">
        <ele>634.5</ele>
        <time>2021-07-18T07:56:11Z</time>
      </trkpt>
      <trkpt lat="46.85846" lon="5.90114">
        <ele>634.6</ele>
        <time>2021-07-18T07:56:15Z</time>
      </trkpt>
      <trkpt lat="46.85845" lon="5.90121">
        <ele>634.8</ele>
        <time>2021-07-18T07:56:19Z</time>
      </trkpt>
      <trkpt lat="46.85848" lon="5.90129">
        <ele>635.3</ele>
        <time>2021-07-18T07:56:23Z</time>
      </trkpt>
      <trkpt lat="46.85848" lon="5.90137">
        <ele>636</ele>
        <time>2021-07-18T07:56:27Z</time>
      </trkpt>
      <trkpt lat="46.85845" lon="5.90144">
        <ele>636.2</ele>
        <time>2021-07-18T07:56:30Z</time>
      </trkpt>
      <trkpt lat="46.85844" lon="5.9015">
        <ele>636.9</ele>
        <time>2021-07-18T07:56:34Z</time>
      </trkpt>
      <trkpt lat="46.85847" lon="5.90156">
        <ele>638</ele>
        <time>2021-07-18T07:56:38Z</time>
      </trkpt>
      <trkpt lat="46.85848" lon="5.90163">
        <ele>639.2</ele>
        <time>2021-07-18T07:56:43Z</time>
      </trkpt>
      <trkpt lat="46.85846" lon="5.9017">
        <ele>640</ele>
        <time>2021-07-18T07:56:48Z</time>
      </trkpt>
      <trkpt lat="46.85844" lon="5.90176">
        <ele>640.8</ele>
        <time>2021-07-18T07:56:53Z</time>
      </trkpt>
      <trkpt lat="46.8584" lon="5.90182">
        <ele>640.9</ele>
        <time>2021-07-18T07:56:57Z</time>
      </trkpt>
      <trkpt lat="46.85837" lon="5.90186">
        <ele>640.8</ele>
        <time>2021-07-18T07:57:00Z</time>
      </trkpt>
      <trkpt lat="46.85835" lon="5.90192">
        <ele>640.5</ele>
        <time>2021-07-18T07:57:03Z</time>
      </trkpt>
      <trkpt lat="46.85831" lon="5.90198">
        <ele>640.1</ele>
        <time>2021-07-18T07:57:08Z</time>
      </trkpt>
      <trkpt lat="46.85827" lon="5.90202">
        <ele>639.8</ele>
        <time>2021-07-18T07:57:12Z</time>
      </trkpt>
      <trkpt lat="46.85823" lon="5.90206">
        <ele>639.8</ele>
        <time>2021-07-18T07:57:16Z</time>
      </trkpt>
      <trkpt lat="46.85819" lon="5.90211">
        <ele>639.7</ele>
        <time>2021-07-18T07:57:22Z</time>
      </trkpt>
      <trkpt lat="46.85814" lon="5.90214">
        <ele>639.5</ele>
        <time>2021-07-18T07:57:27Z</time>
      </trkpt>
      <trkpt lat="46.85811" lon="5.90218">
        <ele>639.1</ele>
        <time>2021-07-18T07:57:33Z</time>
      </trkpt>
      <trkpt lat="46.85807" lon="5.90223">
        <ele>638.4</ele>
        <time>2021-07-18T07:57:39Z</time>
      </trkpt>
      <trkpt lat="46.85803" lon="5.90228">
        <ele>638.1</ele>
        <time>2021-07-18T07:57:44Z</time>
      </trkpt>
      <trkpt lat="46.85798" lon="5.90231">
        <ele>638.2</ele>
        <time>2021-07-18T07:57:48Z</time>
      </trkpt>
      <trkpt lat="46.85794" lon="5.90237">
        <ele>638.3</ele>
        <time>2021-07-18T07:57:52Z</time>
      </trkpt>
      <trkpt lat="46.85791" lon="5.90243">
        <ele>638.2</ele>
        <time>2021-07-18T07:57:55Z</time>
      </trkpt>
      <trkpt lat="46.85787" lon="5.90248">
        <ele>638</ele>
        <time>2021-07-18T07:57:59Z</time>
      </trkpt>
      <trkpt lat="46.85783" lon="5.90252">
        <ele>637.8</ele>
        <time>2021-07-18T07:58:02Z</time>
      </trkpt>
      <trkpt lat="46.85779" lon="5.90258">
        <ele>637.4</ele>
        <time>2021-07-18T07:58:05Z</time>
      </trkpt>
      <trkpt lat="46.85776" lon="5.90264">
        <ele>636.5</ele>
        <time>2021-07-18T07:58:10Z</time>
      </trkpt>
      <trkpt lat="46.85772" lon="5.90267">
        <ele>635.1</ele>
        <time>2021-07-18T07:58:15Z</time>
      </trkpt>
      <trkpt lat="46.8577" lon="5.90274">
        <ele>634.2</ele>
        <time>2021-07-18T07:58:20Z</time>
      </trkpt>
      <trkpt lat="46.85768" lon="5.90281">
        <ele>634.1</ele>
        <time>2021-07-18T07:58:25Z</time>
      </trkpt>
      <trkpt lat="46.85768" lon="5.90288">
        <ele>634.1</ele>
        <time>2021-07-18T07:58:30Z</time>
      </trkpt>
      <trkpt lat="46.85766" lon="5.90295">
        <ele>634.3</ele>
        <time>2021-07-18T07:58:36Z</time>
      </trkpt>
      <trkpt lat="46.85763" lon="5.903">
        <ele>634.3</ele>
        <time>2021-07-18T07:58:41Z</time>
      </trkpt>
      <trkpt lat="46.85761" lon="5.90306">
        <ele>633.9</ele>
        <time>2021-07-18T07:58:45Z</time>
      </trkpt>
      <trkpt lat="46.85761" lon="5.90313">
        <ele>633.4</ele>
        <time>2021-07-18T07:58:49Z</time>
      </trkpt>
      <trkpt lat="46.8576" lon="5.9032">
        <ele>632.9</ele>
        <time>2021-07-18T07:58:55Z</time>
      </trkpt>
      <trkpt lat="46.85757" lon="5.90327">
        <ele>632.5</ele>
        <time>2021-07-18T07:59:00Z</time>
      </trkpt>
      <trkpt lat="46.85756" lon="5.90334">
        <ele>632.4</ele>
        <time>2021-07-18T07:59:05Z</time>
      </trkpt>
      <trkpt lat="46.85754" lon="5.90342">
        <ele>632.5</ele>
        <time>2021-07-18T07:59:10Z</time>
      </trkpt>
      <trkpt lat="46.85751" lon="5.90348">
        <ele>632.3</ele>
        <time>2021-07-18T07:59:14Z</time>
      </trkpt>
      <trkpt lat="46.85749" lon="5.90353">
        <ele>632</ele>
        <time>2021-07-18T07:59:19Z</time>
      </trkpt>
      <trkpt lat="46.85746" lon="5.90358">
        <ele>632</ele>
        <time>2021-07-18T07:59:22Z</time>
      </trkpt>
      <trkpt lat="46.85742" lon="5.90363">
        <ele>631.7</ele>
        <time>2021-07-18T07:59:26Z</time>
      </trkpt>
      <trkpt lat="46.85738" lon="5.90369">
        <ele>630.9</ele>
        <time>2021-07-18T07:59:31Z</time>
      </trkpt>
      <trkpt lat="46.85735" lon="5.90373">
        <ele>630.6</ele>
        <time>2021-07-18T07:59:34Z</time>
      </trkpt>
      <trkpt lat="46.85731" lon="5.9038">
        <ele>630</ele>
        <time>2021-07-18T07:59:38Z</time>
      </trkpt>
      <trkpt lat="46.85728" lon="5.90386">
        <ele>629.8</ele>
        <time>2021-07-18T07:59:42Z</time>
      </trkpt>
      <trkpt lat="46.85726" lon="5.90392">
        <ele>629.6</ele>
        <time>2021-07-18T07:59:45Z</time>
      </trkpt>
      <trkpt lat="46.85721" lon="5.90395">
        <ele>629</ele>
        <time>2021-07-18T07:59:49Z</time>
      </trkpt>
      <trkpt lat="46.85721" lon="5.90388">
        <ele>622.9</ele>
        <time>2021-07-18T08:00:11Z</time>
      </trkpt>
      <trkpt lat="46.8572" lon="5.90395">
        <ele>620.5</ele>
        <time>2021-07-18T08:00:18Z</time>
      </trkpt>
      <trkpt lat="46.85721" lon="5.90403">
        <ele>620.7</ele>
        <time>2021-07-18T08:00:23Z</time>
      </trkpt>
      <trkpt lat="46.85724" lon="5.90409">
        <ele>621.3</ele>
        <time>2021-07-18T08:00:27Z</time>
      </trkpt>
      <trkpt lat="46.85726" lon="5.90416">
        <ele>622.8</ele>
        <time>2021-07-18T08:00:33Z</time>
      </trkpt>
      <trkpt lat="46.85725" lon="5.90423">
        <ele>623.9</ele>
        <time>2021-07-18T08:00:38Z</time>
      </trkpt>
      <trkpt lat="46.85722" lon="5.90429">
        <ele>624.4</ele>
        <time>2021-07-18T08:00:43Z</time>
      </trkpt>
      <trkpt lat="46.85719" lon="5.90436">
        <ele>624.7</ele>
        <time>2021-07-18T08:00:47Z</time>
      </trkpt>
      <trkpt lat="46.85715" lon="5.90442">
        <ele>625.1</ele>
        <time>2021-07-18T08:00:50Z</time>
      </trkpt>
      <trkpt lat="46.85712" lon="5.90448">
        <ele>625.5</ele>
        <time>2021-07-18T08:00:53Z</time>
      </trkpt>
      <trkpt lat="46.8571" lon="5.90455">
        <ele>626.4</ele>
        <time>2021-07-18T08:00:57Z</time>
      </trkpt>
      <trkpt lat="46.85706" lon="5.90462">
        <ele>627.2</ele>
        <time>2021-07-18T08:01:02Z</time>
      </trkpt>
      <trkpt lat="46.85703" lon="5.90466">
        <ele>627.3</ele>
        <time>2021-07-18T08:01:06Z</time>
      </trkpt>
      <trkpt lat="46.85699" lon="5.90473">
        <ele>627.3</ele>
        <time>2021-07-18T08:01:10Z</time>
      </trkpt>
      <trkpt lat="46.85695" lon="5.90479">
        <ele>627.3</ele>
        <time>2021-07-18T08:01:15Z</time>
      </trkpt>
      <trkpt lat="46.85692" lon="5.90483">
        <ele>627.3</ele>
        <time>2021-07-18T08:01:19Z</time>
      </trkpt>
      <trkpt lat="46.85687" lon="5.90488">
        <ele>627.1</ele>
        <time>2021-07-18T08:01:24Z</time>
      </trkpt>
      <trkpt lat="46.85684" lon="5.90494">
        <ele>627.2</ele>
        <time>2021-07-18T08:01:28Z</time>
      </trkpt>
      <trkpt lat="46.8568" lon="5.90498">
        <ele>627.3</ele>
        <time>2021-07-18T08:01:34Z</time>
      </trkpt>
      <trkpt lat="46.85675" lon="5.90501">
        <ele>626.8</ele>
        <time>2021-07-18T08:01:42Z</time>
      </trkpt>
      <trkpt lat="46.8567" lon="5.90505">
        <ele>625.8</ele>
        <time>2021-07-18T08:01:46Z</time>
      </trkpt>
      <trkpt lat="46.85666" lon="5.90509">
        <ele>624.2</ele>
        <time>2021-07-18T08:01:51Z</time>
      </trkpt>
      <trkpt lat="46.85661" lon="5.90512">
        <ele>622</ele>
        <time>2021-07-18T08:02:00Z</time>
      </trkpt>
      <trkpt lat="46.85657" lon="5.90517">
        <ele>621.6</ele>
        <time>2021-07-18T08:02:04Z</time>
      </trkpt>
      <trkpt lat="46.85653" lon="5.90523">
        <ele>621.4</ele>
        <time>2021-07-18T08:02:08Z</time>
      </trkpt>
      <trkpt lat="46.8565" lon="5.90528">
        <ele>621.1</ele>
        <time>2021-07-18T08:02:12Z</time>
      </trkpt>
      <trkpt lat="46.85646" lon="5.90534">
        <ele>620.8</ele>
        <time>2021-07-18T08:02:16Z</time>
      </trkpt>
      <trkpt lat="46.85642" lon="5.90538">
        <ele>620.6</ele>
        <time>2021-07-18T08:02:21Z</time>
      </trkpt>
      <trkpt lat="46.85637" lon="5.9054">
        <ele>619.9</ele>
        <time>2021-07-18T08:02:27Z</time>
      </trkpt>
      <trkpt lat="46.85632" lon="5.90544">
        <ele>619.4</ele>
        <time>2021-07-18T08:02:31Z</time>
      </trkpt>
      <trkpt lat="46.85628" lon="5.90548">
        <ele>618.6</ele>
        <time>2021-07-18T08:02:35Z</time>
      </trkpt>
      <trkpt lat="46.85624" lon="5.90553">
        <ele>617.9</ele>
        <time>2021-07-18T08:02:39Z</time>
      </trkpt>
      <trkpt lat="46.85619" lon="5.90559">
        <ele>617.3</ele>
        <time>2021-07-18T08:02:43Z</time>
      </trkpt>
      <trkpt lat="46.85616" lon="5.90564">
        <ele>617</ele>
        <time>2021-07-18T08:02:46Z</time>
      </trkpt>
      <trkpt lat="46.85612" lon="5.90568">
        <ele>616.6</ele>
        <time>2021-07-18T08:02:50Z</time>
      </trkpt>
      <trkpt lat="46.85607" lon="5.90571">
        <ele>616.4</ele>
        <time>2021-07-18T08:02:55Z</time>
      </trkpt>
      <trkpt lat="46.85603" lon="5.90575">
        <ele>616.2</ele>
        <time>2021-07-18T08:02:59Z</time>
      </trkpt>
      <trkpt lat="46.856" lon="5.90581">
        <ele>615.8</ele>
        <time>2021-07-18T08:03:06Z</time>
      </trkpt>
      <trkpt lat="46.85598" lon="5.90588">
        <ele>615.6</ele>
        <time>2021-07-18T08:03:11Z</time>
      </trkpt>
      <trkpt lat="46.85594" lon="5.90592">
        <ele>615</ele>
        <time>2021-07-18T08:03:16Z</time>
      </trkpt>
      <trkpt lat="46.85589" lon="5.90594">
        <ele>614.2</ele>
        <time>2021-07-18T08:03:20Z</time>
      </trkpt>
      <trkpt lat="46.85584" lon="5.90597">
        <ele>613.4</ele>
        <time>2021-07-18T08:03:24Z</time>
      </trkpt>
      <trkpt lat="46.8558" lon="5.906">
        <ele>613.1</ele>
        <time>2021-07-18T08:03:28Z</time>
      </trkpt>
      <trkpt lat="46.85576" lon="5.90606">
        <ele>613.4</ele>
        <time>2021-07-18T08:03:33Z</time>
      </trkpt>
      <trkpt lat="46.85573" lon="5.90612">
        <ele>613.5</ele>
        <time>2021-07-18T08:03:37Z</time>
      </trkpt>
      <trkpt lat="46.8557" lon="5.90616">
        <ele>613.6</ele>
        <time>2021-07-18T08:03:41Z</time>
      </trkpt>
      <trkpt lat="46.85566" lon="5.90622">
        <ele>613.7</ele>
        <time>2021-07-18T08:03:45Z</time>
      </trkpt>
      <trkpt lat="46.85562" lon="5.90623">
        <ele>613.7</ele>
        <time>2021-07-18T08:03:50Z</time>
      </trkpt>
      <trkpt lat="46.85557" lon="5.90625">
        <ele>613.3</ele>
        <time>2021-07-18T08:03:57Z</time>
      </trkpt>
      <trkpt lat="46.85552" lon="5.90628">
        <ele>613</ele>
        <time>2021-07-18T08:04:02Z</time>
      </trkpt>
      <trkpt lat="46.85547" lon="5.90631">
        <ele>612.7</ele>
        <time>2021-07-18T08:04:06Z</time>
      </trkpt>
      <trkpt lat="46.85542" lon="5.90635">
        <ele>612.6</ele>
        <time>2021-07-18T08:04:10Z</time>
      </trkpt>
      <trkpt lat="46.85538" lon="5.9064">
        <ele>612.6</ele>
        <time>2021-07-18T08:04:13Z</time>
      </trkpt>
      <trkpt lat="46.85534" lon="5.90646">
        <ele>612.5</ele>
        <time>2021-07-18T08:04:17Z</time>
      </trkpt>
      <trkpt lat="46.8553" lon="5.90653">
        <ele>612.6</ele>
        <time>2021-07-18T08:04:21Z</time>
      </trkpt>
      <trkpt lat="46.85525" lon="5.90656">
        <ele>612.7</ele>
        <time>2021-07-18T08:04:26Z</time>
      </trkpt>
      <trkpt lat="46.8552" lon="5.90659">
        <ele>612.8</ele>
        <time>2021-07-18T08:04:31Z</time>
      </trkpt>
      <trkpt lat="46.85516" lon="5.90663">
        <ele>612.7</ele>
        <time>2021-07-18T08:04:35Z</time>
      </trkpt>
      <trkpt lat="46.85511" lon="5.90665">
        <ele>612.2</ele>
        <time>2021-07-18T08:04:40Z</time>
      </trkpt>
      <trkpt lat="46.85507" lon="5.90667">
        <ele>611.5</ele>
        <time>2021-07-18T08:04:44Z</time>
      </trkpt>
      <trkpt lat="46.85502" lon="5.90667">
        <ele>611.2</ele>
        <time>2021-07-18T08:04:47Z</time>
      </trkpt>
      <trkpt lat="46.85497" lon="5.9067">
        <ele>610.6</ele>
        <time>2021-07-18T08:04:52Z</time>
      </trkpt>
      <trkpt lat="46.85494" lon="5.90675">
        <ele>610</ele>
        <time>2021-07-18T08:04:58Z</time>
      </trkpt>
      <trkpt lat="46.85492" lon="5.90682">
        <ele>609.2</ele>
        <time>2021-07-18T08:05:02Z</time>
      </trkpt>
      <trkpt lat="46.8549" lon="5.90688">
        <ele>608.9</ele>
        <time>2021-07-18T08:05:05Z</time>
      </trkpt>
      <trkpt lat="46.85486" lon="5.90694">
        <ele>608.7</ele>
        <time>2021-07-18T08:05:08Z</time>
      </trkpt>
      <trkpt lat="46.85482" lon="5.90699">
        <ele>608.6</ele>
        <time>2021-07-18T08:05:11Z</time>
      </trkpt>
      <trkpt lat="46.85478" lon="5.90705">
        <ele>608.7</ele>
        <time>2021-07-18T08:05:14Z</time>
      </trkpt>
      <trkpt lat="46.85474" lon="5.90709">
        <ele>608.9</ele>
        <time>2021-07-18T08:05:17Z</time>
      </trkpt>
      <trkpt lat="46.85469" lon="5.90712">
        <ele>608.7</ele>
        <time>2021-07-18T08:05:21Z</time>
      </trkpt>
      <trkpt lat="46.85465" lon="5.90714">
        <ele>608.3</ele>
        <time>2021-07-18T08:05:25Z</time>
      </trkpt>
      <trkpt lat="46.8546" lon="5.90716">
        <ele>607.6</ele>
        <time>2021-07-18T08:05:29Z</time>
      </trkpt>
      <trkpt lat="46.85456" lon="5.9072">
        <ele>606.8</ele>
        <time>2021-07-18T08:05:34Z</time>
      </trkpt>
      <trkpt lat="46.85454" lon="5.90726">
        <ele>605.6</ele>
        <time>2021-07-18T08:05:40Z</time>
      </trkpt>
      <trkpt lat="46.85449" lon="5.9073">
        <ele>604.7</ele>
        <time>2021-07-18T08:05:46Z</time>
      </trkpt>
      <trkpt lat="46.85444" lon="5.90733">
        <ele>604.1</ele>
        <time>2021-07-18T08:05:51Z</time>
      </trkpt>
      <trkpt lat="46.8544" lon="5.90735">
        <ele>603.4</ele>
        <time>2021-07-18T08:05:57Z</time>
      </trkpt>
      <trkpt lat="46.85435" lon="5.90739">
        <ele>602.9</ele>
        <time>2021-07-18T08:06:02Z</time>
      </trkpt>
      <trkpt lat="46.85431" lon="5.90743">
        <ele>602.5</ele>
        <time>2021-07-18T08:06:07Z</time>
      </trkpt>
      <trkpt lat="46.85427" lon="5.90748">
        <ele>602.1</ele>
        <time>2021-07-18T08:06:12Z</time>
      </trkpt>
      <trkpt lat="46.85424" lon="5.90754">
        <ele>602</ele>
        <time>2021-07-18T08:06:16Z</time>
      </trkpt>
      <trkpt lat="46.85421" lon="5.90759">
        <ele>602.1</ele>
        <time>2021-07-18T08:06:21Z</time>
      </trkpt>
      <trkpt lat="46.85417" lon="5.90765">
        <ele>602.4</ele>
        <time>2021-07-18T08:06:26Z</time>
      </trkpt>
      <trkpt lat="46.85414" lon="5.9077">
        <ele>602.8</ele>
        <time>2021-07-18T08:06:30Z</time>
      </trkpt>
      <trkpt lat="46.8541" lon="5.90774">
        <ele>603.8</ele>
        <time>2021-07-18T08:06:34Z</time>
      </trkpt>
      <trkpt lat="46.85407" lon="5.90779">
        <ele>604.9</ele>
        <time>2021-07-18T08:06:39Z</time>
      </trkpt>
      <trkpt lat="46.85403" lon="5.90784">
        <ele>605.1</ele>
        <time>2021-07-18T08:06:43Z</time>
      </trkpt>
      <trkpt lat="46.85401" lon="5.9079">
        <ele>604.9</ele>
        <time>2021-07-18T08:06:47Z</time>
      </trkpt>
      <trkpt lat="46.85396" lon="5.90794">
        <ele>605.2</ele>
        <time>2021-07-18T08:06:51Z</time>
      </trkpt>
      <trkpt lat="46.85392" lon="5.90798">
        <ele>605.3</ele>
        <time>2021-07-18T08:06:55Z</time>
      </trkpt>
      <trkpt lat="46.85387" lon="5.908">
        <ele>605.4</ele>
        <time>2021-07-18T08:06:59Z</time>
      </trkpt>
      <trkpt lat="46.85383" lon="5.908">
        <ele>605.4</ele>
        <time>2021-07-18T08:07:02Z</time>
      </trkpt>
      <trkpt lat="46.85377" lon="5.90802">
        <ele>605.6</ele>
        <time>2021-07-18T08:07:07Z</time>
      </trkpt>
      <trkpt lat="46.85373" lon="5.90803">
        <ele>605.9</ele>
        <time>2021-07-18T08:07:11Z</time>
      </trkpt>
      <trkpt lat="46.85369" lon="5.90807">
        <ele>605.8</ele>
        <time>2021-07-18T08:07:15Z</time>
      </trkpt>
      <trkpt lat="46.85365" lon="5.90811">
        <ele>605.6</ele>
        <time>2021-07-18T08:07:19Z</time>
      </trkpt>
      <trkpt lat="46.85361" lon="5.90816">
        <ele>605</ele>
        <time>2021-07-18T08:07:24Z</time>
      </trkpt>
      <trkpt lat="46.85357" lon="5.90821">
        <ele>604.4</ele>
        <time>2021-07-18T08:07:29Z</time>
      </trkpt>
      <trkpt lat="46.85353" lon="5.90825">
        <ele>604</ele>
        <time>2021-07-18T08:07:34Z</time>
      </trkpt>
      <trkpt lat="46.85349" lon="5.90829">
        <ele>603.8</ele>
        <time>2021-07-18T08:07:39Z</time>
      </trkpt>
      <trkpt lat="46.85345" lon="5.90832">
        <ele>603.6</ele>
        <time>2021-07-18T08:07:42Z</time>
      </trkpt>
      <trkpt lat="46.85341" lon="5.90837">
        <ele>603.6</ele>
        <time>2021-07-18T08:07:45Z</time>
      </trkpt>
      <trkpt lat="46.85338" lon="5.90842">
        <ele>604.2</ele>
        <time>2021-07-18T08:07:49Z</time>
      </trkpt>
      <trkpt lat="46.85334" lon="5.90845">
        <ele>605.1</ele>
        <time>2021-07-18T08:07:54Z</time>
      </trkpt>
      <trkpt lat="46.85329" lon="5.90847">
        <ele>606</ele>
        <time>2021-07-18T08:07:59Z</time>
      </trkpt>
      <trkpt lat="46.85323" lon="5.90847">
        <ele>606.8</ele>
        <time>2021-07-18T08:08:04Z</time>
      </trkpt>
      <trkpt lat="46.8532" lon="5.90852">
        <ele>607.1</ele>
        <time>2021-07-18T08:08:07Z</time>
      </trkpt>
      <trkpt lat="46.85317" lon="5.90858">
        <ele>607.3</ele>
        <time>2021-07-18T08:08:10Z</time>
      </trkpt>
      <trkpt lat="46.85314" lon="5.90865">
        <ele>607.3</ele>
        <time>2021-07-18T08:08:13Z</time>
      </trkpt>
      <trkpt lat="46.8531" lon="5.9087">
        <ele>607.5</ele>
        <time>2021-07-18T08:08:17Z</time>
      </trkpt>
      <trkpt lat="46.85305" lon="5.90871">
        <ele>608.7</ele>
        <time>2021-07-18T08:08:25Z</time>
      </trkpt>
      <trkpt lat="46.85301" lon="5.90874">
        <ele>609.6</ele>
        <time>2021-07-18T08:08:30Z</time>
      </trkpt>
      <trkpt lat="46.85297" lon="5.9088">
        <ele>609.8</ele>
        <time>2021-07-18T08:08:33Z</time>
      </trkpt>
      <trkpt lat="46.85292" lon="5.90885">
        <ele>609.8</ele>
        <time>2021-07-18T08:08:36Z</time>
      </trkpt>
      <trkpt lat="46.85288" lon="5.90891">
        <ele>610</ele>
        <time>2021-07-18T08:08:39Z</time>
      </trkpt>
      <trkpt lat="46.85285" lon="5.90897">
        <ele>610.1</ele>
        <time>2021-07-18T08:08:42Z</time>
      </trkpt>
      <trkpt lat="46.85281" lon="5.90904">
        <ele>610.5</ele>
        <time>2021-07-18T08:08:46Z</time>
      </trkpt>
      <trkpt lat="46.85277" lon="5.90909">
        <ele>611.1</ele>
        <time>2021-07-18T08:08:51Z</time>
      </trkpt>
      <trkpt lat="46.85272" lon="5.90914">
        <ele>611.2</ele>
        <time>2021-07-18T08:08:55Z</time>
      </trkpt>
      <trkpt lat="46.85267" lon="5.90916">
        <ele>611.2</ele>
        <time>2021-07-18T08:08:59Z</time>
      </trkpt>
      <trkpt lat="46.85263" lon="5.90916">
        <ele>611.1</ele>
        <time>2021-07-18T08:09:03Z</time>
      </trkpt>
      <trkpt lat="46.85258" lon="5.9092">
        <ele>611</ele>
        <time>2021-07-18T08:09:07Z</time>
      </trkpt>
      <trkpt lat="46.85255" lon="5.90927">
        <ele>610.5</ele>
        <time>2021-07-18T08:09:11Z</time>
      </trkpt>
      <trkpt lat="46.85251" lon="5.90933">
        <ele>610</ele>
        <time>2021-07-18T08:09:15Z</time>
      </trkpt>
      <trkpt lat="46.85248" lon="5.90939">
        <ele>610.1</ele>
        <time>2021-07-18T08:09:18Z</time>
      </trkpt>
      <trkpt lat="46.85244" lon="5.90944">
        <ele>610.1</ele>
        <time>2021-07-18T08:09:22Z</time>
      </trkpt>
      <trkpt lat="46.8524" lon="5.90949">
        <ele>610.1</ele>
        <time>2021-07-18T08:09:29Z</time>
      </trkpt>
      <trkpt lat="46.85236" lon="5.90951">
        <ele>609.9</ele>
        <time>2021-07-18T08:09:40Z</time>
      </trkpt>
      <trkpt lat="46.85231" lon="5.9095">
        <ele>611.1</ele>
        <time>2021-07-18T08:10:40Z</time>
      </trkpt>
      <trkpt lat="46.85236" lon="5.90945">
        <ele>608.9</ele>
        <time>2021-07-18T08:10:49Z</time>
      </trkpt>
      <trkpt lat="46.85237" lon="5.90938">
        <ele>608.1</ele>
        <time>2021-07-18T08:10:53Z</time>
      </trkpt>
      <trkpt lat="46.85235" lon="5.9093">
        <ele>607.6</ele>
        <time>2021-07-18T08:10:57Z</time>
      </trkpt>
      <trkpt lat="46.85233" lon="5.90923">
        <ele>607.2</ele>
        <time>2021-07-18T08:11:01Z</time>
      </trkpt>
      <trkpt lat="46.85232" lon="5.90916">
        <ele>607</ele>
        <time>2021-07-18T08:11:06Z</time>
      </trkpt>
      <trkpt lat="46.85234" lon="5.90909">
        <ele>606.7</ele>
        <time>2021-07-18T08:11:11Z</time>
      </trkpt>
      <trkpt lat="46.85232" lon="5.90903">
        <ele>606.3</ele>
        <time>2021-07-18T08:11:17Z</time>
      </trkpt>
      <trkpt lat="46.85236" lon="5.90901">
        <ele>606.5</ele>
        <time>2021-07-18T08:11:36Z</time>
      </trkpt>
      <trkpt lat="46.8524" lon="5.90904">
        <ele>607.2</ele>
        <time>2021-07-18T08:11:42Z</time>
      </trkpt>
      <trkpt lat="46.85245" lon="5.90904">
        <ele>608.8</ele>
        <time>2021-07-18T08:12:04Z</time>
      </trkpt>
      <trkpt lat="46.85249" lon="5.909">
        <ele>608.3</ele>
        <time>2021-07-18T08:12:07Z</time>
      </trkpt>
      <trkpt lat="46.85252" lon="5.90895">
        <ele>608.4</ele>
        <time>2021-07-18T08:12:14Z</time>
      </trkpt>
      <trkpt lat="46.8525" lon="5.90887">
        <ele>608.4</ele>
        <time>2021-07-18T08:12:19Z</time>
      </trkpt>
      <trkpt lat="46.85247" lon="5.90881">
        <ele>608.4</ele>
        <time>2021-07-18T08:12:23Z</time>
      </trkpt>
      <trkpt lat="46.85244" lon="5.90875">
        <ele>608.4</ele>
        <time>2021-07-18T08:12:26Z</time>
      </trkpt>
      <trkpt lat="46.85241" lon="5.90869">
        <ele>608.5</ele>
        <time>2021-07-18T08:12:30Z</time>
      </trkpt>
      <trkpt lat="46.8524" lon="5.90862">
        <ele>608.4</ele>
        <time>2021-07-18T08:12:36Z</time>
      </trkpt>
      <trkpt lat="46.85243" lon="5.90855">
        <ele>609</ele>
        <time>2021-07-18T08:12:42Z</time>
      </trkpt>
      <trkpt lat="46.85246" lon="5.90851">
        <ele>610.3</ele>
        <time>2021-07-18T08:12:51Z</time>
      </trkpt>
      <trkpt lat="46.85246" lon="5.90858">
        <ele>609.9</ele>
        <time>2021-07-18T08:12:59Z</time>
      </trkpt>
      <trkpt lat="46.85251" lon="5.90856">
        <ele>608.8</ele>
        <time>2021-07-18T08:13:21Z</time>
      </trkpt>
      <trkpt lat="46.8525" lon="5.90849">
        <ele>608.7</ele>
        <time>2021-07-18T08:13:28Z</time>
      </trkpt>
      <trkpt lat="46.85245" lon="5.90848">
        <ele>608.9</ele>
        <time>2021-07-18T08:13:35Z</time>
      </trkpt>
      <trkpt lat="46.85241" lon="5.90844">
        <ele>610</ele>
        <time>2021-07-18T08:13:39Z</time>
      </trkpt>
      <trkpt lat="46.85238" lon="5.90838">
        <ele>611.8</ele>
        <time>2021-07-18T08:13:48Z</time>
      </trkpt>
      <trkpt lat="46.85236" lon="5.90831">
        <ele>612.9</ele>
        <time>2021-07-18T08:13:53Z</time>
      </trkpt>
      <trkpt lat="46.85234" lon="5.90825">
        <ele>614.1</ele>
        <time>2021-07-18T08:13:57Z</time>
      </trkpt>
      <trkpt lat="46.85232" lon="5.90818">
        <ele>615</ele>
        <time>2021-07-18T08:14:03Z</time>
      </trkpt>
      <trkpt lat="46.85231" lon="5.90811">
        <ele>614.6</ele>
        <time>2021-07-18T08:14:06Z</time>
      </trkpt>
      <trkpt lat="46.85228" lon="5.90806">
        <ele>613.4</ele>
        <time>2021-07-18T08:14:12Z</time>
      </trkpt>
      <trkpt lat="46.85226" lon="5.90799">
        <ele>612.5</ele>
        <time>2021-07-18T08:14:19Z</time>
      </trkpt>
      <trkpt lat="46.85226" lon="5.90792">
        <ele>610.7</ele>
        <time>2021-07-18T08:14:31Z</time>
      </trkpt>
      <trkpt lat="46.85226" lon="5.90784">
        <ele>610.6</ele>
        <time>2021-07-18T08:14:38Z</time>
      </trkpt>
      <trkpt lat="46.85224" lon="5.90777">
        <ele>608.9</ele>
        <time>2021-07-18T08:14:52Z</time>
      </trkpt>
      <trkpt lat="46.85223" lon="5.90769">
        <ele>608.6</ele>
        <time>2021-07-18T08:14:58Z</time>
      </trkpt>
      <trkpt lat="46.85219" lon="5.90765">
        <ele>609.3</ele>
        <time>2021-07-18T08:15:12Z</time>
      </trkpt>
      <trkpt lat="46.85214" lon="5.90763">
        <ele>609.7</ele>
        <time>2021-07-18T08:15:19Z</time>
      </trkpt>
      <trkpt lat="46.85213" lon="5.90755">
        <ele>609.9</ele>
        <time>2021-07-18T08:15:24Z</time>
      </trkpt>
      <trkpt lat="46.85209" lon="5.90752">
        <ele>610.6</ele>
        <time>2021-07-18T08:15:29Z</time>
      </trkpt>
      <trkpt lat="46.85206" lon="5.90746">
        <ele>611.8</ele>
        <time>2021-07-18T08:15:43Z</time>
      </trkpt>
      <trkpt lat="46.85201" lon="5.90744">
        <ele>612.1</ele>
        <time>2021-07-18T08:15:48Z</time>
      </trkpt>
      <trkpt lat="46.85204" lon="5.90738">
        <ele>617.5</ele>
        <time>2021-07-18T08:16:02Z</time>
      </trkpt>
      <trkpt lat="46.85203" lon="5.90731">
        <ele>618.1</ele>
        <time>2021-07-18T08:16:05Z</time>
      </trkpt>
      <trkpt lat="46.85204" lon="5.90724">
        <ele>618.9</ele>
        <time>2021-07-18T08:16:09Z</time>
      </trkpt>
      <trkpt lat="46.85206" lon="5.90718">
        <ele>619.8</ele>
        <time>2021-07-18T08:16:16Z</time>
      </trkpt>
      <trkpt lat="46.85206" lon="5.9071">
        <ele>620.1</ele>
        <time>2021-07-18T08:16:20Z</time>
      </trkpt>
      <trkpt lat="46.85202" lon="5.90714">
        <ele>620.4</ele>
        <time>2021-07-18T08:16:29Z</time>
      </trkpt>
      <trkpt lat="46.85198" lon="5.90711">
        <ele>620.3</ele>
        <time>2021-07-18T08:16:33Z</time>
      </trkpt>
      <trkpt lat="46.85195" lon="5.90704">
        <ele>619.9</ele>
        <time>2021-07-18T08:16:36Z</time>
      </trkpt>
      <trkpt lat="46.85192" lon="5.90697">
        <ele>618.3</ele>
        <time>2021-07-18T08:16:42Z</time>
      </trkpt>
      <trkpt lat="46.85187" lon="5.90695">
        <ele>617.5</ele>
        <time>2021-07-18T08:16:48Z</time>
      </trkpt>
      <trkpt lat="46.85185" lon="5.90688">
        <ele>617.2</ele>
        <time>2021-07-18T08:16:52Z</time>
      </trkpt>
      <trkpt lat="46.85186" lon="5.90675">
        <ele>617.2</ele>
        <time>2021-07-18T08:16:55Z</time>
      </trkpt>
      <trkpt lat="46.85186" lon="5.90667">
        <ele>617.6</ele>
        <time>2021-07-18T08:16:58Z</time>
      </trkpt>
      <trkpt lat="46.85181" lon="5.90664">
        <ele>613.3</ele>
        <time>2021-07-18T08:17:14Z</time>
      </trkpt>
      <trkpt lat="46.85176" lon="5.90656">
        <ele>612.4</ele>
        <time>2021-07-18T08:17:21Z</time>
      </trkpt>
      <trkpt lat="46.85172" lon="5.90646">
        <ele>612.2</ele>
        <time>2021-07-18T08:17:24Z</time>
      </trkpt>
      <trkpt lat="46.85169" lon="5.90641">
        <ele>612.1</ele>
        <time>2021-07-18T08:17:30Z</time>
      </trkpt>
      <trkpt lat="46.85166" lon="5.90634">
        <ele>613.2</ele>
        <time>2021-07-18T08:17:35Z</time>
      </trkpt>
      <trkpt lat="46.85165" lon="5.90627">
        <ele>614</ele>
        <time>2021-07-18T08:17:39Z</time>
      </trkpt>
      <trkpt lat="46.85162" lon="5.90634">
        <ele>614.3</ele>
        <time>2021-07-18T08:17:51Z</time>
      </trkpt>
      <trkpt lat="46.85161" lon="5.90641">
        <ele>615.5</ele>
        <time>2021-07-18T08:17:59Z</time>
      </trkpt>
      <trkpt lat="46.85156" lon="5.90644">
        <ele>615.7</ele>
        <time>2021-07-18T08:18:03Z</time>
      </trkpt>
      <trkpt lat="46.85155" lon="5.9065">
        <ele>617.9</ele>
        <time>2021-07-18T08:18:21Z</time>
      </trkpt>
      <trkpt lat="46.8516" lon="5.90649">
        <ele>617.7</ele>
        <time>2021-07-18T08:18:27Z</time>
      </trkpt>
      <trkpt lat="46.85165" lon="5.90645">
        <ele>617.9</ele>
        <time>2021-07-18T08:18:38Z</time>
      </trkpt>
      <trkpt lat="46.85169" lon="5.90641">
        <ele>619.4</ele>
        <time>2021-07-18T08:18:46Z</time>
      </trkpt>
      <trkpt lat="46.85174" lon="5.90644">
        <ele>620.5</ele>
        <time>2021-07-18T08:18:51Z</time>
      </trkpt>
      <trkpt lat="46.85161" lon="5.9064">
        <ele>623.4</ele>
        <time>2021-07-18T08:19:15Z</time>
      </trkpt>
      <trkpt lat="46.85158" lon="5.90646">
        <ele>623.3</ele>
        <time>2021-07-18T08:19:23Z</time>
      </trkpt>
      <trkpt lat="46.85153" lon="5.90649">
        <ele>623.3</ele>
        <time>2021-07-18T08:19:26Z</time>
      </trkpt>
      <trkpt lat="46.8515" lon="5.90653">
        <ele>623.5</ele>
        <time>2021-07-18T08:19:30Z</time>
      </trkpt>
      <trkpt lat="46.85144" lon="5.9065">
        <ele>624.8</ele>
        <time>2021-07-18T08:19:36Z</time>
      </trkpt>
      <trkpt lat="46.85142" lon="5.90656">
        <ele>628.6</ele>
        <time>2021-07-18T08:19:56Z</time>
      </trkpt>
      <trkpt lat="46.85141" lon="5.90663">
        <ele>629.4</ele>
        <time>2021-07-18T08:20:03Z</time>
      </trkpt>
      <trkpt lat="46.85136" lon="5.90665">
        <ele>630.5</ele>
        <time>2021-07-18T08:20:08Z</time>
      </trkpt>
      <trkpt lat="46.85132" lon="5.90662">
        <ele>632.6</ele>
        <time>2021-07-18T08:20:19Z</time>
      </trkpt>
      <trkpt lat="46.85127" lon="5.90659">
        <ele>632.8</ele>
        <time>2021-07-18T08:20:24Z</time>
      </trkpt>
      <trkpt lat="46.85122" lon="5.90658">
        <ele>633</ele>
        <time>2021-07-18T08:20:28Z</time>
      </trkpt>
      <trkpt lat="46.85117" lon="5.90658">
        <ele>633</ele>
        <time>2021-07-18T08:20:33Z</time>
      </trkpt>
      <trkpt lat="46.85113" lon="5.90662">
        <ele>635</ele>
        <time>2021-07-18T08:20:40Z</time>
      </trkpt>
      <trkpt lat="46.85116" lon="5.90667">
        <ele>639.5</ele>
        <time>2021-07-18T08:20:55Z</time>
      </trkpt>
      <trkpt lat="46.85114" lon="5.90672">
        <ele>639.1</ele>
        <time>2021-07-18T08:21:00Z</time>
      </trkpt>
      <trkpt lat="46.85109" lon="5.90674">
        <ele>636</ele>
        <time>2021-07-18T08:21:11Z</time>
      </trkpt>
      <trkpt lat="46.85104" lon="5.9067">
        <ele>634.7</ele>
        <time>2021-07-18T08:21:15Z</time>
      </trkpt>
      <trkpt lat="46.851" lon="5.90666">
        <ele>634.2</ele>
        <time>2021-07-18T08:21:19Z</time>
      </trkpt>
      <trkpt lat="46.85093" lon="5.90664">
        <ele>633.9</ele>
        <time>2021-07-18T08:21:22Z</time>
      </trkpt>
      <trkpt lat="46.85088" lon="5.90668">
        <ele>633</ele>
        <time>2021-07-18T08:21:27Z</time>
      </trkpt>
      <trkpt lat="46.85082" lon="5.90669">
        <ele>633.5</ele>
        <time>2021-07-18T08:21:32Z</time>
      </trkpt>
      <trkpt lat="46.85077" lon="5.90666">
        <ele>636.2</ele>
        <time>2021-07-18T08:21:50Z</time>
      </trkpt>
      <trkpt lat="46.85073" lon="5.90664">
        <ele>635.5</ele>
        <time>2021-07-18T08:21:55Z</time>
      </trkpt>
      <trkpt lat="46.85068" lon="5.9066">
        <ele>634.4</ele>
        <time>2021-07-18T08:21:59Z</time>
      </trkpt>
      <trkpt lat="46.85064" lon="5.90655">
        <ele>633.8</ele>
        <time>2021-07-18T08:22:02Z</time>
      </trkpt>
      <trkpt lat="46.85061" lon="5.9065">
        <ele>633.3</ele>
        <time>2021-07-18T08:22:07Z</time>
      </trkpt>
      <trkpt lat="46.85059" lon="5.90642">
        <ele>632.5</ele>
        <time>2021-07-18T08:22:12Z</time>
      </trkpt>
      <trkpt lat="46.85058" lon="5.90635">
        <ele>632.2</ele>
        <time>2021-07-18T08:22:16Z</time>
      </trkpt>
      <trkpt lat="46.85054" lon="5.9063">
        <ele>631.7</ele>
        <time>2021-07-18T08:22:24Z</time>
      </trkpt>
      <trkpt lat="46.85051" lon="5.90625">
        <ele>631.5</ele>
        <time>2021-07-18T08:22:28Z</time>
      </trkpt>
      <trkpt lat="46.85054" lon="5.90619">
        <ele>631.5</ele>
        <time>2021-07-18T08:22:34Z</time>
      </trkpt>
      <trkpt lat="46.85053" lon="5.90611">
        <ele>631.9</ele>
        <time>2021-07-18T08:22:38Z</time>
      </trkpt>
      <trkpt lat="46.85049" lon="5.90605">
        <ele>632.7</ele>
        <time>2021-07-18T08:22:41Z</time>
      </trkpt>
      <trkpt lat="46.8505" lon="5.90612">
        <ele>632.7</ele>
        <time>2021-07-18T08:22:59Z</time>
      </trkpt>
      <trkpt lat="46.85045" lon="5.9061">
        <ele>631</ele>
        <time>2021-07-18T08:23:03Z</time>
      </trkpt>
      <trkpt lat="46.8504" lon="5.90608">
        <ele>629.5</ele>
        <time>2021-07-18T08:23:07Z</time>
      </trkpt>
      <trkpt lat="46.85038" lon="5.90602">
        <ele>630.1</ele>
        <time>2021-07-18T08:23:19Z</time>
      </trkpt>
      <trkpt lat="46.85031" lon="5.90601">
        <ele>630.3</ele>
        <time>2021-07-18T08:23:22Z</time>
      </trkpt>
      <trkpt lat="46.85026" lon="5.906">
        <ele>629.9</ele>
        <time>2021-07-18T08:23:25Z</time>
      </trkpt>
      <trkpt lat="46.85022" lon="5.90598">
        <ele>631.6</ele>
        <time>2021-07-18T08:23:38Z</time>
      </trkpt>
      <trkpt lat="46.85017" lon="5.90601">
        <ele>633.8</ele>
        <time>2021-07-18T08:23:43Z</time>
      </trkpt>
      <trkpt lat="46.85012" lon="5.906">
        <ele>634.6</ele>
        <time>2021-07-18T08:23:46Z</time>
      </trkpt>
      <trkpt lat="46.85018" lon="5.90602">
        <ele>635</ele>
        <time>2021-07-18T08:23:57Z</time>
      </trkpt>
      <trkpt lat="46.85023" lon="5.90607">
        <ele>634.1</ele>
        <time>2021-07-18T08:24:00Z</time>
      </trkpt>
      <trkpt lat="46.85017" lon="5.90612">
        <ele>632.7</ele>
        <time>2021-07-18T08:24:05Z</time>
      </trkpt>
      <trkpt lat="46.85012" lon="5.90614">
        <ele>632</ele>
        <time>2021-07-18T08:24:09Z</time>
      </trkpt>
      <trkpt lat="46.85015" lon="5.90621">
        <ele>631.6</ele>
        <time>2021-07-18T08:24:27Z</time>
      </trkpt>
      <trkpt lat="46.85017" lon="5.90615">
        <ele>631.4</ele>
        <time>2021-07-18T08:24:35Z</time>
      </trkpt>
      <trkpt lat="46.85026" lon="5.90602">
        <ele>629.3</ele>
        <time>2021-07-18T08:25:32Z</time>
      </trkpt>
      <trkpt lat="46.84988" lon="5.90601">
        <ele>627.3</ele>
        <time>2021-07-18T08:26:03Z</time>
      </trkpt>
      <trkpt lat="46.8498" lon="5.90598">
        <ele>626.8</ele>
        <time>2021-07-18T08:26:06Z</time>
      </trkpt>
      <trkpt lat="46.84973" lon="5.90598">
        <ele>626.3</ele>
        <time>2021-07-18T08:26:09Z</time>
      </trkpt>
      <trkpt lat="46.84974" lon="5.90605">
        <ele>625.6</ele>
        <time>2021-07-18T08:26:23Z</time>
      </trkpt>
      <trkpt lat="46.8497" lon="5.90602">
        <ele>625.5</ele>
        <time>2021-07-18T08:26:29Z</time>
      </trkpt>
      <trkpt lat="46.84966" lon="5.90604">
        <ele>623.4</ele>
        <time>2021-07-18T08:26:38Z</time>
      </trkpt>
      <trkpt lat="46.84963" lon="5.90598">
        <ele>622.4</ele>
        <time>2021-07-18T08:26:47Z</time>
      </trkpt>
      <trkpt lat="46.84957" lon="5.90593">
        <ele>622.1</ele>
        <time>2021-07-18T08:26:50Z</time>
      </trkpt>
      <trkpt lat="46.84953" lon="5.9059">
        <ele>621.8</ele>
        <time>2021-07-18T08:26:53Z</time>
      </trkpt>
      <trkpt lat="46.84953" lon="5.90598">
        <ele>620.9</ele>
        <time>2021-07-18T08:27:01Z</time>
      </trkpt>
      <trkpt lat="46.84951" lon="5.90604">
        <ele>620.7</ele>
        <time>2021-07-18T08:27:07Z</time>
      </trkpt>
      <trkpt lat="46.84946" lon="5.90601">
        <ele>620.9</ele>
        <time>2021-07-18T08:27:17Z</time>
      </trkpt>
      <trkpt lat="46.84942" lon="5.90598">
        <ele>621</ele>
        <time>2021-07-18T08:27:21Z</time>
      </trkpt>
      <trkpt lat="46.84937" lon="5.90599">
        <ele>621</ele>
        <time>2021-07-18T08:27:24Z</time>
      </trkpt>
      <trkpt lat="46.84934" lon="5.90606">
        <ele>621.1</ele>
        <time>2021-07-18T08:27:28Z</time>
      </trkpt>
      <trkpt lat="46.84933" lon="5.90614">
        <ele>621.4</ele>
        <time>2021-07-18T08:27:31Z</time>
      </trkpt>
      <trkpt lat="46.84933" lon="5.90622">
        <ele>621.8</ele>
        <time>2021-07-18T08:27:34Z</time>
      </trkpt>
      <trkpt lat="46.84935" lon="5.9063">
        <ele>622.3</ele>
        <time>2021-07-18T08:27:38Z</time>
      </trkpt>
      <trkpt lat="46.8493" lon="5.90631">
        <ele>622.9</ele>
        <time>2021-07-18T08:27:43Z</time>
      </trkpt>
      <trkpt lat="46.84925" lon="5.90631">
        <ele>623.3</ele>
        <time>2021-07-18T08:27:47Z</time>
      </trkpt>
      <trkpt lat="46.8492" lon="5.9063">
        <ele>623.5</ele>
        <time>2021-07-18T08:27:51Z</time>
      </trkpt>
      <trkpt lat="46.84911" lon="5.90631">
        <ele>623.7</ele>
        <time>2021-07-18T08:27:54Z</time>
      </trkpt>
      <trkpt lat="46.84906" lon="5.90629">
        <ele>624</ele>
        <time>2021-07-18T08:27:58Z</time>
      </trkpt>
      <trkpt lat="46.84901" lon="5.90625">
        <ele>625.1</ele>
        <time>2021-07-18T08:28:06Z</time>
      </trkpt>
      <trkpt lat="46.84905" lon="5.90631">
        <ele>627.3</ele>
        <time>2021-07-18T08:28:30Z</time>
      </trkpt>
      <trkpt lat="46.84908" lon="5.90636">
        <ele>627.4</ele>
        <time>2021-07-18T08:28:33Z</time>
      </trkpt>
      <trkpt lat="46.84904" lon="5.9064">
        <ele>627.5</ele>
        <time>2021-07-18T08:28:38Z</time>
      </trkpt>
      <trkpt lat="46.84901" lon="5.90646">
        <ele>627.8</ele>
        <time>2021-07-18T08:28:46Z</time>
      </trkpt>
      <trkpt lat="46.84898" lon="5.90651">
        <ele>627.9</ele>
        <time>2021-07-18T08:28:50Z</time>
      </trkpt>
      <trkpt lat="46.84893" lon="5.90652">
        <ele>627.7</ele>
        <time>2021-07-18T08:28:58Z</time>
      </trkpt>
      <trkpt lat="46.8489" lon="5.90658">
        <ele>627.7</ele>
        <time>2021-07-18T08:29:03Z</time>
      </trkpt>
      <trkpt lat="46.84886" lon="5.90662">
        <ele>628</ele>
        <time>2021-07-18T08:29:06Z</time>
      </trkpt>
      <trkpt lat="46.84882" lon="5.90666">
        <ele>628.5</ele>
        <time>2021-07-18T08:29:10Z</time>
      </trkpt>
      <trkpt lat="46.84879" lon="5.90671">
        <ele>628.9</ele>
        <time>2021-07-18T08:29:13Z</time>
      </trkpt>
      <trkpt lat="46.84874" lon="5.90674">
        <ele>630.8</ele>
        <time>2021-07-18T08:29:21Z</time>
      </trkpt>
      <trkpt lat="46.8487" lon="5.90673">
        <ele>632</ele>
        <time>2021-07-18T08:29:26Z</time>
      </trkpt>
      <trkpt lat="46.84864" lon="5.90678">
        <ele>633.4</ele>
        <time>2021-07-18T08:29:34Z</time>
      </trkpt>
      <trkpt lat="46.84854" lon="5.90677">
        <ele>633.5</ele>
        <time>2021-07-18T08:29:37Z</time>
      </trkpt>
      <trkpt lat="46.84843" lon="5.90675">
        <ele>633</ele>
        <time>2021-07-18T08:29:40Z</time>
      </trkpt>
      <trkpt lat="46.84838" lon="5.90677">
        <ele>631.7</ele>
        <time>2021-07-18T08:29:52Z</time>
      </trkpt>
      <trkpt lat="46.84834" lon="5.90679">
        <ele>631.6</ele>
        <time>2021-07-18T08:29:57Z</time>
      </trkpt>
      <trkpt lat="46.84829" lon="5.90679">
        <ele>631.4</ele>
        <time>2021-07-18T08:30:01Z</time>
      </trkpt>
      <trkpt lat="46.84825" lon="5.90678">
        <ele>631.3</ele>
        <time>2021-07-18T08:30:05Z</time>
      </trkpt>
      <trkpt lat="46.8482" lon="5.90678">
        <ele>630.7</ele>
        <time>2021-07-18T08:30:12Z</time>
      </trkpt>
      <trkpt lat="46.84821" lon="5.90685">
        <ele>630</ele>
        <time>2021-07-18T08:30:18Z</time>
      </trkpt>
      <trkpt lat="46.84825" lon="5.90689">
        <ele>629.2</ele>
        <time>2021-07-18T08:30:23Z</time>
      </trkpt>
      <trkpt lat="46.84826" lon="5.90696">
        <ele>628.1</ele>
        <time>2021-07-18T08:30:37Z</time>
      </trkpt>
      <trkpt lat="46.84821" lon="5.90701">
        <ele>627.5</ele>
        <time>2021-07-18T08:30:41Z</time>
      </trkpt>
      <trkpt lat="46.84817" lon="5.90703">
        <ele>626.7</ele>
        <time>2021-07-18T08:30:46Z</time>
      </trkpt>
      <trkpt lat="46.84813" lon="5.90707">
        <ele>626.5</ele>
        <time>2021-07-18T08:30:54Z</time>
      </trkpt>
      <trkpt lat="46.84808" lon="5.90709">
        <ele>627</ele>
        <time>2021-07-18T08:31:00Z</time>
      </trkpt>
      <trkpt lat="46.84802" lon="5.90708">
        <ele>627.5</ele>
        <time>2021-07-18T08:31:03Z</time>
      </trkpt>
      <trkpt lat="46.84797" lon="5.90705">
        <ele>628.2</ele>
        <time>2021-07-18T08:31:09Z</time>
      </trkpt>
      <trkpt lat="46.84792" lon="5.90703">
        <ele>628.7</ele>
        <time>2021-07-18T08:31:12Z</time>
      </trkpt>
      <trkpt lat="46.84787" lon="5.90703">
        <ele>629.1</ele>
        <time>2021-07-18T08:31:15Z</time>
      </trkpt>
      <trkpt lat="46.84782" lon="5.90706">
        <ele>630.2</ele>
        <time>2021-07-18T08:31:22Z</time>
      </trkpt>
      <trkpt lat="46.84779" lon="5.90711">
        <ele>631.1</ele>
        <time>2021-07-18T08:31:30Z</time>
      </trkpt>
      <trkpt lat="46.84775" lon="5.90708">
        <ele>631.7</ele>
        <time>2021-07-18T08:31:36Z</time>
      </trkpt>
      <trkpt lat="46.84773" lon="5.90714">
        <ele>631.5</ele>
        <time>2021-07-18T08:31:42Z</time>
      </trkpt>
      <trkpt lat="46.84771" lon="5.90722">
        <ele>631.2</ele>
        <time>2021-07-18T08:31:46Z</time>
      </trkpt>
      <trkpt lat="46.84771" lon="5.90729">
        <ele>631</ele>
        <time>2021-07-18T08:31:50Z</time>
      </trkpt>
      <trkpt lat="46.84767" lon="5.90735">
        <ele>631.4</ele>
        <time>2021-07-18T08:31:58Z</time>
      </trkpt>
      <trkpt lat="46.84763" lon="5.90737">
        <ele>631.7</ele>
        <time>2021-07-18T08:32:01Z</time>
      </trkpt>
      <trkpt lat="46.84761" lon="5.90744">
        <ele>632.3</ele>
        <time>2021-07-18T08:32:10Z</time>
      </trkpt>
      <trkpt lat="46.84757" lon="5.90747">
        <ele>633.3</ele>
        <time>2021-07-18T08:32:21Z</time>
      </trkpt>
      <trkpt lat="46.84751" lon="5.90753">
        <ele>633.5</ele>
        <time>2021-07-18T08:32:24Z</time>
      </trkpt>
      <trkpt lat="46.84746" lon="5.90759">
        <ele>633.6</ele>
        <time>2021-07-18T08:32:27Z</time>
      </trkpt>
      <trkpt lat="46.84742" lon="5.90761">
        <ele>633.6</ele>
        <time>2021-07-18T08:32:30Z</time>
      </trkpt>
      <trkpt lat="46.84739" lon="5.90767">
        <ele>632.6</ele>
        <time>2021-07-18T08:32:38Z</time>
      </trkpt>
      <trkpt lat="46.84738" lon="5.90774">
        <ele>632.7</ele>
        <time>2021-07-18T08:32:44Z</time>
      </trkpt>
      <trkpt lat="46.84736" lon="5.9078">
        <ele>633.2</ele>
        <time>2021-07-18T08:32:50Z</time>
      </trkpt>
      <trkpt lat="46.84732" lon="5.90777">
        <ele>633.6</ele>
        <time>2021-07-18T08:32:59Z</time>
      </trkpt>
      <trkpt lat="46.84726" lon="5.90775">
        <ele>633.5</ele>
        <time>2021-07-18T08:33:02Z</time>
      </trkpt>
      <trkpt lat="46.84721" lon="5.90774">
        <ele>633.4</ele>
        <time>2021-07-18T08:33:05Z</time>
      </trkpt>
      <trkpt lat="46.84716" lon="5.90773">
        <ele>633.2</ele>
        <time>2021-07-18T08:33:12Z</time>
      </trkpt>
      <trkpt lat="46.84711" lon="5.90769">
        <ele>633.2</ele>
        <time>2021-07-18T08:33:16Z</time>
      </trkpt>
      <trkpt lat="46.84706" lon="5.90769">
        <ele>633.6</ele>
        <time>2021-07-18T08:33:21Z</time>
      </trkpt>
      <trkpt lat="46.84701" lon="5.9077">
        <ele>633.6</ele>
        <time>2021-07-18T08:33:26Z</time>
      </trkpt>
      <trkpt lat="46.84696" lon="5.90771">
        <ele>634.3</ele>
        <time>2021-07-18T08:33:31Z</time>
      </trkpt>
      <trkpt lat="46.84692" lon="5.9077">
        <ele>635.1</ele>
        <time>2021-07-18T08:33:36Z</time>
      </trkpt>
      <trkpt lat="46.84694" lon="5.90776">
        <ele>634.2</ele>
        <time>2021-07-18T08:33:53Z</time>
      </trkpt>
      <trkpt lat="46.8469" lon="5.90779">
        <ele>633.8</ele>
        <time>2021-07-18T08:33:58Z</time>
      </trkpt>
      <trkpt lat="46.84684" lon="5.90781">
        <ele>633.5</ele>
        <time>2021-07-18T08:34:03Z</time>
      </trkpt>
      <trkpt lat="46.84678" lon="5.90782">
        <ele>633.4</ele>
        <time>2021-07-18T08:34:06Z</time>
      </trkpt>
      <trkpt lat="46.8467" lon="5.90782">
        <ele>633.5</ele>
        <time>2021-07-18T08:34:09Z</time>
      </trkpt>
      <trkpt lat="46.84665" lon="5.90782">
        <ele>633.3</ele>
        <time>2021-07-18T08:34:12Z</time>
      </trkpt>
      <trkpt lat="46.8466" lon="5.9078">
        <ele>633.3</ele>
        <time>2021-07-18T08:34:16Z</time>
      </trkpt>
      <trkpt lat="46.84655" lon="5.9078">
        <ele>633.8</ele>
        <time>2021-07-18T08:34:21Z</time>
      </trkpt>
      <trkpt lat="46.84649" lon="5.90778">
        <ele>635.4</ele>
        <time>2021-07-18T08:34:32Z</time>
      </trkpt>
      <trkpt lat="46.84645" lon="5.90775">
        <ele>636</ele>
        <time>2021-07-18T08:34:35Z</time>
      </trkpt>
      <trkpt lat="46.8464" lon="5.90774">
        <ele>636.4</ele>
        <time>2021-07-18T08:34:38Z</time>
      </trkpt>
      <trkpt lat="46.84635" lon="5.90773">
        <ele>636.9</ele>
        <time>2021-07-18T08:34:41Z</time>
      </trkpt>
      <trkpt lat="46.84628" lon="5.90771">
        <ele>637.2</ele>
        <time>2021-07-18T08:34:44Z</time>
      </trkpt>
      <trkpt lat="46.84623" lon="5.90763">
        <ele>637.5</ele>
        <time>2021-07-18T08:34:47Z</time>
      </trkpt>
      <trkpt lat="46.84619" lon="5.90755">
        <ele>637.7</ele>
        <time>2021-07-18T08:34:50Z</time>
      </trkpt>
      <trkpt lat="46.84615" lon="5.90751">
        <ele>637.4</ele>
        <time>2021-07-18T08:35:09Z</time>
      </trkpt>
      <trkpt lat="46.8461" lon="5.90751">
        <ele>637.6</ele>
        <time>2021-07-18T08:35:13Z</time>
      </trkpt>
      <trkpt lat="46.84607" lon="5.90757">
        <ele>637.8</ele>
        <time>2021-07-18T08:35:19Z</time>
      </trkpt>
      <trkpt lat="46.84607" lon="5.90765">
        <ele>637.8</ele>
        <time>2021-07-18T08:35:25Z</time>
      </trkpt>
      <trkpt lat="46.84605" lon="5.90771">
        <ele>637.8</ele>
        <time>2021-07-18T08:35:34Z</time>
      </trkpt>
      <trkpt lat="46.846" lon="5.90771">
        <ele>636.9</ele>
        <time>2021-07-18T08:35:39Z</time>
      </trkpt>
      <trkpt lat="46.84595" lon="5.90768">
        <ele>635.5</ele>
        <time>2021-07-18T08:35:44Z</time>
      </trkpt>
      <trkpt lat="46.84591" lon="5.90766">
        <ele>634.7</ele>
        <time>2021-07-18T08:35:50Z</time>
      </trkpt>
      <trkpt lat="46.84587" lon="5.90769">
        <ele>634.6</ele>
        <time>2021-07-18T08:35:59Z</time>
      </trkpt>
      <trkpt lat="46.84582" lon="5.90764">
        <ele>635.5</ele>
        <time>2021-07-18T08:36:05Z</time>
      </trkpt>
      <trkpt lat="46.84579" lon="5.90759">
        <ele>636.3</ele>
        <time>2021-07-18T08:36:09Z</time>
      </trkpt>
      <trkpt lat="46.84574" lon="5.90757">
        <ele>637.5</ele>
        <time>2021-07-18T08:36:15Z</time>
      </trkpt>
      <trkpt lat="46.8457" lon="5.9076">
        <ele>639.6</ele>
        <time>2021-07-18T08:36:22Z</time>
      </trkpt>
      <trkpt lat="46.84566" lon="5.90761">
        <ele>641</ele>
        <time>2021-07-18T08:36:27Z</time>
      </trkpt>
      <trkpt lat="46.8456" lon="5.90763">
        <ele>641.9</ele>
        <time>2021-07-18T08:36:32Z</time>
      </trkpt>
      <trkpt lat="46.84555" lon="5.90761">
        <ele>642.3</ele>
        <time>2021-07-18T08:36:35Z</time>
      </trkpt>
      <trkpt lat="46.8455" lon="5.90756">
        <ele>642.5</ele>
        <time>2021-07-18T08:36:38Z</time>
      </trkpt>
      <trkpt lat="46.84544" lon="5.9075">
        <ele>642.4</ele>
        <time>2021-07-18T08:36:41Z</time>
      </trkpt>
      <trkpt lat="46.8454" lon="5.90748">
        <ele>642</ele>
        <time>2021-07-18T08:36:44Z</time>
      </trkpt>
      <trkpt lat="46.84535" lon="5.90748">
        <ele>640.7</ele>
        <time>2021-07-18T08:36:52Z</time>
      </trkpt>
      <trkpt lat="46.84531" lon="5.90747">
        <ele>639.9</ele>
        <time>2021-07-18T08:36:58Z</time>
      </trkpt>
      <trkpt lat="46.84526" lon="5.90745">
        <ele>639.4</ele>
        <time>2021-07-18T08:37:02Z</time>
      </trkpt>
      <trkpt lat="46.84522" lon="5.90741">
        <ele>638.9</ele>
        <time>2021-07-18T08:37:06Z</time>
      </trkpt>
      <trkpt lat="46.84516" lon="5.90737">
        <ele>638.8</ele>
        <time>2021-07-18T08:37:09Z</time>
      </trkpt>
      <trkpt lat="46.84511" lon="5.90734">
        <ele>638.7</ele>
        <time>2021-07-18T08:37:12Z</time>
      </trkpt>
      <trkpt lat="46.84507" lon="5.90731">
        <ele>638.6</ele>
        <time>2021-07-18T08:37:17Z</time>
      </trkpt>
      <trkpt lat="46.84503" lon="5.90736">
        <ele>639.9</ele>
        <time>2021-07-18T08:37:34Z</time>
      </trkpt>
      <trkpt lat="46.84499" lon="5.90733">
        <ele>640</ele>
        <time>2021-07-18T08:37:38Z</time>
      </trkpt>
      <trkpt lat="46.84494" lon="5.90729">
        <ele>639.6</ele>
        <time>2021-07-18T08:37:43Z</time>
      </trkpt>
      <trkpt lat="46.84489" lon="5.90731">
        <ele>639</ele>
        <time>2021-07-18T08:37:47Z</time>
      </trkpt>
      <trkpt lat="46.84485" lon="5.90734">
        <ele>638.9</ele>
        <time>2021-07-18T08:37:50Z</time>
      </trkpt>
      <trkpt lat="46.84483" lon="5.9074">
        <ele>638.8</ele>
        <time>2021-07-18T08:37:57Z</time>
      </trkpt>
      <trkpt lat="46.84485" lon="5.90747">
        <ele>638.5</ele>
        <time>2021-07-18T08:38:03Z</time>
      </trkpt>
      <trkpt lat="46.8449" lon="5.90751">
        <ele>637.5</ele>
        <time>2021-07-18T08:38:07Z</time>
      </trkpt>
      <trkpt lat="46.84491" lon="5.90758">
        <ele>634.6</ele>
        <time>2021-07-18T08:38:17Z</time>
      </trkpt>
      <trkpt lat="46.84487" lon="5.90762">
        <ele>633.9</ele>
        <time>2021-07-18T08:38:26Z</time>
      </trkpt>
      <trkpt lat="46.84481" lon="5.90761">
        <ele>634.2</ele>
        <time>2021-07-18T08:38:32Z</time>
      </trkpt>
      <trkpt lat="46.84476" lon="5.90758">
        <ele>634.5</ele>
        <time>2021-07-18T08:38:35Z</time>
      </trkpt>
      <trkpt lat="46.84471" lon="5.90756">
        <ele>635.1</ele>
        <time>2021-07-18T08:38:39Z</time>
      </trkpt>
      <trkpt lat="46.84465" lon="5.90755">
        <ele>635.3</ele>
        <time>2021-07-18T08:38:42Z</time>
      </trkpt>
      <trkpt lat="46.84457" lon="5.90751">
        <ele>635.5</ele>
        <time>2021-07-18T08:38:45Z</time>
      </trkpt>
      <trkpt lat="46.84449" lon="5.90752">
        <ele>636.4</ele>
        <time>2021-07-18T08:38:48Z</time>
      </trkpt>
      <trkpt lat="46.84446" lon="5.9076">
        <ele>638.1</ele>
        <time>2021-07-18T08:38:51Z</time>
      </trkpt>
      <trkpt lat="46.84445" lon="5.90771">
        <ele>639.8</ele>
        <time>2021-07-18T08:38:54Z</time>
      </trkpt>
      <trkpt lat="46.84444" lon="5.9078">
        <ele>640.8</ele>
        <time>2021-07-18T08:38:57Z</time>
      </trkpt>
      <trkpt lat="46.84446" lon="5.90787">
        <ele>641.3</ele>
        <time>2021-07-18T08:39:00Z</time>
      </trkpt>
      <trkpt lat="46.84447" lon="5.90794">
        <ele>641.6</ele>
        <time>2021-07-18T08:39:03Z</time>
      </trkpt>
      <trkpt lat="46.84442" lon="5.90792">
        <ele>644.2</ele>
        <time>2021-07-18T08:39:09Z</time>
      </trkpt>
      <trkpt lat="46.84437" lon="5.9079">
        <ele>645.3</ele>
        <time>2021-07-18T08:39:13Z</time>
      </trkpt>
      <trkpt lat="46.84431" lon="5.90788">
        <ele>646.4</ele>
        <time>2021-07-18T08:39:16Z</time>
      </trkpt>
      <trkpt lat="46.84427" lon="5.90787">
        <ele>647.9</ele>
        <time>2021-07-18T08:39:21Z</time>
      </trkpt>
      <trkpt lat="46.84422" lon="5.9079">
        <ele>649.1</ele>
        <time>2021-07-18T08:39:27Z</time>
      </trkpt>
      <trkpt lat="46.84417" lon="5.90791">
        <ele>649.9</ele>
        <time>2021-07-18T08:39:31Z</time>
      </trkpt>
      <trkpt lat="46.84412" lon="5.90794">
        <ele>650.4</ele>
        <time>2021-07-18T08:39:37Z</time>
      </trkpt>
      <trkpt lat="46.84408" lon="5.90798">
        <ele>649.7</ele>
        <time>2021-07-18T08:39:42Z</time>
      </trkpt>
      <trkpt lat="46.84403" lon="5.90802">
        <ele>650.3</ele>
        <time>2021-07-18T08:39:48Z</time>
      </trkpt>
      <trkpt lat="46.84399" lon="5.90805">
        <ele>649.7</ele>
        <time>2021-07-18T08:39:53Z</time>
      </trkpt>
      <trkpt lat="46.84394" lon="5.90808">
        <ele>646.3</ele>
        <time>2021-07-18T08:40:00Z</time>
      </trkpt>
      <trkpt lat="46.84393" lon="5.90815">
        <ele>645.1</ele>
        <time>2021-07-18T08:40:04Z</time>
      </trkpt>
      <trkpt lat="46.84394" lon="5.90821">
        <ele>642.8</ele>
        <time>2021-07-18T08:40:11Z</time>
      </trkpt>
      <trkpt lat="46.8439" lon="5.90822">
        <ele>640.4</ele>
        <time>2021-07-18T08:40:21Z</time>
      </trkpt>
      <trkpt lat="46.84385" lon="5.90822">
        <ele>640.4</ele>
        <time>2021-07-18T08:40:25Z</time>
      </trkpt>
      <trkpt lat="46.8438" lon="5.90823">
        <ele>640.4</ele>
        <time>2021-07-18T08:40:29Z</time>
      </trkpt>
      <trkpt lat="46.84376" lon="5.90828">
        <ele>641</ele>
        <time>2021-07-18T08:40:35Z</time>
      </trkpt>
      <trkpt lat="46.84374" lon="5.90822">
        <ele>642.5</ele>
        <time>2021-07-18T08:40:45Z</time>
      </trkpt>
      <trkpt lat="46.84369" lon="5.90816">
        <ele>643.6</ele>
        <time>2021-07-18T08:40:48Z</time>
      </trkpt>
      <trkpt lat="46.84366" lon="5.90813">
        <ele>644.5</ele>
        <time>2021-07-18T08:40:51Z</time>
      </trkpt>
      <trkpt lat="46.84362" lon="5.90815">
        <ele>646.5</ele>
        <time>2021-07-18T08:40:58Z</time>
      </trkpt>
      <trkpt lat="46.84357" lon="5.90817">
        <ele>647</ele>
        <time>2021-07-18T08:41:10Z</time>
      </trkpt>
      <trkpt lat="46.8436" lon="5.90822">
        <ele>646.6</ele>
        <time>2021-07-18T08:41:15Z</time>
      </trkpt>
      <trkpt lat="46.8436" lon="5.90829">
        <ele>645.2</ele>
        <time>2021-07-18T08:41:19Z</time>
      </trkpt>
      <trkpt lat="46.84365" lon="5.90826">
        <ele>644</ele>
        <time>2021-07-18T08:41:24Z</time>
      </trkpt>
      <trkpt lat="46.8437" lon="5.90826">
        <ele>643.3</ele>
        <time>2021-07-18T08:41:29Z</time>
      </trkpt>
      <trkpt lat="46.84374" lon="5.90824">
        <ele>642.8</ele>
        <time>2021-07-18T08:41:34Z</time>
      </trkpt>
      <trkpt lat="46.84379" lon="5.90822">
        <ele>641.6</ele>
        <time>2021-07-18T08:41:43Z</time>
      </trkpt>
      <trkpt lat="46.84383" lon="5.90818">
        <ele>640.7</ele>
        <time>2021-07-18T08:41:51Z</time>
      </trkpt>
      <trkpt lat="46.8438" lon="5.9081">
        <ele>640.6</ele>
        <time>2021-07-18T08:41:54Z</time>
      </trkpt>
      <trkpt lat="46.84377" lon="5.90802">
        <ele>640.3</ele>
        <time>2021-07-18T08:41:57Z</time>
      </trkpt>
      <trkpt lat="46.84372" lon="5.90802">
        <ele>638.9</ele>
        <time>2021-07-18T08:42:08Z</time>
      </trkpt>
      <trkpt lat="46.84368" lon="5.90809">
        <ele>637.5</ele>
        <time>2021-07-18T08:42:23Z</time>
      </trkpt>
      <trkpt lat="46.84364" lon="5.90812">
        <ele>636.8</ele>
        <time>2021-07-18T08:42:29Z</time>
      </trkpt>
      <trkpt lat="46.84357" lon="5.90809">
        <ele>636.9</ele>
        <time>2021-07-18T08:42:32Z</time>
      </trkpt>
      <trkpt lat="46.84352" lon="5.90803">
        <ele>637.2</ele>
        <time>2021-07-18T08:42:36Z</time>
      </trkpt>
      <trkpt lat="46.84348" lon="5.90798">
        <ele>637.4</ele>
        <time>2021-07-18T08:42:39Z</time>
      </trkpt>
      <trkpt lat="46.84344" lon="5.90794">
        <ele>637.9</ele>
        <time>2021-07-18T08:42:42Z</time>
      </trkpt>
      <trkpt lat="46.84338" lon="5.90792">
        <ele>638.7</ele>
        <time>2021-07-18T08:42:45Z</time>
      </trkpt>
      <trkpt lat="46.84332" lon="5.90789">
        <ele>639.7</ele>
        <time>2021-07-18T08:42:48Z</time>
      </trkpt>
      <trkpt lat="46.8433" lon="5.90783">
        <ele>640.6</ele>
        <time>2021-07-18T08:42:56Z</time>
      </trkpt>
      <trkpt lat="46.84326" lon="5.9078">
        <ele>641.2</ele>
        <time>2021-07-18T08:43:01Z</time>
      </trkpt>
      <trkpt lat="46.84321" lon="5.90783">
        <ele>640.7</ele>
        <time>2021-07-18T08:43:07Z</time>
      </trkpt>
      <trkpt lat="46.84317" lon="5.90784">
        <ele>639.5</ele>
        <time>2021-07-18T08:43:14Z</time>
      </trkpt>
      <trkpt lat="46.84311" lon="5.90784">
        <ele>639.1</ele>
        <time>2021-07-18T08:43:22Z</time>
      </trkpt>
      <trkpt lat="46.84306" lon="5.9078">
        <ele>638.8</ele>
        <time>2021-07-18T08:43:25Z</time>
      </trkpt>
      <trkpt lat="46.84302" lon="5.90774">
        <ele>638.5</ele>
        <time>2021-07-18T08:43:29Z</time>
      </trkpt>
      <trkpt lat="46.84297" lon="5.90769">
        <ele>638.1</ele>
        <time>2021-07-18T08:43:34Z</time>
      </trkpt>
      <trkpt lat="46.84294" lon="5.90763">
        <ele>637.3</ele>
        <time>2021-07-18T08:43:39Z</time>
      </trkpt>
      <trkpt lat="46.84292" lon="5.90756">
        <ele>636.8</ele>
        <time>2021-07-18T08:43:45Z</time>
      </trkpt>
      <trkpt lat="46.84287" lon="5.90752">
        <ele>636.6</ele>
        <time>2021-07-18T08:43:50Z</time>
      </trkpt>
      <trkpt lat="46.84283" lon="5.90748">
        <ele>636.4</ele>
        <time>2021-07-18T08:43:53Z</time>
      </trkpt>
      <trkpt lat="46.8428" lon="5.90742">
        <ele>636.1</ele>
        <time>2021-07-18T08:43:58Z</time>
      </trkpt>
      <trkpt lat="46.84276" lon="5.90739">
        <ele>636.6</ele>
        <time>2021-07-18T08:44:05Z</time>
      </trkpt>
      <trkpt lat="46.84271" lon="5.90738">
        <ele>637.8</ele>
        <time>2021-07-18T08:44:14Z</time>
      </trkpt>
      <trkpt lat="46.84269" lon="5.90732">
        <ele>638.1</ele>
        <time>2021-07-18T08:44:18Z</time>
      </trkpt>
      <trkpt lat="46.84265" lon="5.90725">
        <ele>638.1</ele>
        <time>2021-07-18T08:44:22Z</time>
      </trkpt>
      <trkpt lat="46.84261" lon="5.9072">
        <ele>638</ele>
        <time>2021-07-18T08:44:26Z</time>
      </trkpt>
      <trkpt lat="46.84258" lon="5.90713">
        <ele>637.7</ele>
        <time>2021-07-18T08:44:31Z</time>
      </trkpt>
      <trkpt lat="46.84259" lon="5.90706">
        <ele>637.3</ele>
        <time>2021-07-18T08:44:36Z</time>
      </trkpt>
      <trkpt lat="46.8426" lon="5.90699">
        <ele>637.1</ele>
        <time>2021-07-18T08:44:40Z</time>
      </trkpt>
      <trkpt lat="46.84261" lon="5.90692">
        <ele>636.9</ele>
        <time>2021-07-18T08:44:44Z</time>
      </trkpt>
      <trkpt lat="46.84261" lon="5.90685">
        <ele>636.8</ele>
        <time>2021-07-18T08:44:48Z</time>
      </trkpt>
      <trkpt lat="46.8426" lon="5.90678">
        <ele>636.4</ele>
        <time>2021-07-18T08:44:56Z</time>
      </trkpt>
      <trkpt lat="46.84259" lon="5.90665">
        <ele>636.2</ele>
        <time>2021-07-18T08:45:08Z</time>
      </trkpt>
      <trkpt lat="46.84259" lon="5.90656">
        <ele>636.3</ele>
        <time>2021-07-18T08:45:11Z</time>
      </trkpt>
      <trkpt lat="46.8426" lon="5.90648">
        <ele>636.3</ele>
        <time>2021-07-18T08:45:14Z</time>
      </trkpt>
      <trkpt lat="46.8426" lon="5.90642">
        <ele>636.4</ele>
        <time>2021-07-18T08:45:21Z</time>
      </trkpt>
      <trkpt lat="46.84259" lon="5.90634">
        <ele>636.2</ele>
        <time>2021-07-18T08:45:26Z</time>
      </trkpt>
      <trkpt lat="46.84259" lon="5.90627">
        <ele>635.9</ele>
        <time>2021-07-18T08:45:31Z</time>
      </trkpt>
      <trkpt lat="46.84255" lon="5.90623">
        <ele>634.8</ele>
        <time>2021-07-18T08:45:38Z</time>
      </trkpt>
      <trkpt lat="46.84251" lon="5.90619">
        <ele>633.8</ele>
        <time>2021-07-18T08:45:43Z</time>
      </trkpt>
      <trkpt lat="46.84246" lon="5.90616">
        <ele>633.5</ele>
        <time>2021-07-18T08:45:50Z</time>
      </trkpt>
      <trkpt lat="46.84241" lon="5.90613">
        <ele>633.3</ele>
        <time>2021-07-18T08:45:53Z</time>
      </trkpt>
      <trkpt lat="46.84239" lon="5.90604">
        <ele>632.7</ele>
        <time>2021-07-18T08:45:57Z</time>
      </trkpt>
      <trkpt lat="46.84238" lon="5.90595">
        <ele>632</ele>
        <time>2021-07-18T08:46:01Z</time>
      </trkpt>
      <trkpt lat="46.84234" lon="5.90586">
        <ele>631.7</ele>
        <time>2021-07-18T08:46:04Z</time>
      </trkpt>
      <trkpt lat="46.8423" lon="5.90581">
        <ele>631.5</ele>
        <time>2021-07-18T08:46:07Z</time>
      </trkpt>
      <trkpt lat="46.84225" lon="5.90579">
        <ele>631</ele>
        <time>2021-07-18T08:46:13Z</time>
      </trkpt>
      <trkpt lat="46.84221" lon="5.90574">
        <ele>630.3</ele>
        <time>2021-07-18T08:46:28Z</time>
      </trkpt>
      <trkpt lat="46.84219" lon="5.90568">
        <ele>629.5</ele>
        <time>2021-07-18T08:46:38Z</time>
      </trkpt>
      <trkpt lat="46.84214" lon="5.90566">
        <ele>628.6</ele>
        <time>2021-07-18T08:46:44Z</time>
      </trkpt>
      <trkpt lat="46.84214" lon="5.90558">
        <ele>627.3</ele>
        <time>2021-07-18T08:46:53Z</time>
      </trkpt>
      <trkpt lat="46.84214" lon="5.90551">
        <ele>626.7</ele>
        <time>2021-07-18T08:46:58Z</time>
      </trkpt>
      <trkpt lat="46.84218" lon="5.90536">
        <ele>624.7</ele>
        <time>2021-07-18T08:47:08Z</time>
      </trkpt>
      <trkpt lat="46.84218" lon="5.90528">
        <ele>624.4</ele>
        <time>2021-07-18T08:47:12Z</time>
      </trkpt>
      <trkpt lat="46.84217" lon="5.9052">
        <ele>624.1</ele>
        <time>2021-07-18T08:47:17Z</time>
      </trkpt>
      <trkpt lat="46.84216" lon="5.90513">
        <ele>623.6</ele>
        <time>2021-07-18T08:47:22Z</time>
      </trkpt>
      <trkpt lat="46.84216" lon="5.90507">
        <ele>623</ele>
        <time>2021-07-18T08:47:28Z</time>
      </trkpt>
      <trkpt lat="46.8422" lon="5.90504">
        <ele>623</ele>
        <time>2021-07-18T08:47:37Z</time>
      </trkpt>
      <trkpt lat="46.84221" lon="5.90497">
        <ele>623.2</ele>
        <time>2021-07-18T08:47:43Z</time>
      </trkpt>
      <trkpt lat="46.84217" lon="5.90492">
        <ele>623.6</ele>
        <time>2021-07-18T08:47:49Z</time>
      </trkpt>
      <trkpt lat="46.84216" lon="5.90483">
        <ele>623.6</ele>
        <time>2021-07-18T08:47:53Z</time>
      </trkpt>
      <trkpt lat="46.84214" lon="5.90475">
        <ele>623.6</ele>
        <time>2021-07-18T08:47:56Z</time>
      </trkpt>
      <trkpt lat="46.84211" lon="5.90468">
        <ele>623.7</ele>
        <time>2021-07-18T08:48:00Z</time>
      </trkpt>
      <trkpt lat="46.84208" lon="5.90462">
        <ele>623.8</ele>
        <time>2021-07-18T08:48:04Z</time>
      </trkpt>
      <trkpt lat="46.84208" lon="5.90455">
        <ele>624.1</ele>
        <time>2021-07-18T08:48:08Z</time>
      </trkpt>
      <trkpt lat="46.84207" lon="5.90447">
        <ele>623.9</ele>
        <time>2021-07-18T08:48:23Z</time>
      </trkpt>
      <trkpt lat="46.84207" lon="5.90441">
        <ele>622</ele>
        <time>2021-07-18T08:48:27Z</time>
      </trkpt>
      <trkpt lat="46.84204" lon="5.90434">
        <ele>620.7</ele>
        <time>2021-07-18T08:48:31Z</time>
      </trkpt>
      <trkpt lat="46.842" lon="5.90431">
        <ele>619.5</ele>
        <time>2021-07-18T08:48:34Z</time>
      </trkpt>
      <trkpt lat="46.84197" lon="5.90423">
        <ele>617.7</ele>
        <time>2021-07-18T08:48:40Z</time>
      </trkpt>
      <trkpt lat="46.84191" lon="5.9042">
        <ele>617</ele>
        <time>2021-07-18T08:48:45Z</time>
      </trkpt>
      <trkpt lat="46.84186" lon="5.9042">
        <ele>616.2</ele>
        <time>2021-07-18T08:48:49Z</time>
      </trkpt>
      <trkpt lat="46.84181" lon="5.90418">
        <ele>615.6</ele>
        <time>2021-07-18T08:48:52Z</time>
      </trkpt>
      <trkpt lat="46.84176" lon="5.90412">
        <ele>615.2</ele>
        <time>2021-07-18T08:48:55Z</time>
      </trkpt>
      <trkpt lat="46.84171" lon="5.90408">
        <ele>614.8</ele>
        <time>2021-07-18T08:48:58Z</time>
      </trkpt>
      <trkpt lat="46.84169" lon="5.90402">
        <ele>614.2</ele>
        <time>2021-07-18T08:49:04Z</time>
      </trkpt>
      <trkpt lat="46.84165" lon="5.90397">
        <ele>613.8</ele>
        <time>2021-07-18T08:49:07Z</time>
      </trkpt>
      <trkpt lat="46.84162" lon="5.90392">
        <ele>613.4</ele>
        <time>2021-07-18T08:49:10Z</time>
      </trkpt>
      <trkpt lat="46.8416" lon="5.90386">
        <ele>612.8</ele>
        <time>2021-07-18T08:49:15Z</time>
      </trkpt>
      <trkpt lat="46.84165" lon="5.90386">
        <ele>612.5</ele>
        <time>2021-07-18T08:49:20Z</time>
      </trkpt>
      <trkpt lat="46.84172" lon="5.90385">
        <ele>610.8</ele>
        <time>2021-07-18T08:49:38Z</time>
      </trkpt>
      <trkpt lat="46.84168" lon="5.90381">
        <ele>610.7</ele>
        <time>2021-07-18T08:49:49Z</time>
      </trkpt>
      <trkpt lat="46.84166" lon="5.90375">
        <ele>608</ele>
        <time>2021-07-18T08:50:01Z</time>
      </trkpt>
      <trkpt lat="46.8416" lon="5.90378">
        <ele>607.4</ele>
        <time>2021-07-18T08:50:05Z</time>
      </trkpt>
      <trkpt lat="46.84155" lon="5.9038">
        <ele>607</ele>
        <time>2021-07-18T08:50:08Z</time>
      </trkpt>
      <trkpt lat="46.84136" lon="5.90382">
        <ele>604</ele>
        <time>2021-07-18T08:50:25Z</time>
      </trkpt>
      <trkpt lat="46.84144" lon="5.90388">
        <ele>603.4</ele>
        <time>2021-07-18T08:50:28Z</time>
      </trkpt>
      <trkpt lat="46.8414" lon="5.90393">
        <ele>604.3</ele>
        <time>2021-07-18T08:50:33Z</time>
      </trkpt>
      <trkpt lat="46.84124" lon="5.90398">
        <ele>605.5</ele>
        <time>2021-07-18T08:50:36Z</time>
      </trkpt>
      <trkpt lat="46.84117" lon="5.90401">
        <ele>607</ele>
        <time>2021-07-18T08:50:39Z</time>
      </trkpt>
      <trkpt lat="46.84112" lon="5.904">
        <ele>610.2</ele>
        <time>2021-07-18T08:50:45Z</time>
      </trkpt>
      <trkpt lat="46.84115" lon="5.90392">
        <ele>612.7</ele>
        <time>2021-07-18T08:50:49Z</time>
      </trkpt>
      <trkpt lat="46.84121" lon="5.90379">
        <ele>614.7</ele>
        <time>2021-07-18T08:50:52Z</time>
      </trkpt>
      <trkpt lat="46.84124" lon="5.9037">
        <ele>616.3</ele>
        <time>2021-07-18T08:50:55Z</time>
      </trkpt>
      <trkpt lat="46.84124" lon="5.90362">
        <ele>619.5</ele>
        <time>2021-07-18T08:51:00Z</time>
      </trkpt>
      <trkpt lat="46.84126" lon="5.90355">
        <ele>620.7</ele>
        <time>2021-07-18T08:51:04Z</time>
      </trkpt>
      <trkpt lat="46.84128" lon="5.90348">
        <ele>620.8</ele>
        <time>2021-07-18T08:51:07Z</time>
      </trkpt>
      <trkpt lat="46.8413" lon="5.90343">
        <ele>620.3</ele>
        <time>2021-07-18T08:51:10Z</time>
      </trkpt>
      <trkpt lat="46.84125" lon="5.90344">
        <ele>616.6</ele>
        <time>2021-07-18T08:51:19Z</time>
      </trkpt>
      <trkpt lat="46.8412" lon="5.90345">
        <ele>615.1</ele>
        <time>2021-07-18T08:51:29Z</time>
      </trkpt>
      <trkpt lat="46.84114" lon="5.90343">
        <ele>615.3</ele>
        <time>2021-07-18T08:51:33Z</time>
      </trkpt>
      <trkpt lat="46.8411" lon="5.9034">
        <ele>615.6</ele>
        <time>2021-07-18T08:51:36Z</time>
      </trkpt>
      <trkpt lat="46.84105" lon="5.90335">
        <ele>616.1</ele>
        <time>2021-07-18T08:51:40Z</time>
      </trkpt>
      <trkpt lat="46.84097" lon="5.90328">
        <ele>617.6</ele>
        <time>2021-07-18T08:51:43Z</time>
      </trkpt>
      <trkpt lat="46.84093" lon="5.90325">
        <ele>619</ele>
        <time>2021-07-18T08:51:46Z</time>
      </trkpt>
      <trkpt lat="46.84088" lon="5.90325">
        <ele>620</ele>
        <time>2021-07-18T08:51:49Z</time>
      </trkpt>
      <trkpt lat="46.84084" lon="5.9032">
        <ele>621.2</ele>
        <time>2021-07-18T08:51:55Z</time>
      </trkpt>
      <trkpt lat="46.84081" lon="5.90315">
        <ele>621.3</ele>
        <time>2021-07-18T08:51:58Z</time>
      </trkpt>
      <trkpt lat="46.84078" lon="5.90319">
        <ele>620.5</ele>
        <time>2021-07-18T08:52:13Z</time>
      </trkpt>
      <trkpt lat="46.84081" lon="5.90313">
        <ele>620.2</ele>
        <time>2021-07-18T08:52:25Z</time>
      </trkpt>
      <trkpt lat="46.84085" lon="5.9031">
        <ele>620.1</ele>
        <time>2021-07-18T08:52:32Z</time>
      </trkpt>
      <trkpt lat="46.8409" lon="5.90311">
        <ele>620.2</ele>
        <time>2021-07-18T08:52:39Z</time>
      </trkpt>
      <trkpt lat="46.84088" lon="5.90305">
        <ele>618.2</ele>
        <time>2021-07-18T08:52:58Z</time>
      </trkpt>
      <trkpt lat="46.84082" lon="5.90303">
        <ele>617.1</ele>
        <time>2021-07-18T08:53:05Z</time>
      </trkpt>
      <trkpt lat="46.84078" lon="5.90301">
        <ele>616.7</ele>
        <time>2021-07-18T08:53:08Z</time>
      </trkpt>
      <trkpt lat="46.84077" lon="5.90295">
        <ele>615.9</ele>
        <time>2021-07-18T08:53:13Z</time>
      </trkpt>
      <trkpt lat="46.84077" lon="5.90287">
        <ele>613.5</ele>
        <time>2021-07-18T08:53:21Z</time>
      </trkpt>
      <trkpt lat="46.84079" lon="5.9028">
        <ele>612</ele>
        <time>2021-07-18T08:53:29Z</time>
      </trkpt>
      <trkpt lat="46.8408" lon="5.90273">
        <ele>611.3</ele>
        <time>2021-07-18T08:53:37Z</time>
      </trkpt>
      <trkpt lat="46.84078" lon="5.90266">
        <ele>611</ele>
        <time>2021-07-18T08:53:42Z</time>
      </trkpt>
      <trkpt lat="46.84079" lon="5.90259">
        <ele>610.8</ele>
        <time>2021-07-18T08:53:50Z</time>
      </trkpt>
      <trkpt lat="46.84076" lon="5.90252">
        <ele>610.6</ele>
        <time>2021-07-18T08:53:58Z</time>
      </trkpt>
      <trkpt lat="46.84076" lon="5.90245">
        <ele>610.8</ele>
        <time>2021-07-18T08:54:02Z</time>
      </trkpt>
      <trkpt lat="46.84075" lon="5.90237">
        <ele>612.1</ele>
        <time>2021-07-18T08:54:06Z</time>
      </trkpt>
      <trkpt lat="46.84073" lon="5.90231">
        <ele>613.1</ele>
        <time>2021-07-18T08:54:09Z</time>
      </trkpt>
      <trkpt lat="46.84071" lon="5.90224">
        <ele>614</ele>
        <time>2021-07-18T08:54:13Z</time>
      </trkpt>
      <trkpt lat="46.84069" lon="5.90217">
        <ele>614.4</ele>
        <time>2021-07-18T08:54:16Z</time>
      </trkpt>
      <trkpt lat="46.84067" lon="5.9021">
        <ele>616.2</ele>
        <time>2021-07-18T08:54:23Z</time>
      </trkpt>
      <trkpt lat="46.84063" lon="5.90214">
        <ele>619.2</ele>
        <time>2021-07-18T08:54:34Z</time>
      </trkpt>
      <trkpt lat="46.84067" lon="5.90216">
        <ele>620.8</ele>
        <time>2021-07-18T08:54:42Z</time>
      </trkpt>
      <trkpt lat="46.8407" lon="5.90209">
        <ele>622.1</ele>
        <time>2021-07-18T08:54:48Z</time>
      </trkpt>
      <trkpt lat="46.84072" lon="5.90203">
        <ele>622.7</ele>
        <time>2021-07-18T08:54:51Z</time>
      </trkpt>
      <trkpt lat="46.84075" lon="5.90197">
        <ele>622.8</ele>
        <time>2021-07-18T08:54:54Z</time>
      </trkpt>
      <trkpt lat="46.84077" lon="5.90189">
        <ele>622.7</ele>
        <time>2021-07-18T08:54:57Z</time>
      </trkpt>
      <trkpt lat="46.84073" lon="5.90183">
        <ele>622.6</ele>
        <time>2021-07-18T08:55:02Z</time>
      </trkpt>
      <trkpt lat="46.84078" lon="5.90185">
        <ele>619</ele>
        <time>2021-07-18T08:55:15Z</time>
      </trkpt>
      <trkpt lat="46.8408" lon="5.90178">
        <ele>617.6</ele>
        <time>2021-07-18T08:55:19Z</time>
      </trkpt>
      <trkpt lat="46.8408" lon="5.90171">
        <ele>616.4</ele>
        <time>2021-07-18T08:55:23Z</time>
      </trkpt>
      <trkpt lat="46.84078" lon="5.90164">
        <ele>615.4</ele>
        <time>2021-07-18T08:55:32Z</time>
      </trkpt>
      <trkpt lat="46.84074" lon="5.90162">
        <ele>616.4</ele>
        <time>2021-07-18T08:55:38Z</time>
      </trkpt>
      <trkpt lat="46.84068" lon="5.90157">
        <ele>616.5</ele>
        <time>2021-07-18T08:55:42Z</time>
      </trkpt>
      <trkpt lat="46.84071" lon="5.90151">
        <ele>617.2</ele>
        <time>2021-07-18T08:55:53Z</time>
      </trkpt>
      <trkpt lat="46.84072" lon="5.90143">
        <ele>619</ele>
        <time>2021-07-18T08:56:00Z</time>
      </trkpt>
      <trkpt lat="46.84068" lon="5.90138">
        <ele>620.7</ele>
        <time>2021-07-18T08:56:05Z</time>
      </trkpt>
      <trkpt lat="46.84067" lon="5.90131">
        <ele>622.7</ele>
        <time>2021-07-18T08:56:11Z</time>
      </trkpt>
      <trkpt lat="46.84065" lon="5.90125">
        <ele>623.4</ele>
        <time>2021-07-18T08:56:17Z</time>
      </trkpt>
      <trkpt lat="46.84061" lon="5.9012">
        <ele>622.8</ele>
        <time>2021-07-18T08:56:21Z</time>
      </trkpt>
      <trkpt lat="46.84061" lon="5.90113">
        <ele>621.8</ele>
        <time>2021-07-18T08:56:27Z</time>
      </trkpt>
      <trkpt lat="46.84058" lon="5.90108">
        <ele>621.9</ele>
        <time>2021-07-18T08:56:41Z</time>
      </trkpt>
      <trkpt lat="46.84054" lon="5.90103">
        <ele>622</ele>
        <time>2021-07-18T08:56:46Z</time>
      </trkpt>
      <trkpt lat="46.84048" lon="5.90099">
        <ele>621.9</ele>
        <time>2021-07-18T08:56:49Z</time>
      </trkpt>
      <trkpt lat="46.84044" lon="5.90094">
        <ele>621.8</ele>
        <time>2021-07-18T08:56:52Z</time>
      </trkpt>
      <trkpt lat="46.8404" lon="5.90089">
        <ele>621.6</ele>
        <time>2021-07-18T08:56:55Z</time>
      </trkpt>
      <trkpt lat="46.84037" lon="5.90084">
        <ele>621.7</ele>
        <time>2021-07-18T08:56:58Z</time>
      </trkpt>
      <trkpt lat="46.84033" lon="5.9008">
        <ele>621.9</ele>
        <time>2021-07-18T08:57:01Z</time>
      </trkpt>
      <trkpt lat="46.84032" lon="5.90073">
        <ele>621.5</ele>
        <time>2021-07-18T08:57:08Z</time>
      </trkpt>
      <trkpt lat="46.84028" lon="5.90069">
        <ele>621.2</ele>
        <time>2021-07-18T08:57:15Z</time>
      </trkpt>
      <trkpt lat="46.84023" lon="5.90066">
        <ele>621.6</ele>
        <time>2021-07-18T08:57:20Z</time>
      </trkpt>
      <trkpt lat="46.84019" lon="5.90061">
        <ele>622.6</ele>
        <time>2021-07-18T08:57:26Z</time>
      </trkpt>
      <trkpt lat="46.84016" lon="5.90056">
        <ele>623.8</ele>
        <time>2021-07-18T08:57:31Z</time>
      </trkpt>
      <trkpt lat="46.84014" lon="5.90049">
        <ele>624.7</ele>
        <time>2021-07-18T08:57:35Z</time>
      </trkpt>
      <trkpt lat="46.84009" lon="5.90045">
        <ele>625.8</ele>
        <time>2021-07-18T08:57:41Z</time>
      </trkpt>
      <trkpt lat="46.84006" lon="5.9004">
        <ele>626.7</ele>
        <time>2021-07-18T08:57:45Z</time>
      </trkpt>
      <trkpt lat="46.84005" lon="5.90032">
        <ele>628.1</ele>
        <time>2021-07-18T08:57:50Z</time>
      </trkpt>
      <trkpt lat="46.84004" lon="5.90024">
        <ele>629</ele>
        <time>2021-07-18T08:57:54Z</time>
      </trkpt>
      <trkpt lat="46.84003" lon="5.90017">
        <ele>630.2</ele>
        <time>2021-07-18T08:57:59Z</time>
      </trkpt>
      <trkpt lat="46.84001" lon="5.90011">
        <ele>631</ele>
        <time>2021-07-18T08:58:04Z</time>
      </trkpt>
      <trkpt lat="46.84" lon="5.90004">
        <ele>631.9</ele>
        <time>2021-07-18T08:58:16Z</time>
      </trkpt>
      <trkpt lat="46.83996" lon="5.89999">
        <ele>632.7</ele>
        <time>2021-07-18T08:58:21Z</time>
      </trkpt>
      <trkpt lat="46.83993" lon="5.89993">
        <ele>633</ele>
        <time>2021-07-18T08:58:25Z</time>
      </trkpt>
      <trkpt lat="46.83989" lon="5.89987">
        <ele>632.9</ele>
        <time>2021-07-18T08:58:29Z</time>
      </trkpt>
      <trkpt lat="46.83985" lon="5.89982">
        <ele>632.7</ele>
        <time>2021-07-18T08:58:32Z</time>
      </trkpt>
      <trkpt lat="46.8398" lon="5.89978">
        <ele>632.8</ele>
        <time>2021-07-18T08:58:37Z</time>
      </trkpt>
      <trkpt lat="46.83976" lon="5.89983">
        <ele>632.1</ele>
        <time>2021-07-18T08:58:46Z</time>
      </trkpt>
      <trkpt lat="46.83971" lon="5.89983">
        <ele>631.7</ele>
        <time>2021-07-18T08:58:52Z</time>
      </trkpt>
      <trkpt lat="46.83967" lon="5.89979">
        <ele>630.2</ele>
        <time>2021-07-18T08:59:02Z</time>
      </trkpt>
      <trkpt lat="46.83964" lon="5.89973">
        <ele>629.2</ele>
        <time>2021-07-18T08:59:07Z</time>
      </trkpt>
      <trkpt lat="46.8396" lon="5.8997">
        <ele>627.5</ele>
        <time>2021-07-18T08:59:13Z</time>
      </trkpt>
      <trkpt lat="46.83958" lon="5.89964">
        <ele>626.3</ele>
        <time>2021-07-18T08:59:18Z</time>
      </trkpt>
      <trkpt lat="46.83956" lon="5.89958">
        <ele>625.6</ele>
        <time>2021-07-18T08:59:22Z</time>
      </trkpt>
      <trkpt lat="46.83952" lon="5.89953">
        <ele>625.3</ele>
        <time>2021-07-18T08:59:26Z</time>
      </trkpt>
      <trkpt lat="46.83948" lon="5.89951">
        <ele>625.7</ele>
        <time>2021-07-18T08:59:32Z</time>
      </trkpt>
      <trkpt lat="46.83943" lon="5.89946">
        <ele>626.2</ele>
        <time>2021-07-18T08:59:35Z</time>
      </trkpt>
      <trkpt lat="46.83939" lon="5.89942">
        <ele>627.1</ele>
        <time>2021-07-18T08:59:38Z</time>
      </trkpt>
      <trkpt lat="46.83935" lon="5.89938">
        <ele>628.2</ele>
        <time>2021-07-18T08:59:41Z</time>
      </trkpt>
      <trkpt lat="46.8393" lon="5.89935">
        <ele>632.2</ele>
        <time>2021-07-18T08:59:54Z</time>
      </trkpt>
      <trkpt lat="46.83925" lon="5.89935">
        <ele>634.4</ele>
        <time>2021-07-18T09:00:00Z</time>
      </trkpt>
      <trkpt lat="46.83921" lon="5.89932">
        <ele>635.3</ele>
        <time>2021-07-18T09:00:04Z</time>
      </trkpt>
      <trkpt lat="46.83917" lon="5.89928">
        <ele>636</ele>
        <time>2021-07-18T09:00:08Z</time>
      </trkpt>
      <trkpt lat="46.83915" lon="5.89921">
        <ele>636.7</ele>
        <time>2021-07-18T09:00:13Z</time>
      </trkpt>
      <trkpt lat="46.83913" lon="5.89915">
        <ele>637.5</ele>
        <time>2021-07-18T09:00:18Z</time>
      </trkpt>
      <trkpt lat="46.83913" lon="5.89908">
        <ele>639.8</ele>
        <time>2021-07-18T09:00:27Z</time>
      </trkpt>
      <trkpt lat="46.83912" lon="5.89902">
        <ele>640.2</ele>
        <time>2021-07-18T09:00:32Z</time>
      </trkpt>
      <trkpt lat="46.83913" lon="5.89895">
        <ele>640.1</ele>
        <time>2021-07-18T09:00:37Z</time>
      </trkpt>
      <trkpt lat="46.8391" lon="5.8989">
        <ele>639.4</ele>
        <time>2021-07-18T09:00:49Z</time>
      </trkpt>
      <trkpt lat="46.83906" lon="5.89887">
        <ele>638.6</ele>
        <time>2021-07-18T09:00:56Z</time>
      </trkpt>
      <trkpt lat="46.83902" lon="5.89882">
        <ele>637.8</ele>
        <time>2021-07-18T09:00:59Z</time>
      </trkpt>
      <trkpt lat="46.83896" lon="5.89876">
        <ele>636.9</ele>
        <time>2021-07-18T09:01:02Z</time>
      </trkpt>
      <trkpt lat="46.83892" lon="5.8987">
        <ele>636.1</ele>
        <time>2021-07-18T09:01:05Z</time>
      </trkpt>
      <trkpt lat="46.83889" lon="5.89865">
        <ele>635.2</ele>
        <time>2021-07-18T09:01:08Z</time>
      </trkpt>
      <trkpt lat="46.83885" lon="5.89861">
        <ele>634.2</ele>
        <time>2021-07-18T09:01:11Z</time>
      </trkpt>
      <trkpt lat="46.8388" lon="5.89859">
        <ele>633.5</ele>
        <time>2021-07-18T09:01:14Z</time>
      </trkpt>
      <trkpt lat="46.83876" lon="5.89855">
        <ele>633.2</ele>
        <time>2021-07-18T09:01:18Z</time>
      </trkpt>
      <trkpt lat="46.83874" lon="5.89848">
        <ele>633.4</ele>
        <time>2021-07-18T09:01:23Z</time>
      </trkpt>
      <trkpt lat="46.8387" lon="5.89842">
        <ele>633.9</ele>
        <time>2021-07-18T09:01:32Z</time>
      </trkpt>
      <trkpt lat="46.83867" lon="5.89838">
        <ele>633.8</ele>
        <time>2021-07-18T09:01:36Z</time>
      </trkpt>
      <trkpt lat="46.83862" lon="5.89837">
        <ele>633.8</ele>
        <time>2021-07-18T09:01:41Z</time>
      </trkpt>
      <trkpt lat="46.83858" lon="5.89836">
        <ele>634.2</ele>
        <time>2021-07-18T09:01:45Z</time>
      </trkpt>
      <trkpt lat="46.83853" lon="5.89833">
        <ele>631.3</ele>
        <time>2021-07-18T09:01:59Z</time>
      </trkpt>
      <trkpt lat="46.83851" lon="5.89826">
        <ele>628.8</ele>
        <time>2021-07-18T09:02:05Z</time>
      </trkpt>
      <trkpt lat="46.83846" lon="5.8982">
        <ele>627.8</ele>
        <time>2021-07-18T09:02:08Z</time>
      </trkpt>
      <trkpt lat="46.83843" lon="5.89815">
        <ele>626.6</ele>
        <time>2021-07-18T09:02:12Z</time>
      </trkpt>
      <trkpt lat="46.83838" lon="5.89816">
        <ele>625.9</ele>
        <time>2021-07-18T09:02:18Z</time>
      </trkpt>
      <trkpt lat="46.83836" lon="5.8981">
        <ele>625.7</ele>
        <time>2021-07-18T09:02:22Z</time>
      </trkpt>
      <trkpt lat="46.83833" lon="5.89805">
        <ele>625.4</ele>
        <time>2021-07-18T09:02:26Z</time>
      </trkpt>
      <trkpt lat="46.83828" lon="5.898">
        <ele>625.5</ele>
        <time>2021-07-18T09:02:30Z</time>
      </trkpt>
      <trkpt lat="46.83825" lon="5.89795">
        <ele>625.9</ele>
        <time>2021-07-18T09:02:35Z</time>
      </trkpt>
      <trkpt lat="46.8382" lon="5.89792">
        <ele>626.4</ele>
        <time>2021-07-18T09:02:41Z</time>
      </trkpt>
      <trkpt lat="46.83815" lon="5.89788">
        <ele>627.1</ele>
        <time>2021-07-18T09:02:46Z</time>
      </trkpt>
      <trkpt lat="46.83812" lon="5.89782">
        <ele>628.5</ele>
        <time>2021-07-18T09:02:51Z</time>
      </trkpt>
      <trkpt lat="46.83809" lon="5.89777">
        <ele>629.5</ele>
        <time>2021-07-18T09:02:59Z</time>
      </trkpt>
      <trkpt lat="46.83805" lon="5.89773">
        <ele>631</ele>
        <time>2021-07-18T09:03:09Z</time>
      </trkpt>
      <trkpt lat="46.83802" lon="5.89767">
        <ele>632.4</ele>
        <time>2021-07-18T09:03:15Z</time>
      </trkpt>
      <trkpt lat="46.838" lon="5.89762">
        <ele>633.6</ele>
        <time>2021-07-18T09:03:21Z</time>
      </trkpt>
      <trkpt lat="46.83796" lon="5.89757">
        <ele>634.2</ele>
        <time>2021-07-18T09:03:24Z</time>
      </trkpt>
      <trkpt lat="46.83793" lon="5.89751">
        <ele>634</ele>
        <time>2021-07-18T09:03:27Z</time>
      </trkpt>
      <trkpt lat="46.8379" lon="5.89745">
        <ele>633.8</ele>
        <time>2021-07-18T09:03:30Z</time>
      </trkpt>
      <trkpt lat="46.83787" lon="5.89738">
        <ele>633.5</ele>
        <time>2021-07-18T09:03:34Z</time>
      </trkpt>
      <trkpt lat="46.83784" lon="5.89733">
        <ele>633.5</ele>
        <time>2021-07-18T09:03:38Z</time>
      </trkpt>
      <trkpt lat="46.83779" lon="5.8973">
        <ele>634</ele>
        <time>2021-07-18T09:03:44Z</time>
      </trkpt>
      <trkpt lat="46.83775" lon="5.89726">
        <ele>634.3</ele>
        <time>2021-07-18T09:03:49Z</time>
      </trkpt>
      <trkpt lat="46.83776" lon="5.8972">
        <ele>634.4</ele>
        <time>2021-07-18T09:03:56Z</time>
      </trkpt>
      <trkpt lat="46.83776" lon="5.89713">
        <ele>634.7</ele>
        <time>2021-07-18T09:04:02Z</time>
      </trkpt>
      <trkpt lat="46.83775" lon="5.89706">
        <ele>635.4</ele>
        <time>2021-07-18T09:04:07Z</time>
      </trkpt>
      <trkpt lat="46.83773" lon="5.89699">
        <ele>635.6</ele>
        <time>2021-07-18T09:04:15Z</time>
      </trkpt>
      <trkpt lat="46.83772" lon="5.89691">
        <ele>635.2</ele>
        <time>2021-07-18T09:04:19Z</time>
      </trkpt>
      <trkpt lat="46.83769" lon="5.89684">
        <ele>634.3</ele>
        <time>2021-07-18T09:04:25Z</time>
      </trkpt>
      <trkpt lat="46.83766" lon="5.8968">
        <ele>633.3</ele>
        <time>2021-07-18T09:04:29Z</time>
      </trkpt>
      <trkpt lat="46.83764" lon="5.89673">
        <ele>632.4</ele>
        <time>2021-07-18T09:04:38Z</time>
      </trkpt>
      <trkpt lat="46.83764" lon="5.89666">
        <ele>631.3</ele>
        <time>2021-07-18T09:04:45Z</time>
      </trkpt>
      <trkpt lat="46.83763" lon="5.89659">
        <ele>630.7</ele>
        <time>2021-07-18T09:04:49Z</time>
      </trkpt>
      <trkpt lat="46.83762" lon="5.89653">
        <ele>630.4</ele>
        <time>2021-07-18T09:04:54Z</time>
      </trkpt>
      <trkpt lat="46.8376" lon="5.89645">
        <ele>629.5</ele>
        <time>2021-07-18T09:05:01Z</time>
      </trkpt>
      <trkpt lat="46.83757" lon="5.89638">
        <ele>629.1</ele>
        <time>2021-07-18T09:05:05Z</time>
      </trkpt>
      <trkpt lat="46.83754" lon="5.89633">
        <ele>629.2</ele>
        <time>2021-07-18T09:05:10Z</time>
      </trkpt>
      <trkpt lat="46.83752" lon="5.89627">
        <ele>628.5</ele>
        <time>2021-07-18T09:05:18Z</time>
      </trkpt>
      <trkpt lat="46.8375" lon="5.8962">
        <ele>626.1</ele>
        <time>2021-07-18T09:05:29Z</time>
      </trkpt>
      <trkpt lat="46.83747" lon="5.89614">
        <ele>625.3</ele>
        <time>2021-07-18T09:05:35Z</time>
      </trkpt>
      <trkpt lat="46.83743" lon="5.89609">
        <ele>624.3</ele>
        <time>2021-07-18T09:05:40Z</time>
      </trkpt>
      <trkpt lat="46.83741" lon="5.89603">
        <ele>624.3</ele>
        <time>2021-07-18T09:05:45Z</time>
      </trkpt>
      <trkpt lat="46.8374" lon="5.89596">
        <ele>624.1</ele>
        <time>2021-07-18T09:05:49Z</time>
      </trkpt>
      <trkpt lat="46.83739" lon="5.89588">
        <ele>622.6</ele>
        <time>2021-07-18T09:05:53Z</time>
      </trkpt>
      <trkpt lat="46.83736" lon="5.89582">
        <ele>619.3</ele>
        <time>2021-07-18T09:06:05Z</time>
      </trkpt>
      <trkpt lat="46.83733" lon="5.89575">
        <ele>618.6</ele>
        <time>2021-07-18T09:06:09Z</time>
      </trkpt>
      <trkpt lat="46.83729" lon="5.89563">
        <ele>618.4</ele>
        <time>2021-07-18T09:06:24Z</time>
      </trkpt>
      <trkpt lat="46.83727" lon="5.89554">
        <ele>618.5</ele>
        <time>2021-07-18T09:06:27Z</time>
      </trkpt>
      <trkpt lat="46.83724" lon="5.89548">
        <ele>618.8</ele>
        <time>2021-07-18T09:06:31Z</time>
      </trkpt>
      <trkpt lat="46.83722" lon="5.8954">
        <ele>619.3</ele>
        <time>2021-07-18T09:06:35Z</time>
      </trkpt>
      <trkpt lat="46.83721" lon="5.89533">
        <ele>620.7</ele>
        <time>2021-07-18T09:06:40Z</time>
      </trkpt>
      <trkpt lat="46.83721" lon="5.89526">
        <ele>622.5</ele>
        <time>2021-07-18T09:06:46Z</time>
      </trkpt>
      <trkpt lat="46.83717" lon="5.89521">
        <ele>623</ele>
        <time>2021-07-18T09:06:53Z</time>
      </trkpt>
      <trkpt lat="46.83713" lon="5.89516">
        <ele>621.5</ele>
        <time>2021-07-18T09:07:00Z</time>
      </trkpt>
      <trkpt lat="46.83712" lon="5.89509">
        <ele>620.4</ele>
        <time>2021-07-18T09:07:05Z</time>
      </trkpt>
      <trkpt lat="46.83711" lon="5.89502">
        <ele>619.6</ele>
        <time>2021-07-18T09:07:08Z</time>
      </trkpt>
      <trkpt lat="46.8371" lon="5.89496">
        <ele>618.9</ele>
        <time>2021-07-18T09:07:12Z</time>
      </trkpt>
      <trkpt lat="46.83708" lon="5.89488">
        <ele>618.7</ele>
        <time>2021-07-18T09:07:17Z</time>
      </trkpt>
      <trkpt lat="46.83707" lon="5.89482">
        <ele>618.7</ele>
        <time>2021-07-18T09:07:22Z</time>
      </trkpt>
      <trkpt lat="46.83704" lon="5.89476">
        <ele>618.1</ele>
        <time>2021-07-18T09:07:30Z</time>
      </trkpt>
      <trkpt lat="46.83703" lon="5.89469">
        <ele>617.3</ele>
        <time>2021-07-18T09:07:38Z</time>
      </trkpt>
      <trkpt lat="46.83706" lon="5.89462">
        <ele>616.9</ele>
        <time>2021-07-18T09:07:44Z</time>
      </trkpt>
      <trkpt lat="46.83709" lon="5.89454">
        <ele>616.8</ele>
        <time>2021-07-18T09:07:48Z</time>
      </trkpt>
      <trkpt lat="46.83715" lon="5.89453">
        <ele>616.5</ele>
        <time>2021-07-18T09:07:51Z</time>
      </trkpt>
      <trkpt lat="46.83714" lon="5.89445">
        <ele>615.8</ele>
        <time>2021-07-18T09:07:58Z</time>
      </trkpt>
      <trkpt lat="46.83711" lon="5.89439">
        <ele>615.5</ele>
        <time>2021-07-18T09:08:02Z</time>
      </trkpt>
      <trkpt lat="46.83707" lon="5.89431">
        <ele>615.5</ele>
        <time>2021-07-18T09:08:05Z</time>
      </trkpt>
      <trkpt lat="46.83706" lon="5.89425">
        <ele>615.7</ele>
        <time>2021-07-18T09:08:09Z</time>
      </trkpt>
      <trkpt lat="46.83704" lon="5.89418">
        <ele>616.3</ele>
        <time>2021-07-18T09:08:16Z</time>
      </trkpt>
      <trkpt lat="46.83701" lon="5.89413">
        <ele>616.4</ele>
        <time>2021-07-18T09:08:23Z</time>
      </trkpt>
      <trkpt lat="46.837" lon="5.89406">
        <ele>616.2</ele>
        <time>2021-07-18T09:08:27Z</time>
      </trkpt>
      <trkpt lat="46.83698" lon="5.89398">
        <ele>615.5</ele>
        <time>2021-07-18T09:08:32Z</time>
      </trkpt>
      <trkpt lat="46.83697" lon="5.89392">
        <ele>614.5</ele>
        <time>2021-07-18T09:08:37Z</time>
      </trkpt>
      <trkpt lat="46.83694" lon="5.89385">
        <ele>613.6</ele>
        <time>2021-07-18T09:08:42Z</time>
      </trkpt>
      <trkpt lat="46.8369" lon="5.89381">
        <ele>613.2</ele>
        <time>2021-07-18T09:08:45Z</time>
      </trkpt>
      <trkpt lat="46.83687" lon="5.89376">
        <ele>612.7</ele>
        <time>2021-07-18T09:08:48Z</time>
      </trkpt>
      <trkpt lat="46.83684" lon="5.8937">
        <ele>612.2</ele>
        <time>2021-07-18T09:08:52Z</time>
      </trkpt>
      <trkpt lat="46.8368" lon="5.89365">
        <ele>611.8</ele>
        <time>2021-07-18T09:08:56Z</time>
      </trkpt>
      <trkpt lat="46.83676" lon="5.8936">
        <ele>611.5</ele>
        <time>2021-07-18T09:08:59Z</time>
      </trkpt>
      <trkpt lat="46.83672" lon="5.89357">
        <ele>611</ele>
        <time>2021-07-18T09:09:06Z</time>
      </trkpt>
      <trkpt lat="46.83673" lon="5.89351">
        <ele>611.2</ele>
        <time>2021-07-18T09:09:13Z</time>
      </trkpt>
      <trkpt lat="46.83675" lon="5.89345">
        <ele>611.3</ele>
        <time>2021-07-18T09:09:22Z</time>
      </trkpt>
      <trkpt lat="46.83676" lon="5.89336">
        <ele>611.9</ele>
        <time>2021-07-18T09:09:26Z</time>
      </trkpt>
      <trkpt lat="46.83675" lon="5.89329">
        <ele>612.6</ele>
        <time>2021-07-18T09:09:29Z</time>
      </trkpt>
      <trkpt lat="46.83677" lon="5.89323">
        <ele>615.2</ele>
        <time>2021-07-18T09:09:40Z</time>
      </trkpt>
      <trkpt lat="46.83674" lon="5.89318">
        <ele>615</ele>
        <time>2021-07-18T09:09:44Z</time>
      </trkpt>
      <trkpt lat="46.8367" lon="5.8931">
        <ele>614.5</ele>
        <time>2021-07-18T09:09:47Z</time>
      </trkpt>
      <trkpt lat="46.83668" lon="5.89304">
        <ele>613.9</ele>
        <time>2021-07-18T09:09:51Z</time>
      </trkpt>
      <trkpt lat="46.83667" lon="5.89296">
        <ele>612.2</ele>
        <time>2021-07-18T09:09:57Z</time>
      </trkpt>
      <trkpt lat="46.83666" lon="5.8929">
        <ele>611.7</ele>
        <time>2021-07-18T09:10:01Z</time>
      </trkpt>
      <trkpt lat="46.83662" lon="5.89285">
        <ele>610.6</ele>
        <time>2021-07-18T09:10:06Z</time>
      </trkpt>
      <trkpt lat="46.83659" lon="5.89279">
        <ele>608.5</ele>
        <time>2021-07-18T09:10:14Z</time>
      </trkpt>
      <trkpt lat="46.83657" lon="5.89272">
        <ele>607</ele>
        <time>2021-07-18T09:10:21Z</time>
      </trkpt>
      <trkpt lat="46.83654" lon="5.89267">
        <ele>606.9</ele>
        <time>2021-07-18T09:10:27Z</time>
      </trkpt>
      <trkpt lat="46.83652" lon="5.8926">
        <ele>607.2</ele>
        <time>2021-07-18T09:10:32Z</time>
      </trkpt>
      <trkpt lat="46.83653" lon="5.89254">
        <ele>607.8</ele>
        <time>2021-07-18T09:10:46Z</time>
      </trkpt>
      <trkpt lat="46.83649" lon="5.89248">
        <ele>607.9</ele>
        <time>2021-07-18T09:10:54Z</time>
      </trkpt>
      <trkpt lat="46.83646" lon="5.89242">
        <ele>607.9</ele>
        <time>2021-07-18T09:10:59Z</time>
      </trkpt>
      <trkpt lat="46.83643" lon="5.89238">
        <ele>607.9</ele>
        <time>2021-07-18T09:11:04Z</time>
      </trkpt>
      <trkpt lat="46.83638" lon="5.89232">
        <ele>607.7</ele>
        <time>2021-07-18T09:11:07Z</time>
      </trkpt>
      <trkpt lat="46.83635" lon="5.89225">
        <ele>608.2</ele>
        <time>2021-07-18T09:11:10Z</time>
      </trkpt>
      <trkpt lat="46.83632" lon="5.8922">
        <ele>609</ele>
        <time>2021-07-18T09:11:14Z</time>
      </trkpt>
      <trkpt lat="46.83629" lon="5.89214">
        <ele>609.7</ele>
        <time>2021-07-18T09:11:20Z</time>
      </trkpt>
      <trkpt lat="46.83625" lon="5.89211">
        <ele>609.9</ele>
        <time>2021-07-18T09:11:25Z</time>
      </trkpt>
      <trkpt lat="46.8362" lon="5.89208">
        <ele>610.3</ele>
        <time>2021-07-18T09:11:28Z</time>
      </trkpt>
      <trkpt lat="46.83615" lon="5.89203">
        <ele>611.5</ele>
        <time>2021-07-18T09:11:34Z</time>
      </trkpt>
      <trkpt lat="46.83611" lon="5.89199">
        <ele>612.1</ele>
        <time>2021-07-18T09:11:38Z</time>
      </trkpt>
      <trkpt lat="46.83607" lon="5.89195">
        <ele>612.1</ele>
        <time>2021-07-18T09:11:43Z</time>
      </trkpt>
      <trkpt lat="46.83602" lon="5.8919">
        <ele>612.2</ele>
        <time>2021-07-18T09:11:48Z</time>
      </trkpt>
      <trkpt lat="46.83598" lon="5.89186">
        <ele>612.4</ele>
        <time>2021-07-18T09:11:52Z</time>
      </trkpt>
      <trkpt lat="46.836" lon="5.89179">
        <ele>612.3</ele>
        <time>2021-07-18T09:11:58Z</time>
      </trkpt>
      <trkpt lat="46.83596" lon="5.89177">
        <ele>611.8</ele>
        <time>2021-07-18T09:12:09Z</time>
      </trkpt>
      <trkpt lat="46.83591" lon="5.89175">
        <ele>611.5</ele>
        <time>2021-07-18T09:12:14Z</time>
      </trkpt>
      <trkpt lat="46.83585" lon="5.89172">
        <ele>611.2</ele>
        <time>2021-07-18T09:12:18Z</time>
      </trkpt>
      <trkpt lat="46.83578" lon="5.89168">
        <ele>610.8</ele>
        <time>2021-07-18T09:12:21Z</time>
      </trkpt>
      <trkpt lat="46.83572" lon="5.89165">
        <ele>610.8</ele>
        <time>2021-07-18T09:12:24Z</time>
      </trkpt>
      <trkpt lat="46.83566" lon="5.89163">
        <ele>610.4</ele>
        <time>2021-07-18T09:12:28Z</time>
      </trkpt>
      <trkpt lat="46.83561" lon="5.89162">
        <ele>609.9</ele>
        <time>2021-07-18T09:12:31Z</time>
      </trkpt>
      <trkpt lat="46.83557" lon="5.8916">
        <ele>609.4</ele>
        <time>2021-07-18T09:12:35Z</time>
      </trkpt>
      <trkpt lat="46.83554" lon="5.89153">
        <ele>609.5</ele>
        <time>2021-07-18T09:12:44Z</time>
      </trkpt>
      <trkpt lat="46.8355" lon="5.89151">
        <ele>610.3</ele>
        <time>2021-07-18T09:12:50Z</time>
      </trkpt>
      <trkpt lat="46.83545" lon="5.8915">
        <ele>610.4</ele>
        <time>2021-07-18T09:12:57Z</time>
      </trkpt>
      <trkpt lat="46.8354" lon="5.89149">
        <ele>611</ele>
        <time>2021-07-18T09:13:02Z</time>
      </trkpt>
      <trkpt lat="46.83535" lon="5.89149">
        <ele>612.2</ele>
        <time>2021-07-18T09:13:07Z</time>
      </trkpt>
      <trkpt lat="46.83531" lon="5.89147">
        <ele>612.8</ele>
        <time>2021-07-18T09:13:17Z</time>
      </trkpt>
      <trkpt lat="46.83526" lon="5.89147">
        <ele>613.2</ele>
        <time>2021-07-18T09:13:20Z</time>
      </trkpt>
      <trkpt lat="46.8352" lon="5.89147">
        <ele>613.5</ele>
        <time>2021-07-18T09:13:24Z</time>
      </trkpt>
      <trkpt lat="46.83516" lon="5.89145">
        <ele>613.9</ele>
        <time>2021-07-18T09:13:27Z</time>
      </trkpt>
      <trkpt lat="46.83511" lon="5.89142">
        <ele>614.5</ele>
        <time>2021-07-18T09:13:30Z</time>
      </trkpt>
      <trkpt lat="46.83506" lon="5.89139">
        <ele>615.1</ele>
        <time>2021-07-18T09:13:33Z</time>
      </trkpt>
      <trkpt lat="46.83501" lon="5.89138">
        <ele>616.1</ele>
        <time>2021-07-18T09:13:37Z</time>
      </trkpt>
      <trkpt lat="46.83496" lon="5.89134">
        <ele>617.6</ele>
        <time>2021-07-18T09:13:44Z</time>
      </trkpt>
      <trkpt lat="46.83492" lon="5.89132">
        <ele>618.4</ele>
        <time>2021-07-18T09:13:48Z</time>
      </trkpt>
      <trkpt lat="46.83487" lon="5.89131">
        <ele>619.6</ele>
        <time>2021-07-18T09:13:52Z</time>
      </trkpt>
      <trkpt lat="46.83483" lon="5.89132">
        <ele>620.8</ele>
        <time>2021-07-18T09:13:56Z</time>
      </trkpt>
      <trkpt lat="46.83477" lon="5.89128">
        <ele>622.1</ele>
        <time>2021-07-18T09:14:01Z</time>
      </trkpt>
      <trkpt lat="46.83474" lon="5.89124">
        <ele>622.7</ele>
        <time>2021-07-18T09:14:04Z</time>
      </trkpt>
      <trkpt lat="46.8347" lon="5.89119">
        <ele>624</ele>
        <time>2021-07-18T09:14:12Z</time>
      </trkpt>
      <trkpt lat="46.83465" lon="5.89118">
        <ele>624.6</ele>
        <time>2021-07-18T09:14:19Z</time>
      </trkpt>
      <trkpt lat="46.83464" lon="5.89125">
        <ele>624.8</ele>
        <time>2021-07-18T09:14:28Z</time>
      </trkpt>
      <trkpt lat="46.83459" lon="5.89127">
        <ele>626.4</ele>
        <time>2021-07-18T09:15:01Z</time>
      </trkpt>
      <trkpt lat="46.83456" lon="5.89122">
        <ele>628.6</ele>
        <time>2021-07-18T09:15:36Z</time>
      </trkpt>
      <trkpt lat="46.8346" lon="5.89125">
        <ele>629.6</ele>
        <time>2021-07-18T09:16:17Z</time>
      </trkpt>
      <trkpt lat="46.83464" lon="5.89132">
        <ele>630.3</ele>
        <time>2021-07-18T09:16:22Z</time>
      </trkpt>
      <trkpt lat="46.83459" lon="5.89131">
        <ele>631.1</ele>
        <time>2021-07-18T09:16:33Z</time>
      </trkpt>
      <trkpt lat="46.83456" lon="5.89137">
        <ele>629.2</ele>
        <time>2021-07-18T09:16:48Z</time>
      </trkpt>
      <trkpt lat="46.83457" lon="5.89131">
        <ele>631.2</ele>
        <time>2021-07-18T09:17:18Z</time>
      </trkpt>
      <trkpt lat="46.83455" lon="5.89124">
        <ele>631.8</ele>
        <time>2021-07-18T09:17:39Z</time>
      </trkpt>
      <trkpt lat="46.8345" lon="5.89124">
        <ele>632.2</ele>
        <time>2021-07-18T09:17:43Z</time>
      </trkpt>
      <trkpt lat="46.83446" lon="5.8912">
        <ele>632.2</ele>
        <time>2021-07-18T09:17:47Z</time>
      </trkpt>
      <trkpt lat="46.83443" lon="5.89114">
        <ele>631.1</ele>
        <time>2021-07-18T09:17:53Z</time>
      </trkpt>
      <trkpt lat="46.83439" lon="5.8911">
        <ele>629.8</ele>
        <time>2021-07-18T09:17:59Z</time>
      </trkpt>
      <trkpt lat="46.83435" lon="5.89105">
        <ele>627.7</ele>
        <time>2021-07-18T09:18:08Z</time>
      </trkpt>
      <trkpt lat="46.83431" lon="5.89102">
        <ele>625.7</ele>
        <time>2021-07-18T09:18:16Z</time>
      </trkpt>
      <trkpt lat="46.83429" lon="5.89096">
        <ele>624</ele>
        <time>2021-07-18T09:18:21Z</time>
      </trkpt>
      <trkpt lat="46.83425" lon="5.89091">
        <ele>622.8</ele>
        <time>2021-07-18T09:18:26Z</time>
      </trkpt>
      <trkpt lat="46.8342" lon="5.89088">
        <ele>622.4</ele>
        <time>2021-07-18T09:18:30Z</time>
      </trkpt>
      <trkpt lat="46.83414" lon="5.89086">
        <ele>622.5</ele>
        <time>2021-07-18T09:18:34Z</time>
      </trkpt>
      <trkpt lat="46.83408" lon="5.89086">
        <ele>623.1</ele>
        <time>2021-07-18T09:18:37Z</time>
      </trkpt>
      <trkpt lat="46.83404" lon="5.89084">
        <ele>623.8</ele>
        <time>2021-07-18T09:18:40Z</time>
      </trkpt>
      <trkpt lat="46.834" lon="5.89077">
        <ele>624.8</ele>
        <time>2021-07-18T09:18:44Z</time>
      </trkpt>
      <trkpt lat="46.83399" lon="5.89071">
        <ele>625.2</ele>
        <time>2021-07-18T09:18:47Z</time>
      </trkpt>
      <trkpt lat="46.83399" lon="5.89064">
        <ele>625.9</ele>
        <time>2021-07-18T09:18:52Z</time>
      </trkpt>
      <trkpt lat="46.83397" lon="5.89058">
        <ele>627.3</ele>
        <time>2021-07-18T09:18:56Z</time>
      </trkpt>
      <trkpt lat="46.83394" lon="5.89052">
        <ele>628.8</ele>
        <time>2021-07-18T09:19:00Z</time>
      </trkpt>
      <trkpt lat="46.8339" lon="5.89047">
        <ele>630.5</ele>
        <time>2021-07-18T09:19:05Z</time>
      </trkpt>
      <trkpt lat="46.83385" lon="5.89045">
        <ele>632.2</ele>
        <time>2021-07-18T09:19:10Z</time>
      </trkpt>
      <trkpt lat="46.8338" lon="5.89041">
        <ele>633.5</ele>
        <time>2021-07-18T09:19:15Z</time>
      </trkpt>
      <trkpt lat="46.83378" lon="5.89035">
        <ele>634.5</ele>
        <time>2021-07-18T09:19:21Z</time>
      </trkpt>
      <trkpt lat="46.83375" lon="5.89029">
        <ele>634.6</ele>
        <time>2021-07-18T09:19:25Z</time>
      </trkpt>
      <trkpt lat="46.83372" lon="5.89023">
        <ele>634.3</ele>
        <time>2021-07-18T09:19:30Z</time>
      </trkpt>
      <trkpt lat="46.83369" lon="5.89019">
        <ele>634</ele>
        <time>2021-07-18T09:19:38Z</time>
      </trkpt>
      <trkpt lat="46.83366" lon="5.89014">
        <ele>633.4</ele>
        <time>2021-07-18T09:19:43Z</time>
      </trkpt>
      <trkpt lat="46.83364" lon="5.89008">
        <ele>632.1</ele>
        <time>2021-07-18T09:19:48Z</time>
      </trkpt>
      <trkpt lat="46.83361" lon="5.89003">
        <ele>630.6</ele>
        <time>2021-07-18T09:19:53Z</time>
      </trkpt>
      <trkpt lat="46.83357" lon="5.88998">
        <ele>629.9</ele>
        <time>2021-07-18T09:19:57Z</time>
      </trkpt>
      <trkpt lat="46.83353" lon="5.88994">
        <ele>629.9</ele>
        <time>2021-07-18T09:20:01Z</time>
      </trkpt>
      <trkpt lat="46.83348" lon="5.8899">
        <ele>630.1</ele>
        <time>2021-07-18T09:20:06Z</time>
      </trkpt>
      <trkpt lat="46.83345" lon="5.88984">
        <ele>631.2</ele>
        <time>2021-07-18T09:20:11Z</time>
      </trkpt>
      <trkpt lat="46.83342" lon="5.88978">
        <ele>632.7</ele>
        <time>2021-07-18T09:20:15Z</time>
      </trkpt>
      <trkpt lat="46.83339" lon="5.88974">
        <ele>633.8</ele>
        <time>2021-07-18T09:20:19Z</time>
      </trkpt>
      <trkpt lat="46.83335" lon="5.88971">
        <ele>634.7</ele>
        <time>2021-07-18T09:20:23Z</time>
      </trkpt>
      <trkpt lat="46.83331" lon="5.88966">
        <ele>635.3</ele>
        <time>2021-07-18T09:20:28Z</time>
      </trkpt>
      <trkpt lat="46.83328" lon="5.8896">
        <ele>635.5</ele>
        <time>2021-07-18T09:20:33Z</time>
      </trkpt>
      <trkpt lat="46.83326" lon="5.88955">
        <ele>635.3</ele>
        <time>2021-07-18T09:20:38Z</time>
      </trkpt>
      <trkpt lat="46.83324" lon="5.88948">
        <ele>634.7</ele>
        <time>2021-07-18T09:20:43Z</time>
      </trkpt>
      <trkpt lat="46.83321" lon="5.88942">
        <ele>634.3</ele>
        <time>2021-07-18T09:20:48Z</time>
      </trkpt>
      <trkpt lat="46.83317" lon="5.88938">
        <ele>634.1</ele>
        <time>2021-07-18T09:20:52Z</time>
      </trkpt>
      <trkpt lat="46.83312" lon="5.88933">
        <ele>633.5</ele>
        <time>2021-07-18T09:20:56Z</time>
      </trkpt>
      <trkpt lat="46.83308" lon="5.88928">
        <ele>633.2</ele>
        <time>2021-07-18T09:21:01Z</time>
      </trkpt>
      <trkpt lat="46.83304" lon="5.88924">
        <ele>633.3</ele>
        <time>2021-07-18T09:21:05Z</time>
      </trkpt>
      <trkpt lat="46.83301" lon="5.8892">
        <ele>633.3</ele>
        <time>2021-07-18T09:21:09Z</time>
      </trkpt>
      <trkpt lat="46.83297" lon="5.88914">
        <ele>632.4</ele>
        <time>2021-07-18T09:21:15Z</time>
      </trkpt>
      <trkpt lat="46.83293" lon="5.88909">
        <ele>631.5</ele>
        <time>2021-07-18T09:21:24Z</time>
      </trkpt>
      <trkpt lat="46.83289" lon="5.88904">
        <ele>632.1</ele>
        <time>2021-07-18T09:21:29Z</time>
      </trkpt>
      <trkpt lat="46.83286" lon="5.88899">
        <ele>632.7</ele>
        <time>2021-07-18T09:21:33Z</time>
      </trkpt>
      <trkpt lat="46.83283" lon="5.88894">
        <ele>633.3</ele>
        <time>2021-07-18T09:21:37Z</time>
      </trkpt>
      <trkpt lat="46.83279" lon="5.8889">
        <ele>633.7</ele>
        <time>2021-07-18T09:21:41Z</time>
      </trkpt>
      <trkpt lat="46.83274" lon="5.88887">
        <ele>633.8</ele>
        <time>2021-07-18T09:21:45Z</time>
      </trkpt>
      <trkpt lat="46.8327" lon="5.88883">
        <ele>633.6</ele>
        <time>2021-07-18T09:21:49Z</time>
      </trkpt>
      <trkpt lat="46.83267" lon="5.88878">
        <ele>633.7</ele>
        <time>2021-07-18T09:21:53Z</time>
      </trkpt>
      <trkpt lat="46.83262" lon="5.88872">
        <ele>633.7</ele>
        <time>2021-07-18T09:21:57Z</time>
      </trkpt>
      <trkpt lat="46.83258" lon="5.88867">
        <ele>633.7</ele>
        <time>2021-07-18T09:22:01Z</time>
      </trkpt>
      <trkpt lat="46.83255" lon="5.88862">
        <ele>633.6</ele>
        <time>2021-07-18T09:22:04Z</time>
      </trkpt>
      <trkpt lat="46.83251" lon="5.88857">
        <ele>633.7</ele>
        <time>2021-07-18T09:22:08Z</time>
      </trkpt>
      <trkpt lat="46.83248" lon="5.88853">
        <ele>634</ele>
        <time>2021-07-18T09:22:12Z</time>
      </trkpt>
      <trkpt lat="46.83244" lon="5.88848">
        <ele>634.7</ele>
        <time>2021-07-18T09:22:17Z</time>
      </trkpt>
      <trkpt lat="46.8324" lon="5.88843">
        <ele>635.5</ele>
        <time>2021-07-18T09:22:22Z</time>
      </trkpt>
      <trkpt lat="46.83236" lon="5.88838">
        <ele>636</ele>
        <time>2021-07-18T09:22:27Z</time>
      </trkpt>
      <trkpt lat="46.83232" lon="5.88834">
        <ele>636.6</ele>
        <time>2021-07-18T09:22:33Z</time>
      </trkpt>
      <trkpt lat="46.83229" lon="5.8883">
        <ele>636.3</ele>
        <time>2021-07-18T09:22:40Z</time>
      </trkpt>
      <trkpt lat="46.83224" lon="5.88827">
        <ele>636.2</ele>
        <time>2021-07-18T09:22:45Z</time>
      </trkpt>
      <trkpt lat="46.8322" lon="5.88821">
        <ele>635.9</ele>
        <time>2021-07-18T09:22:49Z</time>
      </trkpt>
      <trkpt lat="46.83216" lon="5.88818">
        <ele>636.1</ele>
        <time>2021-07-18T09:22:52Z</time>
      </trkpt>
      <trkpt lat="46.83211" lon="5.88814">
        <ele>636.9</ele>
        <time>2021-07-18T09:22:56Z</time>
      </trkpt>
      <trkpt lat="46.83207" lon="5.88811">
        <ele>637.6</ele>
        <time>2021-07-18T09:22:59Z</time>
      </trkpt>
      <trkpt lat="46.83203" lon="5.88808">
        <ele>638.1</ele>
        <time>2021-07-18T09:23:03Z</time>
      </trkpt>
      <trkpt lat="46.83197" lon="5.88805">
        <ele>638</ele>
        <time>2021-07-18T09:23:07Z</time>
      </trkpt>
      <trkpt lat="46.83192" lon="5.88804">
        <ele>638</ele>
        <time>2021-07-18T09:23:11Z</time>
      </trkpt>
      <trkpt lat="46.83187" lon="5.88801">
        <ele>637.8</ele>
        <time>2021-07-18T09:23:15Z</time>
      </trkpt>
      <trkpt lat="46.83182" lon="5.88799">
        <ele>637.5</ele>
        <time>2021-07-18T09:23:19Z</time>
      </trkpt>
      <trkpt lat="46.83178" lon="5.88795">
        <ele>637.3</ele>
        <time>2021-07-18T09:23:24Z</time>
      </trkpt>
      <trkpt lat="46.83173" lon="5.88792">
        <ele>637.1</ele>
        <time>2021-07-18T09:23:29Z</time>
      </trkpt>
      <trkpt lat="46.83168" lon="5.8879">
        <ele>636.5</ele>
        <time>2021-07-18T09:23:34Z</time>
      </trkpt>
      <trkpt lat="46.83163" lon="5.88786">
        <ele>636.9</ele>
        <time>2021-07-18T09:23:38Z</time>
      </trkpt>
      <trkpt lat="46.83159" lon="5.88785">
        <ele>638.4</ele>
        <time>2021-07-18T09:23:42Z</time>
      </trkpt>
      <trkpt lat="46.83154" lon="5.88782">
        <ele>639.7</ele>
        <time>2021-07-18T09:23:46Z</time>
      </trkpt>
      <trkpt lat="46.8315" lon="5.8878">
        <ele>640.6</ele>
        <time>2021-07-18T09:23:49Z</time>
      </trkpt>
      <trkpt lat="46.83145" lon="5.88779">
        <ele>641.7</ele>
        <time>2021-07-18T09:23:52Z</time>
      </trkpt>
      <trkpt lat="46.83141" lon="5.88778">
        <ele>642.9</ele>
        <time>2021-07-18T09:23:57Z</time>
      </trkpt>
      <trkpt lat="46.83136" lon="5.88775">
        <ele>644.3</ele>
        <time>2021-07-18T09:24:02Z</time>
      </trkpt>
      <trkpt lat="46.83132" lon="5.88772">
        <ele>646</ele>
        <time>2021-07-18T09:24:07Z</time>
      </trkpt>
      <trkpt lat="46.83127" lon="5.8877">
        <ele>647.5</ele>
        <time>2021-07-18T09:24:12Z</time>
      </trkpt>
      <trkpt lat="46.83123" lon="5.88768">
        <ele>648.5</ele>
        <time>2021-07-18T09:24:17Z</time>
      </trkpt>
      <trkpt lat="46.83118" lon="5.88766">
        <ele>649.5</ele>
        <time>2021-07-18T09:24:22Z</time>
      </trkpt>
      <trkpt lat="46.83113" lon="5.88764">
        <ele>650</ele>
        <time>2021-07-18T09:24:28Z</time>
      </trkpt>
      <trkpt lat="46.83108" lon="5.88763">
        <ele>650.2</ele>
        <time>2021-07-18T09:24:32Z</time>
      </trkpt>
      <trkpt lat="46.83103" lon="5.88762">
        <ele>650.5</ele>
        <time>2021-07-18T09:24:36Z</time>
      </trkpt>
      <trkpt lat="46.83098" lon="5.8876">
        <ele>649.7</ele>
        <time>2021-07-18T09:24:41Z</time>
      </trkpt>
      <trkpt lat="46.83093" lon="5.88759">
        <ele>648.4</ele>
        <time>2021-07-18T09:24:46Z</time>
      </trkpt>
      <trkpt lat="46.83089" lon="5.88759">
        <ele>647.8</ele>
        <time>2021-07-18T09:24:50Z</time>
      </trkpt>
      <trkpt lat="46.83084" lon="5.88757">
        <ele>646.6</ele>
        <time>2021-07-18T09:24:55Z</time>
      </trkpt>
      <trkpt lat="46.83079" lon="5.88756">
        <ele>646.1</ele>
        <time>2021-07-18T09:24:59Z</time>
      </trkpt>
      <trkpt lat="46.83074" lon="5.88755">
        <ele>645.8</ele>
        <time>2021-07-18T09:25:03Z</time>
      </trkpt>
      <trkpt lat="46.8307" lon="5.8875">
        <ele>644.8</ele>
        <time>2021-07-18T09:25:07Z</time>
      </trkpt>
      <trkpt lat="46.83066" lon="5.88746">
        <ele>643.7</ele>
        <time>2021-07-18T09:25:11Z</time>
      </trkpt>
      <trkpt lat="46.83062" lon="5.88742">
        <ele>642</ele>
        <time>2021-07-18T09:25:16Z</time>
      </trkpt>
      <trkpt lat="46.83058" lon="5.88738">
        <ele>640.6</ele>
        <time>2021-07-18T09:25:20Z</time>
      </trkpt>
      <trkpt lat="46.83054" lon="5.88733">
        <ele>638.9</ele>
        <time>2021-07-18T09:25:25Z</time>
      </trkpt>
      <trkpt lat="46.8305" lon="5.88728">
        <ele>638.1</ele>
        <time>2021-07-18T09:25:30Z</time>
      </trkpt>
      <trkpt lat="46.83045" lon="5.88726">
        <ele>637</ele>
        <time>2021-07-18T09:25:35Z</time>
      </trkpt>
      <trkpt lat="46.83042" lon="5.88721">
        <ele>636.2</ele>
        <time>2021-07-18T09:25:40Z</time>
      </trkpt>
      <trkpt lat="46.83038" lon="5.88716">
        <ele>635.4</ele>
        <time>2021-07-18T09:25:46Z</time>
      </trkpt>
      <trkpt lat="46.83036" lon="5.8871">
        <ele>635.5</ele>
        <time>2021-07-18T09:25:51Z</time>
      </trkpt>
      <trkpt lat="46.83034" lon="5.88705">
        <ele>636.1</ele>
        <time>2021-07-18T09:25:56Z</time>
      </trkpt>
      <trkpt lat="46.8303" lon="5.88701">
        <ele>637.1</ele>
        <time>2021-07-18T09:26:01Z</time>
      </trkpt>
      <trkpt lat="46.83025" lon="5.88697">
        <ele>638.5</ele>
        <time>2021-07-18T09:26:05Z</time>
      </trkpt>
      <trkpt lat="46.8302" lon="5.88693">
        <ele>640.3</ele>
        <time>2021-07-18T09:26:09Z</time>
      </trkpt>
      <trkpt lat="46.83015" lon="5.8869">
        <ele>642.1</ele>
        <time>2021-07-18T09:26:13Z</time>
      </trkpt>
      <trkpt lat="46.83011" lon="5.88687">
        <ele>643.8</ele>
        <time>2021-07-18T09:26:17Z</time>
      </trkpt>
      <trkpt lat="46.83006" lon="5.88686">
        <ele>645.2</ele>
        <time>2021-07-18T09:26:24Z</time>
      </trkpt>
      <trkpt lat="46.83001" lon="5.88685">
        <ele>645.1</ele>
        <time>2021-07-18T09:26:28Z</time>
      </trkpt>
      <trkpt lat="46.82998" lon="5.8868">
        <ele>642.7</ele>
        <time>2021-07-18T09:26:35Z</time>
      </trkpt>
      <trkpt lat="46.82993" lon="5.88676">
        <ele>641.1</ele>
        <time>2021-07-18T09:26:40Z</time>
      </trkpt>
      <trkpt lat="46.82989" lon="5.88674">
        <ele>640.2</ele>
        <time>2021-07-18T09:26:44Z</time>
      </trkpt>
      <trkpt lat="46.82984" lon="5.88672">
        <ele>639.5</ele>
        <time>2021-07-18T09:26:47Z</time>
      </trkpt>
      <trkpt lat="46.8298" lon="5.8867">
        <ele>638.9</ele>
        <time>2021-07-18T09:26:50Z</time>
      </trkpt>
      <trkpt lat="46.82975" lon="5.88668">
        <ele>637.9</ele>
        <time>2021-07-18T09:26:54Z</time>
      </trkpt>
      <trkpt lat="46.82971" lon="5.88664">
        <ele>637.1</ele>
        <time>2021-07-18T09:26:58Z</time>
      </trkpt>
      <trkpt lat="46.82966" lon="5.88661">
        <ele>636.6</ele>
        <time>2021-07-18T09:27:02Z</time>
      </trkpt>
      <trkpt lat="46.82961" lon="5.88659">
        <ele>636.4</ele>
        <time>2021-07-18T09:27:06Z</time>
      </trkpt>
      <trkpt lat="46.82956" lon="5.88655">
        <ele>636.6</ele>
        <time>2021-07-18T09:27:11Z</time>
      </trkpt>
      <trkpt lat="46.82953" lon="5.88651">
        <ele>637.3</ele>
        <time>2021-07-18T09:27:16Z</time>
      </trkpt>
      <trkpt lat="46.82948" lon="5.88646">
        <ele>638.8</ele>
        <time>2021-07-18T09:27:22Z</time>
      </trkpt>
      <trkpt lat="46.82945" lon="5.8864">
        <ele>639.8</ele>
        <time>2021-07-18T09:27:26Z</time>
      </trkpt>
      <trkpt lat="46.82942" lon="5.88636">
        <ele>641.1</ele>
        <time>2021-07-18T09:27:30Z</time>
      </trkpt>
      <trkpt lat="46.82939" lon="5.8863">
        <ele>642.2</ele>
        <time>2021-07-18T09:27:35Z</time>
      </trkpt>
      <trkpt lat="46.82936" lon="5.88624">
        <ele>643.4</ele>
        <time>2021-07-18T09:27:40Z</time>
      </trkpt>
      <trkpt lat="46.82932" lon="5.88619">
        <ele>645</ele>
        <time>2021-07-18T09:27:45Z</time>
      </trkpt>
      <trkpt lat="46.82928" lon="5.88615">
        <ele>641.3</ele>
        <time>2021-07-18T09:29:00Z</time>
      </trkpt>
      <trkpt lat="46.82924" lon="5.88611">
        <ele>637.8</ele>
        <time>2021-07-18T09:31:28Z</time>
      </trkpt>
      <trkpt lat="46.82921" lon="5.88605">
        <ele>636.3</ele>
        <time>2021-07-18T09:31:33Z</time>
      </trkpt>
      <trkpt lat="46.82918" lon="5.88599">
        <ele>635.9</ele>
        <time>2021-07-18T09:31:38Z</time>
      </trkpt>
      <trkpt lat="46.82915" lon="5.88594">
        <ele>636.3</ele>
        <time>2021-07-18T09:31:43Z</time>
      </trkpt>
      <trkpt lat="46.82912" lon="5.88587">
        <ele>636.9</ele>
        <time>2021-07-18T09:31:48Z</time>
      </trkpt>
      <trkpt lat="46.82909" lon="5.88582">
        <ele>637.4</ele>
        <time>2021-07-18T09:31:52Z</time>
      </trkpt>
      <trkpt lat="46.82906" lon="5.88576">
        <ele>638.3</ele>
        <time>2021-07-18T09:31:57Z</time>
      </trkpt>
      <trkpt lat="46.82902" lon="5.8857">
        <ele>639.9</ele>
        <time>2021-07-18T09:32:03Z</time>
      </trkpt>
      <trkpt lat="46.82899" lon="5.88565">
        <ele>640.5</ele>
        <time>2021-07-18T09:32:07Z</time>
      </trkpt>
      <trkpt lat="46.82897" lon="5.88559">
        <ele>640.7</ele>
        <time>2021-07-18T09:32:11Z</time>
      </trkpt>
      <trkpt lat="46.82894" lon="5.88553">
        <ele>641</ele>
        <time>2021-07-18T09:32:15Z</time>
      </trkpt>
      <trkpt lat="46.82892" lon="5.88546">
        <ele>640.7</ele>
        <time>2021-07-18T09:32:19Z</time>
      </trkpt>
      <trkpt lat="46.8289" lon="5.88539">
        <ele>640.5</ele>
        <time>2021-07-18T09:32:24Z</time>
      </trkpt>
      <trkpt lat="46.82888" lon="5.88533">
        <ele>640.8</ele>
        <time>2021-07-18T09:32:28Z</time>
      </trkpt>
      <trkpt lat="46.82886" lon="5.88526">
        <ele>640.4</ele>
        <time>2021-07-18T09:32:33Z</time>
      </trkpt>
      <trkpt lat="46.82884" lon="5.88519">
        <ele>640</ele>
        <time>2021-07-18T09:32:37Z</time>
      </trkpt>
      <trkpt lat="46.82882" lon="5.88512">
        <ele>640.2</ele>
        <time>2021-07-18T09:32:41Z</time>
      </trkpt>
      <trkpt lat="46.82879" lon="5.88506">
        <ele>640.6</ele>
        <time>2021-07-18T09:32:45Z</time>
      </trkpt>
      <trkpt lat="46.82876" lon="5.885">
        <ele>640.2</ele>
        <time>2021-07-18T09:32:51Z</time>
      </trkpt>
      <trkpt lat="46.82876" lon="5.88492">
        <ele>638.7</ele>
        <time>2021-07-18T09:32:57Z</time>
      </trkpt>
      <trkpt lat="46.82876" lon="5.88484">
        <ele>637.5</ele>
        <time>2021-07-18T09:33:03Z</time>
      </trkpt>
      <trkpt lat="46.82874" lon="5.88477">
        <ele>636.7</ele>
        <time>2021-07-18T09:33:07Z</time>
      </trkpt>
      <trkpt lat="46.82871" lon="5.88469">
        <ele>635.4</ele>
        <time>2021-07-18T09:33:13Z</time>
      </trkpt>
      <trkpt lat="46.82869" lon="5.88464">
        <ele>635</ele>
        <time>2021-07-18T09:33:16Z</time>
      </trkpt>
      <trkpt lat="46.82866" lon="5.88457">
        <ele>635.7</ele>
        <time>2021-07-18T09:33:20Z</time>
      </trkpt>
      <trkpt lat="46.82863" lon="5.88451">
        <ele>636.4</ele>
        <time>2021-07-18T09:33:24Z</time>
      </trkpt>
      <trkpt lat="46.82861" lon="5.88445">
        <ele>636.9</ele>
        <time>2021-07-18T09:33:29Z</time>
      </trkpt>
      <trkpt lat="46.82859" lon="5.88438">
        <ele>636.9</ele>
        <time>2021-07-18T09:33:34Z</time>
      </trkpt>
      <trkpt lat="46.82857" lon="5.88432">
        <ele>637.8</ele>
        <time>2021-07-18T09:33:38Z</time>
      </trkpt>
      <trkpt lat="46.82855" lon="5.88425">
        <ele>638.4</ele>
        <time>2021-07-18T09:33:42Z</time>
      </trkpt>
      <trkpt lat="46.82855" lon="5.88418">
        <ele>638.6</ele>
        <time>2021-07-18T09:33:48Z</time>
      </trkpt>
      <trkpt lat="46.82854" lon="5.88411">
        <ele>638.2</ele>
        <time>2021-07-18T09:33:52Z</time>
      </trkpt>
      <trkpt lat="46.82852" lon="5.88404">
        <ele>637.8</ele>
        <time>2021-07-18T09:33:57Z</time>
      </trkpt>
      <trkpt lat="46.82851" lon="5.88396">
        <ele>637.6</ele>
        <time>2021-07-18T09:34:01Z</time>
      </trkpt>
      <trkpt lat="46.82849" lon="5.88388">
        <ele>637.6</ele>
        <time>2021-07-18T09:34:05Z</time>
      </trkpt>
      <trkpt lat="46.82848" lon="5.88381">
        <ele>637.6</ele>
        <time>2021-07-18T09:34:09Z</time>
      </trkpt>
      <trkpt lat="46.82847" lon="5.88374">
        <ele>638.3</ele>
        <time>2021-07-18T09:34:13Z</time>
      </trkpt>
      <trkpt lat="46.82847" lon="5.88366">
        <ele>638.9</ele>
        <time>2021-07-18T09:34:18Z</time>
      </trkpt>
      <trkpt lat="46.82847" lon="5.88359">
        <ele>639.6</ele>
        <time>2021-07-18T09:34:23Z</time>
      </trkpt>
      <trkpt lat="46.82847" lon="5.88351">
        <ele>639.3</ele>
        <time>2021-07-18T09:34:30Z</time>
      </trkpt>
      <trkpt lat="46.82847" lon="5.88344">
        <ele>638.7</ele>
        <time>2021-07-18T09:34:36Z</time>
      </trkpt>
      <trkpt lat="46.8285" lon="5.88338">
        <ele>638.5</ele>
        <time>2021-07-18T09:34:41Z</time>
      </trkpt>
      <trkpt lat="46.82852" lon="5.88331">
        <ele>638</ele>
        <time>2021-07-18T09:34:46Z</time>
      </trkpt>
      <trkpt lat="46.82854" lon="5.88325">
        <ele>638</ele>
        <time>2021-07-18T09:34:51Z</time>
      </trkpt>
      <trkpt lat="46.82855" lon="5.88318">
        <ele>638.6</ele>
        <time>2021-07-18T09:34:55Z</time>
      </trkpt>
      <trkpt lat="46.82856" lon="5.8831">
        <ele>639.7</ele>
        <time>2021-07-18T09:34:59Z</time>
      </trkpt>
      <trkpt lat="46.82858" lon="5.88303">
        <ele>641.3</ele>
        <time>2021-07-18T09:35:04Z</time>
      </trkpt>
      <trkpt lat="46.8286" lon="5.88295">
        <ele>643</ele>
        <time>2021-07-18T09:35:09Z</time>
      </trkpt>
      <trkpt lat="46.82861" lon="5.88289">
        <ele>644.3</ele>
        <time>2021-07-18T09:35:14Z</time>
      </trkpt>
      <trkpt lat="46.82863" lon="5.88283">
        <ele>645</ele>
        <time>2021-07-18T09:35:19Z</time>
      </trkpt>
      <trkpt lat="46.82864" lon="5.88276">
        <ele>645.6</ele>
        <time>2021-07-18T09:35:23Z</time>
      </trkpt>
      <trkpt lat="46.82864" lon="5.88268">
        <ele>646</ele>
        <time>2021-07-18T09:35:27Z</time>
      </trkpt>
      <trkpt lat="46.82863" lon="5.88261">
        <ele>646.3</ele>
        <time>2021-07-18T09:35:31Z</time>
      </trkpt>
      <trkpt lat="46.82861" lon="5.88253">
        <ele>646.6</ele>
        <time>2021-07-18T09:35:35Z</time>
      </trkpt>
      <trkpt lat="46.8286" lon="5.88246">
        <ele>646.7</ele>
        <time>2021-07-18T09:35:39Z</time>
      </trkpt>
      <trkpt lat="46.82857" lon="5.8824">
        <ele>646.6</ele>
        <time>2021-07-18T09:35:43Z</time>
      </trkpt>
      <trkpt lat="46.82855" lon="5.88233">
        <ele>645.9</ele>
        <time>2021-07-18T09:35:47Z</time>
      </trkpt>
      <trkpt lat="46.82853" lon="5.88227">
        <ele>645.8</ele>
        <time>2021-07-18T09:35:52Z</time>
      </trkpt>
      <trkpt lat="46.8285" lon="5.8822">
        <ele>646.3</ele>
        <time>2021-07-18T09:35:57Z</time>
      </trkpt>
      <trkpt lat="46.82849" lon="5.88213">
        <ele>646</ele>
        <time>2021-07-18T09:36:03Z</time>
      </trkpt>
      <trkpt lat="46.82847" lon="5.88206">
        <ele>645.6</ele>
        <time>2021-07-18T09:36:07Z</time>
      </trkpt>
      <trkpt lat="46.82845" lon="5.88199">
        <ele>645.5</ele>
        <time>2021-07-18T09:36:11Z</time>
      </trkpt>
      <trkpt lat="46.82843" lon="5.88192">
        <ele>645.4</ele>
        <time>2021-07-18T09:36:15Z</time>
      </trkpt>
      <trkpt lat="46.8284" lon="5.88186">
        <ele>645.1</ele>
        <time>2021-07-18T09:36:19Z</time>
      </trkpt>
      <trkpt lat="46.82837" lon="5.8818">
        <ele>644.8</ele>
        <time>2021-07-18T09:36:24Z</time>
      </trkpt>
      <trkpt lat="46.82836" lon="5.88173">
        <ele>644.8</ele>
        <time>2021-07-18T09:36:27Z</time>
      </trkpt>
      <trkpt lat="46.82835" lon="5.88166">
        <ele>645.2</ele>
        <time>2021-07-18T09:36:31Z</time>
      </trkpt>
      <trkpt lat="46.82833" lon="5.88159">
        <ele>645.5</ele>
        <time>2021-07-18T09:36:36Z</time>
      </trkpt>
      <trkpt lat="46.8283" lon="5.88152">
        <ele>645.4</ele>
        <time>2021-07-18T09:36:40Z</time>
      </trkpt>
      <trkpt lat="46.82828" lon="5.88146">
        <ele>645</ele>
        <time>2021-07-18T09:36:44Z</time>
      </trkpt>
      <trkpt lat="46.82825" lon="5.8814">
        <ele>644.4</ele>
        <time>2021-07-18T09:36:48Z</time>
      </trkpt>
      <trkpt lat="46.82823" lon="5.88132">
        <ele>644.2</ele>
        <time>2021-07-18T09:36:52Z</time>
      </trkpt>
      <trkpt lat="46.82822" lon="5.88126">
        <ele>644.5</ele>
        <time>2021-07-18T09:36:56Z</time>
      </trkpt>
      <trkpt lat="46.82821" lon="5.88119">
        <ele>645.4</ele>
        <time>2021-07-18T09:37:01Z</time>
      </trkpt>
      <trkpt lat="46.82819" lon="5.88112">
        <ele>645.9</ele>
        <time>2021-07-18T09:37:06Z</time>
      </trkpt>
      <trkpt lat="46.82818" lon="5.88105">
        <ele>646.1</ele>
        <time>2021-07-18T09:37:10Z</time>
      </trkpt>
      <trkpt lat="46.82816" lon="5.88097">
        <ele>646.4</ele>
        <time>2021-07-18T09:37:14Z</time>
      </trkpt>
      <trkpt lat="46.82814" lon="5.8809">
        <ele>646.4</ele>
        <time>2021-07-18T09:37:18Z</time>
      </trkpt>
      <trkpt lat="46.82812" lon="5.88083">
        <ele>646.6</ele>
        <time>2021-07-18T09:37:22Z</time>
      </trkpt>
      <trkpt lat="46.8281" lon="5.88077">
        <ele>647.1</ele>
        <time>2021-07-18T09:37:27Z</time>
      </trkpt>
      <trkpt lat="46.82809" lon="5.8807">
        <ele>647.3</ele>
        <time>2021-07-18T09:37:32Z</time>
      </trkpt>
      <trkpt lat="46.82808" lon="5.88062">
        <ele>647.6</ele>
        <time>2021-07-18T09:37:37Z</time>
      </trkpt>
      <trkpt lat="46.82807" lon="5.88055">
        <ele>648</ele>
        <time>2021-07-18T09:37:42Z</time>
      </trkpt>
      <trkpt lat="46.82805" lon="5.88048">
        <ele>648.1</ele>
        <time>2021-07-18T09:37:46Z</time>
      </trkpt>
      <trkpt lat="46.82804" lon="5.88041">
        <ele>648.6</ele>
        <time>2021-07-18T09:37:50Z</time>
      </trkpt>
      <trkpt lat="46.82802" lon="5.88034">
        <ele>649.8</ele>
        <time>2021-07-18T09:37:55Z</time>
      </trkpt>
      <trkpt lat="46.82801" lon="5.88027">
        <ele>651.4</ele>
        <time>2021-07-18T09:38:01Z</time>
      </trkpt>
      <trkpt lat="46.82799" lon="5.88021">
        <ele>652.5</ele>
        <time>2021-07-18T09:38:05Z</time>
      </trkpt>
      <trkpt lat="46.82798" lon="5.88014">
        <ele>653.8</ele>
        <time>2021-07-18T09:38:09Z</time>
      </trkpt>
      <trkpt lat="46.82796" lon="5.88006">
        <ele>655</ele>
        <time>2021-07-18T09:38:14Z</time>
      </trkpt>
      <trkpt lat="46.82796" lon="5.87998">
        <ele>656.1</ele>
        <time>2021-07-18T09:38:19Z</time>
      </trkpt>
      <trkpt lat="46.82796" lon="5.8799">
        <ele>656.4</ele>
        <time>2021-07-18T09:38:25Z</time>
      </trkpt>
      <trkpt lat="46.82795" lon="5.87983">
        <ele>656.1</ele>
        <time>2021-07-18T09:38:29Z</time>
      </trkpt>
      <trkpt lat="46.82795" lon="5.87977">
        <ele>655.2</ele>
        <time>2021-07-18T09:38:34Z</time>
      </trkpt>
      <trkpt lat="46.82793" lon="5.87969">
        <ele>653.9</ele>
        <time>2021-07-18T09:38:39Z</time>
      </trkpt>
      <trkpt lat="46.82791" lon="5.87963">
        <ele>652.8</ele>
        <time>2021-07-18T09:38:43Z</time>
      </trkpt>
      <trkpt lat="46.82789" lon="5.87957">
        <ele>652.2</ele>
        <time>2021-07-18T09:38:46Z</time>
      </trkpt>
      <trkpt lat="46.82787" lon="5.87949">
        <ele>652.2</ele>
        <time>2021-07-18T09:38:50Z</time>
      </trkpt>
      <trkpt lat="46.82787" lon="5.87942">
        <ele>653</ele>
        <time>2021-07-18T09:38:54Z</time>
      </trkpt>
      <trkpt lat="46.82786" lon="5.87934">
        <ele>653.9</ele>
        <time>2021-07-18T09:38:58Z</time>
      </trkpt>
      <trkpt lat="46.82785" lon="5.87927">
        <ele>654.8</ele>
        <time>2021-07-18T09:39:02Z</time>
      </trkpt>
      <trkpt lat="46.82785" lon="5.87919">
        <ele>655.5</ele>
        <time>2021-07-18T09:39:07Z</time>
      </trkpt>
      <trkpt lat="46.82784" lon="5.87912">
        <ele>655.8</ele>
        <time>2021-07-18T09:39:12Z</time>
      </trkpt>
      <trkpt lat="46.82784" lon="5.87905">
        <ele>656.5</ele>
        <time>2021-07-18T09:39:17Z</time>
      </trkpt>
      <trkpt lat="46.82784" lon="5.87898">
        <ele>657</ele>
        <time>2021-07-18T09:39:22Z</time>
      </trkpt>
      <trkpt lat="46.82783" lon="5.8789">
        <ele>657.4</ele>
        <time>2021-07-18T09:39:27Z</time>
      </trkpt>
      <trkpt lat="46.82783" lon="5.87883">
        <ele>657.2</ele>
        <time>2021-07-18T09:39:32Z</time>
      </trkpt>
      <trkpt lat="46.82784" lon="5.87875">
        <ele>657</ele>
        <time>2021-07-18T09:39:39Z</time>
      </trkpt>
      <trkpt lat="46.82783" lon="5.87868">
        <ele>657.3</ele>
        <time>2021-07-18T09:39:44Z</time>
      </trkpt>
      <trkpt lat="46.82781" lon="5.87861">
        <ele>657.5</ele>
        <time>2021-07-18T09:39:49Z</time>
      </trkpt>
      <trkpt lat="46.82781" lon="5.87854">
        <ele>657.7</ele>
        <time>2021-07-18T09:39:53Z</time>
      </trkpt>
      <trkpt lat="46.82781" lon="5.87845">
        <ele>658.3</ele>
        <time>2021-07-18T09:39:58Z</time>
      </trkpt>
      <trkpt lat="46.8278" lon="5.87838">
        <ele>659.3</ele>
        <time>2021-07-18T09:40:05Z</time>
      </trkpt>
      <trkpt lat="46.8278" lon="5.87829">
        <ele>655.8</ele>
        <time>2021-07-18T09:40:38Z</time>
      </trkpt>
      <trkpt lat="46.8278" lon="5.87823">
        <ele>657.4</ele>
        <time>2021-07-18T09:40:45Z</time>
      </trkpt>
      <trkpt lat="46.82779" lon="5.87816">
        <ele>658.7</ele>
        <time>2021-07-18T09:40:52Z</time>
      </trkpt>
      <trkpt lat="46.82778" lon="5.87808">
        <ele>659.3</ele>
        <time>2021-07-18T09:40:57Z</time>
      </trkpt>
      <trkpt lat="46.82776" lon="5.87802">
        <ele>659.6</ele>
        <time>2021-07-18T09:41:02Z</time>
      </trkpt>
      <trkpt lat="46.82773" lon="5.87795">
        <ele>659.8</ele>
        <time>2021-07-18T09:41:07Z</time>
      </trkpt>
      <trkpt lat="46.82772" lon="5.87788">
        <ele>660.2</ele>
        <time>2021-07-18T09:41:11Z</time>
      </trkpt>
      <trkpt lat="46.82769" lon="5.87782">
        <ele>660.2</ele>
        <time>2021-07-18T09:41:16Z</time>
      </trkpt>
      <trkpt lat="46.82766" lon="5.87776">
        <ele>660.3</ele>
        <time>2021-07-18T09:41:21Z</time>
      </trkpt>
      <trkpt lat="46.82764" lon="5.87769">
        <ele>660</ele>
        <time>2021-07-18T09:41:26Z</time>
      </trkpt>
      <trkpt lat="46.82763" lon="5.87763">
        <ele>659.9</ele>
        <time>2021-07-18T09:41:30Z</time>
      </trkpt>
      <trkpt lat="46.82761" lon="5.87756">
        <ele>659.8</ele>
        <time>2021-07-18T09:41:34Z</time>
      </trkpt>
      <trkpt lat="46.82758" lon="5.87749">
        <ele>659.8</ele>
        <time>2021-07-18T09:41:39Z</time>
      </trkpt>
      <trkpt lat="46.82757" lon="5.87742">
        <ele>660.1</ele>
        <time>2021-07-18T09:41:43Z</time>
      </trkpt>
      <trkpt lat="46.82755" lon="5.87734">
        <ele>660.5</ele>
        <time>2021-07-18T09:41:47Z</time>
      </trkpt>
      <trkpt lat="46.82754" lon="5.87726">
        <ele>660.9</ele>
        <time>2021-07-18T09:41:51Z</time>
      </trkpt>
      <trkpt lat="46.82753" lon="5.87719">
        <ele>661.5</ele>
        <time>2021-07-18T09:41:55Z</time>
      </trkpt>
      <trkpt lat="46.82752" lon="5.87712">
        <ele>661.7</ele>
        <time>2021-07-18T09:41:59Z</time>
      </trkpt>
      <trkpt lat="46.8275" lon="5.87704">
        <ele>661.7</ele>
        <time>2021-07-18T09:42:03Z</time>
      </trkpt>
      <trkpt lat="46.82749" lon="5.87695">
        <ele>661.4</ele>
        <time>2021-07-18T09:42:07Z</time>
      </trkpt>
      <trkpt lat="46.82748" lon="5.87689">
        <ele>660.9</ele>
        <time>2021-07-18T09:42:11Z</time>
      </trkpt>
      <trkpt lat="46.82747" lon="5.87682">
        <ele>660.4</ele>
        <time>2021-07-18T09:42:16Z</time>
      </trkpt>
      <trkpt lat="46.82747" lon="5.87674">
        <ele>660.1</ele>
        <time>2021-07-18T09:42:20Z</time>
      </trkpt>
      <trkpt lat="46.82746" lon="5.87666">
        <ele>659.8</ele>
        <time>2021-07-18T09:42:24Z</time>
      </trkpt>
      <trkpt lat="46.82746" lon="5.87659">
        <ele>659.6</ele>
        <time>2021-07-18T09:42:28Z</time>
      </trkpt>
      <trkpt lat="46.82747" lon="5.87652">
        <ele>659.5</ele>
        <time>2021-07-18T09:42:31Z</time>
      </trkpt>
      <trkpt lat="46.82748" lon="5.87645">
        <ele>659.2</ele>
        <time>2021-07-18T09:42:34Z</time>
      </trkpt>
      <trkpt lat="46.82749" lon="5.87637">
        <ele>658.9</ele>
        <time>2021-07-18T09:42:38Z</time>
      </trkpt>
      <trkpt lat="46.8275" lon="5.87629">
        <ele>658.9</ele>
        <time>2021-07-18T09:42:42Z</time>
      </trkpt>
      <trkpt lat="46.82751" lon="5.87622">
        <ele>659.3</ele>
        <time>2021-07-18T09:42:46Z</time>
      </trkpt>
      <trkpt lat="46.82752" lon="5.87614">
        <ele>659.9</ele>
        <time>2021-07-18T09:42:51Z</time>
      </trkpt>
      <trkpt lat="46.82752" lon="5.87608">
        <ele>659.7</ele>
        <time>2021-07-18T09:42:55Z</time>
      </trkpt>
      <trkpt lat="46.82753" lon="5.876">
        <ele>658.8</ele>
        <time>2021-07-18T09:43:00Z</time>
      </trkpt>
      <trkpt lat="46.82754" lon="5.87594">
        <ele>658.3</ele>
        <time>2021-07-18T09:43:05Z</time>
      </trkpt>
      <trkpt lat="46.82754" lon="5.87587">
        <ele>657.9</ele>
        <time>2021-07-18T09:43:10Z</time>
      </trkpt>
      <trkpt lat="46.82755" lon="5.87579">
        <ele>657.4</ele>
        <time>2021-07-18T09:43:15Z</time>
      </trkpt>
      <trkpt lat="46.82755" lon="5.87572">
        <ele>657.2</ele>
        <time>2021-07-18T09:43:19Z</time>
      </trkpt>
      <trkpt lat="46.82755" lon="5.87565">
        <ele>657.1</ele>
        <time>2021-07-18T09:43:23Z</time>
      </trkpt>
      <trkpt lat="46.82755" lon="5.87557">
        <ele>657.2</ele>
        <time>2021-07-18T09:43:27Z</time>
      </trkpt>
      <trkpt lat="46.82755" lon="5.8755">
        <ele>657.7</ele>
        <time>2021-07-18T09:43:31Z</time>
      </trkpt>
      <trkpt lat="46.82755" lon="5.87542">
        <ele>658.6</ele>
        <time>2021-07-18T09:43:35Z</time>
      </trkpt>
      <trkpt lat="46.82755" lon="5.87534">
        <ele>660.1</ele>
        <time>2021-07-18T09:43:39Z</time>
      </trkpt>
      <trkpt lat="46.82755" lon="5.87527">
        <ele>661.5</ele>
        <time>2021-07-18T09:43:43Z</time>
      </trkpt>
      <trkpt lat="46.82755" lon="5.8752">
        <ele>662.4</ele>
        <time>2021-07-18T09:43:47Z</time>
      </trkpt>
      <trkpt lat="46.82755" lon="5.87513">
        <ele>663.1</ele>
        <time>2021-07-18T09:43:53Z</time>
      </trkpt>
      <trkpt lat="46.82754" lon="5.87505">
        <ele>663.1</ele>
        <time>2021-07-18T09:43:59Z</time>
      </trkpt>
      <trkpt lat="46.82755" lon="5.87498">
        <ele>663.5</ele>
        <time>2021-07-18T09:44:05Z</time>
      </trkpt>
      <trkpt lat="46.82755" lon="5.87492">
        <ele>663.5</ele>
        <time>2021-07-18T09:44:10Z</time>
      </trkpt>
      <trkpt lat="46.82754" lon="5.87484">
        <ele>663.1</ele>
        <time>2021-07-18T09:44:15Z</time>
      </trkpt>
      <trkpt lat="46.82752" lon="5.87478">
        <ele>662.1</ele>
        <time>2021-07-18T09:44:20Z</time>
      </trkpt>
      <trkpt lat="46.82752" lon="5.8747">
        <ele>661.6</ele>
        <time>2021-07-18T09:44:25Z</time>
      </trkpt>
      <trkpt lat="46.82756" lon="5.87465">
        <ele>662.7</ele>
        <time>2021-07-18T09:44:33Z</time>
      </trkpt>
      <trkpt lat="46.8276" lon="5.87466">
        <ele>664</ele>
        <time>2021-07-18T09:44:41Z</time>
      </trkpt>
      <trkpt lat="46.82765" lon="5.87469">
        <ele>663.5</ele>
        <time>2021-07-18T09:44:45Z</time>
      </trkpt>
      <trkpt lat="46.82769" lon="5.87472">
        <ele>662.1</ele>
        <time>2021-07-18T09:44:50Z</time>
      </trkpt>
      <trkpt lat="46.82774" lon="5.87474">
        <ele>661.7</ele>
        <time>2021-07-18T09:44:54Z</time>
      </trkpt>
      <trkpt lat="46.82778" lon="5.87476">
        <ele>661.3</ele>
        <time>2021-07-18T09:44:57Z</time>
      </trkpt>
      <trkpt lat="46.82783" lon="5.87478">
        <ele>660</ele>
        <time>2021-07-18T09:45:02Z</time>
      </trkpt>
      <trkpt lat="46.82787" lon="5.87481">
        <ele>658.8</ele>
        <time>2021-07-18T09:45:06Z</time>
      </trkpt>
      <trkpt lat="46.82792" lon="5.87483">
        <ele>657.6</ele>
        <time>2021-07-18T09:45:11Z</time>
      </trkpt>
      <trkpt lat="46.82798" lon="5.87485">
        <ele>657.1</ele>
        <time>2021-07-18T09:45:15Z</time>
      </trkpt>
      <trkpt lat="46.82802" lon="5.87487">
        <ele>656.6</ele>
        <time>2021-07-18T09:45:21Z</time>
      </trkpt>
      <trkpt lat="46.82807" lon="5.87486">
        <ele>656.7</ele>
        <time>2021-07-18T09:45:27Z</time>
      </trkpt>
      <trkpt lat="46.82812" lon="5.87486">
        <ele>656.7</ele>
        <time>2021-07-18T09:45:32Z</time>
      </trkpt>
      <trkpt lat="46.82817" lon="5.87486">
        <ele>656.5</ele>
        <time>2021-07-18T09:45:36Z</time>
      </trkpt>
      <trkpt lat="46.82822" lon="5.87485">
        <ele>655.9</ele>
        <time>2021-07-18T09:45:40Z</time>
      </trkpt>
      <trkpt lat="46.82828" lon="5.87482">
        <ele>655.7</ele>
        <time>2021-07-18T09:45:44Z</time>
      </trkpt>
      <trkpt lat="46.82833" lon="5.87482">
        <ele>655.9</ele>
        <time>2021-07-18T09:45:47Z</time>
      </trkpt>
      <trkpt lat="46.82837" lon="5.87481">
        <ele>656.5</ele>
        <time>2021-07-18T09:45:50Z</time>
      </trkpt>
      <trkpt lat="46.82843" lon="5.87481">
        <ele>657.1</ele>
        <time>2021-07-18T09:45:54Z</time>
      </trkpt>
      <trkpt lat="46.82847" lon="5.87481">
        <ele>657.6</ele>
        <time>2021-07-18T09:45:59Z</time>
      </trkpt>
      <trkpt lat="46.82852" lon="5.87479">
        <ele>657.7</ele>
        <time>2021-07-18T09:46:04Z</time>
      </trkpt>
      <trkpt lat="46.82857" lon="5.87477">
        <ele>657.4</ele>
        <time>2021-07-18T09:46:08Z</time>
      </trkpt>
      <trkpt lat="46.82861" lon="5.87474">
        <ele>656.9</ele>
        <time>2021-07-18T09:46:12Z</time>
      </trkpt>
      <trkpt lat="46.82865" lon="5.8747">
        <ele>656.6</ele>
        <time>2021-07-18T09:46:16Z</time>
      </trkpt>
      <trkpt lat="46.82871" lon="5.87467">
        <ele>656.6</ele>
        <time>2021-07-18T09:46:20Z</time>
      </trkpt>
      <trkpt lat="46.82876" lon="5.87464">
        <ele>657.1</ele>
        <time>2021-07-18T09:46:24Z</time>
      </trkpt>
      <trkpt lat="46.8288" lon="5.87461">
        <ele>657.3</ele>
        <time>2021-07-18T09:46:28Z</time>
      </trkpt>
      <trkpt lat="46.82885" lon="5.87458">
        <ele>657.3</ele>
        <time>2021-07-18T09:46:34Z</time>
      </trkpt>
      <trkpt lat="46.82889" lon="5.87456">
        <ele>657.6</ele>
        <time>2021-07-18T09:46:39Z</time>
      </trkpt>
      <trkpt lat="46.82894" lon="5.87453">
        <ele>657.6</ele>
        <time>2021-07-18T09:46:44Z</time>
      </trkpt>
      <trkpt lat="46.82899" lon="5.87451">
        <ele>657.9</ele>
        <time>2021-07-18T09:46:48Z</time>
      </trkpt>
      <trkpt lat="46.82903" lon="5.87448">
        <ele>658.3</ele>
        <time>2021-07-18T09:46:53Z</time>
      </trkpt>
      <trkpt lat="46.82908" lon="5.87446">
        <ele>658.8</ele>
        <time>2021-07-18T09:46:57Z</time>
      </trkpt>
      <trkpt lat="46.82914" lon="5.87447">
        <ele>659.3</ele>
        <time>2021-07-18T09:47:02Z</time>
      </trkpt>
      <trkpt lat="46.82919" lon="5.87447">
        <ele>659.4</ele>
        <time>2021-07-18T09:47:06Z</time>
      </trkpt>
      <trkpt lat="46.82924" lon="5.87448">
        <ele>659</ele>
        <time>2021-07-18T09:47:11Z</time>
      </trkpt>
      <trkpt lat="46.82929" lon="5.8745">
        <ele>658.7</ele>
        <time>2021-07-18T09:47:15Z</time>
      </trkpt>
      <trkpt lat="46.82934" lon="5.87451">
        <ele>658.5</ele>
        <time>2021-07-18T09:47:19Z</time>
      </trkpt>
      <trkpt lat="46.82938" lon="5.87454">
        <ele>658.5</ele>
        <time>2021-07-18T09:47:23Z</time>
      </trkpt>
      <trkpt lat="46.82943" lon="5.87457">
        <ele>659.4</ele>
        <time>2021-07-18T09:47:28Z</time>
      </trkpt>
      <trkpt lat="46.82947" lon="5.87462">
        <ele>660.4</ele>
        <time>2021-07-18T09:47:33Z</time>
      </trkpt>
      <trkpt lat="46.82951" lon="5.87467">
        <ele>661.3</ele>
        <time>2021-07-18T09:47:37Z</time>
      </trkpt>
      <trkpt lat="46.82955" lon="5.8747">
        <ele>662.3</ele>
        <time>2021-07-18T09:47:41Z</time>
      </trkpt>
      <trkpt lat="46.82959" lon="5.87474">
        <ele>663</ele>
        <time>2021-07-18T09:47:46Z</time>
      </trkpt>
      <trkpt lat="46.82964" lon="5.87477">
        <ele>663.3</ele>
        <time>2021-07-18T09:47:50Z</time>
      </trkpt>
      <trkpt lat="46.82968" lon="5.8748">
        <ele>662.8</ele>
        <time>2021-07-18T09:47:56Z</time>
      </trkpt>
      <trkpt lat="46.82974" lon="5.87481">
        <ele>662</ele>
        <time>2021-07-18T09:48:02Z</time>
      </trkpt>
      <trkpt lat="46.82979" lon="5.87482">
        <ele>661.2</ele>
        <time>2021-07-18T09:48:07Z</time>
      </trkpt>
      <trkpt lat="46.82983" lon="5.87484">
        <ele>660.3</ele>
        <time>2021-07-18T09:48:11Z</time>
      </trkpt>
      <trkpt lat="46.82988" lon="5.87485">
        <ele>659.7</ele>
        <time>2021-07-18T09:48:15Z</time>
      </trkpt>
      <trkpt lat="46.82993" lon="5.87486">
        <ele>659.2</ele>
        <time>2021-07-18T09:48:19Z</time>
      </trkpt>
      <trkpt lat="46.82998" lon="5.87489">
        <ele>658</ele>
        <time>2021-07-18T09:48:25Z</time>
      </trkpt>
      <trkpt lat="46.83003" lon="5.87493">
        <ele>657.4</ele>
        <time>2021-07-18T09:48:31Z</time>
      </trkpt>
      <trkpt lat="46.83007" lon="5.87497">
        <ele>657.1</ele>
        <time>2021-07-18T09:48:36Z</time>
      </trkpt>
      <trkpt lat="46.83011" lon="5.87501">
        <ele>656.6</ele>
        <time>2021-07-18T09:48:42Z</time>
      </trkpt>
      <trkpt lat="46.83015" lon="5.87506">
        <ele>656.7</ele>
        <time>2021-07-18T09:48:47Z</time>
      </trkpt>
      <trkpt lat="46.8302" lon="5.8751">
        <ele>656.5</ele>
        <time>2021-07-18T09:48:51Z</time>
      </trkpt>
      <trkpt lat="46.83025" lon="5.87513">
        <ele>656.8</ele>
        <time>2021-07-18T09:48:55Z</time>
      </trkpt>
      <trkpt lat="46.83029" lon="5.87519">
        <ele>657.5</ele>
        <time>2021-07-18T09:48:59Z</time>
      </trkpt>
      <trkpt lat="46.83032" lon="5.87524">
        <ele>658.1</ele>
        <time>2021-07-18T09:49:04Z</time>
      </trkpt>
      <trkpt lat="46.83036" lon="5.87529">
        <ele>658.3</ele>
        <time>2021-07-18T09:49:09Z</time>
      </trkpt>
      <trkpt lat="46.8304" lon="5.87533">
        <ele>658.1</ele>
        <time>2021-07-18T09:49:13Z</time>
      </trkpt>
      <trkpt lat="46.83044" lon="5.87538">
        <ele>657.9</ele>
        <time>2021-07-18T09:49:17Z</time>
      </trkpt>
      <trkpt lat="46.83048" lon="5.87543">
        <ele>658.4</ele>
        <time>2021-07-18T09:49:21Z</time>
      </trkpt>
      <trkpt lat="46.83052" lon="5.87548">
        <ele>658.9</ele>
        <time>2021-07-18T09:49:25Z</time>
      </trkpt>
      <trkpt lat="46.83055" lon="5.87554">
        <ele>659</ele>
        <time>2021-07-18T09:49:30Z</time>
      </trkpt>
      <trkpt lat="46.83059" lon="5.87559">
        <ele>658.7</ele>
        <time>2021-07-18T09:49:34Z</time>
      </trkpt>
      <trkpt lat="46.83061" lon="5.87566">
        <ele>658.4</ele>
        <time>2021-07-18T09:49:38Z</time>
      </trkpt>
      <trkpt lat="46.83065" lon="5.87571">
        <ele>658</ele>
        <time>2021-07-18T09:49:42Z</time>
      </trkpt>
      <trkpt lat="46.83069" lon="5.87575">
        <ele>657.8</ele>
        <time>2021-07-18T09:49:46Z</time>
      </trkpt>
      <trkpt lat="46.83073" lon="5.87579">
        <ele>657.5</ele>
        <time>2021-07-18T09:49:50Z</time>
      </trkpt>
      <trkpt lat="46.83077" lon="5.87581">
        <ele>657.2</ele>
        <time>2021-07-18T09:49:56Z</time>
      </trkpt>
      <trkpt lat="46.83082" lon="5.87578">
        <ele>656.7</ele>
        <time>2021-07-18T09:50:05Z</time>
      </trkpt>
      <trkpt lat="46.83086" lon="5.87574">
        <ele>655.8</ele>
        <time>2021-07-18T09:50:10Z</time>
      </trkpt>
      <trkpt lat="46.83091" lon="5.87572">
        <ele>654.9</ele>
        <time>2021-07-18T09:50:16Z</time>
      </trkpt>
      <trkpt lat="46.83095" lon="5.87569">
        <ele>654.7</ele>
        <time>2021-07-18T09:50:21Z</time>
      </trkpt>
      <trkpt lat="46.83099" lon="5.87564">
        <ele>655.3</ele>
        <time>2021-07-18T09:50:27Z</time>
      </trkpt>
      <trkpt lat="46.831" lon="5.87558">
        <ele>658.4</ele>
        <time>2021-07-18T09:51:18Z</time>
      </trkpt>
      <trkpt lat="46.83104" lon="5.87555">
        <ele>658.9</ele>
        <time>2021-07-18T09:51:24Z</time>
      </trkpt>
      <trkpt lat="46.831" lon="5.87552">
        <ele>658.3</ele>
        <time>2021-07-18T09:51:35Z</time>
      </trkpt>
      <trkpt lat="46.83099" lon="5.87545">
        <ele>660.1</ele>
        <time>2021-07-18T09:55:56Z</time>
      </trkpt>
      <trkpt lat="46.83102" lon="5.8754">
        <ele>659.6</ele>
        <time>2021-07-18T09:56:01Z</time>
      </trkpt>
      <trkpt lat="46.83104" lon="5.87534">
        <ele>659.4</ele>
        <time>2021-07-18T09:56:06Z</time>
      </trkpt>
      <trkpt lat="46.83107" lon="5.87529">
        <ele>659.3</ele>
        <time>2021-07-18T09:56:13Z</time>
      </trkpt>
      <trkpt lat="46.83109" lon="5.87522">
        <ele>659.6</ele>
        <time>2021-07-18T09:56:17Z</time>
      </trkpt>
      <trkpt lat="46.8311" lon="5.87515">
        <ele>660.3</ele>
        <time>2021-07-18T09:56:21Z</time>
      </trkpt>
      <trkpt lat="46.83114" lon="5.8751">
        <ele>661.5</ele>
        <time>2021-07-18T09:56:26Z</time>
      </trkpt>
      <trkpt lat="46.83118" lon="5.87507">
        <ele>662.2</ele>
        <time>2021-07-18T09:56:30Z</time>
      </trkpt>
      <trkpt lat="46.83123" lon="5.87502">
        <ele>663.7</ele>
        <time>2021-07-18T09:56:36Z</time>
      </trkpt>
      <trkpt lat="46.83127" lon="5.87498">
        <ele>665.1</ele>
        <time>2021-07-18T09:56:42Z</time>
      </trkpt>
      <trkpt lat="46.83131" lon="5.87495">
        <ele>665.3</ele>
        <time>2021-07-18T09:56:47Z</time>
      </trkpt>
      <trkpt lat="46.83136" lon="5.8749">
        <ele>665.6</ele>
        <time>2021-07-18T09:56:52Z</time>
      </trkpt>
      <trkpt lat="46.83139" lon="5.87485">
        <ele>666.1</ele>
        <time>2021-07-18T09:56:58Z</time>
      </trkpt>
      <trkpt lat="46.83144" lon="5.87484">
        <ele>667</ele>
        <time>2021-07-18T09:57:10Z</time>
      </trkpt>
      <trkpt lat="46.83148" lon="5.87482">
        <ele>667.6</ele>
        <time>2021-07-18T09:57:15Z</time>
      </trkpt>
      <trkpt lat="46.83153" lon="5.8748">
        <ele>667.7</ele>
        <time>2021-07-18T09:57:19Z</time>
      </trkpt>
      <trkpt lat="46.83158" lon="5.87479">
        <ele>667</ele>
        <time>2021-07-18T09:57:23Z</time>
      </trkpt>
      <trkpt lat="46.83163" lon="5.87477">
        <ele>665.9</ele>
        <time>2021-07-18T09:57:27Z</time>
      </trkpt>
      <trkpt lat="46.83166" lon="5.87471">
        <ele>663.2</ele>
        <time>2021-07-18T09:57:33Z</time>
      </trkpt>
      <trkpt lat="46.8317" lon="5.87466">
        <ele>662.3</ele>
        <time>2021-07-18T09:57:37Z</time>
      </trkpt>
      <trkpt lat="46.83173" lon="5.8746">
        <ele>661.6</ele>
        <time>2021-07-18T09:57:40Z</time>
      </trkpt>
      <trkpt lat="46.83177" lon="5.87454">
        <ele>661.2</ele>
        <time>2021-07-18T09:57:44Z</time>
      </trkpt>
      <trkpt lat="46.83179" lon="5.87447">
        <ele>660.6</ele>
        <time>2021-07-18T09:57:51Z</time>
      </trkpt>
      <trkpt lat="46.83179" lon="5.8744">
        <ele>660.4</ele>
        <time>2021-07-18T09:57:56Z</time>
      </trkpt>
      <trkpt lat="46.8318" lon="5.87434">
        <ele>660.6</ele>
        <time>2021-07-18T09:58:01Z</time>
      </trkpt>
      <trkpt lat="46.83185" lon="5.87431">
        <ele>661.1</ele>
        <time>2021-07-18T09:58:06Z</time>
      </trkpt>
      <trkpt lat="46.83187" lon="5.87425">
        <ele>662.4</ele>
        <time>2021-07-18T09:58:11Z</time>
      </trkpt>
      <trkpt lat="46.8319" lon="5.87418">
        <ele>663.3</ele>
        <time>2021-07-18T09:58:15Z</time>
      </trkpt>
      <trkpt lat="46.83195" lon="5.87414">
        <ele>664.2</ele>
        <time>2021-07-18T09:58:21Z</time>
      </trkpt>
      <trkpt lat="46.83199" lon="5.8741">
        <ele>664.5</ele>
        <time>2021-07-18T09:58:26Z</time>
      </trkpt>
      <trkpt lat="46.83201" lon="5.87404">
        <ele>664.9</ele>
        <time>2021-07-18T09:58:30Z</time>
      </trkpt>
      <trkpt lat="46.83203" lon="5.87396">
        <ele>665.2</ele>
        <time>2021-07-18T09:58:34Z</time>
      </trkpt>
      <trkpt lat="46.83206" lon="5.87391">
        <ele>665.5</ele>
        <time>2021-07-18T09:58:38Z</time>
      </trkpt>
      <trkpt lat="46.83209" lon="5.87386">
        <ele>666.3</ele>
        <time>2021-07-18T09:58:43Z</time>
      </trkpt>
      <trkpt lat="46.83212" lon="5.87379">
        <ele>667.3</ele>
        <time>2021-07-18T09:58:48Z</time>
      </trkpt>
      <trkpt lat="46.83215" lon="5.87374">
        <ele>667.9</ele>
        <time>2021-07-18T09:58:58Z</time>
      </trkpt>
      <trkpt lat="46.83219" lon="5.87369">
        <ele>668.2</ele>
        <time>2021-07-18T09:59:04Z</time>
      </trkpt>
      <trkpt lat="46.83222" lon="5.87363">
        <ele>668.2</ele>
        <time>2021-07-18T09:59:08Z</time>
      </trkpt>
      <trkpt lat="46.83223" lon="5.87354">
        <ele>668.5</ele>
        <time>2021-07-18T09:59:12Z</time>
      </trkpt>
      <trkpt lat="46.83226" lon="5.87348">
        <ele>668.9</ele>
        <time>2021-07-18T09:59:16Z</time>
      </trkpt>
      <trkpt lat="46.83228" lon="5.87342">
        <ele>669.7</ele>
        <time>2021-07-18T09:59:20Z</time>
      </trkpt>
      <trkpt lat="46.83229" lon="5.87335">
        <ele>670.6</ele>
        <time>2021-07-18T09:59:24Z</time>
      </trkpt>
      <trkpt lat="46.83232" lon="5.8733">
        <ele>672.3</ele>
        <time>2021-07-18T09:59:29Z</time>
      </trkpt>
      <trkpt lat="46.83237" lon="5.87329">
        <ele>673.5</ele>
        <time>2021-07-18T09:59:32Z</time>
      </trkpt>
      <trkpt lat="46.83242" lon="5.87327">
        <ele>674.6</ele>
        <time>2021-07-18T09:59:36Z</time>
      </trkpt>
      <trkpt lat="46.83246" lon="5.87322">
        <ele>674.5</ele>
        <time>2021-07-18T09:59:42Z</time>
      </trkpt>
      <trkpt lat="46.8325" lon="5.87318">
        <ele>673.2</ele>
        <time>2021-07-18T09:59:48Z</time>
      </trkpt>
      <trkpt lat="46.83254" lon="5.87313">
        <ele>671.7</ele>
        <time>2021-07-18T09:59:53Z</time>
      </trkpt>
      <trkpt lat="46.83257" lon="5.87307">
        <ele>670.6</ele>
        <time>2021-07-18T09:59:57Z</time>
      </trkpt>
      <trkpt lat="46.8326" lon="5.873">
        <ele>669.5</ele>
        <time>2021-07-18T10:00:01Z</time>
      </trkpt>
      <trkpt lat="46.83263" lon="5.87294">
        <ele>668.4</ele>
        <time>2021-07-18T10:00:06Z</time>
      </trkpt>
      <trkpt lat="46.83268" lon="5.87292">
        <ele>668</ele>
        <time>2021-07-18T10:00:11Z</time>
      </trkpt>
      <trkpt lat="46.83271" lon="5.87287">
        <ele>668.3</ele>
        <time>2021-07-18T10:00:19Z</time>
      </trkpt>
      <trkpt lat="46.83273" lon="5.8728">
        <ele>669</ele>
        <time>2021-07-18T10:00:25Z</time>
      </trkpt>
      <trkpt lat="46.83277" lon="5.87274">
        <ele>669.6</ele>
        <time>2021-07-18T10:00:30Z</time>
      </trkpt>
      <trkpt lat="46.83279" lon="5.87268">
        <ele>669.9</ele>
        <time>2021-07-18T10:00:34Z</time>
      </trkpt>
      <trkpt lat="46.83281" lon="5.87261">
        <ele>670.4</ele>
        <time>2021-07-18T10:00:40Z</time>
      </trkpt>
      <trkpt lat="46.83284" lon="5.87254">
        <ele>671</ele>
        <time>2021-07-18T10:00:45Z</time>
      </trkpt>
      <trkpt lat="46.83288" lon="5.8725">
        <ele>671.6</ele>
        <time>2021-07-18T10:00:49Z</time>
      </trkpt>
      <trkpt lat="46.83292" lon="5.87245">
        <ele>671.9</ele>
        <time>2021-07-18T10:00:55Z</time>
      </trkpt>
      <trkpt lat="46.83294" lon="5.87238">
        <ele>672.3</ele>
        <time>2021-07-18T10:00:59Z</time>
      </trkpt>
      <trkpt lat="46.83294" lon="5.8723">
        <ele>672.8</ele>
        <time>2021-07-18T10:01:03Z</time>
      </trkpt>
      <trkpt lat="46.83294" lon="5.87222">
        <ele>673.3</ele>
        <time>2021-07-18T10:01:06Z</time>
      </trkpt>
      <trkpt lat="46.83295" lon="5.87215">
        <ele>673.9</ele>
        <time>2021-07-18T10:01:10Z</time>
      </trkpt>
      <trkpt lat="46.83296" lon="5.87208">
        <ele>674</ele>
        <time>2021-07-18T10:01:18Z</time>
      </trkpt>
      <trkpt lat="46.83296" lon="5.87201">
        <ele>674.2</ele>
        <time>2021-07-18T10:01:24Z</time>
      </trkpt>
      <trkpt lat="46.83294" lon="5.87195">
        <ele>674.7</ele>
        <time>2021-07-18T10:01:28Z</time>
      </trkpt>
      <trkpt lat="46.8329" lon="5.87189">
        <ele>675.9</ele>
        <time>2021-07-18T10:01:34Z</time>
      </trkpt>
      <trkpt lat="46.83287" lon="5.87183">
        <ele>676.1</ele>
        <time>2021-07-18T10:01:40Z</time>
      </trkpt>
      <trkpt lat="46.83284" lon="5.87177">
        <ele>676</ele>
        <time>2021-07-18T10:01:46Z</time>
      </trkpt>
      <trkpt lat="46.83281" lon="5.87171">
        <ele>675.9</ele>
        <time>2021-07-18T10:01:52Z</time>
      </trkpt>
      <trkpt lat="46.83282" lon="5.87165">
        <ele>675.9</ele>
        <time>2021-07-18T10:01:57Z</time>
      </trkpt>
      <trkpt lat="46.83279" lon="5.87158">
        <ele>675.4</ele>
        <time>2021-07-18T10:02:03Z</time>
      </trkpt>
      <trkpt lat="46.83277" lon="5.87152">
        <ele>673.9</ele>
        <time>2021-07-18T10:02:09Z</time>
      </trkpt>
      <trkpt lat="46.83274" lon="5.87146">
        <ele>673.2</ele>
        <time>2021-07-18T10:02:15Z</time>
      </trkpt>
      <trkpt lat="46.83272" lon="5.8714">
        <ele>673.5</ele>
        <time>2021-07-18T10:02:20Z</time>
      </trkpt>
      <trkpt lat="46.83267" lon="5.87134">
        <ele>673.5</ele>
        <time>2021-07-18T10:02:26Z</time>
      </trkpt>
      <trkpt lat="46.83264" lon="5.87129">
        <ele>673.3</ele>
        <time>2021-07-18T10:02:30Z</time>
      </trkpt>
      <trkpt lat="46.83261" lon="5.87124">
        <ele>673.4</ele>
        <time>2021-07-18T10:02:35Z</time>
      </trkpt>
      <trkpt lat="46.83257" lon="5.87118">
        <ele>673.8</ele>
        <time>2021-07-18T10:02:46Z</time>
      </trkpt>
      <trkpt lat="46.83253" lon="5.87117">
        <ele>672.4</ele>
        <time>2021-07-18T10:02:55Z</time>
      </trkpt>
      <trkpt lat="46.83248" lon="5.87116">
        <ele>672</ele>
        <time>2021-07-18T10:03:00Z</time>
      </trkpt>
      <trkpt lat="46.83243" lon="5.87116">
        <ele>671.7</ele>
        <time>2021-07-18T10:03:04Z</time>
      </trkpt>
      <trkpt lat="46.83239" lon="5.87113">
        <ele>671.7</ele>
        <time>2021-07-18T10:03:08Z</time>
      </trkpt>
      <trkpt lat="46.83235" lon="5.87108">
        <ele>672</ele>
        <time>2021-07-18T10:03:14Z</time>
      </trkpt>
      <trkpt lat="46.83232" lon="5.87103">
        <ele>672.2</ele>
        <time>2021-07-18T10:03:19Z</time>
      </trkpt>
      <trkpt lat="46.83227" lon="5.87099">
        <ele>672.7</ele>
        <time>2021-07-18T10:03:25Z</time>
      </trkpt>
      <trkpt lat="46.83222" lon="5.87099">
        <ele>673</ele>
        <time>2021-07-18T10:03:31Z</time>
      </trkpt>
      <trkpt lat="46.83217" lon="5.87098">
        <ele>673.1</ele>
        <time>2021-07-18T10:03:38Z</time>
      </trkpt>
      <trkpt lat="46.83214" lon="5.87093">
        <ele>673</ele>
        <time>2021-07-18T10:03:44Z</time>
      </trkpt>
      <trkpt lat="46.8321" lon="5.87089">
        <ele>673.3</ele>
        <time>2021-07-18T10:03:49Z</time>
      </trkpt>
      <trkpt lat="46.83206" lon="5.87084">
        <ele>674.2</ele>
        <time>2021-07-18T10:03:54Z</time>
      </trkpt>
      <trkpt lat="46.83201" lon="5.87082">
        <ele>675.3</ele>
        <time>2021-07-18T10:04:00Z</time>
      </trkpt>
      <trkpt lat="46.83196" lon="5.87076">
        <ele>675.8</ele>
        <time>2021-07-18T10:04:05Z</time>
      </trkpt>
      <trkpt lat="46.83197" lon="5.87068">
        <ele>676.6</ele>
        <time>2021-07-18T10:04:09Z</time>
      </trkpt>
      <trkpt lat="46.83198" lon="5.87061">
        <ele>677.7</ele>
        <time>2021-07-18T10:04:14Z</time>
      </trkpt>
      <trkpt lat="46.832" lon="5.87056">
        <ele>678.3</ele>
        <time>2021-07-18T10:04:18Z</time>
      </trkpt>
      <trkpt lat="46.83203" lon="5.87049">
        <ele>678.1</ele>
        <time>2021-07-18T10:04:23Z</time>
      </trkpt>
      <trkpt lat="46.83206" lon="5.87044">
        <ele>675.9</ele>
        <time>2021-07-18T10:04:28Z</time>
      </trkpt>
      <trkpt lat="46.83203" lon="5.87039">
        <ele>673.8</ele>
        <time>2021-07-18T10:04:36Z</time>
      </trkpt>
      <trkpt lat="46.83204" lon="5.87031">
        <ele>672.6</ele>
        <time>2021-07-18T10:04:44Z</time>
      </trkpt>
      <trkpt lat="46.83207" lon="5.87026">
        <ele>671.9</ele>
        <time>2021-07-18T10:04:48Z</time>
      </trkpt>
      <trkpt lat="46.83211" lon="5.8702">
        <ele>671.6</ele>
        <time>2021-07-18T10:04:53Z</time>
      </trkpt>
      <trkpt lat="46.83212" lon="5.87013">
        <ele>671</ele>
        <time>2021-07-18T10:04:58Z</time>
      </trkpt>
      <trkpt lat="46.83215" lon="5.87007">
        <ele>669.6</ele>
        <time>2021-07-18T10:05:03Z</time>
      </trkpt>
      <trkpt lat="46.83216" lon="5.87001">
        <ele>668.7</ele>
        <time>2021-07-18T10:05:07Z</time>
      </trkpt>
      <trkpt lat="46.83217" lon="5.86993">
        <ele>668.1</ele>
        <time>2021-07-18T10:05:11Z</time>
      </trkpt>
      <trkpt lat="46.83218" lon="5.86985">
        <ele>668.1</ele>
        <time>2021-07-18T10:05:16Z</time>
      </trkpt>
      <trkpt lat="46.83219" lon="5.86978">
        <ele>668.4</ele>
        <time>2021-07-18T10:05:20Z</time>
      </trkpt>
      <trkpt lat="46.83221" lon="5.8697">
        <ele>669.2</ele>
        <time>2021-07-18T10:05:25Z</time>
      </trkpt>
      <trkpt lat="46.83223" lon="5.86964">
        <ele>669.7</ele>
        <time>2021-07-18T10:05:30Z</time>
      </trkpt>
      <trkpt lat="46.83227" lon="5.86959">
        <ele>669.1</ele>
        <time>2021-07-18T10:05:35Z</time>
      </trkpt>
      <trkpt lat="46.83232" lon="5.86955">
        <ele>668.3</ele>
        <time>2021-07-18T10:05:42Z</time>
      </trkpt>
      <trkpt lat="46.83236" lon="5.86953">
        <ele>668.4</ele>
        <time>2021-07-18T10:05:46Z</time>
      </trkpt>
      <trkpt lat="46.83241" lon="5.86949">
        <ele>669.5</ele>
        <time>2021-07-18T10:05:52Z</time>
      </trkpt>
      <trkpt lat="46.83243" lon="5.86942">
        <ele>670.5</ele>
        <time>2021-07-18T10:05:56Z</time>
      </trkpt>
      <trkpt lat="46.83247" lon="5.86938">
        <ele>671.4</ele>
        <time>2021-07-18T10:06:07Z</time>
      </trkpt>
      <trkpt lat="46.83252" lon="5.86937">
        <ele>670.6</ele>
        <time>2021-07-18T10:06:13Z</time>
      </trkpt>
      <trkpt lat="46.83256" lon="5.86939">
        <ele>669.4</ele>
        <time>2021-07-18T10:06:19Z</time>
      </trkpt>
      <trkpt lat="46.83261" lon="5.86939">
        <ele>668.7</ele>
        <time>2021-07-18T10:06:23Z</time>
      </trkpt>
      <trkpt lat="46.83266" lon="5.86938">
        <ele>668.4</ele>
        <time>2021-07-18T10:06:26Z</time>
      </trkpt>
      <trkpt lat="46.83271" lon="5.86936">
        <ele>668.5</ele>
        <time>2021-07-18T10:06:31Z</time>
      </trkpt>
      <trkpt lat="46.83277" lon="5.86937">
        <ele>669.2</ele>
        <time>2021-07-18T10:06:36Z</time>
      </trkpt>
      <trkpt lat="46.83281" lon="5.86938">
        <ele>669.6</ele>
        <time>2021-07-18T10:06:41Z</time>
      </trkpt>
      <trkpt lat="46.83286" lon="5.86942">
        <ele>669.5</ele>
        <time>2021-07-18T10:06:46Z</time>
      </trkpt>
      <trkpt lat="46.83291" lon="5.86943">
        <ele>669.3</ele>
        <time>2021-07-18T10:06:51Z</time>
      </trkpt>
      <trkpt lat="46.83295" lon="5.86943">
        <ele>669.1</ele>
        <time>2021-07-18T10:06:57Z</time>
      </trkpt>
      <trkpt lat="46.833" lon="5.86941">
        <ele>668.5</ele>
        <time>2021-07-18T10:07:05Z</time>
      </trkpt>
      <trkpt lat="46.83305" lon="5.86942">
        <ele>667.8</ele>
        <time>2021-07-18T10:07:11Z</time>
      </trkpt>
      <trkpt lat="46.83311" lon="5.86943">
        <ele>667.4</ele>
        <time>2021-07-18T10:07:17Z</time>
      </trkpt>
      <trkpt lat="46.83316" lon="5.86943">
        <ele>667.3</ele>
        <time>2021-07-18T10:07:20Z</time>
      </trkpt>
      <trkpt lat="46.83322" lon="5.86942">
        <ele>667.6</ele>
        <time>2021-07-18T10:07:23Z</time>
      </trkpt>
      <trkpt lat="46.83327" lon="5.86943">
        <ele>667.9</ele>
        <time>2021-07-18T10:07:26Z</time>
      </trkpt>
      <trkpt lat="46.83332" lon="5.86944">
        <ele>668.4</ele>
        <time>2021-07-18T10:07:30Z</time>
      </trkpt>
      <trkpt lat="46.83337" lon="5.86945">
        <ele>669.1</ele>
        <time>2021-07-18T10:07:36Z</time>
      </trkpt>
      <trkpt lat="46.83341" lon="5.86944">
        <ele>669.6</ele>
        <time>2021-07-18T10:07:42Z</time>
      </trkpt>
      <trkpt lat="46.83346" lon="5.86944">
        <ele>670</ele>
        <time>2021-07-18T10:07:46Z</time>
      </trkpt>
      <trkpt lat="46.8335" lon="5.86946">
        <ele>670.4</ele>
        <time>2021-07-18T10:07:50Z</time>
      </trkpt>
      <trkpt lat="46.83348" lon="5.86953">
        <ele>669.1</ele>
        <time>2021-07-18T10:08:02Z</time>
      </trkpt>
      <trkpt lat="46.83353" lon="5.86955">
        <ele>667</ele>
        <time>2021-07-18T10:08:18Z</time>
      </trkpt>
      <trkpt lat="46.83358" lon="5.86953">
        <ele>667.8</ele>
        <time>2021-07-18T10:08:22Z</time>
      </trkpt>
      <trkpt lat="46.83364" lon="5.86951">
        <ele>668.7</ele>
        <time>2021-07-18T10:08:34Z</time>
      </trkpt>
      <trkpt lat="46.83369" lon="5.86951">
        <ele>668.7</ele>
        <time>2021-07-18T10:08:38Z</time>
      </trkpt>
      <trkpt lat="46.83364" lon="5.86949">
        <ele>670.4</ele>
        <time>2021-07-18T10:08:54Z</time>
      </trkpt>
      <trkpt lat="46.83359" lon="5.86949">
        <ele>669.6</ele>
        <time>2021-07-18T10:09:09Z</time>
      </trkpt>
      <trkpt lat="46.83356" lon="5.86944">
        <ele>668.1</ele>
        <time>2021-07-18T10:09:18Z</time>
      </trkpt>
      <trkpt lat="46.83355" lon="5.86938">
        <ele>667.3</ele>
        <time>2021-07-18T10:09:26Z</time>
      </trkpt>
      <trkpt lat="46.8335" lon="5.86939">
        <ele>666.5</ele>
        <time>2021-07-18T10:09:35Z</time>
      </trkpt>
      <trkpt lat="46.83345" lon="5.86938">
        <ele>666.6</ele>
        <time>2021-07-18T10:09:39Z</time>
      </trkpt>
      <trkpt lat="46.83341" lon="5.86939">
        <ele>668</ele>
        <time>2021-07-18T10:09:52Z</time>
      </trkpt>
      <trkpt lat="46.83337" lon="5.86934">
        <ele>668.7</ele>
        <time>2021-07-18T10:10:00Z</time>
      </trkpt>
      <trkpt lat="46.83335" lon="5.86929">
        <ele>668.9</ele>
        <time>2021-07-18T10:10:05Z</time>
      </trkpt>
      <trkpt lat="46.83331" lon="5.86924">
        <ele>668.5</ele>
        <time>2021-07-18T10:10:12Z</time>
      </trkpt>
      <trkpt lat="46.83328" lon="5.86919">
        <ele>667.1</ele>
        <time>2021-07-18T10:10:21Z</time>
      </trkpt>
      <trkpt lat="46.83327" lon="5.86912">
        <ele>665.8</ele>
        <time>2021-07-18T10:10:26Z</time>
      </trkpt>
      <trkpt lat="46.83325" lon="5.86906">
        <ele>664.9</ele>
        <time>2021-07-18T10:10:30Z</time>
      </trkpt>
      <trkpt lat="46.83319" lon="5.86902">
        <ele>664.3</ele>
        <time>2021-07-18T10:10:35Z</time>
      </trkpt>
      <trkpt lat="46.83314" lon="5.869">
        <ele>664.3</ele>
        <time>2021-07-18T10:10:39Z</time>
      </trkpt>
      <trkpt lat="46.83311" lon="5.86906">
        <ele>662.9</ele>
        <time>2021-07-18T10:10:44Z</time>
      </trkpt>
      <trkpt lat="46.83311" lon="5.86913">
        <ele>661.4</ele>
        <time>2021-07-18T10:10:48Z</time>
      </trkpt>
      <trkpt lat="46.83307" lon="5.86919">
        <ele>659.2</ele>
        <time>2021-07-18T10:10:52Z</time>
      </trkpt>
      <trkpt lat="46.83302" lon="5.86918">
        <ele>657.6</ele>
        <time>2021-07-18T10:10:56Z</time>
      </trkpt>
      <trkpt lat="46.83299" lon="5.86911">
        <ele>657.3</ele>
        <time>2021-07-18T10:11:00Z</time>
      </trkpt>
      <trkpt lat="46.83295" lon="5.86905">
        <ele>657</ele>
        <time>2021-07-18T10:11:04Z</time>
      </trkpt>
      <trkpt lat="46.8329" lon="5.869">
        <ele>656.9</ele>
        <time>2021-07-18T10:11:08Z</time>
      </trkpt>
      <trkpt lat="46.83285" lon="5.86897">
        <ele>657</ele>
        <time>2021-07-18T10:11:13Z</time>
      </trkpt>
      <trkpt lat="46.83283" lon="5.86891">
        <ele>657.5</ele>
        <time>2021-07-18T10:11:21Z</time>
      </trkpt>
      <trkpt lat="46.83282" lon="5.86884">
        <ele>656.8</ele>
        <time>2021-07-18T10:11:31Z</time>
      </trkpt>
      <trkpt lat="46.83278" lon="5.8688">
        <ele>657.3</ele>
        <time>2021-07-18T10:11:44Z</time>
      </trkpt>
      <trkpt lat="46.83273" lon="5.86879">
        <ele>660.4</ele>
        <time>2021-07-18T10:11:55Z</time>
      </trkpt>
      <trkpt lat="46.83268" lon="5.86878">
        <ele>660.8</ele>
        <time>2021-07-18T10:12:03Z</time>
      </trkpt>
      <trkpt lat="46.83264" lon="5.86874">
        <ele>661.3</ele>
        <time>2021-07-18T10:12:13Z</time>
      </trkpt>
      <trkpt lat="46.8326" lon="5.8687">
        <ele>662.3</ele>
        <time>2021-07-18T10:12:21Z</time>
      </trkpt>
      <trkpt lat="46.83256" lon="5.8687">
        <ele>662.9</ele>
        <time>2021-07-18T10:12:25Z</time>
      </trkpt>
      <trkpt lat="46.8325" lon="5.8687">
        <ele>663.6</ele>
        <time>2021-07-18T10:12:29Z</time>
      </trkpt>
      <trkpt lat="46.83248" lon="5.86865">
        <ele>665.1</ele>
        <time>2021-07-18T10:12:37Z</time>
      </trkpt>
      <trkpt lat="46.83244" lon="5.8686">
        <ele>666.5</ele>
        <time>2021-07-18T10:12:42Z</time>
      </trkpt>
      <trkpt lat="46.83238" lon="5.86859">
        <ele>667.6</ele>
        <time>2021-07-18T10:12:58Z</time>
      </trkpt>
      <trkpt lat="46.83235" lon="5.86863">
        <ele>667.8</ele>
        <time>2021-07-18T10:13:02Z</time>
      </trkpt>
      <trkpt lat="46.8323" lon="5.86865">
        <ele>667.8</ele>
        <time>2021-07-18T10:13:07Z</time>
      </trkpt>
      <trkpt lat="46.83226" lon="5.86863">
        <ele>667.9</ele>
        <time>2021-07-18T10:13:13Z</time>
      </trkpt>
      <trkpt lat="46.83222" lon="5.86859">
        <ele>668.7</ele>
        <time>2021-07-18T10:13:20Z</time>
      </trkpt>
      <trkpt lat="46.83221" lon="5.86852">
        <ele>667.8</ele>
        <time>2021-07-18T10:13:31Z</time>
      </trkpt>
      <trkpt lat="46.83216" lon="5.86849">
        <ele>664.8</ele>
        <time>2021-07-18T10:13:49Z</time>
      </trkpt>
      <trkpt lat="46.83211" lon="5.8685">
        <ele>665.4</ele>
        <time>2021-07-18T10:13:53Z</time>
      </trkpt>
      <trkpt lat="46.83206" lon="5.8685">
        <ele>666.2</ele>
        <time>2021-07-18T10:13:58Z</time>
      </trkpt>
      <trkpt lat="46.83202" lon="5.86845">
        <ele>666.9</ele>
        <time>2021-07-18T10:14:05Z</time>
      </trkpt>
      <trkpt lat="46.832" lon="5.86839">
        <ele>667.1</ele>
        <time>2021-07-18T10:14:09Z</time>
      </trkpt>
      <trkpt lat="46.83198" lon="5.86833">
        <ele>667.1</ele>
        <time>2021-07-18T10:14:13Z</time>
      </trkpt>
      <trkpt lat="46.83194" lon="5.86828">
        <ele>667.2</ele>
        <time>2021-07-18T10:14:20Z</time>
      </trkpt>
      <trkpt lat="46.8319" lon="5.86828">
        <ele>667.6</ele>
        <time>2021-07-18T10:14:25Z</time>
      </trkpt>
      <trkpt lat="46.83185" lon="5.86827">
        <ele>668.3</ele>
        <time>2021-07-18T10:14:31Z</time>
      </trkpt>
      <trkpt lat="46.8318" lon="5.86829">
        <ele>668.7</ele>
        <time>2021-07-18T10:14:39Z</time>
      </trkpt>
      <trkpt lat="46.83175" lon="5.86829">
        <ele>668.2</ele>
        <time>2021-07-18T10:14:45Z</time>
      </trkpt>
      <trkpt lat="46.83174" lon="5.86821">
        <ele>667.9</ele>
        <time>2021-07-18T10:14:50Z</time>
      </trkpt>
      <trkpt lat="46.83172" lon="5.86814">
        <ele>668</ele>
        <time>2021-07-18T10:14:56Z</time>
      </trkpt>
      <trkpt lat="46.83169" lon="5.86809">
        <ele>667.5</ele>
        <time>2021-07-18T10:15:01Z</time>
      </trkpt>
      <trkpt lat="46.83164" lon="5.86808">
        <ele>667.3</ele>
        <time>2021-07-18T10:15:05Z</time>
      </trkpt>
      <trkpt lat="46.83161" lon="5.86802">
        <ele>667.4</ele>
        <time>2021-07-18T10:15:10Z</time>
      </trkpt>
      <trkpt lat="46.83161" lon="5.86795">
        <ele>667.8</ele>
        <time>2021-07-18T10:15:14Z</time>
      </trkpt>
      <trkpt lat="46.83161" lon="5.86788">
        <ele>667.8</ele>
        <time>2021-07-18T10:15:30Z</time>
      </trkpt>
      <trkpt lat="46.83161" lon="5.86781">
        <ele>668.9</ele>
        <time>2021-07-18T10:15:37Z</time>
      </trkpt>
      <trkpt lat="46.83162" lon="5.86774">
        <ele>669.4</ele>
        <time>2021-07-18T10:15:43Z</time>
      </trkpt>
      <trkpt lat="46.83161" lon="5.86766">
        <ele>669.6</ele>
        <time>2021-07-18T10:15:47Z</time>
      </trkpt>
      <trkpt lat="46.83157" lon="5.86762">
        <ele>668.8</ele>
        <time>2021-07-18T10:16:03Z</time>
      </trkpt>
      <trkpt lat="46.83152" lon="5.86764">
        <ele>668.6</ele>
        <time>2021-07-18T10:16:08Z</time>
      </trkpt>
      <trkpt lat="46.83147" lon="5.86766">
        <ele>668.3</ele>
        <time>2021-07-18T10:16:13Z</time>
      </trkpt>
      <trkpt lat="46.83144" lon="5.86761">
        <ele>667.7</ele>
        <time>2021-07-18T10:16:20Z</time>
      </trkpt>
      <trkpt lat="46.83143" lon="5.86754">
        <ele>667.6</ele>
        <time>2021-07-18T10:16:26Z</time>
      </trkpt>
      <trkpt lat="46.83138" lon="5.86751">
        <ele>668.9</ele>
        <time>2021-07-18T10:16:33Z</time>
      </trkpt>
      <trkpt lat="46.83135" lon="5.86746">
        <ele>668.8</ele>
        <time>2021-07-18T10:16:38Z</time>
      </trkpt>
      <trkpt lat="46.83133" lon="5.86739">
        <ele>667.3</ele>
        <time>2021-07-18T10:16:44Z</time>
      </trkpt>
      <trkpt lat="46.8313" lon="5.86734">
        <ele>664</ele>
        <time>2021-07-18T10:16:51Z</time>
      </trkpt>
      <trkpt lat="46.83124" lon="5.86735">
        <ele>661.9</ele>
        <time>2021-07-18T10:16:57Z</time>
      </trkpt>
      <trkpt lat="46.8312" lon="5.86739">
        <ele>660.6</ele>
        <time>2021-07-18T10:17:01Z</time>
      </trkpt>
      <trkpt lat="46.83115" lon="5.86741">
        <ele>659.5</ele>
        <time>2021-07-18T10:17:06Z</time>
      </trkpt>
      <trkpt lat="46.83112" lon="5.86736">
        <ele>658.9</ele>
        <time>2021-07-18T10:17:12Z</time>
      </trkpt>
      <trkpt lat="46.83108" lon="5.86732">
        <ele>660.6</ele>
        <time>2021-07-18T10:17:24Z</time>
      </trkpt>
      <trkpt lat="46.83104" lon="5.86727">
        <ele>661.5</ele>
        <time>2021-07-18T10:17:30Z</time>
      </trkpt>
      <trkpt lat="46.831" lon="5.86729">
        <ele>663</ele>
        <time>2021-07-18T10:17:51Z</time>
      </trkpt>
      <trkpt lat="46.83097" lon="5.86724">
        <ele>663.4</ele>
        <time>2021-07-18T10:17:57Z</time>
      </trkpt>
      <trkpt lat="46.83093" lon="5.86719">
        <ele>662.9</ele>
        <time>2021-07-18T10:18:05Z</time>
      </trkpt>
      <trkpt lat="46.83091" lon="5.86712">
        <ele>664.6</ele>
        <time>2021-07-18T10:18:16Z</time>
      </trkpt>
      <trkpt lat="46.83093" lon="5.86706">
        <ele>665.2</ele>
        <time>2021-07-18T10:18:20Z</time>
      </trkpt>
      <trkpt lat="46.83092" lon="5.86699">
        <ele>666.4</ele>
        <time>2021-07-18T10:18:32Z</time>
      </trkpt>
      <trkpt lat="46.83086" lon="5.86698">
        <ele>668.4</ele>
        <time>2021-07-18T10:18:44Z</time>
      </trkpt>
      <trkpt lat="46.83085" lon="5.86707">
        <ele>673.8</ele>
        <time>2021-07-18T10:19:26Z</time>
      </trkpt>
      <trkpt lat="46.83081" lon="5.86703">
        <ele>670</ele>
        <time>2021-07-18T10:19:39Z</time>
      </trkpt>
      <trkpt lat="46.83077" lon="5.86703">
        <ele>669.3</ele>
        <time>2021-07-18T10:19:43Z</time>
      </trkpt>
      <trkpt lat="46.83072" lon="5.86705">
        <ele>668.8</ele>
        <time>2021-07-18T10:19:48Z</time>
      </trkpt>
      <trkpt lat="46.8307" lon="5.867">
        <ele>666.3</ele>
        <time>2021-07-18T10:20:09Z</time>
      </trkpt>
      <trkpt lat="46.83066" lon="5.86695">
        <ele>664.4</ele>
        <time>2021-07-18T10:20:19Z</time>
      </trkpt>
      <trkpt lat="46.83063" lon="5.86689">
        <ele>662.9</ele>
        <time>2021-07-18T10:20:24Z</time>
      </trkpt>
      <trkpt lat="46.83059" lon="5.86685">
        <ele>662.4</ele>
        <time>2021-07-18T10:20:28Z</time>
      </trkpt>
      <trkpt lat="46.83055" lon="5.86683">
        <ele>662.1</ele>
        <time>2021-07-18T10:20:32Z</time>
      </trkpt>
      <trkpt lat="46.83051" lon="5.86678">
        <ele>661.8</ele>
        <time>2021-07-18T10:20:37Z</time>
      </trkpt>
      <trkpt lat="46.83048" lon="5.86673">
        <ele>662</ele>
        <time>2021-07-18T10:20:42Z</time>
      </trkpt>
      <trkpt lat="46.83045" lon="5.86668">
        <ele>661.4</ele>
        <time>2021-07-18T10:20:51Z</time>
      </trkpt>
      <trkpt lat="46.83042" lon="5.86662">
        <ele>660.5</ele>
        <time>2021-07-18T10:20:57Z</time>
      </trkpt>
      <trkpt lat="46.83038" lon="5.86657">
        <ele>660.2</ele>
        <time>2021-07-18T10:21:02Z</time>
      </trkpt>
      <trkpt lat="46.83034" lon="5.86654">
        <ele>659.4</ele>
        <time>2021-07-18T10:21:08Z</time>
      </trkpt>
      <trkpt lat="46.8303" lon="5.86648">
        <ele>659.2</ele>
        <time>2021-07-18T10:21:14Z</time>
      </trkpt>
      <trkpt lat="46.83027" lon="5.86642">
        <ele>659.5</ele>
        <time>2021-07-18T10:21:18Z</time>
      </trkpt>
      <trkpt lat="46.83024" lon="5.86638">
        <ele>660.4</ele>
        <time>2021-07-18T10:21:23Z</time>
      </trkpt>
      <trkpt lat="46.8302" lon="5.86636">
        <ele>661</ele>
        <time>2021-07-18T10:21:31Z</time>
      </trkpt>
      <trkpt lat="46.83014" lon="5.86633">
        <ele>660.5</ele>
        <time>2021-07-18T10:21:37Z</time>
      </trkpt>
      <trkpt lat="46.83011" lon="5.86628">
        <ele>660.3</ele>
        <time>2021-07-18T10:21:43Z</time>
      </trkpt>
      <trkpt lat="46.83009" lon="5.8662">
        <ele>659.9</ele>
        <time>2021-07-18T10:21:47Z</time>
      </trkpt>
      <trkpt lat="46.83004" lon="5.86617">
        <ele>659.5</ele>
        <time>2021-07-18T10:21:51Z</time>
      </trkpt>
      <trkpt lat="46.82999" lon="5.86619">
        <ele>659.1</ele>
        <time>2021-07-18T10:21:56Z</time>
      </trkpt>
      <trkpt lat="46.82994" lon="5.86621">
        <ele>659.4</ele>
        <time>2021-07-18T10:22:01Z</time>
      </trkpt>
      <trkpt lat="46.82989" lon="5.8662">
        <ele>660.2</ele>
        <time>2021-07-18T10:22:06Z</time>
      </trkpt>
      <trkpt lat="46.82984" lon="5.86618">
        <ele>660.9</ele>
        <time>2021-07-18T10:22:10Z</time>
      </trkpt>
      <trkpt lat="46.82979" lon="5.86618">
        <ele>661.8</ele>
        <time>2021-07-18T10:22:14Z</time>
      </trkpt>
      <trkpt lat="46.82975" lon="5.86616">
        <ele>662.6</ele>
        <time>2021-07-18T10:22:19Z</time>
      </trkpt>
      <trkpt lat="46.82971" lon="5.86612">
        <ele>663.7</ele>
        <time>2021-07-18T10:22:24Z</time>
      </trkpt>
      <trkpt lat="46.82967" lon="5.86608">
        <ele>665</ele>
        <time>2021-07-18T10:22:29Z</time>
      </trkpt>
      <trkpt lat="46.82962" lon="5.86605">
        <ele>666.5</ele>
        <time>2021-07-18T10:22:34Z</time>
      </trkpt>
      <trkpt lat="46.82959" lon="5.86599">
        <ele>667.3</ele>
        <time>2021-07-18T10:22:40Z</time>
      </trkpt>
      <trkpt lat="46.82955" lon="5.86594">
        <ele>666.2</ele>
        <time>2021-07-18T10:22:48Z</time>
      </trkpt>
      <trkpt lat="46.8295" lon="5.86591">
        <ele>665.7</ele>
        <time>2021-07-18T10:22:53Z</time>
      </trkpt>
      <trkpt lat="46.82945" lon="5.86591">
        <ele>665.4</ele>
        <time>2021-07-18T10:22:58Z</time>
      </trkpt>
      <trkpt lat="46.82941" lon="5.86589">
        <ele>665.2</ele>
        <time>2021-07-18T10:23:02Z</time>
      </trkpt>
      <trkpt lat="46.82936" lon="5.86588">
        <ele>665.1</ele>
        <time>2021-07-18T10:23:06Z</time>
      </trkpt>
      <trkpt lat="46.8293" lon="5.86587">
        <ele>664.7</ele>
        <time>2021-07-18T10:23:10Z</time>
      </trkpt>
      <trkpt lat="46.82925" lon="5.86586">
        <ele>663.3</ele>
        <time>2021-07-18T10:23:16Z</time>
      </trkpt>
      <trkpt lat="46.82921" lon="5.86583">
        <ele>661.5</ele>
        <time>2021-07-18T10:23:23Z</time>
      </trkpt>
      <trkpt lat="46.82915" lon="5.86581">
        <ele>660.5</ele>
        <time>2021-07-18T10:23:27Z</time>
      </trkpt>
      <trkpt lat="46.82911" lon="5.86577">
        <ele>659.8</ele>
        <time>2021-07-18T10:23:31Z</time>
      </trkpt>
      <trkpt lat="46.82906" lon="5.86574">
        <ele>659.7</ele>
        <time>2021-07-18T10:23:35Z</time>
      </trkpt>
      <trkpt lat="46.82902" lon="5.8657">
        <ele>659.7</ele>
        <time>2021-07-18T10:23:40Z</time>
      </trkpt>
      <trkpt lat="46.82898" lon="5.86565">
        <ele>659.4</ele>
        <time>2021-07-18T10:23:45Z</time>
      </trkpt>
      <trkpt lat="46.82894" lon="5.86561">
        <ele>658.9</ele>
        <time>2021-07-18T10:23:51Z</time>
      </trkpt>
      <trkpt lat="46.82891" lon="5.86557">
        <ele>658.4</ele>
        <time>2021-07-18T10:23:56Z</time>
      </trkpt>
      <trkpt lat="46.82887" lon="5.86553">
        <ele>658.4</ele>
        <time>2021-07-18T10:24:00Z</time>
      </trkpt>
      <trkpt lat="46.82884" lon="5.86548">
        <ele>658.9</ele>
        <time>2021-07-18T10:24:07Z</time>
      </trkpt>
      <trkpt lat="46.82881" lon="5.86543">
        <ele>659.1</ele>
        <time>2021-07-18T10:24:11Z</time>
      </trkpt>
      <trkpt lat="46.82877" lon="5.86539">
        <ele>659.2</ele>
        <time>2021-07-18T10:24:15Z</time>
      </trkpt>
      <trkpt lat="46.82872" lon="5.86539">
        <ele>659.3</ele>
        <time>2021-07-18T10:24:21Z</time>
      </trkpt>
      <trkpt lat="46.82868" lon="5.86537">
        <ele>658.6</ele>
        <time>2021-07-18T10:24:29Z</time>
      </trkpt>
      <trkpt lat="46.82865" lon="5.86532">
        <ele>657.2</ele>
        <time>2021-07-18T10:24:35Z</time>
      </trkpt>
      <trkpt lat="46.8286" lon="5.86529">
        <ele>655.9</ele>
        <time>2021-07-18T10:24:41Z</time>
      </trkpt>
      <trkpt lat="46.82855" lon="5.86526">
        <ele>655.4</ele>
        <time>2021-07-18T10:24:46Z</time>
      </trkpt>
      <trkpt lat="46.8285" lon="5.86528">
        <ele>655.3</ele>
        <time>2021-07-18T10:24:52Z</time>
      </trkpt>
      <trkpt lat="46.82845" lon="5.86528">
        <ele>655.5</ele>
        <time>2021-07-18T10:24:56Z</time>
      </trkpt>
      <trkpt lat="46.8284" lon="5.86528">
        <ele>654.3</ele>
        <time>2021-07-18T10:25:02Z</time>
      </trkpt>
      <trkpt lat="46.82836" lon="5.86526">
        <ele>653.2</ele>
        <time>2021-07-18T10:25:07Z</time>
      </trkpt>
      <trkpt lat="46.82831" lon="5.86524">
        <ele>652.7</ele>
        <time>2021-07-18T10:25:11Z</time>
      </trkpt>
      <trkpt lat="46.82827" lon="5.8652">
        <ele>652.2</ele>
        <time>2021-07-18T10:25:16Z</time>
      </trkpt>
      <trkpt lat="46.82822" lon="5.86517">
        <ele>651.9</ele>
        <time>2021-07-18T10:25:20Z</time>
      </trkpt>
      <trkpt lat="46.82818" lon="5.86512">
        <ele>651.4</ele>
        <time>2021-07-18T10:25:28Z</time>
      </trkpt>
      <trkpt lat="46.82815" lon="5.86506">
        <ele>651.5</ele>
        <time>2021-07-18T10:25:33Z</time>
      </trkpt>
      <trkpt lat="46.82812" lon="5.86501">
        <ele>651.6</ele>
        <time>2021-07-18T10:25:39Z</time>
      </trkpt>
      <trkpt lat="46.8281" lon="5.86495">
        <ele>651.6</ele>
        <time>2021-07-18T10:25:45Z</time>
      </trkpt>
      <trkpt lat="46.82809" lon="5.86488">
        <ele>652.4</ele>
        <time>2021-07-18T10:25:55Z</time>
      </trkpt>
      <trkpt lat="46.82811" lon="5.86478">
        <ele>654.4</ele>
        <time>2021-07-18T10:26:25Z</time>
      </trkpt>
      <trkpt lat="46.82813" lon="5.86471">
        <ele>654.6</ele>
        <time>2021-07-18T10:26:30Z</time>
      </trkpt>
      <trkpt lat="46.82816" lon="5.86466">
        <ele>653.7</ele>
        <time>2021-07-18T10:26:38Z</time>
      </trkpt>
      <trkpt lat="46.8282" lon="5.86462">
        <ele>649.5</ele>
        <time>2021-07-18T10:26:49Z</time>
      </trkpt>
      <trkpt lat="46.82823" lon="5.86456">
        <ele>647.7</ele>
        <time>2021-07-18T10:26:55Z</time>
      </trkpt>
      <trkpt lat="46.82826" lon="5.8645">
        <ele>646.3</ele>
        <time>2021-07-18T10:27:02Z</time>
      </trkpt>
      <trkpt lat="46.82829" lon="5.86445">
        <ele>645.8</ele>
        <time>2021-07-18T10:27:06Z</time>
      </trkpt>
      <trkpt lat="46.8283" lon="5.86438">
        <ele>645</ele>
        <time>2021-07-18T10:27:13Z</time>
      </trkpt>
      <trkpt lat="46.82835" lon="5.86437">
        <ele>641.7</ele>
        <time>2021-07-18T10:27:24Z</time>
      </trkpt>
      <trkpt lat="46.8284" lon="5.86435">
        <ele>640.9</ele>
        <time>2021-07-18T10:27:28Z</time>
      </trkpt>
      <trkpt lat="46.82844" lon="5.86431">
        <ele>640.6</ele>
        <time>2021-07-18T10:27:33Z</time>
      </trkpt>
      <trkpt lat="46.82847" lon="5.86426">
        <ele>640.5</ele>
        <time>2021-07-18T10:27:39Z</time>
      </trkpt>
      <trkpt lat="46.82851" lon="5.8642">
        <ele>640.7</ele>
        <time>2021-07-18T10:27:47Z</time>
      </trkpt>
      <trkpt lat="46.82856" lon="5.86418">
        <ele>641</ele>
        <time>2021-07-18T10:27:52Z</time>
      </trkpt>
      <trkpt lat="46.8286" lon="5.86416">
        <ele>641.4</ele>
        <time>2021-07-18T10:27:58Z</time>
      </trkpt>
      <trkpt lat="46.82865" lon="5.86412">
        <ele>641.6</ele>
        <time>2021-07-18T10:28:03Z</time>
      </trkpt>
      <trkpt lat="46.82869" lon="5.86408">
        <ele>641.5</ele>
        <time>2021-07-18T10:28:09Z</time>
      </trkpt>
      <trkpt lat="46.82873" lon="5.86405">
        <ele>641</ele>
        <time>2021-07-18T10:28:15Z</time>
      </trkpt>
      <trkpt lat="46.82879" lon="5.86403">
        <ele>640.8</ele>
        <time>2021-07-18T10:28:19Z</time>
      </trkpt>
      <trkpt lat="46.82884" lon="5.86402">
        <ele>640.8</ele>
        <time>2021-07-18T10:28:23Z</time>
      </trkpt>
      <trkpt lat="46.82889" lon="5.86403">
        <ele>640.9</ele>
        <time>2021-07-18T10:28:27Z</time>
      </trkpt>
      <trkpt lat="46.82894" lon="5.86399">
        <ele>641.7</ele>
        <time>2021-07-18T10:28:34Z</time>
      </trkpt>
      <trkpt lat="46.82898" lon="5.86394">
        <ele>643.2</ele>
        <time>2021-07-18T10:28:40Z</time>
      </trkpt>
      <trkpt lat="46.82902" lon="5.8639">
        <ele>643.7</ele>
        <time>2021-07-18T10:28:46Z</time>
      </trkpt>
      <trkpt lat="46.82907" lon="5.86387">
        <ele>642.7</ele>
        <time>2021-07-18T10:28:52Z</time>
      </trkpt>
      <trkpt lat="46.82912" lon="5.86384">
        <ele>642</ele>
        <time>2021-07-18T10:28:57Z</time>
      </trkpt>
      <trkpt lat="46.82917" lon="5.86383">
        <ele>641.4</ele>
        <time>2021-07-18T10:29:04Z</time>
      </trkpt>
      <trkpt lat="46.82922" lon="5.86382">
        <ele>640.2</ele>
        <time>2021-07-18T10:29:09Z</time>
      </trkpt>
      <trkpt lat="46.82927" lon="5.86378">
        <ele>639.3</ele>
        <time>2021-07-18T10:29:13Z</time>
      </trkpt>
      <trkpt lat="46.82932" lon="5.86375">
        <ele>638.5</ele>
        <time>2021-07-18T10:29:18Z</time>
      </trkpt>
      <trkpt lat="46.82937" lon="5.86372">
        <ele>638.2</ele>
        <time>2021-07-18T10:29:22Z</time>
      </trkpt>
      <trkpt lat="46.82941" lon="5.86368">
        <ele>637.9</ele>
        <time>2021-07-18T10:29:26Z</time>
      </trkpt>
      <trkpt lat="46.82941" lon="5.86362">
        <ele>637.3</ele>
        <time>2021-07-18T10:29:32Z</time>
      </trkpt>
      <trkpt lat="46.82936" lon="5.8636">
        <ele>636.8</ele>
        <time>2021-07-18T10:29:38Z</time>
      </trkpt>
      <trkpt lat="46.82932" lon="5.86363">
        <ele>635.4</ele>
        <time>2021-07-18T10:29:45Z</time>
      </trkpt>
      <trkpt lat="46.82927" lon="5.86363">
        <ele>634.9</ele>
        <time>2021-07-18T10:29:53Z</time>
      </trkpt>
      <trkpt lat="46.82923" lon="5.86362">
        <ele>635.2</ele>
        <time>2021-07-18T10:29:59Z</time>
      </trkpt>
      <trkpt lat="46.82917" lon="5.86363">
        <ele>635.7</ele>
        <time>2021-07-18T10:30:05Z</time>
      </trkpt>
      <trkpt lat="46.82913" lon="5.86363">
        <ele>636.3</ele>
        <time>2021-07-18T10:30:11Z</time>
      </trkpt>
      <trkpt lat="46.82908" lon="5.8636">
        <ele>636.5</ele>
        <time>2021-07-18T10:30:16Z</time>
      </trkpt>
      <trkpt lat="46.82903" lon="5.8636">
        <ele>636.8</ele>
        <time>2021-07-18T10:30:21Z</time>
      </trkpt>
      <trkpt lat="46.82898" lon="5.86357">
        <ele>637</ele>
        <time>2021-07-18T10:30:25Z</time>
      </trkpt>
      <trkpt lat="46.82893" lon="5.86356">
        <ele>637</ele>
        <time>2021-07-18T10:30:29Z</time>
      </trkpt>
      <trkpt lat="46.82889" lon="5.86352">
        <ele>636.8</ele>
        <time>2021-07-18T10:30:35Z</time>
      </trkpt>
      <trkpt lat="46.82892" lon="5.86347">
        <ele>636.2</ele>
        <time>2021-07-18T10:30:46Z</time>
      </trkpt>
      <trkpt lat="46.82895" lon="5.86341">
        <ele>635.7</ele>
        <time>2021-07-18T10:30:52Z</time>
      </trkpt>
      <trkpt lat="46.82898" lon="5.86335">
        <ele>635.5</ele>
        <time>2021-07-18T10:30:59Z</time>
      </trkpt>
      <trkpt lat="46.82901" lon="5.86329">
        <ele>635</ele>
        <time>2021-07-18T10:31:03Z</time>
      </trkpt>
      <trkpt lat="46.82902" lon="5.86324">
        <ele>634.1</ele>
        <time>2021-07-18T10:31:08Z</time>
      </trkpt>
      <trkpt lat="46.82907" lon="5.86323">
        <ele>631.1</ele>
        <time>2021-07-18T10:31:33Z</time>
      </trkpt>
      <trkpt lat="46.82903" lon="5.86317">
        <ele>632.6</ele>
        <time>2021-07-18T10:32:22Z</time>
      </trkpt>
      <trkpt lat="46.82899" lon="5.86319">
        <ele>637.7</ele>
        <time>2021-07-18T10:33:31Z</time>
      </trkpt>
      <trkpt lat="46.82903" lon="5.86322">
        <ele>637.1</ele>
        <time>2021-07-18T10:33:51Z</time>
      </trkpt>
      <trkpt lat="46.82899" lon="5.86318">
        <ele>636.6</ele>
        <time>2021-07-18T10:34:03Z</time>
      </trkpt>
      <trkpt lat="46.829" lon="5.86311">
        <ele>635.8</ele>
        <time>2021-07-18T10:34:36Z</time>
      </trkpt>
      <trkpt lat="46.82899" lon="5.86303">
        <ele>635.5</ele>
        <time>2021-07-18T10:34:41Z</time>
      </trkpt>
      <trkpt lat="46.82898" lon="5.86296">
        <ele>635.8</ele>
        <time>2021-07-18T10:34:45Z</time>
      </trkpt>
      <trkpt lat="46.82899" lon="5.86288">
        <ele>636.6</ele>
        <time>2021-07-18T10:34:50Z</time>
      </trkpt>
      <trkpt lat="46.829" lon="5.86281">
        <ele>637.3</ele>
        <time>2021-07-18T10:34:55Z</time>
      </trkpt>
      <trkpt lat="46.829" lon="5.86274">
        <ele>637.5</ele>
        <time>2021-07-18T10:34:59Z</time>
      </trkpt>
      <trkpt lat="46.82902" lon="5.86268">
        <ele>637.4</ele>
        <time>2021-07-18T10:35:03Z</time>
      </trkpt>
      <trkpt lat="46.82904" lon="5.86261">
        <ele>637.2</ele>
        <time>2021-07-18T10:35:08Z</time>
      </trkpt>
      <trkpt lat="46.82906" lon="5.86254">
        <ele>636.8</ele>
        <time>2021-07-18T10:35:13Z</time>
      </trkpt>
      <trkpt lat="46.82907" lon="5.86248">
        <ele>636.5</ele>
        <time>2021-07-18T10:35:18Z</time>
      </trkpt>
      <trkpt lat="46.82908" lon="5.8624">
        <ele>637</ele>
        <time>2021-07-18T10:35:23Z</time>
      </trkpt>
      <trkpt lat="46.82909" lon="5.86233">
        <ele>638.1</ele>
        <time>2021-07-18T10:35:28Z</time>
      </trkpt>
      <trkpt lat="46.82912" lon="5.86226">
        <ele>640.5</ele>
        <time>2021-07-18T10:35:34Z</time>
      </trkpt>
      <trkpt lat="46.82915" lon="5.86221">
        <ele>641.9</ele>
        <time>2021-07-18T10:35:39Z</time>
      </trkpt>
      <trkpt lat="46.82917" lon="5.86214">
        <ele>643</ele>
        <time>2021-07-18T10:35:44Z</time>
      </trkpt>
      <trkpt lat="46.82916" lon="5.86207">
        <ele>644.2</ele>
        <time>2021-07-18T10:35:49Z</time>
      </trkpt>
      <trkpt lat="46.82916" lon="5.86199">
        <ele>644.7</ele>
        <time>2021-07-18T10:35:57Z</time>
      </trkpt>
      <trkpt lat="46.82912" lon="5.86194">
        <ele>644.2</ele>
        <time>2021-07-18T10:36:04Z</time>
      </trkpt>
      <trkpt lat="46.82907" lon="5.86191">
        <ele>642.5</ele>
        <time>2021-07-18T10:36:12Z</time>
      </trkpt>
      <trkpt lat="46.82904" lon="5.86186">
        <ele>641.7</ele>
        <time>2021-07-18T10:36:17Z</time>
      </trkpt>
      <trkpt lat="46.829" lon="5.86181">
        <ele>640.4</ele>
        <time>2021-07-18T10:36:24Z</time>
      </trkpt>
      <trkpt lat="46.82897" lon="5.86175">
        <ele>638.5</ele>
        <time>2021-07-18T10:36:31Z</time>
      </trkpt>
      <trkpt lat="46.82893" lon="5.86169">
        <ele>637.6</ele>
        <time>2021-07-18T10:36:35Z</time>
      </trkpt>
      <trkpt lat="46.82893" lon="5.86162">
        <ele>637.2</ele>
        <time>2021-07-18T10:36:39Z</time>
      </trkpt>
      <trkpt lat="46.82893" lon="5.86155">
        <ele>637.7</ele>
        <time>2021-07-18T10:36:44Z</time>
      </trkpt>
      <trkpt lat="46.8289" lon="5.86149">
        <ele>638.3</ele>
        <time>2021-07-18T10:36:50Z</time>
      </trkpt>
      <trkpt lat="46.82886" lon="5.86146">
        <ele>640.1</ele>
        <time>2021-07-18T10:37:04Z</time>
      </trkpt>
      <trkpt lat="46.82884" lon="5.8614">
        <ele>641.8</ele>
        <time>2021-07-18T10:37:10Z</time>
      </trkpt>
      <trkpt lat="46.82881" lon="5.86134">
        <ele>642.7</ele>
        <time>2021-07-18T10:37:14Z</time>
      </trkpt>
      <trkpt lat="46.82879" lon="5.86128">
        <ele>644.1</ele>
        <time>2021-07-18T10:37:19Z</time>
      </trkpt>
      <trkpt lat="46.82877" lon="5.86122">
        <ele>646</ele>
        <time>2021-07-18T10:37:25Z</time>
      </trkpt>
      <trkpt lat="46.82874" lon="5.86117">
        <ele>647.2</ele>
        <time>2021-07-18T10:37:31Z</time>
      </trkpt>
      <trkpt lat="46.82869" lon="5.86115">
        <ele>648.1</ele>
        <time>2021-07-18T10:37:38Z</time>
      </trkpt>
      <trkpt lat="46.82865" lon="5.8611">
        <ele>648.5</ele>
        <time>2021-07-18T10:37:43Z</time>
      </trkpt>
      <trkpt lat="46.82862" lon="5.86103">
        <ele>650</ele>
        <time>2021-07-18T10:37:54Z</time>
      </trkpt>
      <trkpt lat="46.82859" lon="5.86099">
        <ele>650.8</ele>
        <time>2021-07-18T10:38:03Z</time>
      </trkpt>
      <trkpt lat="46.82856" lon="5.86093">
        <ele>651.4</ele>
        <time>2021-07-18T10:38:11Z</time>
      </trkpt>
      <trkpt lat="46.82852" lon="5.86087">
        <ele>651.6</ele>
        <time>2021-07-18T10:38:15Z</time>
      </trkpt>
      <trkpt lat="46.82849" lon="5.86082">
        <ele>652</ele>
        <time>2021-07-18T10:38:18Z</time>
      </trkpt>
      <trkpt lat="46.82847" lon="5.86075">
        <ele>654.1</ele>
        <time>2021-07-18T10:38:26Z</time>
      </trkpt>
      <trkpt lat="46.82848" lon="5.86068">
        <ele>656.6</ele>
        <time>2021-07-18T10:38:32Z</time>
      </trkpt>
      <trkpt lat="46.82852" lon="5.86067">
        <ele>659</ele>
        <time>2021-07-18T10:38:39Z</time>
      </trkpt>
      <trkpt lat="46.82859" lon="5.86067">
        <ele>659.7</ele>
        <time>2021-07-18T10:38:44Z</time>
      </trkpt>
      <trkpt lat="46.82864" lon="5.86065">
        <ele>659.8</ele>
        <time>2021-07-18T10:38:48Z</time>
      </trkpt>
      <trkpt lat="46.82867" lon="5.86059">
        <ele>659.3</ele>
        <time>2021-07-18T10:38:55Z</time>
      </trkpt>
      <trkpt lat="46.82872" lon="5.86058">
        <ele>659.3</ele>
        <time>2021-07-18T10:39:13Z</time>
      </trkpt>
      <trkpt lat="46.82876" lon="5.86056">
        <ele>660</ele>
        <time>2021-07-18T10:39:21Z</time>
      </trkpt>
      <trkpt lat="46.82876" lon="5.86049">
        <ele>660.4</ele>
        <time>2021-07-18T10:39:26Z</time>
      </trkpt>
      <trkpt lat="46.82917" lon="5.86026">
        <ele>662.7</ele>
        <time>2021-07-18T10:40:17Z</time>
      </trkpt>
      <trkpt lat="46.82922" lon="5.86021">
        <ele>663.1</ele>
        <time>2021-07-18T10:40:20Z</time>
      </trkpt>
      <trkpt lat="46.8292" lon="5.86012">
        <ele>663.3</ele>
        <time>2021-07-18T10:40:23Z</time>
      </trkpt>
      <trkpt lat="46.82919" lon="5.86004">
        <ele>663.7</ele>
        <time>2021-07-18T10:40:26Z</time>
      </trkpt>
      <trkpt lat="46.82921" lon="5.85996">
        <ele>664.5</ele>
        <time>2021-07-18T10:40:30Z</time>
      </trkpt>
      <trkpt lat="46.82924" lon="5.8599">
        <ele>665.1</ele>
        <time>2021-07-18T10:40:36Z</time>
      </trkpt>
      <trkpt lat="46.8292" lon="5.85984">
        <ele>664.7</ele>
        <time>2021-07-18T10:40:45Z</time>
      </trkpt>
      <trkpt lat="46.82917" lon="5.85979">
        <ele>664.4</ele>
        <time>2021-07-18T10:40:48Z</time>
      </trkpt>
      <trkpt lat="46.82914" lon="5.85974">
        <ele>664</ele>
        <time>2021-07-18T10:40:51Z</time>
      </trkpt>
      <trkpt lat="46.82911" lon="5.85967">
        <ele>663.6</ele>
        <time>2021-07-18T10:40:55Z</time>
      </trkpt>
      <trkpt lat="46.82908" lon="5.85973">
        <ele>662.5</ele>
        <time>2021-07-18T10:41:12Z</time>
      </trkpt>
      <trkpt lat="46.82911" lon="5.85978">
        <ele>663</ele>
        <time>2021-07-18T10:41:18Z</time>
      </trkpt>
      <trkpt lat="46.8291" lon="5.85985">
        <ele>663.9</ele>
        <time>2021-07-18T10:41:27Z</time>
      </trkpt>
      <trkpt lat="46.82908" lon="5.85991">
        <ele>665.1</ele>
        <time>2021-07-18T10:41:37Z</time>
      </trkpt>
      <trkpt lat="46.82903" lon="5.85993">
        <ele>664.8</ele>
        <time>2021-07-18T10:41:42Z</time>
      </trkpt>
      <trkpt lat="46.82898" lon="5.85994">
        <ele>664.4</ele>
        <time>2021-07-18T10:41:46Z</time>
      </trkpt>
      <trkpt lat="46.82893" lon="5.85995">
        <ele>664.2</ele>
        <time>2021-07-18T10:41:51Z</time>
      </trkpt>
      <trkpt lat="46.82888" lon="5.8599">
        <ele>664.8</ele>
        <time>2021-07-18T10:41:57Z</time>
      </trkpt>
      <trkpt lat="46.8288" lon="5.85985">
        <ele>664.8</ele>
        <time>2021-07-18T10:42:00Z</time>
      </trkpt>
      <trkpt lat="46.82875" lon="5.85983">
        <ele>664.7</ele>
        <time>2021-07-18T10:42:03Z</time>
      </trkpt>
      <trkpt lat="46.82879" lon="5.85985">
        <ele>665</ele>
        <time>2021-07-18T10:42:12Z</time>
      </trkpt>
      <trkpt lat="46.82874" lon="5.85985">
        <ele>666.6</ele>
        <time>2021-07-18T10:42:22Z</time>
      </trkpt>
      <trkpt lat="46.82873" lon="5.85978">
        <ele>667.6</ele>
        <time>2021-07-18T10:42:29Z</time>
      </trkpt>
      <trkpt lat="46.82872" lon="5.85972">
        <ele>667.7</ele>
        <time>2021-07-18T10:42:34Z</time>
      </trkpt>
      <trkpt lat="46.82868" lon="5.85968">
        <ele>667.8</ele>
        <time>2021-07-18T10:42:39Z</time>
      </trkpt>
      <trkpt lat="46.82864" lon="5.85965">
        <ele>667.9</ele>
        <time>2021-07-18T10:42:46Z</time>
      </trkpt>
      <trkpt lat="46.82859" lon="5.85966">
        <ele>668</ele>
        <time>2021-07-18T10:42:51Z</time>
      </trkpt>
      <trkpt lat="46.82854" lon="5.85967">
        <ele>668.1</ele>
        <time>2021-07-18T10:42:54Z</time>
      </trkpt>
      <trkpt lat="46.8285" lon="5.85971">
        <ele>668.3</ele>
        <time>2021-07-18T10:42:58Z</time>
      </trkpt>
      <trkpt lat="46.82845" lon="5.85971">
        <ele>668.6</ele>
        <time>2021-07-18T10:43:03Z</time>
      </trkpt>
      <trkpt lat="46.82839" lon="5.85968">
        <ele>669.1</ele>
        <time>2021-07-18T10:43:07Z</time>
      </trkpt>
      <trkpt lat="46.82835" lon="5.85964">
        <ele>669.9</ele>
        <time>2021-07-18T10:43:11Z</time>
      </trkpt>
      <trkpt lat="46.82832" lon="5.8596">
        <ele>672</ele>
        <time>2021-07-18T10:43:17Z</time>
      </trkpt>
      <trkpt lat="46.82827" lon="5.85958">
        <ele>674.2</ele>
        <time>2021-07-18T10:43:26Z</time>
      </trkpt>
      <trkpt lat="46.82821" lon="5.85961">
        <ele>675.1</ele>
        <time>2021-07-18T10:43:32Z</time>
      </trkpt>
      <trkpt lat="46.8282" lon="5.85969">
        <ele>676</ele>
        <time>2021-07-18T10:43:37Z</time>
      </trkpt>
      <trkpt lat="46.8282" lon="5.85975">
        <ele>677.6</ele>
        <time>2021-07-18T10:43:42Z</time>
      </trkpt>
      <trkpt lat="46.82821" lon="5.85982">
        <ele>678.7</ele>
        <time>2021-07-18T10:43:46Z</time>
      </trkpt>
      <trkpt lat="46.82819" lon="5.85988">
        <ele>681.9</ele>
        <time>2021-07-18T10:43:56Z</time>
      </trkpt>
      <trkpt lat="46.82819" lon="5.85995">
        <ele>684.2</ele>
        <time>2021-07-18T10:44:03Z</time>
      </trkpt>
      <trkpt lat="46.82822" lon="5.86001">
        <ele>685.8</ele>
        <time>2021-07-18T10:44:08Z</time>
      </trkpt>
      <trkpt lat="46.82822" lon="5.86008">
        <ele>687.7</ele>
        <time>2021-07-18T10:44:17Z</time>
      </trkpt>
      <trkpt lat="46.82819" lon="5.86004">
        <ele>687.8</ele>
        <time>2021-07-18T10:44:38Z</time>
      </trkpt>
      <trkpt lat="46.82823" lon="5.86">
        <ele>687.5</ele>
        <time>2021-07-18T10:44:54Z</time>
      </trkpt>
      <trkpt lat="46.82821" lon="5.86007">
        <ele>686.9</ele>
        <time>2021-07-18T10:45:49Z</time>
      </trkpt>
      <trkpt lat="46.82826" lon="5.86007">
        <ele>685.9</ele>
        <time>2021-07-18T10:46:30Z</time>
      </trkpt>
      <trkpt lat="46.8283" lon="5.86003">
        <ele>689.6</ele>
        <time>2021-07-18T10:48:42Z</time>
      </trkpt>
      <trkpt lat="46.82834" lon="5.86">
        <ele>688.6</ele>
        <time>2021-07-18T10:48:46Z</time>
      </trkpt>
      <trkpt lat="46.8283" lon="5.86">
        <ele>687.8</ele>
        <time>2021-07-18T10:48:52Z</time>
      </trkpt>
      <trkpt lat="46.82825" lon="5.85997">
        <ele>687.1</ele>
        <time>2021-07-18T10:48:58Z</time>
      </trkpt>
      <trkpt lat="46.82825" lon="5.86004">
        <ele>684.5</ele>
        <time>2021-07-18T10:49:49Z</time>
      </trkpt>
      <trkpt lat="46.82824" lon="5.86011">
        <ele>688.5</ele>
        <time>2021-07-18T10:51:45Z</time>
      </trkpt>
      <trkpt lat="46.82829" lon="5.86009">
        <ele>688.8</ele>
        <time>2021-07-18T10:52:01Z</time>
      </trkpt>
      <trkpt lat="46.82829" lon="5.86001">
        <ele>688.8</ele>
        <time>2021-07-18T10:52:06Z</time>
      </trkpt>
      <trkpt lat="46.82829" lon="5.85994">
        <ele>688.9</ele>
        <time>2021-07-18T10:52:11Z</time>
      </trkpt>
      <trkpt lat="46.82828" lon="5.85987">
        <ele>689.6</ele>
        <time>2021-07-18T10:52:17Z</time>
      </trkpt>
      <trkpt lat="46.82833" lon="5.85985">
        <ele>689.8</ele>
        <time>2021-07-18T10:52:21Z</time>
      </trkpt>
      <trkpt lat="46.82834" lon="5.85992">
        <ele>688</ele>
        <time>2021-07-18T10:52:32Z</time>
      </trkpt>
      <trkpt lat="46.82836" lon="5.85986">
        <ele>691.2</ele>
        <time>2021-07-18T10:58:30Z</time>
      </trkpt>
      <trkpt lat="46.82842" lon="5.85986">
        <ele>690</ele>
        <time>2021-07-18T11:41:36Z</time>
      </trkpt>
      <trkpt lat="46.82846" lon="5.85986">
        <ele>687</ele>
        <time>2021-07-18T11:41:45Z</time>
      </trkpt>
      <trkpt lat="46.82842" lon="5.85982">
        <ele>684.6</ele>
        <time>2021-07-18T11:42:00Z</time>
      </trkpt>
      <trkpt lat="46.82836" lon="5.85985">
        <ele>684.4</ele>
        <time>2021-07-18T11:42:03Z</time>
      </trkpt>
      <trkpt lat="46.82837" lon="5.85991">
        <ele>684.8</ele>
        <time>2021-07-18T11:42:08Z</time>
      </trkpt>
      <trkpt lat="46.82833" lon="5.85994">
        <ele>684.9</ele>
        <time>2021-07-18T11:42:17Z</time>
      </trkpt>
      <trkpt lat="46.8283" lon="5.85999">
        <ele>684.9</ele>
        <time>2021-07-18T11:42:23Z</time>
      </trkpt>
      <trkpt lat="46.82828" lon="5.86005">
        <ele>683.9</ele>
        <time>2021-07-18T11:42:34Z</time>
      </trkpt>
      <trkpt lat="46.82825" lon="5.85999">
        <ele>688.2</ele>
        <time>2021-07-18T11:45:59Z</time>
      </trkpt>
      <trkpt lat="46.82824" lon="5.85992">
        <ele>686.3</ele>
        <time>2021-07-18T11:46:09Z</time>
      </trkpt>
      <trkpt lat="46.82822" lon="5.85986">
        <ele>685.7</ele>
        <time>2021-07-18T11:46:16Z</time>
      </trkpt>
      <trkpt lat="46.82826" lon="5.85989">
        <ele>685.2</ele>
        <time>2021-07-18T11:48:09Z</time>
      </trkpt>
      <trkpt lat="46.82822" lon="5.85984">
        <ele>685.9</ele>
        <time>2021-07-18T11:49:13Z</time>
      </trkpt>
      <trkpt lat="46.82822" lon="5.85976">
        <ele>686.1</ele>
        <time>2021-07-18T11:49:26Z</time>
      </trkpt>
      <trkpt lat="46.82822" lon="5.8597">
        <ele>686.5</ele>
        <time>2021-07-18T11:49:32Z</time>
      </trkpt>
      <trkpt lat="46.82827" lon="5.85968">
        <ele>688.3</ele>
        <time>2021-07-18T11:49:43Z</time>
      </trkpt>
      <trkpt lat="46.82832" lon="5.8597">
        <ele>689.5</ele>
        <time>2021-07-18T11:49:48Z</time>
      </trkpt>
      <trkpt lat="46.82828" lon="5.85967">
        <ele>691.3</ele>
        <time>2021-07-18T11:50:12Z</time>
      </trkpt>
      <trkpt lat="46.82828" lon="5.8596">
        <ele>690</ele>
        <time>2021-07-18T11:50:19Z</time>
      </trkpt>
      <trkpt lat="46.82833" lon="5.85957">
        <ele>689</ele>
        <time>2021-07-18T11:50:26Z</time>
      </trkpt>
      <trkpt lat="46.82838" lon="5.85958">
        <ele>688.4</ele>
        <time>2021-07-18T11:50:31Z</time>
      </trkpt>
      <trkpt lat="46.82843" lon="5.85958">
        <ele>687.5</ele>
        <time>2021-07-18T11:50:37Z</time>
      </trkpt>
      <trkpt lat="46.82848" lon="5.85961">
        <ele>686.7</ele>
        <time>2021-07-18T11:50:42Z</time>
      </trkpt>
      <trkpt lat="46.82852" lon="5.85965">
        <ele>686.1</ele>
        <time>2021-07-18T11:50:46Z</time>
      </trkpt>
      <trkpt lat="46.82857" lon="5.85968">
        <ele>685.6</ele>
        <time>2021-07-18T11:50:50Z</time>
      </trkpt>
      <trkpt lat="46.82861" lon="5.85972">
        <ele>684.4</ele>
        <time>2021-07-18T11:50:56Z</time>
      </trkpt>
      <trkpt lat="46.82864" lon="5.85976">
        <ele>683.3</ele>
        <time>2021-07-18T11:51:04Z</time>
      </trkpt>
      <trkpt lat="46.82868" lon="5.85981">
        <ele>681.7</ele>
        <time>2021-07-18T11:51:14Z</time>
      </trkpt>
      <trkpt lat="46.82872" lon="5.85983">
        <ele>680.3</ele>
        <time>2021-07-18T11:51:20Z</time>
      </trkpt>
      <trkpt lat="46.82877" lon="5.85984">
        <ele>679</ele>
        <time>2021-07-18T11:51:25Z</time>
      </trkpt>
      <trkpt lat="46.82881" lon="5.85986">
        <ele>677.2</ele>
        <time>2021-07-18T11:51:32Z</time>
      </trkpt>
      <trkpt lat="46.82887" lon="5.85989">
        <ele>676.2</ele>
        <time>2021-07-18T11:51:37Z</time>
      </trkpt>
      <trkpt lat="46.82891" lon="5.85991">
        <ele>675.5</ele>
        <time>2021-07-18T11:51:40Z</time>
      </trkpt>
      <trkpt lat="46.82896" lon="5.85993">
        <ele>674.9</ele>
        <time>2021-07-18T11:51:43Z</time>
      </trkpt>
      <trkpt lat="46.829" lon="5.85996">
        <ele>674</ele>
        <time>2021-07-18T11:51:49Z</time>
      </trkpt>
      <trkpt lat="46.82903" lon="5.86001">
        <ele>673.4</ele>
        <time>2021-07-18T11:51:59Z</time>
      </trkpt>
      <trkpt lat="46.82907" lon="5.85996">
        <ele>674</ele>
        <time>2021-07-18T11:52:06Z</time>
      </trkpt>
      <trkpt lat="46.82908" lon="5.85989">
        <ele>674.1</ele>
        <time>2021-07-18T11:52:13Z</time>
      </trkpt>
      <trkpt lat="46.82906" lon="5.85982">
        <ele>673.5</ele>
        <time>2021-07-18T11:52:19Z</time>
      </trkpt>
      <trkpt lat="46.82906" lon="5.85975">
        <ele>671.9</ele>
        <time>2021-07-18T11:52:25Z</time>
      </trkpt>
      <trkpt lat="46.82905" lon="5.85968">
        <ele>670.3</ele>
        <time>2021-07-18T11:52:33Z</time>
      </trkpt>
      <trkpt lat="46.82909" lon="5.85964">
        <ele>670.2</ele>
        <time>2021-07-18T11:52:38Z</time>
      </trkpt>
      <trkpt lat="46.82914" lon="5.85961">
        <ele>670</ele>
        <time>2021-07-18T11:52:45Z</time>
      </trkpt>
      <trkpt lat="46.82917" lon="5.85967">
        <ele>668</ele>
        <time>2021-07-18T11:52:51Z</time>
      </trkpt>
      <trkpt lat="46.8292" lon="5.85971">
        <ele>666.5</ele>
        <time>2021-07-18T11:52:56Z</time>
      </trkpt>
      <trkpt lat="46.82925" lon="5.85974">
        <ele>664.7</ele>
        <time>2021-07-18T11:53:05Z</time>
      </trkpt>
      <trkpt lat="46.82929" lon="5.85968">
        <ele>664.2</ele>
        <time>2021-07-18T11:53:10Z</time>
      </trkpt>
      <trkpt lat="46.82928" lon="5.85961">
        <ele>663.2</ele>
        <time>2021-07-18T11:53:19Z</time>
      </trkpt>
      <trkpt lat="46.82928" lon="5.85953">
        <ele>662.5</ele>
        <time>2021-07-18T11:53:24Z</time>
      </trkpt>
      <trkpt lat="46.8293" lon="5.85948">
        <ele>661.4</ele>
        <time>2021-07-18T11:53:31Z</time>
      </trkpt>
      <trkpt lat="46.82928" lon="5.85941">
        <ele>660.8</ele>
        <time>2021-07-18T11:53:37Z</time>
      </trkpt>
      <trkpt lat="46.82926" lon="5.85935">
        <ele>660.5</ele>
        <time>2021-07-18T11:53:41Z</time>
      </trkpt>
      <trkpt lat="46.82925" lon="5.85927">
        <ele>660.3</ele>
        <time>2021-07-18T11:53:47Z</time>
      </trkpt>
      <trkpt lat="46.82923" lon="5.85921">
        <ele>660.1</ele>
        <time>2021-07-18T11:53:52Z</time>
      </trkpt>
      <trkpt lat="46.8292" lon="5.85913">
        <ele>659.7</ele>
        <time>2021-07-18T11:53:57Z</time>
      </trkpt>
      <trkpt lat="46.82917" lon="5.85906">
        <ele>659.3</ele>
        <time>2021-07-18T11:54:01Z</time>
      </trkpt>
      <trkpt lat="46.82915" lon="5.859">
        <ele>659</ele>
        <time>2021-07-18T11:54:06Z</time>
      </trkpt>
      <trkpt lat="46.82912" lon="5.85894">
        <ele>658.1</ele>
        <time>2021-07-18T11:54:12Z</time>
      </trkpt>
      <trkpt lat="46.8291" lon="5.85888">
        <ele>657.6</ele>
        <time>2021-07-18T11:54:16Z</time>
      </trkpt>
      <trkpt lat="46.82908" lon="5.8588">
        <ele>657.5</ele>
        <time>2021-07-18T11:54:20Z</time>
      </trkpt>
      <trkpt lat="46.82906" lon="5.85873">
        <ele>657.6</ele>
        <time>2021-07-18T11:54:24Z</time>
      </trkpt>
      <trkpt lat="46.82905" lon="5.85867">
        <ele>657.8</ele>
        <time>2021-07-18T11:54:30Z</time>
      </trkpt>
      <trkpt lat="46.82905" lon="5.8586">
        <ele>658.2</ele>
        <time>2021-07-18T11:54:36Z</time>
      </trkpt>
      <trkpt lat="46.82905" lon="5.85852">
        <ele>658.6</ele>
        <time>2021-07-18T11:54:43Z</time>
      </trkpt>
      <trkpt lat="46.82906" lon="5.85846">
        <ele>658.9</ele>
        <time>2021-07-18T11:54:48Z</time>
      </trkpt>
      <trkpt lat="46.82907" lon="5.85839">
        <ele>659</ele>
        <time>2021-07-18T11:54:54Z</time>
      </trkpt>
      <trkpt lat="46.82908" lon="5.85832">
        <ele>659.6</ele>
        <time>2021-07-18T11:54:59Z</time>
      </trkpt>
      <trkpt lat="46.8291" lon="5.85824">
        <ele>660.3</ele>
        <time>2021-07-18T11:55:04Z</time>
      </trkpt>
      <trkpt lat="46.82912" lon="5.85818">
        <ele>660.7</ele>
        <time>2021-07-18T11:55:11Z</time>
      </trkpt>
      <trkpt lat="46.82912" lon="5.8581">
        <ele>660.2</ele>
        <time>2021-07-18T11:55:16Z</time>
      </trkpt>
      <trkpt lat="46.82912" lon="5.85801">
        <ele>660.2</ele>
        <time>2021-07-18T11:55:20Z</time>
      </trkpt>
      <trkpt lat="46.82914" lon="5.85794">
        <ele>660.9</ele>
        <time>2021-07-18T11:55:24Z</time>
      </trkpt>
      <trkpt lat="46.82915" lon="5.85786">
        <ele>661.6</ele>
        <time>2021-07-18T11:55:29Z</time>
      </trkpt>
      <trkpt lat="46.82917" lon="5.85779">
        <ele>661.5</ele>
        <time>2021-07-18T11:55:34Z</time>
      </trkpt>
      <trkpt lat="46.82918" lon="5.85772">
        <ele>660.3</ele>
        <time>2021-07-18T11:55:39Z</time>
      </trkpt>
      <trkpt lat="46.82919" lon="5.85764">
        <ele>659.2</ele>
        <time>2021-07-18T11:55:44Z</time>
      </trkpt>
      <trkpt lat="46.8292" lon="5.85757">
        <ele>658.8</ele>
        <time>2021-07-18T11:55:49Z</time>
      </trkpt>
      <trkpt lat="46.82921" lon="5.85751">
        <ele>658.3</ele>
        <time>2021-07-18T11:55:53Z</time>
      </trkpt>
      <trkpt lat="46.82922" lon="5.85744">
        <ele>658</ele>
        <time>2021-07-18T11:55:57Z</time>
      </trkpt>
      <trkpt lat="46.82923" lon="5.85737">
        <ele>657.9</ele>
        <time>2021-07-18T11:56:01Z</time>
      </trkpt>
      <trkpt lat="46.82924" lon="5.8573">
        <ele>657.7</ele>
        <time>2021-07-18T11:56:06Z</time>
      </trkpt>
      <trkpt lat="46.82925" lon="5.85723">
        <ele>657.8</ele>
        <time>2021-07-18T11:56:11Z</time>
      </trkpt>
      <trkpt lat="46.82926" lon="5.85716">
        <ele>658.1</ele>
        <time>2021-07-18T11:56:15Z</time>
      </trkpt>
      <trkpt lat="46.82927" lon="5.85708">
        <ele>658.9</ele>
        <time>2021-07-18T11:56:20Z</time>
      </trkpt>
      <trkpt lat="46.82929" lon="5.85701">
        <ele>659.3</ele>
        <time>2021-07-18T11:56:25Z</time>
      </trkpt>
      <trkpt lat="46.82931" lon="5.85695">
        <ele>659.4</ele>
        <time>2021-07-18T11:56:29Z</time>
      </trkpt>
      <trkpt lat="46.82931" lon="5.85689">
        <ele>659.3</ele>
        <time>2021-07-18T11:56:34Z</time>
      </trkpt>
      <trkpt lat="46.82932" lon="5.85682">
        <ele>659.2</ele>
        <time>2021-07-18T11:56:40Z</time>
      </trkpt>
      <trkpt lat="46.82934" lon="5.85675">
        <ele>659</ele>
        <time>2021-07-18T11:56:45Z</time>
      </trkpt>
      <trkpt lat="46.82935" lon="5.85669">
        <ele>658.9</ele>
        <time>2021-07-18T11:56:49Z</time>
      </trkpt>
      <trkpt lat="46.82936" lon="5.85662">
        <ele>658.5</ele>
        <time>2021-07-18T11:56:53Z</time>
      </trkpt>
      <trkpt lat="46.82936" lon="5.85653">
        <ele>658</ele>
        <time>2021-07-18T11:56:58Z</time>
      </trkpt>
      <trkpt lat="46.82937" lon="5.85646">
        <ele>657.9</ele>
        <time>2021-07-18T11:57:02Z</time>
      </trkpt>
      <trkpt lat="46.82939" lon="5.85639">
        <ele>657.8</ele>
        <time>2021-07-18T11:57:06Z</time>
      </trkpt>
      <trkpt lat="46.8294" lon="5.85632">
        <ele>657.9</ele>
        <time>2021-07-18T11:57:10Z</time>
      </trkpt>
      <trkpt lat="46.8294" lon="5.85624">
        <ele>658.1</ele>
        <time>2021-07-18T11:57:14Z</time>
      </trkpt>
      <trkpt lat="46.8294" lon="5.85617">
        <ele>658.3</ele>
        <time>2021-07-18T11:57:18Z</time>
      </trkpt>
      <trkpt lat="46.82941" lon="5.8561">
        <ele>658.5</ele>
        <time>2021-07-18T11:57:22Z</time>
      </trkpt>
      <trkpt lat="46.82943" lon="5.85604">
        <ele>659.3</ele>
        <time>2021-07-18T11:57:27Z</time>
      </trkpt>
      <trkpt lat="46.82946" lon="5.85599">
        <ele>659.7</ele>
        <time>2021-07-18T11:57:36Z</time>
      </trkpt>
      <trkpt lat="46.82948" lon="5.85592">
        <ele>658.9</ele>
        <time>2021-07-18T11:57:46Z</time>
      </trkpt>
      <trkpt lat="46.82951" lon="5.85585">
        <ele>658.7</ele>
        <time>2021-07-18T11:57:52Z</time>
      </trkpt>
      <trkpt lat="46.82954" lon="5.85579">
        <ele>658</ele>
        <time>2021-07-18T11:57:58Z</time>
      </trkpt>
      <trkpt lat="46.82956" lon="5.85571">
        <ele>657.7</ele>
        <time>2021-07-18T11:58:02Z</time>
      </trkpt>
      <trkpt lat="46.82958" lon="5.85564">
        <ele>657.3</ele>
        <time>2021-07-18T11:58:06Z</time>
      </trkpt>
      <trkpt lat="46.82961" lon="5.85558">
        <ele>657.2</ele>
        <time>2021-07-18T11:58:10Z</time>
      </trkpt>
      <trkpt lat="46.82963" lon="5.85551">
        <ele>657.1</ele>
        <time>2021-07-18T11:58:16Z</time>
      </trkpt>
      <trkpt lat="46.82965" lon="5.85545">
        <ele>656.8</ele>
        <time>2021-07-18T11:58:21Z</time>
      </trkpt>
      <trkpt lat="46.82967" lon="5.85538">
        <ele>656.7</ele>
        <time>2021-07-18T11:58:25Z</time>
      </trkpt>
      <trkpt lat="46.82968" lon="5.8553">
        <ele>656.8</ele>
        <time>2021-07-18T11:58:29Z</time>
      </trkpt>
      <trkpt lat="46.82972" lon="5.85525">
        <ele>656.9</ele>
        <time>2021-07-18T11:58:33Z</time>
      </trkpt>
      <trkpt lat="46.82975" lon="5.8552">
        <ele>656.9</ele>
        <time>2021-07-18T11:58:37Z</time>
      </trkpt>
      <trkpt lat="46.82976" lon="5.85512">
        <ele>656.2</ele>
        <time>2021-07-18T11:58:42Z</time>
      </trkpt>
      <trkpt lat="46.82977" lon="5.85504">
        <ele>655.4</ele>
        <time>2021-07-18T11:58:47Z</time>
      </trkpt>
      <trkpt lat="46.82979" lon="5.85497">
        <ele>655.2</ele>
        <time>2021-07-18T11:58:52Z</time>
      </trkpt>
      <trkpt lat="46.82981" lon="5.8549">
        <ele>655.2</ele>
        <time>2021-07-18T11:58:57Z</time>
      </trkpt>
      <trkpt lat="46.82982" lon="5.85484">
        <ele>655.1</ele>
        <time>2021-07-18T11:59:02Z</time>
      </trkpt>
      <trkpt lat="46.82984" lon="5.85476">
        <ele>655.3</ele>
        <time>2021-07-18T11:59:06Z</time>
      </trkpt>
      <trkpt lat="46.82985" lon="5.85469">
        <ele>655.9</ele>
        <time>2021-07-18T11:59:10Z</time>
      </trkpt>
      <trkpt lat="46.82987" lon="5.85462">
        <ele>655.8</ele>
        <time>2021-07-18T11:59:15Z</time>
      </trkpt>
      <trkpt lat="46.82989" lon="5.85456">
        <ele>654.3</ele>
        <time>2021-07-18T11:59:21Z</time>
      </trkpt>
      <trkpt lat="46.82992" lon="5.85449">
        <ele>652.6</ele>
        <time>2021-07-18T11:59:26Z</time>
      </trkpt>
      <trkpt lat="46.82995" lon="5.85444">
        <ele>651.4</ele>
        <time>2021-07-18T11:59:30Z</time>
      </trkpt>
      <trkpt lat="46.82998" lon="5.85438">
        <ele>650.4</ele>
        <time>2021-07-18T11:59:34Z</time>
      </trkpt>
      <trkpt lat="46.83002" lon="5.85433">
        <ele>649.4</ele>
        <time>2021-07-18T11:59:39Z</time>
      </trkpt>
      <trkpt lat="46.83005" lon="5.85427">
        <ele>648.7</ele>
        <time>2021-07-18T11:59:44Z</time>
      </trkpt>
      <trkpt lat="46.83008" lon="5.85421">
        <ele>648.3</ele>
        <time>2021-07-18T11:59:48Z</time>
      </trkpt>
      <trkpt lat="46.8301" lon="5.85414">
        <ele>647.8</ele>
        <time>2021-07-18T11:59:53Z</time>
      </trkpt>
      <trkpt lat="46.83012" lon="5.85407">
        <ele>648</ele>
        <time>2021-07-18T11:59:58Z</time>
      </trkpt>
      <trkpt lat="46.83014" lon="5.854">
        <ele>648.5</ele>
        <time>2021-07-18T12:00:03Z</time>
      </trkpt>
      <trkpt lat="46.83017" lon="5.85393">
        <ele>648.2</ele>
        <time>2021-07-18T12:00:08Z</time>
      </trkpt>
      <trkpt lat="46.8302" lon="5.85387">
        <ele>647.7</ele>
        <time>2021-07-18T12:00:12Z</time>
      </trkpt>
      <trkpt lat="46.83022" lon="5.8538">
        <ele>647.7</ele>
        <time>2021-07-18T12:00:16Z</time>
      </trkpt>
      <trkpt lat="46.83023" lon="5.85373">
        <ele>647.7</ele>
        <time>2021-07-18T12:00:21Z</time>
      </trkpt>
      <trkpt lat="46.83024" lon="5.85366">
        <ele>648</ele>
        <time>2021-07-18T12:00:26Z</time>
      </trkpt>
      <trkpt lat="46.83026" lon="5.85359">
        <ele>648.5</ele>
        <time>2021-07-18T12:00:30Z</time>
      </trkpt>
      <trkpt lat="46.83027" lon="5.85352">
        <ele>648.7</ele>
        <time>2021-07-18T12:00:34Z</time>
      </trkpt>
      <trkpt lat="46.83028" lon="5.85345">
        <ele>648.6</ele>
        <time>2021-07-18T12:00:38Z</time>
      </trkpt>
      <trkpt lat="46.83029" lon="5.85337">
        <ele>648.6</ele>
        <time>2021-07-18T12:00:42Z</time>
      </trkpt>
      <trkpt lat="46.83029" lon="5.8533">
        <ele>649.1</ele>
        <time>2021-07-18T12:00:46Z</time>
      </trkpt>
      <trkpt lat="46.83029" lon="5.85323">
        <ele>649.2</ele>
        <time>2021-07-18T12:00:50Z</time>
      </trkpt>
      <trkpt lat="46.83029" lon="5.85315">
        <ele>649.5</ele>
        <time>2021-07-18T12:00:54Z</time>
      </trkpt>
      <trkpt lat="46.8303" lon="5.85308">
        <ele>649.3</ele>
        <time>2021-07-18T12:00:58Z</time>
      </trkpt>
      <trkpt lat="46.8303" lon="5.853">
        <ele>648.1</ele>
        <time>2021-07-18T12:01:03Z</time>
      </trkpt>
      <trkpt lat="46.83032" lon="5.85293">
        <ele>646.7</ele>
        <time>2021-07-18T12:01:08Z</time>
      </trkpt>
      <trkpt lat="46.83032" lon="5.85285">
        <ele>646</ele>
        <time>2021-07-18T12:01:13Z</time>
      </trkpt>
      <trkpt lat="46.83032" lon="5.85277">
        <ele>645.5</ele>
        <time>2021-07-18T12:01:17Z</time>
      </trkpt>
      <trkpt lat="46.83034" lon="5.8527">
        <ele>645</ele>
        <time>2021-07-18T12:01:21Z</time>
      </trkpt>
      <trkpt lat="46.83035" lon="5.85263">
        <ele>644.9</ele>
        <time>2021-07-18T12:01:26Z</time>
      </trkpt>
      <trkpt lat="46.83035" lon="5.85256">
        <ele>644.8</ele>
        <time>2021-07-18T12:01:30Z</time>
      </trkpt>
      <trkpt lat="46.83036" lon="5.85249">
        <ele>644.5</ele>
        <time>2021-07-18T12:01:34Z</time>
      </trkpt>
      <trkpt lat="46.83037" lon="5.85243">
        <ele>644</ele>
        <time>2021-07-18T12:01:38Z</time>
      </trkpt>
      <trkpt lat="46.83037" lon="5.85235">
        <ele>643.8</ele>
        <time>2021-07-18T12:01:42Z</time>
      </trkpt>
      <trkpt lat="46.83038" lon="5.85227">
        <ele>643.1</ele>
        <time>2021-07-18T12:01:47Z</time>
      </trkpt>
      <trkpt lat="46.83039" lon="5.85219">
        <ele>642.7</ele>
        <time>2021-07-18T12:01:52Z</time>
      </trkpt>
      <trkpt lat="46.8304" lon="5.85213">
        <ele>642.1</ele>
        <time>2021-07-18T12:01:58Z</time>
      </trkpt>
      <trkpt lat="46.83041" lon="5.85205">
        <ele>641.8</ele>
        <time>2021-07-18T12:02:04Z</time>
      </trkpt>
      <trkpt lat="46.83042" lon="5.85197">
        <ele>641.7</ele>
        <time>2021-07-18T12:02:08Z</time>
      </trkpt>
      <trkpt lat="46.83041" lon="5.8519">
        <ele>641.3</ele>
        <time>2021-07-18T12:02:12Z</time>
      </trkpt>
      <trkpt lat="46.83041" lon="5.85183">
        <ele>641</ele>
        <time>2021-07-18T12:02:16Z</time>
      </trkpt>
      <trkpt lat="46.83042" lon="5.85176">
        <ele>640.5</ele>
        <time>2021-07-18T12:02:21Z</time>
      </trkpt>
      <trkpt lat="46.83043" lon="5.85168">
        <ele>640.5</ele>
        <time>2021-07-18T12:02:26Z</time>
      </trkpt>
      <trkpt lat="46.83044" lon="5.85161">
        <ele>640.4</ele>
        <time>2021-07-18T12:02:30Z</time>
      </trkpt>
      <trkpt lat="46.83044" lon="5.85154">
        <ele>640.3</ele>
        <time>2021-07-18T12:02:34Z</time>
      </trkpt>
      <trkpt lat="46.83045" lon="5.85147">
        <ele>640.1</ele>
        <time>2021-07-18T12:02:38Z</time>
      </trkpt>
      <trkpt lat="46.83045" lon="5.8514">
        <ele>640.5</ele>
        <time>2021-07-18T12:02:42Z</time>
      </trkpt>
      <trkpt lat="46.83046" lon="5.85133">
        <ele>640.9</ele>
        <time>2021-07-18T12:02:46Z</time>
      </trkpt>
      <trkpt lat="46.83048" lon="5.85127">
        <ele>641.2</ele>
        <time>2021-07-18T12:02:51Z</time>
      </trkpt>
      <trkpt lat="46.83051" lon="5.8512">
        <ele>641</ele>
        <time>2021-07-18T12:02:56Z</time>
      </trkpt>
      <trkpt lat="46.83055" lon="5.85114">
        <ele>640.4</ele>
        <time>2021-07-18T12:03:00Z</time>
      </trkpt>
      <trkpt lat="46.83058" lon="5.8511">
        <ele>639.1</ele>
        <time>2021-07-18T12:03:04Z</time>
      </trkpt>
      <trkpt lat="46.83059" lon="5.85102">
        <ele>637.7</ele>
        <time>2021-07-18T12:03:08Z</time>
      </trkpt>
      <trkpt lat="46.8306" lon="5.85095">
        <ele>636.7</ele>
        <time>2021-07-18T12:03:12Z</time>
      </trkpt>
      <trkpt lat="46.83064" lon="5.85089">
        <ele>635.8</ele>
        <time>2021-07-18T12:03:16Z</time>
      </trkpt>
      <trkpt lat="46.83068" lon="5.85086">
        <ele>634.1</ele>
        <time>2021-07-18T12:03:20Z</time>
      </trkpt>
      <trkpt lat="46.83073" lon="5.85084">
        <ele>631.6</ele>
        <time>2021-07-18T12:03:26Z</time>
      </trkpt>
      <trkpt lat="46.83077" lon="5.85081">
        <ele>630.1</ele>
        <time>2021-07-18T12:03:31Z</time>
      </trkpt>
      <trkpt lat="46.8308" lon="5.85076">
        <ele>629.9</ele>
        <time>2021-07-18T12:03:35Z</time>
      </trkpt>
      <trkpt lat="46.83084" lon="5.85071">
        <ele>630</ele>
        <time>2021-07-18T12:03:39Z</time>
      </trkpt>
      <trkpt lat="46.83087" lon="5.85066">
        <ele>630.2</ele>
        <time>2021-07-18T12:03:43Z</time>
      </trkpt>
      <trkpt lat="46.83091" lon="5.85061">
        <ele>630.5</ele>
        <time>2021-07-18T12:03:47Z</time>
      </trkpt>
      <trkpt lat="46.83096" lon="5.85057">
        <ele>631.2</ele>
        <time>2021-07-18T12:03:51Z</time>
      </trkpt>
      <trkpt lat="46.83102" lon="5.85057">
        <ele>631.8</ele>
        <time>2021-07-18T12:03:55Z</time>
      </trkpt>
      <trkpt lat="46.83107" lon="5.85056">
        <ele>632.3</ele>
        <time>2021-07-18T12:03:58Z</time>
      </trkpt>
      <trkpt lat="46.83112" lon="5.85054">
        <ele>632.9</ele>
        <time>2021-07-18T12:04:03Z</time>
      </trkpt>
      <trkpt lat="46.83116" lon="5.85052">
        <ele>633.3</ele>
        <time>2021-07-18T12:04:07Z</time>
      </trkpt>
      <trkpt lat="46.83121" lon="5.85048">
        <ele>634</ele>
        <time>2021-07-18T12:04:12Z</time>
      </trkpt>
      <trkpt lat="46.83126" lon="5.85046">
        <ele>634.6</ele>
        <time>2021-07-18T12:04:17Z</time>
      </trkpt>
      <trkpt lat="46.8313" lon="5.85042">
        <ele>635.2</ele>
        <time>2021-07-18T12:04:21Z</time>
      </trkpt>
      <trkpt lat="46.83134" lon="5.85037">
        <ele>635.3</ele>
        <time>2021-07-18T12:04:26Z</time>
      </trkpt>
      <trkpt lat="46.83137" lon="5.8503">
        <ele>635.1</ele>
        <time>2021-07-18T12:04:31Z</time>
      </trkpt>
      <trkpt lat="46.8314" lon="5.85023">
        <ele>635</ele>
        <time>2021-07-18T12:04:35Z</time>
      </trkpt>
      <trkpt lat="46.83142" lon="5.85016">
        <ele>635</ele>
        <time>2021-07-18T12:04:39Z</time>
      </trkpt>
      <trkpt lat="46.83143" lon="5.85009">
        <ele>634.6</ele>
        <time>2021-07-18T12:04:44Z</time>
      </trkpt>
      <trkpt lat="46.83144" lon="5.85002">
        <ele>634.4</ele>
        <time>2021-07-18T12:04:49Z</time>
      </trkpt>
      <trkpt lat="46.83146" lon="5.84995">
        <ele>634.5</ele>
        <time>2021-07-18T12:04:54Z</time>
      </trkpt>
      <trkpt lat="46.83146" lon="5.84988">
        <ele>634.8</ele>
        <time>2021-07-18T12:04:58Z</time>
      </trkpt>
      <trkpt lat="46.83147" lon="5.84981">
        <ele>635</ele>
        <time>2021-07-18T12:05:02Z</time>
      </trkpt>
      <trkpt lat="46.83148" lon="5.84974">
        <ele>634.7</ele>
        <time>2021-07-18T12:05:07Z</time>
      </trkpt>
      <trkpt lat="46.83148" lon="5.84966">
        <ele>633.7</ele>
        <time>2021-07-18T12:05:12Z</time>
      </trkpt>
      <trkpt lat="46.83149" lon="5.84959">
        <ele>633.3</ele>
        <time>2021-07-18T12:05:17Z</time>
      </trkpt>
      <trkpt lat="46.83149" lon="5.84951">
        <ele>633.3</ele>
        <time>2021-07-18T12:05:22Z</time>
      </trkpt>
      <trkpt lat="46.83148" lon="5.84943">
        <ele>633.2</ele>
        <time>2021-07-18T12:05:27Z</time>
      </trkpt>
      <trkpt lat="46.83148" lon="5.84936">
        <ele>633.4</ele>
        <time>2021-07-18T12:05:31Z</time>
      </trkpt>
      <trkpt lat="46.8315" lon="5.84928">
        <ele>632.9</ele>
        <time>2021-07-18T12:05:36Z</time>
      </trkpt>
      <trkpt lat="46.83151" lon="5.84922">
        <ele>632.3</ele>
        <time>2021-07-18T12:05:40Z</time>
      </trkpt>
      <trkpt lat="46.83153" lon="5.84916">
        <ele>631.4</ele>
        <time>2021-07-18T12:05:44Z</time>
      </trkpt>
      <trkpt lat="46.83156" lon="5.84909">
        <ele>630.2</ele>
        <time>2021-07-18T12:05:49Z</time>
      </trkpt>
      <trkpt lat="46.83158" lon="5.84902">
        <ele>629.5</ele>
        <time>2021-07-18T12:05:53Z</time>
      </trkpt>
      <trkpt lat="46.83161" lon="5.84896">
        <ele>627.7</ele>
        <time>2021-07-18T12:05:58Z</time>
      </trkpt>
      <trkpt lat="46.83163" lon="5.84889">
        <ele>626.9</ele>
        <time>2021-07-18T12:06:02Z</time>
      </trkpt>
      <trkpt lat="46.83165" lon="5.84882">
        <ele>626.4</ele>
        <time>2021-07-18T12:06:06Z</time>
      </trkpt>
      <trkpt lat="46.83167" lon="5.84876">
        <ele>625.9</ele>
        <time>2021-07-18T12:06:11Z</time>
      </trkpt>
      <trkpt lat="46.83171" lon="5.84872">
        <ele>625.6</ele>
        <time>2021-07-18T12:06:15Z</time>
      </trkpt>
      <trkpt lat="46.83175" lon="5.84867">
        <ele>624.7</ele>
        <time>2021-07-18T12:06:20Z</time>
      </trkpt>
      <trkpt lat="46.83179" lon="5.84863">
        <ele>622.8</ele>
        <time>2021-07-18T12:06:27Z</time>
      </trkpt>
      <trkpt lat="46.83183" lon="5.84857">
        <ele>621.7</ele>
        <time>2021-07-18T12:06:31Z</time>
      </trkpt>
      <trkpt lat="46.83186" lon="5.84852">
        <ele>620.1</ele>
        <time>2021-07-18T12:06:35Z</time>
      </trkpt>
      <trkpt lat="46.83191" lon="5.84848">
        <ele>618.1</ele>
        <time>2021-07-18T12:06:40Z</time>
      </trkpt>
      <trkpt lat="46.83195" lon="5.84843">
        <ele>616.6</ele>
        <time>2021-07-18T12:06:44Z</time>
      </trkpt>
      <trkpt lat="46.83198" lon="5.84837">
        <ele>615.6</ele>
        <time>2021-07-18T12:06:48Z</time>
      </trkpt>
      <trkpt lat="46.83201" lon="5.84832">
        <ele>615</ele>
        <time>2021-07-18T12:06:53Z</time>
      </trkpt>
      <trkpt lat="46.83205" lon="5.84827">
        <ele>614.9</ele>
        <time>2021-07-18T12:06:57Z</time>
      </trkpt>
      <trkpt lat="46.83209" lon="5.84821">
        <ele>614.5</ele>
        <time>2021-07-18T12:07:02Z</time>
      </trkpt>
      <trkpt lat="46.83211" lon="5.84815">
        <ele>614.6</ele>
        <time>2021-07-18T12:07:06Z</time>
      </trkpt>
      <trkpt lat="46.83209" lon="5.84808">
        <ele>614.6</ele>
        <time>2021-07-18T12:07:10Z</time>
      </trkpt>
      <trkpt lat="46.83207" lon="5.84802">
        <ele>614.8</ele>
        <time>2021-07-18T12:07:13Z</time>
      </trkpt>
      <trkpt lat="46.83204" lon="5.84795">
        <ele>615.6</ele>
        <time>2021-07-18T12:07:17Z</time>
      </trkpt>
      <trkpt lat="46.83206" lon="5.84789">
        <ele>616.8</ele>
        <time>2021-07-18T12:07:25Z</time>
      </trkpt>
      <trkpt lat="46.83208" lon="5.84781">
        <ele>616.5</ele>
        <time>2021-07-18T12:07:33Z</time>
      </trkpt>
      <trkpt lat="46.83207" lon="5.84774">
        <ele>616.6</ele>
        <time>2021-07-18T12:07:38Z</time>
      </trkpt>
      <trkpt lat="46.83207" lon="5.84767">
        <ele>616.7</ele>
        <time>2021-07-18T12:07:43Z</time>
      </trkpt>
      <trkpt lat="46.83208" lon="5.8476">
        <ele>616.7</ele>
        <time>2021-07-18T12:07:49Z</time>
      </trkpt>
      <trkpt lat="46.83212" lon="5.84755">
        <ele>616.2</ele>
        <time>2021-07-18T12:07:54Z</time>
      </trkpt>
      <trkpt lat="46.83216" lon="5.84751">
        <ele>616.9</ele>
        <time>2021-07-18T12:08:01Z</time>
      </trkpt>
      <trkpt lat="46.83219" lon="5.84747">
        <ele>619.7</ele>
        <time>2021-07-18T12:08:10Z</time>
      </trkpt>
      <trkpt lat="46.83223" lon="5.84744">
        <ele>621.1</ele>
        <time>2021-07-18T12:08:15Z</time>
      </trkpt>
      <trkpt lat="46.83227" lon="5.84741">
        <ele>621.7</ele>
        <time>2021-07-18T12:08:19Z</time>
      </trkpt>
      <trkpt lat="46.83232" lon="5.8474">
        <ele>622</ele>
        <time>2021-07-18T12:08:24Z</time>
      </trkpt>
      <trkpt lat="46.83237" lon="5.84741">
        <ele>622.2</ele>
        <time>2021-07-18T12:08:29Z</time>
      </trkpt>
      <trkpt lat="46.83242" lon="5.84743">
        <ele>622.6</ele>
        <time>2021-07-18T12:08:34Z</time>
      </trkpt>
      <trkpt lat="46.83247" lon="5.84744">
        <ele>622.7</ele>
        <time>2021-07-18T12:08:42Z</time>
      </trkpt>
      <trkpt lat="46.83252" lon="5.84747">
        <ele>622.7</ele>
        <time>2021-07-18T12:08:47Z</time>
      </trkpt>
      <trkpt lat="46.83257" lon="5.84748">
        <ele>621.7</ele>
        <time>2021-07-18T12:08:52Z</time>
      </trkpt>
      <trkpt lat="46.83262" lon="5.8475">
        <ele>620.6</ele>
        <time>2021-07-18T12:09:39Z</time>
      </trkpt>
      <trkpt lat="46.83267" lon="5.84751">
        <ele>619.4</ele>
        <time>2021-07-18T12:09:45Z</time>
      </trkpt>
      <trkpt lat="46.83271" lon="5.84746">
        <ele>619.3</ele>
        <time>2021-07-18T12:09:51Z</time>
      </trkpt>
      <trkpt lat="46.83275" lon="5.84741">
        <ele>619.6</ele>
        <time>2021-07-18T12:09:57Z</time>
      </trkpt>
      <trkpt lat="46.8328" lon="5.84738">
        <ele>620</ele>
        <time>2021-07-18T12:10:02Z</time>
      </trkpt>
      <trkpt lat="46.83285" lon="5.84736">
        <ele>621</ele>
        <time>2021-07-18T12:10:08Z</time>
      </trkpt>
      <trkpt lat="46.83289" lon="5.84738">
        <ele>622.8</ele>
        <time>2021-07-18T12:10:15Z</time>
      </trkpt>
      <trkpt lat="46.83295" lon="5.84739">
        <ele>624.5</ele>
        <time>2021-07-18T12:10:21Z</time>
      </trkpt>
      <trkpt lat="46.833" lon="5.8474">
        <ele>625.8</ele>
        <time>2021-07-18T12:10:26Z</time>
      </trkpt>
      <trkpt lat="46.83305" lon="5.8474">
        <ele>626.6</ele>
        <time>2021-07-18T12:10:31Z</time>
      </trkpt>
      <trkpt lat="46.8331" lon="5.8474">
        <ele>627.3</ele>
        <time>2021-07-18T12:10:38Z</time>
      </trkpt>
      <trkpt lat="46.83314" lon="5.84736">
        <ele>626.4</ele>
        <time>2021-07-18T12:10:46Z</time>
      </trkpt>
      <trkpt lat="46.83318" lon="5.8473">
        <ele>625.6</ele>
        <time>2021-07-18T12:10:52Z</time>
      </trkpt>
      <trkpt lat="46.83321" lon="5.84725">
        <ele>625.1</ele>
        <time>2021-07-18T12:10:56Z</time>
      </trkpt>
      <trkpt lat="46.83324" lon="5.84719">
        <ele>625.1</ele>
        <time>2021-07-18T12:11:00Z</time>
      </trkpt>
      <trkpt lat="46.83326" lon="5.84711">
        <ele>625.8</ele>
        <time>2021-07-18T12:11:05Z</time>
      </trkpt>
      <trkpt lat="46.83331" lon="5.84708">
        <ele>626.1</ele>
        <time>2021-07-18T12:11:10Z</time>
      </trkpt>
      <trkpt lat="46.83336" lon="5.84706">
        <ele>626</ele>
        <time>2021-07-18T12:11:16Z</time>
      </trkpt>
      <trkpt lat="46.8334" lon="5.84703">
        <ele>625.7</ele>
        <time>2021-07-18T12:11:23Z</time>
      </trkpt>
      <trkpt lat="46.83341" lon="5.84697">
        <ele>626.4</ele>
        <time>2021-07-18T12:11:29Z</time>
      </trkpt>
      <trkpt lat="46.83346" lon="5.84693">
        <ele>628.2</ele>
        <time>2021-07-18T12:11:37Z</time>
      </trkpt>
      <trkpt lat="46.83348" lon="5.84686">
        <ele>627</ele>
        <time>2021-07-18T12:12:12Z</time>
      </trkpt>
      <trkpt lat="46.83347" lon="5.84679">
        <ele>625.8</ele>
        <time>2021-07-18T12:12:19Z</time>
      </trkpt>
      <trkpt lat="46.83352" lon="5.84675">
        <ele>625.1</ele>
        <time>2021-07-18T12:12:29Z</time>
      </trkpt>
      <trkpt lat="46.83356" lon="5.84672">
        <ele>624.4</ele>
        <time>2021-07-18T12:12:36Z</time>
      </trkpt>
      <trkpt lat="46.83361" lon="5.84673">
        <ele>623.7</ele>
        <time>2021-07-18T12:12:43Z</time>
      </trkpt>
      <trkpt lat="46.83365" lon="5.8467">
        <ele>623.4</ele>
        <time>2021-07-18T12:12:48Z</time>
      </trkpt>
      <trkpt lat="46.8337" lon="5.84669">
        <ele>623.6</ele>
        <time>2021-07-18T12:12:53Z</time>
      </trkpt>
      <trkpt lat="46.83375" lon="5.84668">
        <ele>623.7</ele>
        <time>2021-07-18T12:12:58Z</time>
      </trkpt>
      <trkpt lat="46.83379" lon="5.84664">
        <ele>623.4</ele>
        <time>2021-07-18T12:13:05Z</time>
      </trkpt>
      <trkpt lat="46.83384" lon="5.84662">
        <ele>623.2</ele>
        <time>2021-07-18T12:13:10Z</time>
      </trkpt>
      <trkpt lat="46.83381" lon="5.84655">
        <ele>622.5</ele>
        <time>2021-07-18T12:13:19Z</time>
      </trkpt>
      <trkpt lat="46.83378" lon="5.8465">
        <ele>622.8</ele>
        <time>2021-07-18T12:13:25Z</time>
      </trkpt>
      <trkpt lat="46.83378" lon="5.84643">
        <ele>622.7</ele>
        <time>2021-07-18T12:13:29Z</time>
      </trkpt>
      <trkpt lat="46.83376" lon="5.8465">
        <ele>620.2</ele>
        <time>2021-07-18T12:13:46Z</time>
      </trkpt>
      <trkpt lat="46.83376" lon="5.84658">
        <ele>620</ele>
        <time>2021-07-18T12:13:52Z</time>
      </trkpt>
      <trkpt lat="46.83381" lon="5.84657">
        <ele>621.1</ele>
        <time>2021-07-18T12:14:41Z</time>
      </trkpt>
      <trkpt lat="46.83385" lon="5.84661">
        <ele>619</ele>
        <time>2021-07-18T12:14:52Z</time>
      </trkpt>
      <trkpt lat="46.83389" lon="5.84665">
        <ele>618.4</ele>
        <time>2021-07-18T12:14:57Z</time>
      </trkpt>
      <trkpt lat="46.83392" lon="5.84659">
        <ele>622.5</ele>
        <time>2021-07-18T12:15:05Z</time>
      </trkpt>
      <trkpt lat="46.83395" lon="5.84653">
        <ele>624.5</ele>
        <time>2021-07-18T12:15:09Z</time>
      </trkpt>
      <trkpt lat="46.83405" lon="5.84651">
        <ele>625.4</ele>
        <time>2021-07-18T12:15:12Z</time>
      </trkpt>
      <trkpt lat="46.83412" lon="5.8465">
        <ele>626</ele>
        <time>2021-07-18T12:15:15Z</time>
      </trkpt>
      <trkpt lat="46.83407" lon="5.84653">
        <ele>627.3</ele>
        <time>2021-07-18T12:15:25Z</time>
      </trkpt>
      <trkpt lat="46.83402" lon="5.84653">
        <ele>627.5</ele>
        <time>2021-07-18T12:15:29Z</time>
      </trkpt>
      <trkpt lat="46.83392" lon="5.84657">
        <ele>627.5</ele>
        <time>2021-07-18T12:15:45Z</time>
      </trkpt>
      <trkpt lat="46.83385" lon="5.84659">
        <ele>627.5</ele>
        <time>2021-07-18T12:16:01Z</time>
      </trkpt>
      <trkpt lat="46.8338" lon="5.8466">
        <ele>627.6</ele>
        <time>2021-07-18T12:16:05Z</time>
      </trkpt>
      <trkpt lat="46.83385" lon="5.84659">
        <ele>626.5</ele>
        <time>2021-07-18T12:16:32Z</time>
      </trkpt>
      <trkpt lat="46.83389" lon="5.84659">
        <ele>625.9</ele>
        <time>2021-07-18T12:16:35Z</time>
      </trkpt>
      <trkpt lat="46.83394" lon="5.84657">
        <ele>625</ele>
        <time>2021-07-18T12:16:40Z</time>
      </trkpt>
      <trkpt lat="46.83399" lon="5.84655">
        <ele>624.1</ele>
        <time>2021-07-18T12:16:44Z</time>
      </trkpt>
      <trkpt lat="46.83403" lon="5.84654">
        <ele>621.9</ele>
        <time>2021-07-18T12:16:51Z</time>
      </trkpt>
      <trkpt lat="46.83408" lon="5.84657">
        <ele>621.3</ele>
        <time>2021-07-18T12:16:56Z</time>
      </trkpt>
      <trkpt lat="46.83412" lon="5.84657">
        <ele>620.7</ele>
        <time>2021-07-18T12:17:00Z</time>
      </trkpt>
      <trkpt lat="46.83418" lon="5.84655">
        <ele>620</ele>
        <time>2021-07-18T12:17:06Z</time>
      </trkpt>
      <trkpt lat="46.83423" lon="5.84654">
        <ele>619.3</ele>
        <time>2021-07-18T12:17:11Z</time>
      </trkpt>
      <trkpt lat="46.83427" lon="5.84651">
        <ele>617</ele>
        <time>2021-07-18T12:17:21Z</time>
      </trkpt>
      <trkpt lat="46.83432" lon="5.8465">
        <ele>617.2</ele>
        <time>2021-07-18T12:17:37Z</time>
      </trkpt>
      <trkpt lat="46.83433" lon="5.84656">
        <ele>615.9</ele>
        <time>2021-07-18T12:17:46Z</time>
      </trkpt>
      <trkpt lat="46.83438" lon="5.84654">
        <ele>613.8</ele>
        <time>2021-07-18T12:17:57Z</time>
      </trkpt>
      <trkpt lat="46.83439" lon="5.84661">
        <ele>614.2</ele>
        <time>2021-07-18T12:18:08Z</time>
      </trkpt>
      <trkpt lat="46.83442" lon="5.84667">
        <ele>614.7</ele>
        <time>2021-07-18T12:18:16Z</time>
      </trkpt>
      <trkpt lat="46.83446" lon="5.84671">
        <ele>616.4</ele>
        <time>2021-07-18T12:18:25Z</time>
      </trkpt>
      <trkpt lat="46.83449" lon="5.84675">
        <ele>617.6</ele>
        <time>2021-07-18T12:18:29Z</time>
      </trkpt>
      <trkpt lat="46.83451" lon="5.84681">
        <ele>618.8</ele>
        <time>2021-07-18T12:18:34Z</time>
      </trkpt>
      <trkpt lat="46.83453" lon="5.84687">
        <ele>619.5</ele>
        <time>2021-07-18T12:18:39Z</time>
      </trkpt>
      <trkpt lat="46.83456" lon="5.84694">
        <ele>620.3</ele>
        <time>2021-07-18T12:18:44Z</time>
      </trkpt>
      <trkpt lat="46.83457" lon="5.847">
        <ele>621.5</ele>
        <time>2021-07-18T12:18:49Z</time>
      </trkpt>
      <trkpt lat="46.83458" lon="5.84707">
        <ele>622.6</ele>
        <time>2021-07-18T12:18:53Z</time>
      </trkpt>
      <trkpt lat="46.83459" lon="5.84714">
        <ele>623.5</ele>
        <time>2021-07-18T12:18:58Z</time>
      </trkpt>
      <trkpt lat="46.83463" lon="5.84718">
        <ele>623.7</ele>
        <time>2021-07-18T12:19:04Z</time>
      </trkpt>
      <trkpt lat="46.83466" lon="5.84725">
        <ele>624.1</ele>
        <time>2021-07-18T12:19:08Z</time>
      </trkpt>
      <trkpt lat="46.83469" lon="5.8473">
        <ele>624.9</ele>
        <time>2021-07-18T12:19:13Z</time>
      </trkpt>
      <trkpt lat="46.83472" lon="5.84736">
        <ele>625.9</ele>
        <time>2021-07-18T12:19:22Z</time>
      </trkpt>
      <trkpt lat="46.83475" lon="5.84742">
        <ele>626.6</ele>
        <time>2021-07-18T12:19:29Z</time>
      </trkpt>
      <trkpt lat="46.83478" lon="5.84746">
        <ele>627.5</ele>
        <time>2021-07-18T12:19:36Z</time>
      </trkpt>
      <trkpt lat="46.83483" lon="5.84743">
        <ele>625.9</ele>
        <time>2021-07-18T12:19:48Z</time>
      </trkpt>
      <trkpt lat="46.83487" lon="5.8474">
        <ele>625.2</ele>
        <time>2021-07-18T12:19:54Z</time>
      </trkpt>
      <trkpt lat="46.83491" lon="5.84734">
        <ele>624.5</ele>
        <time>2021-07-18T12:20:00Z</time>
      </trkpt>
      <trkpt lat="46.83496" lon="5.84732">
        <ele>624.9</ele>
        <time>2021-07-18T12:20:07Z</time>
      </trkpt>
      <trkpt lat="46.835" lon="5.84727">
        <ele>624.9</ele>
        <time>2021-07-18T12:20:12Z</time>
      </trkpt>
      <trkpt lat="46.83504" lon="5.84725">
        <ele>625.1</ele>
        <time>2021-07-18T12:20:17Z</time>
      </trkpt>
      <trkpt lat="46.83508" lon="5.84722">
        <ele>624.2</ele>
        <time>2021-07-18T12:20:25Z</time>
      </trkpt>
      <trkpt lat="46.83512" lon="5.84717">
        <ele>624.1</ele>
        <time>2021-07-18T12:20:32Z</time>
      </trkpt>
      <trkpt lat="46.83518" lon="5.84713">
        <ele>624.2</ele>
        <time>2021-07-18T12:20:36Z</time>
      </trkpt>
      <trkpt lat="46.83523" lon="5.8471">
        <ele>624.1</ele>
        <time>2021-07-18T12:20:39Z</time>
      </trkpt>
      <trkpt lat="46.83528" lon="5.84707">
        <ele>623.8</ele>
        <time>2021-07-18T12:20:43Z</time>
      </trkpt>
      <trkpt lat="46.83533" lon="5.84704">
        <ele>623.6</ele>
        <time>2021-07-18T12:20:46Z</time>
      </trkpt>
      <trkpt lat="46.83537" lon="5.84703">
        <ele>623.1</ele>
        <time>2021-07-18T12:20:50Z</time>
      </trkpt>
      <trkpt lat="46.8354" lon="5.84697">
        <ele>622.2</ele>
        <time>2021-07-18T12:20:55Z</time>
      </trkpt>
      <trkpt lat="46.83543" lon="5.84691">
        <ele>621</ele>
        <time>2021-07-18T12:20:59Z</time>
      </trkpt>
      <trkpt lat="46.83546" lon="5.84685">
        <ele>620.3</ele>
        <time>2021-07-18T12:21:03Z</time>
      </trkpt>
      <trkpt lat="46.83549" lon="5.8468">
        <ele>620</ele>
        <time>2021-07-18T12:21:07Z</time>
      </trkpt>
      <trkpt lat="46.83553" lon="5.84676">
        <ele>619.1</ele>
        <time>2021-07-18T12:21:12Z</time>
      </trkpt>
      <trkpt lat="46.83557" lon="5.84674">
        <ele>618.7</ele>
        <time>2021-07-18T12:21:16Z</time>
      </trkpt>
      <trkpt lat="46.83562" lon="5.84672">
        <ele>618.6</ele>
        <time>2021-07-18T12:21:20Z</time>
      </trkpt>
      <trkpt lat="46.83567" lon="5.84672">
        <ele>618.3</ele>
        <time>2021-07-18T12:21:24Z</time>
      </trkpt>
      <trkpt lat="46.83572" lon="5.84668">
        <ele>618.1</ele>
        <time>2021-07-18T12:21:29Z</time>
      </trkpt>
      <trkpt lat="46.83577" lon="5.84666">
        <ele>618.2</ele>
        <time>2021-07-18T12:21:34Z</time>
      </trkpt>
      <trkpt lat="46.83583" lon="5.84664">
        <ele>618.6</ele>
        <time>2021-07-18T12:21:38Z</time>
      </trkpt>
      <trkpt lat="46.83588" lon="5.84663">
        <ele>619.1</ele>
        <time>2021-07-18T12:21:42Z</time>
      </trkpt>
      <trkpt lat="46.83592" lon="5.84662">
        <ele>619.9</ele>
        <time>2021-07-18T12:21:46Z</time>
      </trkpt>
      <trkpt lat="46.83598" lon="5.84661">
        <ele>620.8</ele>
        <time>2021-07-18T12:21:50Z</time>
      </trkpt>
      <trkpt lat="46.83602" lon="5.84658">
        <ele>621.7</ele>
        <time>2021-07-18T12:21:54Z</time>
      </trkpt>
      <trkpt lat="46.83605" lon="5.84653">
        <ele>621.9</ele>
        <time>2021-07-18T12:21:58Z</time>
      </trkpt>
      <trkpt lat="46.83608" lon="5.84648">
        <ele>622</ele>
        <time>2021-07-18T12:22:02Z</time>
      </trkpt>
      <trkpt lat="46.83612" lon="5.84642">
        <ele>622.1</ele>
        <time>2021-07-18T12:22:07Z</time>
      </trkpt>
      <trkpt lat="46.83617" lon="5.84639">
        <ele>621.8</ele>
        <time>2021-07-18T12:22:13Z</time>
      </trkpt>
      <trkpt lat="46.83622" lon="5.84638">
        <ele>621.3</ele>
        <time>2021-07-18T12:22:19Z</time>
      </trkpt>
      <trkpt lat="46.83627" lon="5.84635">
        <ele>620.1</ele>
        <time>2021-07-18T12:22:25Z</time>
      </trkpt>
      <trkpt lat="46.83631" lon="5.84631">
        <ele>619.3</ele>
        <time>2021-07-18T12:22:30Z</time>
      </trkpt>
      <trkpt lat="46.83636" lon="5.84628">
        <ele>619</ele>
        <time>2021-07-18T12:22:34Z</time>
      </trkpt>
      <trkpt lat="46.8364" lon="5.84625">
        <ele>619.1</ele>
        <time>2021-07-18T12:22:37Z</time>
      </trkpt>
      <trkpt lat="46.83644" lon="5.84621">
        <ele>619.4</ele>
        <time>2021-07-18T12:22:41Z</time>
      </trkpt>
      <trkpt lat="46.83647" lon="5.84615">
        <ele>620</ele>
        <time>2021-07-18T12:22:45Z</time>
      </trkpt>
      <trkpt lat="46.83648" lon="5.84609">
        <ele>621.7</ele>
        <time>2021-07-18T12:22:52Z</time>
      </trkpt>
      <trkpt lat="46.83654" lon="5.84607">
        <ele>623.1</ele>
        <time>2021-07-18T12:22:59Z</time>
      </trkpt>
      <trkpt lat="46.83659" lon="5.84607">
        <ele>622.4</ele>
        <time>2021-07-18T12:23:03Z</time>
      </trkpt>
      <trkpt lat="46.83663" lon="5.84603">
        <ele>621.7</ele>
        <time>2021-07-18T12:23:08Z</time>
      </trkpt>
      <trkpt lat="46.83666" lon="5.84597">
        <ele>621.1</ele>
        <time>2021-07-18T12:23:11Z</time>
      </trkpt>
      <trkpt lat="46.8367" lon="5.84593">
        <ele>620.3</ele>
        <time>2021-07-18T12:23:15Z</time>
      </trkpt>
      <trkpt lat="46.83673" lon="5.84587">
        <ele>619.8</ele>
        <time>2021-07-18T12:23:20Z</time>
      </trkpt>
      <trkpt lat="46.83678" lon="5.84584">
        <ele>619.7</ele>
        <time>2021-07-18T12:23:25Z</time>
      </trkpt>
      <trkpt lat="46.83683" lon="5.84584">
        <ele>619.3</ele>
        <time>2021-07-18T12:23:30Z</time>
      </trkpt>
      <trkpt lat="46.83687" lon="5.84587">
        <ele>618.5</ele>
        <time>2021-07-18T12:23:34Z</time>
      </trkpt>
      <trkpt lat="46.83689" lon="5.84594">
        <ele>616.6</ele>
        <time>2021-07-18T12:23:42Z</time>
      </trkpt>
      <trkpt lat="46.83691" lon="5.846">
        <ele>615.3</ele>
        <time>2021-07-18T12:23:47Z</time>
      </trkpt>
      <trkpt lat="46.83693" lon="5.84606">
        <ele>612.5</ele>
        <time>2021-07-18T12:23:58Z</time>
      </trkpt>
      <trkpt lat="46.83693" lon="5.84613">
        <ele>611.5</ele>
        <time>2021-07-18T12:24:05Z</time>
      </trkpt>
      <trkpt lat="46.83691" lon="5.8462">
        <ele>611.5</ele>
        <time>2021-07-18T12:24:15Z</time>
      </trkpt>
      <trkpt lat="46.83689" lon="5.84613">
        <ele>612</ele>
        <time>2021-07-18T12:24:30Z</time>
      </trkpt>
      <trkpt lat="46.83685" lon="5.84617">
        <ele>615.5</ele>
        <time>2021-07-18T12:24:45Z</time>
      </trkpt>
      <trkpt lat="46.83688" lon="5.84611">
        <ele>619.3</ele>
        <time>2021-07-18T12:25:14Z</time>
      </trkpt>
      <trkpt lat="46.8369" lon="5.84606">
        <ele>623.1</ele>
        <time>2021-07-18T12:25:27Z</time>
      </trkpt>
      <trkpt lat="46.83689" lon="5.84612">
        <ele>623.7</ele>
        <time>2021-07-18T12:25:46Z</time>
      </trkpt>
      <trkpt lat="46.83687" lon="5.84606">
        <ele>625.9</ele>
        <time>2021-07-18T12:26:25Z</time>
      </trkpt>
      <trkpt lat="46.83691" lon="5.84602">
        <ele>626.8</ele>
        <time>2021-07-18T12:26:32Z</time>
      </trkpt>
      <trkpt lat="46.83694" lon="5.84607">
        <ele>628</ele>
        <time>2021-07-18T12:26:45Z</time>
      </trkpt>
      <trkpt lat="46.83695" lon="5.84615">
        <ele>629.1</ele>
        <time>2021-07-18T12:26:53Z</time>
      </trkpt>
      <trkpt lat="46.83691" lon="5.84618">
        <ele>629.6</ele>
        <time>2021-07-18T12:26:59Z</time>
      </trkpt>
      <trkpt lat="46.83686" lon="5.8462">
        <ele>630</ele>
        <time>2021-07-18T12:27:05Z</time>
      </trkpt>
      <trkpt lat="46.83691" lon="5.84621">
        <ele>628.8</ele>
        <time>2021-07-18T12:27:24Z</time>
      </trkpt>
      <trkpt lat="46.83686" lon="5.84618">
        <ele>627</ele>
        <time>2021-07-18T12:27:45Z</time>
      </trkpt>
      <trkpt lat="46.83688" lon="5.84612">
        <ele>630.6</ele>
        <time>2021-07-18T12:28:07Z</time>
      </trkpt>
      <trkpt lat="46.83687" lon="5.8462">
        <ele>632.5</ele>
        <time>2021-07-18T12:28:19Z</time>
      </trkpt>
      <trkpt lat="46.8369" lon="5.84615">
        <ele>631.6</ele>
        <time>2021-07-18T12:28:59Z</time>
      </trkpt>
      <trkpt lat="46.83693" lon="5.84621">
        <ele>630.9</ele>
        <time>2021-07-18T12:29:19Z</time>
      </trkpt>
      <trkpt lat="46.8369" lon="5.84616">
        <ele>630.3</ele>
        <time>2021-07-18T12:29:31Z</time>
      </trkpt>
      <trkpt lat="46.83696" lon="5.84615">
        <ele>629.2</ele>
        <time>2021-07-18T12:29:52Z</time>
      </trkpt>
      <trkpt lat="46.83691" lon="5.84617">
        <ele>626.7</ele>
        <time>2021-07-18T12:30:32Z</time>
      </trkpt>
      <trkpt lat="46.83696" lon="5.84615">
        <ele>625.4</ele>
        <time>2021-07-18T12:30:56Z</time>
      </trkpt>
      <trkpt lat="46.83691" lon="5.84615">
        <ele>626.1</ele>
        <time>2021-07-18T12:31:04Z</time>
      </trkpt>
      <trkpt lat="46.83693" lon="5.84608">
        <ele>624.6</ele>
        <time>2021-07-18T12:31:57Z</time>
      </trkpt>
      <trkpt lat="46.83688" lon="5.84607">
        <ele>624.5</ele>
        <time>2021-07-18T12:32:05Z</time>
      </trkpt>
      <trkpt lat="46.83693" lon="5.84604">
        <ele>624.6</ele>
        <time>2021-07-18T12:32:20Z</time>
      </trkpt>
      <trkpt lat="46.83697" lon="5.84605">
        <ele>624.6</ele>
        <time>2021-07-18T12:32:31Z</time>
      </trkpt>
      <trkpt lat="46.83693" lon="5.84598">
        <ele>624.5</ele>
        <time>2021-07-18T12:32:42Z</time>
      </trkpt>
      <trkpt lat="46.83687" lon="5.84594">
        <ele>624.4</ele>
        <time>2021-07-18T12:32:45Z</time>
      </trkpt>
      <trkpt lat="46.83682" lon="5.84591">
        <ele>625.1</ele>
        <time>2021-07-18T12:32:49Z</time>
      </trkpt>
      <trkpt lat="46.83678" lon="5.84584">
        <ele>626.3</ele>
        <time>2021-07-18T12:32:53Z</time>
      </trkpt>
      <trkpt lat="46.83676" lon="5.84578">
        <ele>627.8</ele>
        <time>2021-07-18T12:32:58Z</time>
      </trkpt>
      <trkpt lat="46.83672" lon="5.84573">
        <ele>629.6</ele>
        <time>2021-07-18T12:33:03Z</time>
      </trkpt>
      <trkpt lat="46.83676" lon="5.84571">
        <ele>631.2</ele>
        <time>2021-07-18T12:33:12Z</time>
      </trkpt>
      <trkpt lat="46.83681" lon="5.84572">
        <ele>629.5</ele>
        <time>2021-07-18T12:34:03Z</time>
      </trkpt>
      <trkpt lat="46.83686" lon="5.84569">
        <ele>628.7</ele>
        <time>2021-07-18T12:34:07Z</time>
      </trkpt>
      <trkpt lat="46.8369" lon="5.84565">
        <ele>628</ele>
        <time>2021-07-18T12:34:12Z</time>
      </trkpt>
      <trkpt lat="46.83694" lon="5.8456">
        <ele>627</ele>
        <time>2021-07-18T12:34:17Z</time>
      </trkpt>
      <trkpt lat="46.83697" lon="5.84556">
        <ele>626.2</ele>
        <time>2021-07-18T12:34:21Z</time>
      </trkpt>
      <trkpt lat="46.83701" lon="5.84551">
        <ele>625.4</ele>
        <time>2021-07-18T12:34:27Z</time>
      </trkpt>
      <trkpt lat="46.83704" lon="5.84546">
        <ele>625.6</ele>
        <time>2021-07-18T12:34:32Z</time>
      </trkpt>
      <trkpt lat="46.83706" lon="5.8454">
        <ele>626.4</ele>
        <time>2021-07-18T12:34:36Z</time>
      </trkpt>
      <trkpt lat="46.83709" lon="5.84534">
        <ele>627.3</ele>
        <time>2021-07-18T12:34:40Z</time>
      </trkpt>
      <trkpt lat="46.83712" lon="5.84528">
        <ele>628.2</ele>
        <time>2021-07-18T12:34:45Z</time>
      </trkpt>
      <trkpt lat="46.83716" lon="5.84523">
        <ele>629.3</ele>
        <time>2021-07-18T12:34:50Z</time>
      </trkpt>
      <trkpt lat="46.83721" lon="5.84523">
        <ele>630</ele>
        <time>2021-07-18T12:34:55Z</time>
      </trkpt>
      <trkpt lat="46.83725" lon="5.84522">
        <ele>630</ele>
        <time>2021-07-18T12:35:01Z</time>
      </trkpt>
      <trkpt lat="46.8373" lon="5.84521">
        <ele>629.5</ele>
        <time>2021-07-18T12:35:07Z</time>
      </trkpt>
      <trkpt lat="46.83735" lon="5.8452">
        <ele>628.4</ele>
        <time>2021-07-18T12:35:14Z</time>
      </trkpt>
      <trkpt lat="46.8374" lon="5.84519">
        <ele>627.4</ele>
        <time>2021-07-18T12:35:18Z</time>
      </trkpt>
      <trkpt lat="46.83744" lon="5.84518">
        <ele>626.8</ele>
        <time>2021-07-18T12:35:22Z</time>
      </trkpt>
      <trkpt lat="46.83749" lon="5.84519">
        <ele>626.3</ele>
        <time>2021-07-18T12:35:26Z</time>
      </trkpt>
      <trkpt lat="46.83755" lon="5.8452">
        <ele>626</ele>
        <time>2021-07-18T12:35:31Z</time>
      </trkpt>
      <trkpt lat="46.83759" lon="5.84518">
        <ele>626.3</ele>
        <time>2021-07-18T12:35:37Z</time>
      </trkpt>
      <trkpt lat="46.83764" lon="5.8452">
        <ele>627.2</ele>
        <time>2021-07-18T12:35:42Z</time>
      </trkpt>
      <trkpt lat="46.83768" lon="5.84517">
        <ele>628.5</ele>
        <time>2021-07-18T12:35:50Z</time>
      </trkpt>
      <trkpt lat="46.83775" lon="5.84514">
        <ele>628.8</ele>
        <time>2021-07-18T12:35:59Z</time>
      </trkpt>
      <trkpt lat="46.8378" lon="5.84512">
        <ele>628.7</ele>
        <time>2021-07-18T12:36:02Z</time>
      </trkpt>
      <trkpt lat="46.83784" lon="5.8451">
        <ele>628.8</ele>
        <time>2021-07-18T12:36:05Z</time>
      </trkpt>
      <trkpt lat="46.83789" lon="5.84508">
        <ele>628.9</ele>
        <time>2021-07-18T12:36:10Z</time>
      </trkpt>
      <trkpt lat="46.83794" lon="5.8451">
        <ele>628.9</ele>
        <time>2021-07-18T12:36:15Z</time>
      </trkpt>
      <trkpt lat="46.83799" lon="5.8451">
        <ele>628.7</ele>
        <time>2021-07-18T12:36:19Z</time>
      </trkpt>
      <trkpt lat="46.83804" lon="5.84509">
        <ele>628.1</ele>
        <time>2021-07-18T12:36:23Z</time>
      </trkpt>
      <trkpt lat="46.83809" lon="5.84508">
        <ele>627</ele>
        <time>2021-07-18T12:36:27Z</time>
      </trkpt>
      <trkpt lat="46.83814" lon="5.84508">
        <ele>626.5</ele>
        <time>2021-07-18T12:36:37Z</time>
      </trkpt>
      <trkpt lat="46.83817" lon="5.84501">
        <ele>628.3</ele>
        <time>2021-07-18T12:36:44Z</time>
      </trkpt>
      <trkpt lat="46.8382" lon="5.84496">
        <ele>631.3</ele>
        <time>2021-07-18T12:36:53Z</time>
      </trkpt>
      <trkpt lat="46.83825" lon="5.84495">
        <ele>632.5</ele>
        <time>2021-07-18T12:37:00Z</time>
      </trkpt>
      <trkpt lat="46.83827" lon="5.84488">
        <ele>633</ele>
        <time>2021-07-18T12:37:07Z</time>
      </trkpt>
      <trkpt lat="46.83827" lon="5.84481">
        <ele>633</ele>
        <time>2021-07-18T12:37:11Z</time>
      </trkpt>
      <trkpt lat="46.83828" lon="5.84475">
        <ele>633</ele>
        <time>2021-07-18T12:37:14Z</time>
      </trkpt>
      <trkpt lat="46.83831" lon="5.84469">
        <ele>632.6</ele>
        <time>2021-07-18T12:37:19Z</time>
      </trkpt>
      <trkpt lat="46.83833" lon="5.84462">
        <ele>632.5</ele>
        <time>2021-07-18T12:37:24Z</time>
      </trkpt>
      <trkpt lat="46.83837" lon="5.84457">
        <ele>631.9</ele>
        <time>2021-07-18T12:37:29Z</time>
      </trkpt>
      <trkpt lat="46.8384" lon="5.84452">
        <ele>631.2</ele>
        <time>2021-07-18T12:37:35Z</time>
      </trkpt>
      <trkpt lat="46.83844" lon="5.84448">
        <ele>630.6</ele>
        <time>2021-07-18T12:37:40Z</time>
      </trkpt>
      <trkpt lat="46.8385" lon="5.8445">
        <ele>629.4</ele>
        <time>2021-07-18T12:37:45Z</time>
      </trkpt>
      <trkpt lat="46.83855" lon="5.84453">
        <ele>628.1</ele>
        <time>2021-07-18T12:37:50Z</time>
      </trkpt>
      <trkpt lat="46.83859" lon="5.84453">
        <ele>626.6</ele>
        <time>2021-07-18T12:37:55Z</time>
      </trkpt>
      <trkpt lat="46.83864" lon="5.84452">
        <ele>624.9</ele>
        <time>2021-07-18T12:38:00Z</time>
      </trkpt>
      <trkpt lat="46.83869" lon="5.84453">
        <ele>623.8</ele>
        <time>2021-07-18T12:38:03Z</time>
      </trkpt>
      <trkpt lat="46.83874" lon="5.84455">
        <ele>622.6</ele>
        <time>2021-07-18T12:38:07Z</time>
      </trkpt>
      <trkpt lat="46.83878" lon="5.84457">
        <ele>621.6</ele>
        <time>2021-07-18T12:38:10Z</time>
      </trkpt>
      <trkpt lat="46.83883" lon="5.8446">
        <ele>620.1</ele>
        <time>2021-07-18T12:38:14Z</time>
      </trkpt>
      <trkpt lat="46.83888" lon="5.8446">
        <ele>618.2</ele>
        <time>2021-07-18T12:38:23Z</time>
      </trkpt>
      <trkpt lat="46.83893" lon="5.84461">
        <ele>617.8</ele>
        <time>2021-07-18T12:38:34Z</time>
      </trkpt>
      <trkpt lat="46.83898" lon="5.84462">
        <ele>617.6</ele>
        <time>2021-07-18T12:38:39Z</time>
      </trkpt>
      <trkpt lat="46.83902" lon="5.84465">
        <ele>617.7</ele>
        <time>2021-07-18T12:38:43Z</time>
      </trkpt>
      <trkpt lat="46.83907" lon="5.84468">
        <ele>617.9</ele>
        <time>2021-07-18T12:38:46Z</time>
      </trkpt>
      <trkpt lat="46.83911" lon="5.84471">
        <ele>618</ele>
        <time>2021-07-18T12:38:51Z</time>
      </trkpt>
      <trkpt lat="46.83916" lon="5.84472">
        <ele>617.9</ele>
        <time>2021-07-18T12:38:57Z</time>
      </trkpt>
      <trkpt lat="46.83921" lon="5.84473">
        <ele>617.7</ele>
        <time>2021-07-18T12:39:04Z</time>
      </trkpt>
      <trkpt lat="46.83924" lon="5.8448">
        <ele>617.5</ele>
        <time>2021-07-18T12:39:09Z</time>
      </trkpt>
      <trkpt lat="46.83924" lon="5.84487">
        <ele>617.5</ele>
        <time>2021-07-18T12:39:14Z</time>
      </trkpt>
      <trkpt lat="46.83929" lon="5.8449">
        <ele>617.7</ele>
        <time>2021-07-18T12:39:23Z</time>
      </trkpt>
      <trkpt lat="46.83933" lon="5.84492">
        <ele>616.7</ele>
        <time>2021-07-18T12:39:30Z</time>
      </trkpt>
      <trkpt lat="46.83937" lon="5.84489">
        <ele>614.7</ele>
        <time>2021-07-18T12:39:41Z</time>
      </trkpt>
      <trkpt lat="46.83943" lon="5.84491">
        <ele>613.5</ele>
        <time>2021-07-18T12:39:46Z</time>
      </trkpt>
      <trkpt lat="46.83946" lon="5.84495">
        <ele>613.1</ele>
        <time>2021-07-18T12:39:50Z</time>
      </trkpt>
      <trkpt lat="46.83948" lon="5.84503">
        <ele>614</ele>
        <time>2021-07-18T12:39:55Z</time>
      </trkpt>
      <trkpt lat="46.83951" lon="5.84508">
        <ele>615</ele>
        <time>2021-07-18T12:40:02Z</time>
      </trkpt>
      <trkpt lat="46.83953" lon="5.84516">
        <ele>615.5</ele>
        <time>2021-07-18T12:40:09Z</time>
      </trkpt>
      <trkpt lat="46.83956" lon="5.84521">
        <ele>615.7</ele>
        <time>2021-07-18T12:40:13Z</time>
      </trkpt>
      <trkpt lat="46.8396" lon="5.84526">
        <ele>614.9</ele>
        <time>2021-07-18T12:40:18Z</time>
      </trkpt>
      <trkpt lat="46.83965" lon="5.84529">
        <ele>614.5</ele>
        <time>2021-07-18T12:40:23Z</time>
      </trkpt>
      <trkpt lat="46.83967" lon="5.84535">
        <ele>614.9</ele>
        <time>2021-07-18T12:40:29Z</time>
      </trkpt>
      <trkpt lat="46.83965" lon="5.84541">
        <ele>613.6</ele>
        <time>2021-07-18T12:40:42Z</time>
      </trkpt>
      <trkpt lat="46.83967" lon="5.84548">
        <ele>609.9</ele>
        <time>2021-07-18T12:40:53Z</time>
      </trkpt>
      <trkpt lat="46.83969" lon="5.84554">
        <ele>609.4</ele>
        <time>2021-07-18T12:40:56Z</time>
      </trkpt>
      <trkpt lat="46.83971" lon="5.84562">
        <ele>609.5</ele>
        <time>2021-07-18T12:41:00Z</time>
      </trkpt>
      <trkpt lat="46.83972" lon="5.84569">
        <ele>610.2</ele>
        <time>2021-07-18T12:41:04Z</time>
      </trkpt>
      <trkpt lat="46.83975" lon="5.84576">
        <ele>611.3</ele>
        <time>2021-07-18T12:41:08Z</time>
      </trkpt>
      <trkpt lat="46.83977" lon="5.84584">
        <ele>612.9</ele>
        <time>2021-07-18T12:41:12Z</time>
      </trkpt>
      <trkpt lat="46.83979" lon="5.8459">
        <ele>614.7</ele>
        <time>2021-07-18T12:41:17Z</time>
      </trkpt>
      <trkpt lat="46.8398" lon="5.84598">
        <ele>616.1</ele>
        <time>2021-07-18T12:41:21Z</time>
      </trkpt>
      <trkpt lat="46.83981" lon="5.84605">
        <ele>617.7</ele>
        <time>2021-07-18T12:41:25Z</time>
      </trkpt>
      <trkpt lat="46.83985" lon="5.84608">
        <ele>619.4</ele>
        <time>2021-07-18T12:41:30Z</time>
      </trkpt>
      <trkpt lat="46.83988" lon="5.84613">
        <ele>621</ele>
        <time>2021-07-18T12:41:37Z</time>
      </trkpt>
      <trkpt lat="46.83991" lon="5.84619">
        <ele>622.1</ele>
        <time>2021-07-18T12:41:44Z</time>
      </trkpt>
      <trkpt lat="46.83993" lon="5.84627">
        <ele>622.5</ele>
        <time>2021-07-18T12:41:48Z</time>
      </trkpt>
      <trkpt lat="46.83996" lon="5.84633">
        <ele>623.3</ele>
        <time>2021-07-18T12:41:53Z</time>
      </trkpt>
      <trkpt lat="46.84" lon="5.84637">
        <ele>624.3</ele>
        <time>2021-07-18T12:41:59Z</time>
      </trkpt>
      <trkpt lat="46.84001" lon="5.84643">
        <ele>625.5</ele>
        <time>2021-07-18T12:42:05Z</time>
      </trkpt>
      <trkpt lat="46.84002" lon="5.8465">
        <ele>625.6</ele>
        <time>2021-07-18T12:42:10Z</time>
      </trkpt>
      <trkpt lat="46.84004" lon="5.84656">
        <ele>625.7</ele>
        <time>2021-07-18T12:42:16Z</time>
      </trkpt>
      <trkpt lat="46.84007" lon="5.84662">
        <ele>626.2</ele>
        <time>2021-07-18T12:42:23Z</time>
      </trkpt>
      <trkpt lat="46.8401" lon="5.84667">
        <ele>626.6</ele>
        <time>2021-07-18T12:42:30Z</time>
      </trkpt>
      <trkpt lat="46.84011" lon="5.84675">
        <ele>627.6</ele>
        <time>2021-07-18T12:42:37Z</time>
      </trkpt>
      <trkpt lat="46.84013" lon="5.84681">
        <ele>628.3</ele>
        <time>2021-07-18T12:42:46Z</time>
      </trkpt>
      <trkpt lat="46.84009" lon="5.84681">
        <ele>627.5</ele>
        <time>2021-07-18T12:43:21Z</time>
      </trkpt>
      <trkpt lat="46.84012" lon="5.84688">
        <ele>626.7</ele>
        <time>2021-07-18T12:43:56Z</time>
      </trkpt>
      <trkpt lat="46.84015" lon="5.84694">
        <ele>627.3</ele>
        <time>2021-07-18T12:44:00Z</time>
      </trkpt>
      <trkpt lat="46.84017" lon="5.84702">
        <ele>628.1</ele>
        <time>2021-07-18T12:44:05Z</time>
      </trkpt>
      <trkpt lat="46.84021" lon="5.84706">
        <ele>629</ele>
        <time>2021-07-18T12:44:11Z</time>
      </trkpt>
      <trkpt lat="46.84025" lon="5.8471">
        <ele>629.8</ele>
        <time>2021-07-18T12:44:17Z</time>
      </trkpt>
      <trkpt lat="46.84027" lon="5.84716">
        <ele>630.5</ele>
        <time>2021-07-18T12:44:22Z</time>
      </trkpt>
      <trkpt lat="46.84028" lon="5.84723">
        <ele>630.8</ele>
        <time>2021-07-18T12:44:26Z</time>
      </trkpt>
      <trkpt lat="46.84027" lon="5.8473">
        <ele>630.5</ele>
        <time>2021-07-18T12:44:30Z</time>
      </trkpt>
      <trkpt lat="46.84027" lon="5.84738">
        <ele>629.1</ele>
        <time>2021-07-18T12:44:35Z</time>
      </trkpt>
      <trkpt lat="46.84028" lon="5.84745">
        <ele>626.8</ele>
        <time>2021-07-18T12:44:41Z</time>
      </trkpt>
      <trkpt lat="46.84031" lon="5.8475">
        <ele>625.4</ele>
        <time>2021-07-18T12:44:46Z</time>
      </trkpt>
      <trkpt lat="46.84036" lon="5.84754">
        <ele>624.6</ele>
        <time>2021-07-18T12:44:50Z</time>
      </trkpt>
      <trkpt lat="46.8404" lon="5.84757">
        <ele>623.6</ele>
        <time>2021-07-18T12:44:56Z</time>
      </trkpt>
      <trkpt lat="46.84045" lon="5.84761">
        <ele>623.2</ele>
        <time>2021-07-18T12:45:03Z</time>
      </trkpt>
      <trkpt lat="46.84049" lon="5.84768">
        <ele>629.2</ele>
        <time>2021-07-18T12:46:02Z</time>
      </trkpt>
      <trkpt lat="46.84053" lon="5.84773">
        <ele>629.4</ele>
        <time>2021-07-18T12:46:05Z</time>
      </trkpt>
      <trkpt lat="46.84056" lon="5.84777">
        <ele>629.3</ele>
        <time>2021-07-18T12:46:08Z</time>
      </trkpt>
      <trkpt lat="46.8406" lon="5.84783">
        <ele>628.7</ele>
        <time>2021-07-18T12:46:13Z</time>
      </trkpt>
      <trkpt lat="46.84062" lon="5.84789">
        <ele>628.2</ele>
        <time>2021-07-18T12:46:17Z</time>
      </trkpt>
      <trkpt lat="46.84064" lon="5.84796">
        <ele>627.8</ele>
        <time>2021-07-18T12:46:22Z</time>
      </trkpt>
      <trkpt lat="46.84066" lon="5.84802">
        <ele>626.7</ele>
        <time>2021-07-18T12:46:31Z</time>
      </trkpt>
      <trkpt lat="46.84067" lon="5.8481">
        <ele>625.7</ele>
        <time>2021-07-18T12:46:38Z</time>
      </trkpt>
      <trkpt lat="46.84071" lon="5.84816">
        <ele>625.6</ele>
        <time>2021-07-18T12:46:43Z</time>
      </trkpt>
      <trkpt lat="46.84072" lon="5.84822">
        <ele>626.2</ele>
        <time>2021-07-18T12:46:48Z</time>
      </trkpt>
      <trkpt lat="46.84076" lon="5.84827">
        <ele>628.1</ele>
        <time>2021-07-18T12:46:55Z</time>
      </trkpt>
      <trkpt lat="46.8408" lon="5.84828">
        <ele>628.6</ele>
        <time>2021-07-18T12:47:03Z</time>
      </trkpt>
      <trkpt lat="46.84081" lon="5.84836">
        <ele>627.7</ele>
        <time>2021-07-18T12:47:11Z</time>
      </trkpt>
      <trkpt lat="46.84083" lon="5.84843">
        <ele>626.7</ele>
        <time>2021-07-18T12:47:15Z</time>
      </trkpt>
      <trkpt lat="46.84084" lon="5.8485">
        <ele>626</ele>
        <time>2021-07-18T12:47:19Z</time>
      </trkpt>
      <trkpt lat="46.84087" lon="5.84855">
        <ele>626</ele>
        <time>2021-07-18T12:47:23Z</time>
      </trkpt>
      <trkpt lat="46.8409" lon="5.84861">
        <ele>626.3</ele>
        <time>2021-07-18T12:47:27Z</time>
      </trkpt>
      <trkpt lat="46.84093" lon="5.84866">
        <ele>626.3</ele>
        <time>2021-07-18T12:47:34Z</time>
      </trkpt>
      <trkpt lat="46.84094" lon="5.84874">
        <ele>626.7</ele>
        <time>2021-07-18T12:47:39Z</time>
      </trkpt>
      <trkpt lat="46.84098" lon="5.84879">
        <ele>627.9</ele>
        <time>2021-07-18T12:47:45Z</time>
      </trkpt>
      <trkpt lat="46.84102" lon="5.84884">
        <ele>629.6</ele>
        <time>2021-07-18T12:47:50Z</time>
      </trkpt>
      <trkpt lat="46.84105" lon="5.8489">
        <ele>631.6</ele>
        <time>2021-07-18T12:47:55Z</time>
      </trkpt>
      <trkpt lat="46.84108" lon="5.84897">
        <ele>633.8</ele>
        <time>2021-07-18T12:48:01Z</time>
      </trkpt>
      <trkpt lat="46.8411" lon="5.84904">
        <ele>634.7</ele>
        <time>2021-07-18T12:48:05Z</time>
      </trkpt>
      <trkpt lat="46.84112" lon="5.84911">
        <ele>634.9</ele>
        <time>2021-07-18T12:48:09Z</time>
      </trkpt>
      <trkpt lat="46.84114" lon="5.84917">
        <ele>634.8</ele>
        <time>2021-07-18T12:48:14Z</time>
      </trkpt>
      <trkpt lat="46.84114" lon="5.84925">
        <ele>634.9</ele>
        <time>2021-07-18T12:48:19Z</time>
      </trkpt>
      <trkpt lat="46.84114" lon="5.84933">
        <ele>635.5</ele>
        <time>2021-07-18T12:48:24Z</time>
      </trkpt>
      <trkpt lat="46.84115" lon="5.84939">
        <ele>635.2</ele>
        <time>2021-07-18T12:48:29Z</time>
      </trkpt>
      <trkpt lat="46.84117" lon="5.84946">
        <ele>634.6</ele>
        <time>2021-07-18T12:48:34Z</time>
      </trkpt>
      <trkpt lat="46.84121" lon="5.8495">
        <ele>633.5</ele>
        <time>2021-07-18T12:48:39Z</time>
      </trkpt>
      <trkpt lat="46.84123" lon="5.84957">
        <ele>632.9</ele>
        <time>2021-07-18T12:48:44Z</time>
      </trkpt>
      <trkpt lat="46.84124" lon="5.84964">
        <ele>632.5</ele>
        <time>2021-07-18T12:48:48Z</time>
      </trkpt>
      <trkpt lat="46.84126" lon="5.84971">
        <ele>632</ele>
        <time>2021-07-18T12:48:54Z</time>
      </trkpt>
      <trkpt lat="46.8413" lon="5.84976">
        <ele>631.2</ele>
        <time>2021-07-18T12:49:02Z</time>
      </trkpt>
      <trkpt lat="46.84134" lon="5.84979">
        <ele>632.9</ele>
        <time>2021-07-18T12:50:06Z</time>
      </trkpt>
      <trkpt lat="46.84131" lon="5.84984">
        <ele>633.5</ele>
        <time>2021-07-18T12:50:12Z</time>
      </trkpt>
      <trkpt lat="46.84126" lon="5.84986">
        <ele>632.8</ele>
        <time>2021-07-18T12:50:17Z</time>
      </trkpt>
      <trkpt lat="46.84121" lon="5.84985">
        <ele>632.2</ele>
        <time>2021-07-18T12:50:21Z</time>
      </trkpt>
      <trkpt lat="46.84116" lon="5.84985">
        <ele>631.6</ele>
        <time>2021-07-18T12:50:25Z</time>
      </trkpt>
      <trkpt lat="46.84111" lon="5.84985">
        <ele>631.1</ele>
        <time>2021-07-18T12:50:29Z</time>
      </trkpt>
      <trkpt lat="46.84106" lon="5.84985">
        <ele>630.5</ele>
        <time>2021-07-18T12:50:33Z</time>
      </trkpt>
      <trkpt lat="46.84101" lon="5.84986">
        <ele>630.1</ele>
        <time>2021-07-18T12:50:39Z</time>
      </trkpt>
      <trkpt lat="46.84096" lon="5.84986">
        <ele>630.5</ele>
        <time>2021-07-18T12:50:44Z</time>
      </trkpt>
      <trkpt lat="46.84091" lon="5.84986">
        <ele>631.2</ele>
        <time>2021-07-18T12:50:49Z</time>
      </trkpt>
      <trkpt lat="46.84086" lon="5.84987">
        <ele>631.6</ele>
        <time>2021-07-18T12:50:52Z</time>
      </trkpt>
      <trkpt lat="46.84082" lon="5.84989">
        <ele>632.3</ele>
        <time>2021-07-18T12:50:56Z</time>
      </trkpt>
      <trkpt lat="46.84077" lon="5.84992">
        <ele>633.2</ele>
        <time>2021-07-18T12:51:01Z</time>
      </trkpt>
      <trkpt lat="46.84073" lon="5.84996">
        <ele>633.6</ele>
        <time>2021-07-18T12:51:06Z</time>
      </trkpt>
      <trkpt lat="46.84069" lon="5.84999">
        <ele>634</ele>
        <time>2021-07-18T12:51:12Z</time>
      </trkpt>
      <trkpt lat="46.84066" lon="5.85005">
        <ele>634.1</ele>
        <time>2021-07-18T12:51:19Z</time>
      </trkpt>
      <trkpt lat="46.84063" lon="5.85011">
        <ele>634.1</ele>
        <time>2021-07-18T12:51:25Z</time>
      </trkpt>
      <trkpt lat="46.8406" lon="5.85017">
        <ele>633.9</ele>
        <time>2021-07-18T12:51:28Z</time>
      </trkpt>
      <trkpt lat="46.84058" lon="5.85023">
        <ele>634</ele>
        <time>2021-07-18T12:51:31Z</time>
      </trkpt>
      <trkpt lat="46.84058" lon="5.8503">
        <ele>634</ele>
        <time>2021-07-18T12:51:38Z</time>
      </trkpt>
      <trkpt lat="46.84059" lon="5.85037">
        <ele>631.1</ele>
        <time>2021-07-18T12:51:51Z</time>
      </trkpt>
      <trkpt lat="46.84062" lon="5.85041">
        <ele>630</ele>
        <time>2021-07-18T12:52:18Z</time>
      </trkpt>
      <trkpt lat="46.84066" lon="5.85045">
        <ele>628.8</ele>
        <time>2021-07-18T12:52:25Z</time>
      </trkpt>
      <trkpt lat="46.84068" lon="5.85051">
        <ele>628.5</ele>
        <time>2021-07-18T12:52:28Z</time>
      </trkpt>
      <trkpt lat="46.8407" lon="5.85057">
        <ele>628.7</ele>
        <time>2021-07-18T12:52:31Z</time>
      </trkpt>
      <trkpt lat="46.84072" lon="5.85065">
        <ele>628.8</ele>
        <time>2021-07-18T12:52:35Z</time>
      </trkpt>
      <trkpt lat="46.84073" lon="5.85072">
        <ele>629</ele>
        <time>2021-07-18T12:52:39Z</time>
      </trkpt>
      <trkpt lat="46.84074" lon="5.85078">
        <ele>628.7</ele>
        <time>2021-07-18T12:52:45Z</time>
      </trkpt>
      <trkpt lat="46.84073" lon="5.85084">
        <ele>626.8</ele>
        <time>2021-07-18T12:52:54Z</time>
      </trkpt>
      <trkpt lat="46.84078" lon="5.85089">
        <ele>625.8</ele>
        <time>2021-07-18T12:52:58Z</time>
      </trkpt>
      <trkpt lat="46.84082" lon="5.85094">
        <ele>624.4</ele>
        <time>2021-07-18T12:53:02Z</time>
      </trkpt>
      <trkpt lat="46.84085" lon="5.851">
        <ele>622.9</ele>
        <time>2021-07-18T12:53:07Z</time>
      </trkpt>
      <trkpt lat="46.8409" lon="5.85104">
        <ele>622</ele>
        <time>2021-07-18T12:53:11Z</time>
      </trkpt>
      <trkpt lat="46.84093" lon="5.85109">
        <ele>621.4</ele>
        <time>2021-07-18T12:53:14Z</time>
      </trkpt>
      <trkpt lat="46.84095" lon="5.85116">
        <ele>620.9</ele>
        <time>2021-07-18T12:53:18Z</time>
      </trkpt>
      <trkpt lat="46.84095" lon="5.85124">
        <ele>621</ele>
        <time>2021-07-18T12:53:25Z</time>
      </trkpt>
      <trkpt lat="46.84095" lon="5.85131">
        <ele>621.6</ele>
        <time>2021-07-18T12:53:30Z</time>
      </trkpt>
      <trkpt lat="46.84097" lon="5.85137">
        <ele>622.5</ele>
        <time>2021-07-18T12:53:36Z</time>
      </trkpt>
      <trkpt lat="46.84095" lon="5.85144">
        <ele>622.7</ele>
        <time>2021-07-18T12:53:47Z</time>
      </trkpt>
      <trkpt lat="46.84096" lon="5.85152">
        <ele>622.7</ele>
        <time>2021-07-18T12:53:51Z</time>
      </trkpt>
      <trkpt lat="46.84098" lon="5.8516">
        <ele>623.7</ele>
        <time>2021-07-18T12:53:55Z</time>
      </trkpt>
      <trkpt lat="46.84098" lon="5.85168">
        <ele>625.2</ele>
        <time>2021-07-18T12:53:59Z</time>
      </trkpt>
      <trkpt lat="46.84099" lon="5.85175">
        <ele>626.6</ele>
        <time>2021-07-18T12:54:02Z</time>
      </trkpt>
      <trkpt lat="46.84098" lon="5.85182">
        <ele>628.9</ele>
        <time>2021-07-18T12:54:07Z</time>
      </trkpt>
      <trkpt lat="46.84096" lon="5.85189">
        <ele>631.3</ele>
        <time>2021-07-18T12:54:13Z</time>
      </trkpt>
      <trkpt lat="46.84097" lon="5.85196">
        <ele>632.8</ele>
        <time>2021-07-18T12:54:18Z</time>
      </trkpt>
      <trkpt lat="46.84096" lon="5.85203">
        <ele>634</ele>
        <time>2021-07-18T12:54:23Z</time>
      </trkpt>
      <trkpt lat="46.84096" lon="5.8521">
        <ele>634.7</ele>
        <time>2021-07-18T12:54:28Z</time>
      </trkpt>
      <trkpt lat="46.84097" lon="5.85217">
        <ele>635.2</ele>
        <time>2021-07-18T12:54:34Z</time>
      </trkpt>
      <trkpt lat="46.84098" lon="5.85224">
        <ele>635.5</ele>
        <time>2021-07-18T12:54:40Z</time>
      </trkpt>
      <trkpt lat="46.84098" lon="5.8523">
        <ele>635.7</ele>
        <time>2021-07-18T12:54:46Z</time>
      </trkpt>
      <trkpt lat="46.84098" lon="5.85237">
        <ele>636</ele>
        <time>2021-07-18T12:54:50Z</time>
      </trkpt>
      <trkpt lat="46.84099" lon="5.85245">
        <ele>636</ele>
        <time>2021-07-18T12:54:54Z</time>
      </trkpt>
      <trkpt lat="46.841" lon="5.85253">
        <ele>636.3</ele>
        <time>2021-07-18T12:54:58Z</time>
      </trkpt>
      <trkpt lat="46.84102" lon="5.8526">
        <ele>636.4</ele>
        <time>2021-07-18T12:55:04Z</time>
      </trkpt>
      <trkpt lat="46.84102" lon="5.85267">
        <ele>636.4</ele>
        <time>2021-07-18T12:55:08Z</time>
      </trkpt>
      <trkpt lat="46.84101" lon="5.85274">
        <ele>635.7</ele>
        <time>2021-07-18T12:55:14Z</time>
      </trkpt>
      <trkpt lat="46.84099" lon="5.85281">
        <ele>634</ele>
        <time>2021-07-18T12:55:22Z</time>
      </trkpt>
      <trkpt lat="46.84096" lon="5.85286">
        <ele>631.7</ele>
        <time>2021-07-18T12:55:30Z</time>
      </trkpt>
      <trkpt lat="46.84092" lon="5.85292">
        <ele>630.3</ele>
        <time>2021-07-18T12:55:35Z</time>
      </trkpt>
      <trkpt lat="46.84089" lon="5.85297">
        <ele>629</ele>
        <time>2021-07-18T12:55:40Z</time>
      </trkpt>
      <trkpt lat="46.84085" lon="5.85301">
        <ele>628</ele>
        <time>2021-07-18T12:55:45Z</time>
      </trkpt>
      <trkpt lat="46.84082" lon="5.85307">
        <ele>627.9</ele>
        <time>2021-07-18T12:55:49Z</time>
      </trkpt>
      <trkpt lat="46.84081" lon="5.85314">
        <ele>628.3</ele>
        <time>2021-07-18T12:55:54Z</time>
      </trkpt>
      <trkpt lat="46.84081" lon="5.85321">
        <ele>628.6</ele>
        <time>2021-07-18T12:56:04Z</time>
      </trkpt>
      <trkpt lat="46.84081" lon="5.85328">
        <ele>628.2</ele>
        <time>2021-07-18T12:56:08Z</time>
      </trkpt>
      <trkpt lat="46.84079" lon="5.85336">
        <ele>628.3</ele>
        <time>2021-07-18T12:56:12Z</time>
      </trkpt>
      <trkpt lat="46.84079" lon="5.85343">
        <ele>628.6</ele>
        <time>2021-07-18T12:56:16Z</time>
      </trkpt>
      <trkpt lat="46.8408" lon="5.8535">
        <ele>628.6</ele>
        <time>2021-07-18T12:56:22Z</time>
      </trkpt>
      <trkpt lat="46.8408" lon="5.85357">
        <ele>628.4</ele>
        <time>2021-07-18T12:56:26Z</time>
      </trkpt>
      <trkpt lat="46.84081" lon="5.85364">
        <ele>627.8</ele>
        <time>2021-07-18T12:56:34Z</time>
      </trkpt>
      <trkpt lat="46.84082" lon="5.85371">
        <ele>627.2</ele>
        <time>2021-07-18T12:56:38Z</time>
      </trkpt>
      <trkpt lat="46.84085" lon="5.85376">
        <ele>626.4</ele>
        <time>2021-07-18T12:56:43Z</time>
      </trkpt>
      <trkpt lat="46.84088" lon="5.85371">
        <ele>626.3</ele>
        <time>2021-07-18T12:56:56Z</time>
      </trkpt>
      <trkpt lat="46.84092" lon="5.85372">
        <ele>625.9</ele>
        <time>2021-07-18T12:57:06Z</time>
      </trkpt>
      <trkpt lat="46.84097" lon="5.85374">
        <ele>625.5</ele>
        <time>2021-07-18T12:57:18Z</time>
      </trkpt>
      <trkpt lat="46.841" lon="5.8538">
        <ele>626.4</ele>
        <time>2021-07-18T12:57:27Z</time>
      </trkpt>
      <trkpt lat="46.84103" lon="5.85386">
        <ele>626.9</ele>
        <time>2021-07-18T12:57:32Z</time>
      </trkpt>
      <trkpt lat="46.84106" lon="5.85392">
        <ele>627.4</ele>
        <time>2021-07-18T12:57:38Z</time>
      </trkpt>
      <trkpt lat="46.84108" lon="5.85398">
        <ele>628</ele>
        <time>2021-07-18T12:57:44Z</time>
      </trkpt>
      <trkpt lat="46.84109" lon="5.85405">
        <ele>629.8</ele>
        <time>2021-07-18T12:57:52Z</time>
      </trkpt>
      <trkpt lat="46.84109" lon="5.85413">
        <ele>631</ele>
        <time>2021-07-18T12:57:57Z</time>
      </trkpt>
      <trkpt lat="46.84113" lon="5.85416">
        <ele>631.1</ele>
        <time>2021-07-18T12:58:02Z</time>
      </trkpt>
      <trkpt lat="46.84117" lon="5.8542">
        <ele>631.3</ele>
        <time>2021-07-18T12:58:06Z</time>
      </trkpt>
      <trkpt lat="46.8412" lon="5.85426">
        <ele>630.7</ele>
        <time>2021-07-18T12:58:10Z</time>
      </trkpt>
      <trkpt lat="46.84122" lon="5.85432">
        <ele>630</ele>
        <time>2021-07-18T12:58:15Z</time>
      </trkpt>
      <trkpt lat="46.84125" lon="5.85439">
        <ele>630.6</ele>
        <time>2021-07-18T12:58:20Z</time>
      </trkpt>
      <trkpt lat="46.84124" lon="5.85446">
        <ele>632.6</ele>
        <time>2021-07-18T12:58:25Z</time>
      </trkpt>
      <trkpt lat="46.84121" lon="5.85452">
        <ele>636</ele>
        <time>2021-07-18T12:58:33Z</time>
      </trkpt>
      <trkpt lat="46.84116" lon="5.85457">
        <ele>637.3</ele>
        <time>2021-07-18T12:58:38Z</time>
      </trkpt>
      <trkpt lat="46.84113" lon="5.85462">
        <ele>637.9</ele>
        <time>2021-07-18T12:58:41Z</time>
      </trkpt>
      <trkpt lat="46.8411" lon="5.85468">
        <ele>638.2</ele>
        <time>2021-07-18T12:58:46Z</time>
      </trkpt>
      <trkpt lat="46.84114" lon="5.85471">
        <ele>637.2</ele>
        <time>2021-07-18T12:58:55Z</time>
      </trkpt>
      <trkpt lat="46.84116" lon="5.85478">
        <ele>635.6</ele>
        <time>2021-07-18T12:59:01Z</time>
      </trkpt>
      <trkpt lat="46.84115" lon="5.85485">
        <ele>634.2</ele>
        <time>2021-07-18T12:59:07Z</time>
      </trkpt>
      <trkpt lat="46.84112" lon="5.85492">
        <ele>633.1</ele>
        <time>2021-07-18T12:59:14Z</time>
      </trkpt>
      <trkpt lat="46.84109" lon="5.85497">
        <ele>633</ele>
        <time>2021-07-18T12:59:18Z</time>
      </trkpt>
      <trkpt lat="46.84107" lon="5.85503">
        <ele>633</ele>
        <time>2021-07-18T12:59:22Z</time>
      </trkpt>
      <trkpt lat="46.84106" lon="5.8551">
        <ele>632.8</ele>
        <time>2021-07-18T12:59:25Z</time>
      </trkpt>
      <trkpt lat="46.84105" lon="5.85519">
        <ele>632.6</ele>
        <time>2021-07-18T12:59:29Z</time>
      </trkpt>
      <trkpt lat="46.84104" lon="5.85526">
        <ele>632</ele>
        <time>2021-07-18T12:59:32Z</time>
      </trkpt>
      <trkpt lat="46.84102" lon="5.85533">
        <ele>630.6</ele>
        <time>2021-07-18T12:59:37Z</time>
      </trkpt>
      <trkpt lat="46.84103" lon="5.8554">
        <ele>629.6</ele>
        <time>2021-07-18T12:59:43Z</time>
      </trkpt>
      <trkpt lat="46.84104" lon="5.85547">
        <ele>628.9</ele>
        <time>2021-07-18T12:59:49Z</time>
      </trkpt>
      <trkpt lat="46.84105" lon="5.85553">
        <ele>628.8</ele>
        <time>2021-07-18T12:59:54Z</time>
      </trkpt>
      <trkpt lat="46.84105" lon="5.8556">
        <ele>628.9</ele>
        <time>2021-07-18T13:00:00Z</time>
      </trkpt>
      <trkpt lat="46.84106" lon="5.85567">
        <ele>629.1</ele>
        <time>2021-07-18T13:00:06Z</time>
      </trkpt>
      <trkpt lat="46.8411" lon="5.85572">
        <ele>631.8</ele>
        <time>2021-07-18T13:00:23Z</time>
      </trkpt>
      <trkpt lat="46.84113" lon="5.85577">
        <ele>631.9</ele>
        <time>2021-07-18T13:00:28Z</time>
      </trkpt>
      <trkpt lat="46.84117" lon="5.85582">
        <ele>632</ele>
        <time>2021-07-18T13:00:31Z</time>
      </trkpt>
      <trkpt lat="46.84119" lon="5.85587">
        <ele>632.1</ele>
        <time>2021-07-18T13:00:35Z</time>
      </trkpt>
      <trkpt lat="46.84123" lon="5.85593">
        <ele>631.8</ele>
        <time>2021-07-18T13:00:40Z</time>
      </trkpt>
      <trkpt lat="46.84125" lon="5.85599">
        <ele>631.6</ele>
        <time>2021-07-18T13:00:45Z</time>
      </trkpt>
      <trkpt lat="46.84124" lon="5.85606">
        <ele>631.7</ele>
        <time>2021-07-18T13:00:50Z</time>
      </trkpt>
      <trkpt lat="46.84122" lon="5.85613">
        <ele>631.6</ele>
        <time>2021-07-18T13:00:55Z</time>
      </trkpt>
      <trkpt lat="46.84122" lon="5.8562">
        <ele>632.7</ele>
        <time>2021-07-18T13:01:02Z</time>
      </trkpt>
      <trkpt lat="46.84121" lon="5.85627">
        <ele>634.2</ele>
        <time>2021-07-18T13:01:07Z</time>
      </trkpt>
      <trkpt lat="46.8412" lon="5.85634">
        <ele>635</ele>
        <time>2021-07-18T13:01:12Z</time>
      </trkpt>
      <trkpt lat="46.84122" lon="5.8564">
        <ele>635.9</ele>
        <time>2021-07-18T13:01:17Z</time>
      </trkpt>
      <trkpt lat="46.84126" lon="5.85645">
        <ele>637.4</ele>
        <time>2021-07-18T13:01:25Z</time>
      </trkpt>
      <trkpt lat="46.8413" lon="5.85645">
        <ele>638.2</ele>
        <time>2021-07-18T13:01:30Z</time>
      </trkpt>
      <trkpt lat="46.84135" lon="5.85642">
        <ele>639.6</ele>
        <time>2021-07-18T13:01:40Z</time>
      </trkpt>
      <trkpt lat="46.8414" lon="5.85641">
        <ele>640.6</ele>
        <time>2021-07-18T13:01:45Z</time>
      </trkpt>
      <trkpt lat="46.84145" lon="5.8564">
        <ele>642.5</ele>
        <time>2021-07-18T13:01:53Z</time>
      </trkpt>
      <trkpt lat="46.8415" lon="5.85643">
        <ele>643.2</ele>
        <time>2021-07-18T13:01:57Z</time>
      </trkpt>
      <trkpt lat="46.84154" lon="5.85647">
        <ele>643.4</ele>
        <time>2021-07-18T13:02:00Z</time>
      </trkpt>
      <trkpt lat="46.84158" lon="5.85652">
        <ele>643.7</ele>
        <time>2021-07-18T13:02:03Z</time>
      </trkpt>
      <trkpt lat="46.84163" lon="5.85656">
        <ele>644.4</ele>
        <time>2021-07-18T13:02:07Z</time>
      </trkpt>
      <trkpt lat="46.84168" lon="5.85657">
        <ele>644.9</ele>
        <time>2021-07-18T13:02:12Z</time>
      </trkpt>
      <trkpt lat="46.84172" lon="5.85659">
        <ele>644.8</ele>
        <time>2021-07-18T13:02:17Z</time>
      </trkpt>
      <trkpt lat="46.84177" lon="5.85664">
        <ele>644.8</ele>
        <time>2021-07-18T13:02:23Z</time>
      </trkpt>
      <trkpt lat="46.84181" lon="5.85665">
        <ele>644.3</ele>
        <time>2021-07-18T13:02:29Z</time>
      </trkpt>
      <trkpt lat="46.84186" lon="5.85668">
        <ele>642.8</ele>
        <time>2021-07-18T13:02:36Z</time>
      </trkpt>
      <trkpt lat="46.84192" lon="5.85668">
        <ele>641.6</ele>
        <time>2021-07-18T13:02:42Z</time>
      </trkpt>
      <trkpt lat="46.84197" lon="5.85667">
        <ele>642.1</ele>
        <time>2021-07-18T13:02:46Z</time>
      </trkpt>
      <trkpt lat="46.84202" lon="5.85665">
        <ele>642.7</ele>
        <time>2021-07-18T13:02:51Z</time>
      </trkpt>
      <trkpt lat="46.84206" lon="5.85659">
        <ele>642.7</ele>
        <time>2021-07-18T13:02:57Z</time>
      </trkpt>
      <trkpt lat="46.8421" lon="5.85653">
        <ele>642.8</ele>
        <time>2021-07-18T13:03:01Z</time>
      </trkpt>
      <trkpt lat="46.84211" lon="5.85646">
        <ele>643.1</ele>
        <time>2021-07-18T13:03:07Z</time>
      </trkpt>
      <trkpt lat="46.84212" lon="5.85639">
        <ele>643.1</ele>
        <time>2021-07-18T13:03:13Z</time>
      </trkpt>
      <trkpt lat="46.84215" lon="5.85633">
        <ele>643.5</ele>
        <time>2021-07-18T13:03:19Z</time>
      </trkpt>
      <trkpt lat="46.84215" lon="5.85641">
        <ele>645.1</ele>
        <time>2021-07-18T13:03:30Z</time>
      </trkpt>
      <trkpt lat="46.84212" lon="5.85646">
        <ele>643.8</ele>
        <time>2021-07-18T13:03:38Z</time>
      </trkpt>
      <trkpt lat="46.84208" lon="5.85652">
        <ele>643.4</ele>
        <time>2021-07-18T13:03:43Z</time>
      </trkpt>
      <trkpt lat="46.84205" lon="5.85657">
        <ele>643.6</ele>
        <time>2021-07-18T13:03:48Z</time>
      </trkpt>
      <trkpt lat="46.84202" lon="5.85662">
        <ele>644.1</ele>
        <time>2021-07-18T13:03:54Z</time>
      </trkpt>
      <trkpt lat="46.84198" lon="5.85665">
        <ele>644</ele>
        <time>2021-07-18T13:04:00Z</time>
      </trkpt>
      <trkpt lat="46.84193" lon="5.85663">
        <ele>642.8</ele>
        <time>2021-07-18T13:04:06Z</time>
      </trkpt>
      <trkpt lat="46.84187" lon="5.85667">
        <ele>641.7</ele>
        <time>2021-07-18T13:04:11Z</time>
      </trkpt>
      <trkpt lat="46.84183" lon="5.85671">
        <ele>641</ele>
        <time>2021-07-18T13:04:15Z</time>
      </trkpt>
      <trkpt lat="46.84179" lon="5.85674">
        <ele>640.4</ele>
        <time>2021-07-18T13:04:20Z</time>
      </trkpt>
      <trkpt lat="46.84175" lon="5.85669">
        <ele>639.5</ele>
        <time>2021-07-18T13:04:27Z</time>
      </trkpt>
      <trkpt lat="46.8417" lon="5.85668">
        <ele>639.5</ele>
        <time>2021-07-18T13:04:31Z</time>
      </trkpt>
      <trkpt lat="46.84172" lon="5.85676">
        <ele>641</ele>
        <time>2021-07-18T13:04:47Z</time>
      </trkpt>
      <trkpt lat="46.84176" lon="5.85679">
        <ele>640.8</ele>
        <time>2021-07-18T13:04:51Z</time>
      </trkpt>
      <trkpt lat="46.84179" lon="5.85685">
        <ele>640.4</ele>
        <time>2021-07-18T13:05:05Z</time>
      </trkpt>
      <trkpt lat="46.84179" lon="5.85692">
        <ele>640.6</ele>
        <time>2021-07-18T13:05:12Z</time>
      </trkpt>
      <trkpt lat="46.8418" lon="5.857">
        <ele>640.9</ele>
        <time>2021-07-18T13:05:18Z</time>
      </trkpt>
      <trkpt lat="46.84182" lon="5.85706">
        <ele>640.6</ele>
        <time>2021-07-18T13:05:21Z</time>
      </trkpt>
      <trkpt lat="46.84182" lon="5.85713">
        <ele>640.1</ele>
        <time>2021-07-18T13:05:26Z</time>
      </trkpt>
      <trkpt lat="46.84181" lon="5.8572">
        <ele>639.1</ele>
        <time>2021-07-18T13:05:32Z</time>
      </trkpt>
      <trkpt lat="46.84179" lon="5.85727">
        <ele>638.5</ele>
        <time>2021-07-18T13:05:37Z</time>
      </trkpt>
      <trkpt lat="46.84181" lon="5.85733">
        <ele>637.7</ele>
        <time>2021-07-18T13:05:43Z</time>
      </trkpt>
      <trkpt lat="46.84185" lon="5.85739">
        <ele>636.9</ele>
        <time>2021-07-18T13:05:48Z</time>
      </trkpt>
      <trkpt lat="46.84188" lon="5.85745">
        <ele>636.3</ele>
        <time>2021-07-18T13:05:52Z</time>
      </trkpt>
      <trkpt lat="46.84191" lon="5.85749">
        <ele>636</ele>
        <time>2021-07-18T13:05:55Z</time>
      </trkpt>
      <trkpt lat="46.84195" lon="5.85755">
        <ele>633.6</ele>
        <time>2021-07-18T13:06:05Z</time>
      </trkpt>
      <trkpt lat="46.84197" lon="5.85761">
        <ele>631.8</ele>
        <time>2021-07-18T13:06:13Z</time>
      </trkpt>
      <trkpt lat="46.84203" lon="5.85767">
        <ele>630.7</ele>
        <time>2021-07-18T13:06:23Z</time>
      </trkpt>
      <trkpt lat="46.84211" lon="5.85769">
        <ele>630.4</ele>
        <time>2021-07-18T13:06:26Z</time>
      </trkpt>
      <trkpt lat="46.84215" lon="5.85768">
        <ele>630.5</ele>
        <time>2021-07-18T13:06:30Z</time>
      </trkpt>
      <trkpt lat="46.8422" lon="5.85767">
        <ele>631.5</ele>
        <time>2021-07-18T13:06:40Z</time>
      </trkpt>
      <trkpt lat="46.84223" lon="5.85762">
        <ele>632.5</ele>
        <time>2021-07-18T13:06:46Z</time>
      </trkpt>
      <trkpt lat="46.84226" lon="5.85756">
        <ele>634.5</ele>
        <time>2021-07-18T13:07:00Z</time>
      </trkpt>
      <trkpt lat="46.8423" lon="5.85753">
        <ele>634.8</ele>
        <time>2021-07-18T13:07:05Z</time>
      </trkpt>
      <trkpt lat="46.84234" lon="5.8575">
        <ele>635.3</ele>
        <time>2021-07-18T13:07:10Z</time>
      </trkpt>
      <trkpt lat="46.8424" lon="5.85747">
        <ele>635.9</ele>
        <time>2021-07-18T13:07:15Z</time>
      </trkpt>
      <trkpt lat="46.84245" lon="5.85743">
        <ele>636.3</ele>
        <time>2021-07-18T13:07:18Z</time>
      </trkpt>
      <trkpt lat="46.8425" lon="5.8574">
        <ele>636.7</ele>
        <time>2021-07-18T13:07:22Z</time>
      </trkpt>
      <trkpt lat="46.84255" lon="5.85739">
        <ele>637.1</ele>
        <time>2021-07-18T13:07:26Z</time>
      </trkpt>
      <trkpt lat="46.8426" lon="5.85735">
        <ele>637.6</ele>
        <time>2021-07-18T13:07:30Z</time>
      </trkpt>
      <trkpt lat="46.84259" lon="5.85728">
        <ele>638</ele>
        <time>2021-07-18T13:07:42Z</time>
      </trkpt>
      <trkpt lat="46.84263" lon="5.85723">
        <ele>637.4</ele>
        <time>2021-07-18T13:07:47Z</time>
      </trkpt>
      <trkpt lat="46.84267" lon="5.85718">
        <ele>636.4</ele>
        <time>2021-07-18T13:07:53Z</time>
      </trkpt>
      <trkpt lat="46.84272" lon="5.85715">
        <ele>636.6</ele>
        <time>2021-07-18T13:07:58Z</time>
      </trkpt>
      <trkpt lat="46.84276" lon="5.85713">
        <ele>637.1</ele>
        <time>2021-07-18T13:08:03Z</time>
      </trkpt>
      <trkpt lat="46.84281" lon="5.8571">
        <ele>637.4</ele>
        <time>2021-07-18T13:08:06Z</time>
      </trkpt>
      <trkpt lat="46.84285" lon="5.85706">
        <ele>637.5</ele>
        <time>2021-07-18T13:08:11Z</time>
      </trkpt>
      <trkpt lat="46.8429" lon="5.85704">
        <ele>637.2</ele>
        <time>2021-07-18T13:08:16Z</time>
      </trkpt>
      <trkpt lat="46.84295" lon="5.857">
        <ele>636.3</ele>
        <time>2021-07-18T13:08:19Z</time>
      </trkpt>
      <trkpt lat="46.84299" lon="5.85698">
        <ele>635.7</ele>
        <time>2021-07-18T13:08:22Z</time>
      </trkpt>
      <trkpt lat="46.84304" lon="5.85695">
        <ele>635.2</ele>
        <time>2021-07-18T13:08:29Z</time>
      </trkpt>
      <trkpt lat="46.84309" lon="5.85692">
        <ele>635.1</ele>
        <time>2021-07-18T13:08:33Z</time>
      </trkpt>
      <trkpt lat="46.84314" lon="5.8569">
        <ele>635.2</ele>
        <time>2021-07-18T13:08:36Z</time>
      </trkpt>
      <trkpt lat="46.84319" lon="5.85689">
        <ele>635.3</ele>
        <time>2021-07-18T13:08:39Z</time>
      </trkpt>
      <trkpt lat="46.84324" lon="5.85687">
        <ele>635.2</ele>
        <time>2021-07-18T13:08:43Z</time>
      </trkpt>
      <trkpt lat="46.84328" lon="5.85684">
        <ele>634.8</ele>
        <time>2021-07-18T13:08:48Z</time>
      </trkpt>
      <trkpt lat="46.84332" lon="5.8568">
        <ele>634.8</ele>
        <time>2021-07-18T13:08:54Z</time>
      </trkpt>
      <trkpt lat="46.84336" lon="5.85675">
        <ele>635.1</ele>
        <time>2021-07-18T13:09:00Z</time>
      </trkpt>
      <trkpt lat="46.8434" lon="5.85669">
        <ele>635.6</ele>
        <time>2021-07-18T13:09:04Z</time>
      </trkpt>
      <trkpt lat="46.84344" lon="5.85665">
        <ele>635.9</ele>
        <time>2021-07-18T13:09:08Z</time>
      </trkpt>
      <trkpt lat="46.84348" lon="5.85659">
        <ele>636.1</ele>
        <time>2021-07-18T13:09:13Z</time>
      </trkpt>
      <trkpt lat="46.84352" lon="5.85656">
        <ele>636.5</ele>
        <time>2021-07-18T13:09:17Z</time>
      </trkpt>
      <trkpt lat="46.84356" lon="5.85653">
        <ele>637.1</ele>
        <time>2021-07-18T13:09:22Z</time>
      </trkpt>
      <trkpt lat="46.84361" lon="5.85656">
        <ele>638.2</ele>
        <time>2021-07-18T13:09:30Z</time>
      </trkpt>
      <trkpt lat="46.84364" lon="5.8566">
        <ele>639.1</ele>
        <time>2021-07-18T13:09:35Z</time>
      </trkpt>
      <trkpt lat="46.84369" lon="5.85664">
        <ele>640.2</ele>
        <time>2021-07-18T13:09:40Z</time>
      </trkpt>
      <trkpt lat="46.84375" lon="5.85663">
        <ele>641.4</ele>
        <time>2021-07-18T13:09:44Z</time>
      </trkpt>
      <trkpt lat="46.84379" lon="5.85664">
        <ele>642.5</ele>
        <time>2021-07-18T13:09:47Z</time>
      </trkpt>
      <trkpt lat="46.8438" lon="5.85671">
        <ele>643.2</ele>
        <time>2021-07-18T13:09:53Z</time>
      </trkpt>
      <trkpt lat="46.84384" lon="5.85676">
        <ele>643.4</ele>
        <time>2021-07-18T13:10:00Z</time>
      </trkpt>
      <trkpt lat="46.84388" lon="5.85677">
        <ele>641.8</ele>
        <time>2021-07-18T13:10:09Z</time>
      </trkpt>
      <trkpt lat="46.84391" lon="5.85685">
        <ele>641</ele>
        <time>2021-07-18T13:10:15Z</time>
      </trkpt>
      <trkpt lat="46.84394" lon="5.85691">
        <ele>640.6</ele>
        <time>2021-07-18T13:10:19Z</time>
      </trkpt>
      <trkpt lat="46.84398" lon="5.85696">
        <ele>640.5</ele>
        <time>2021-07-18T13:10:22Z</time>
      </trkpt>
      <trkpt lat="46.84401" lon="5.857">
        <ele>640.6</ele>
        <time>2021-07-18T13:10:25Z</time>
      </trkpt>
      <trkpt lat="46.84405" lon="5.85705">
        <ele>640.7</ele>
        <time>2021-07-18T13:10:31Z</time>
      </trkpt>
      <trkpt lat="46.84409" lon="5.85708">
        <ele>640.4</ele>
        <time>2021-07-18T13:10:38Z</time>
      </trkpt>
      <trkpt lat="46.84413" lon="5.85712">
        <ele>640.7</ele>
        <time>2021-07-18T13:10:55Z</time>
      </trkpt>
      <trkpt lat="46.84418" lon="5.85714">
        <ele>640.1</ele>
        <time>2021-07-18T13:11:02Z</time>
      </trkpt>
      <trkpt lat="46.84422" lon="5.85719">
        <ele>639</ele>
        <time>2021-07-18T13:11:06Z</time>
      </trkpt>
      <trkpt lat="46.84424" lon="5.85725">
        <ele>637.6</ele>
        <time>2021-07-18T13:11:11Z</time>
      </trkpt>
      <trkpt lat="46.84424" lon="5.85732">
        <ele>637</ele>
        <time>2021-07-18T13:11:14Z</time>
      </trkpt>
      <trkpt lat="46.84425" lon="5.85739">
        <ele>636.7</ele>
        <time>2021-07-18T13:11:17Z</time>
      </trkpt>
      <trkpt lat="46.8442" lon="5.85743">
        <ele>636.1</ele>
        <time>2021-07-18T13:11:23Z</time>
      </trkpt>
      <trkpt lat="46.84419" lon="5.8575">
        <ele>636.7</ele>
        <time>2021-07-18T13:11:30Z</time>
      </trkpt>
      <trkpt lat="46.84418" lon="5.85757">
        <ele>636.7</ele>
        <time>2021-07-18T13:11:37Z</time>
      </trkpt>
      <trkpt lat="46.84419" lon="5.85764">
        <ele>636.5</ele>
        <time>2021-07-18T13:11:41Z</time>
      </trkpt>
      <trkpt lat="46.84419" lon="5.85771">
        <ele>636.4</ele>
        <time>2021-07-18T13:11:44Z</time>
      </trkpt>
      <trkpt lat="46.84417" lon="5.85779">
        <ele>636.3</ele>
        <time>2021-07-18T13:11:48Z</time>
      </trkpt>
      <trkpt lat="46.84414" lon="5.85784">
        <ele>636.2</ele>
        <time>2021-07-18T13:11:53Z</time>
      </trkpt>
      <trkpt lat="46.84411" lon="5.8579">
        <ele>635.7</ele>
        <time>2021-07-18T13:12:00Z</time>
      </trkpt>
      <trkpt lat="46.84407" lon="5.85793">
        <ele>635.5</ele>
        <time>2021-07-18T13:12:05Z</time>
      </trkpt>
      <trkpt lat="46.84403" lon="5.85799">
        <ele>635.7</ele>
        <time>2021-07-18T13:12:10Z</time>
      </trkpt>
      <trkpt lat="46.84405" lon="5.85805">
        <ele>636.1</ele>
        <time>2021-07-18T13:12:17Z</time>
      </trkpt>
      <trkpt lat="46.84406" lon="5.85813">
        <ele>636.8</ele>
        <time>2021-07-18T13:12:23Z</time>
      </trkpt>
      <trkpt lat="46.84404" lon="5.8582">
        <ele>637.7</ele>
        <time>2021-07-18T13:12:35Z</time>
      </trkpt>
      <trkpt lat="46.84405" lon="5.85827">
        <ele>637.3</ele>
        <time>2021-07-18T13:12:41Z</time>
      </trkpt>
      <trkpt lat="46.84401" lon="5.85832">
        <ele>637.1</ele>
        <time>2021-07-18T13:12:46Z</time>
      </trkpt>
      <trkpt lat="46.84399" lon="5.8584">
        <ele>637.2</ele>
        <time>2021-07-18T13:12:51Z</time>
      </trkpt>
      <trkpt lat="46.84399" lon="5.85847">
        <ele>637.5</ele>
        <time>2021-07-18T13:12:56Z</time>
      </trkpt>
      <trkpt lat="46.84399" lon="5.85854">
        <ele>638</ele>
        <time>2021-07-18T13:13:04Z</time>
      </trkpt>
      <trkpt lat="46.84397" lon="5.85861">
        <ele>637.6</ele>
        <time>2021-07-18T13:13:09Z</time>
      </trkpt>
      <trkpt lat="46.84402" lon="5.8587">
        <ele>635.1</ele>
        <time>2021-07-18T13:13:28Z</time>
      </trkpt>
      <trkpt lat="46.84409" lon="5.85876">
        <ele>635</ele>
        <time>2021-07-18T13:13:31Z</time>
      </trkpt>
      <trkpt lat="46.84413" lon="5.85881">
        <ele>635</ele>
        <time>2021-07-18T13:13:34Z</time>
      </trkpt>
      <trkpt lat="46.84415" lon="5.85888">
        <ele>635.2</ele>
        <time>2021-07-18T13:13:40Z</time>
      </trkpt>
      <trkpt lat="46.84414" lon="5.85895">
        <ele>635.5</ele>
        <time>2021-07-18T13:13:45Z</time>
      </trkpt>
      <trkpt lat="46.84411" lon="5.859">
        <ele>635.6</ele>
        <time>2021-07-18T13:13:55Z</time>
      </trkpt>
      <trkpt lat="46.84417" lon="5.85903">
        <ele>635.4</ele>
        <time>2021-07-18T13:14:00Z</time>
      </trkpt>
      <trkpt lat="46.84421" lon="5.85906">
        <ele>635.1</ele>
        <time>2021-07-18T13:14:03Z</time>
      </trkpt>
      <trkpt lat="46.84424" lon="5.85911">
        <ele>635.2</ele>
        <time>2021-07-18T13:14:06Z</time>
      </trkpt>
      <trkpt lat="46.84426" lon="5.85918">
        <ele>635.7</ele>
        <time>2021-07-18T13:14:13Z</time>
      </trkpt>
      <trkpt lat="46.8443" lon="5.85921">
        <ele>636.8</ele>
        <time>2021-07-18T13:14:19Z</time>
      </trkpt>
      <trkpt lat="46.84434" lon="5.85927">
        <ele>637.8</ele>
        <time>2021-07-18T13:14:24Z</time>
      </trkpt>
      <trkpt lat="46.84437" lon="5.85932">
        <ele>638.6</ele>
        <time>2021-07-18T13:14:28Z</time>
      </trkpt>
      <trkpt lat="46.8444" lon="5.85938">
        <ele>638.9</ele>
        <time>2021-07-18T13:14:33Z</time>
      </trkpt>
      <trkpt lat="46.84443" lon="5.85932">
        <ele>638</ele>
        <time>2021-07-18T13:14:46Z</time>
      </trkpt>
      <trkpt lat="46.84449" lon="5.85932">
        <ele>637.8</ele>
        <time>2021-07-18T13:14:51Z</time>
      </trkpt>
      <trkpt lat="46.84453" lon="5.85932">
        <ele>636.6</ele>
        <time>2021-07-18T13:15:02Z</time>
      </trkpt>
      <trkpt lat="46.84458" lon="5.85935">
        <ele>635.5</ele>
        <time>2021-07-18T13:15:07Z</time>
      </trkpt>
      <trkpt lat="46.84462" lon="5.8594">
        <ele>634.5</ele>
        <time>2021-07-18T13:15:16Z</time>
      </trkpt>
      <trkpt lat="46.84467" lon="5.85943">
        <ele>634.5</ele>
        <time>2021-07-18T13:15:21Z</time>
      </trkpt>
      <trkpt lat="46.84471" lon="5.85946">
        <ele>634.7</ele>
        <time>2021-07-18T13:15:26Z</time>
      </trkpt>
      <trkpt lat="46.84476" lon="5.85948">
        <ele>635.1</ele>
        <time>2021-07-18T13:15:29Z</time>
      </trkpt>
      <trkpt lat="46.8448" lon="5.85952">
        <ele>634.9</ele>
        <time>2021-07-18T13:15:36Z</time>
      </trkpt>
      <trkpt lat="46.84484" lon="5.85957">
        <ele>635</ele>
        <time>2021-07-18T13:15:42Z</time>
      </trkpt>
      <trkpt lat="46.84488" lon="5.85961">
        <ele>634.2</ele>
        <time>2021-07-18T13:15:50Z</time>
      </trkpt>
      <trkpt lat="46.84488" lon="5.85968">
        <ele>633.4</ele>
        <time>2021-07-18T13:15:55Z</time>
      </trkpt>
      <trkpt lat="46.84491" lon="5.85975">
        <ele>633.3</ele>
        <time>2021-07-18T13:16:02Z</time>
      </trkpt>
      <trkpt lat="46.84495" lon="5.85977">
        <ele>633.3</ele>
        <time>2021-07-18T13:16:07Z</time>
      </trkpt>
      <trkpt lat="46.84498" lon="5.85984">
        <ele>633.1</ele>
        <time>2021-07-18T13:16:12Z</time>
      </trkpt>
      <trkpt lat="46.84498" lon="5.85992">
        <ele>632.8</ele>
        <time>2021-07-18T13:16:17Z</time>
      </trkpt>
      <trkpt lat="46.84496" lon="5.85998">
        <ele>632.9</ele>
        <time>2021-07-18T13:16:21Z</time>
      </trkpt>
      <trkpt lat="46.84494" lon="5.86005">
        <ele>633.5</ele>
        <time>2021-07-18T13:16:26Z</time>
      </trkpt>
      <trkpt lat="46.84491" lon="5.86012">
        <ele>634.2</ele>
        <time>2021-07-18T13:16:31Z</time>
      </trkpt>
      <trkpt lat="46.84488" lon="5.86017">
        <ele>635.6</ele>
        <time>2021-07-18T13:16:37Z</time>
      </trkpt>
      <trkpt lat="46.84485" lon="5.86023">
        <ele>636.5</ele>
        <time>2021-07-18T13:16:47Z</time>
      </trkpt>
      <trkpt lat="46.84481" lon="5.86027">
        <ele>636.8</ele>
        <time>2021-07-18T13:16:51Z</time>
      </trkpt>
      <trkpt lat="46.84477" lon="5.86031">
        <ele>637.3</ele>
        <time>2021-07-18T13:16:55Z</time>
      </trkpt>
      <trkpt lat="46.84478" lon="5.86039">
        <ele>637.9</ele>
        <time>2021-07-18T13:16:59Z</time>
      </trkpt>
      <trkpt lat="46.8448" lon="5.86045">
        <ele>638.1</ele>
        <time>2021-07-18T13:17:05Z</time>
      </trkpt>
      <trkpt lat="46.84479" lon="5.86052">
        <ele>638</ele>
        <time>2021-07-18T13:17:13Z</time>
      </trkpt>
      <trkpt lat="46.84477" lon="5.86058">
        <ele>640</ele>
        <time>2021-07-18T13:17:22Z</time>
      </trkpt>
      <trkpt lat="46.84474" lon="5.86065">
        <ele>641</ele>
        <time>2021-07-18T13:17:26Z</time>
      </trkpt>
      <trkpt lat="46.84473" lon="5.86072">
        <ele>641.9</ele>
        <time>2021-07-18T13:17:30Z</time>
      </trkpt>
      <trkpt lat="46.84473" lon="5.86079">
        <ele>642.9</ele>
        <time>2021-07-18T13:17:35Z</time>
      </trkpt>
      <trkpt lat="46.84472" lon="5.86085">
        <ele>643.8</ele>
        <time>2021-07-18T13:17:40Z</time>
      </trkpt>
      <trkpt lat="46.84472" lon="5.86093">
        <ele>644.2</ele>
        <time>2021-07-18T13:17:50Z</time>
      </trkpt>
      <trkpt lat="46.8447" lon="5.86099">
        <ele>643.7</ele>
        <time>2021-07-18T13:17:55Z</time>
      </trkpt>
      <trkpt lat="46.84467" lon="5.86104">
        <ele>643.3</ele>
        <time>2021-07-18T13:18:02Z</time>
      </trkpt>
      <trkpt lat="46.84466" lon="5.86111">
        <ele>643.5</ele>
        <time>2021-07-18T13:18:06Z</time>
      </trkpt>
      <trkpt lat="46.84466" lon="5.86119">
        <ele>643.9</ele>
        <time>2021-07-18T13:18:11Z</time>
      </trkpt>
      <trkpt lat="46.84465" lon="5.86127">
        <ele>644.5</ele>
        <time>2021-07-18T13:18:15Z</time>
      </trkpt>
      <trkpt lat="46.84462" lon="5.86133">
        <ele>644.7</ele>
        <time>2021-07-18T13:18:19Z</time>
      </trkpt>
      <trkpt lat="46.84461" lon="5.8614">
        <ele>644.6</ele>
        <time>2021-07-18T13:18:30Z</time>
      </trkpt>
      <trkpt lat="46.84463" lon="5.86147">
        <ele>643.5</ele>
        <time>2021-07-18T13:18:42Z</time>
      </trkpt>
      <trkpt lat="46.84465" lon="5.86154">
        <ele>643.1</ele>
        <time>2021-07-18T13:18:46Z</time>
      </trkpt>
      <trkpt lat="46.84469" lon="5.86159">
        <ele>642.6</ele>
        <time>2021-07-18T13:18:51Z</time>
      </trkpt>
      <trkpt lat="46.84472" lon="5.86164">
        <ele>641.6</ele>
        <time>2021-07-18T13:18:58Z</time>
      </trkpt>
      <trkpt lat="46.8447" lon="5.8617">
        <ele>640.8</ele>
        <time>2021-07-18T13:19:04Z</time>
      </trkpt>
      <trkpt lat="46.84471" lon="5.86178">
        <ele>640.6</ele>
        <time>2021-07-18T13:19:09Z</time>
      </trkpt>
      <trkpt lat="46.84474" lon="5.86183">
        <ele>640.3</ele>
        <time>2021-07-18T13:19:12Z</time>
      </trkpt>
      <trkpt lat="46.84477" lon="5.8619">
        <ele>640.1</ele>
        <time>2021-07-18T13:19:16Z</time>
      </trkpt>
      <trkpt lat="46.8448" lon="5.86195">
        <ele>639.9</ele>
        <time>2021-07-18T13:19:21Z</time>
      </trkpt>
      <trkpt lat="46.84477" lon="5.86201">
        <ele>639.8</ele>
        <time>2021-07-18T13:19:28Z</time>
      </trkpt>
      <trkpt lat="46.84479" lon="5.86207">
        <ele>640.8</ele>
        <time>2021-07-18T13:19:34Z</time>
      </trkpt>
      <trkpt lat="46.84478" lon="5.86215">
        <ele>641.9</ele>
        <time>2021-07-18T13:19:41Z</time>
      </trkpt>
      <trkpt lat="46.84477" lon="5.86222">
        <ele>643.1</ele>
        <time>2021-07-18T13:19:47Z</time>
      </trkpt>
      <trkpt lat="46.84477" lon="5.8623">
        <ele>644.6</ele>
        <time>2021-07-18T13:19:55Z</time>
      </trkpt>
      <trkpt lat="46.84476" lon="5.86237">
        <ele>645.9</ele>
        <time>2021-07-18T13:19:59Z</time>
      </trkpt>
      <trkpt lat="46.84477" lon="5.86244">
        <ele>647.3</ele>
        <time>2021-07-18T13:20:06Z</time>
      </trkpt>
      <trkpt lat="46.84476" lon="5.86251">
        <ele>648.7</ele>
        <time>2021-07-18T13:20:12Z</time>
      </trkpt>
      <trkpt lat="46.84478" lon="5.86257">
        <ele>650.6</ele>
        <time>2021-07-18T13:20:21Z</time>
      </trkpt>
      <trkpt lat="46.84474" lon="5.8626">
        <ele>649.4</ele>
        <time>2021-07-18T13:20:32Z</time>
      </trkpt>
      <trkpt lat="46.84469" lon="5.86262">
        <ele>650.1</ele>
        <time>2021-07-18T13:20:58Z</time>
      </trkpt>
      <trkpt lat="46.84468" lon="5.86268">
        <ele>658.4</ele>
        <time>2021-07-18T13:21:19Z</time>
      </trkpt>
      <trkpt lat="46.84473" lon="5.86266">
        <ele>663.7</ele>
        <time>2021-07-18T13:22:08Z</time>
      </trkpt>
      <trkpt lat="46.84468" lon="5.86267">
        <ele>662.1</ele>
        <time>2021-07-18T13:22:35Z</time>
      </trkpt>
      <trkpt lat="46.84465" lon="5.86272">
        <ele>663.3</ele>
        <time>2021-07-18T13:22:48Z</time>
      </trkpt>
      <trkpt lat="46.8446" lon="5.86276">
        <ele>663.9</ele>
        <time>2021-07-18T13:22:52Z</time>
      </trkpt>
      <trkpt lat="46.84463" lon="5.86269">
        <ele>664.9</ele>
        <time>2021-07-18T13:23:01Z</time>
      </trkpt>
      <trkpt lat="46.84468" lon="5.8627">
        <ele>664.9</ele>
        <time>2021-07-18T13:23:07Z</time>
      </trkpt>
      <trkpt lat="46.84472" lon="5.86276">
        <ele>662.2</ele>
        <time>2021-07-18T13:23:28Z</time>
      </trkpt>
      <trkpt lat="46.84475" lon="5.86281">
        <ele>661.7</ele>
        <time>2021-07-18T13:23:34Z</time>
      </trkpt>
      <trkpt lat="46.84476" lon="5.86289">
        <ele>660.9</ele>
        <time>2021-07-18T13:23:39Z</time>
      </trkpt>
      <trkpt lat="46.84478" lon="5.86296">
        <ele>659.6</ele>
        <time>2021-07-18T13:23:46Z</time>
      </trkpt>
      <trkpt lat="46.84477" lon="5.86303">
        <ele>658.1</ele>
        <time>2021-07-18T13:23:51Z</time>
      </trkpt>
      <trkpt lat="46.84477" lon="5.86309">
        <ele>656.5</ele>
        <time>2021-07-18T13:23:57Z</time>
      </trkpt>
      <trkpt lat="46.84476" lon="5.86316">
        <ele>655.8</ele>
        <time>2021-07-18T13:24:03Z</time>
      </trkpt>
      <trkpt lat="46.84475" lon="5.86323">
        <ele>655.4</ele>
        <time>2021-07-18T13:24:10Z</time>
      </trkpt>
      <trkpt lat="46.84473" lon="5.86329">
        <ele>655.3</ele>
        <time>2021-07-18T13:24:15Z</time>
      </trkpt>
      <trkpt lat="46.8447" lon="5.86335">
        <ele>656</ele>
        <time>2021-07-18T13:24:23Z</time>
      </trkpt>
      <trkpt lat="46.84467" lon="5.8634">
        <ele>656.2</ele>
        <time>2021-07-18T13:24:29Z</time>
      </trkpt>
      <trkpt lat="46.84465" lon="5.86347">
        <ele>656.3</ele>
        <time>2021-07-18T13:24:33Z</time>
      </trkpt>
      <trkpt lat="46.84463" lon="5.86352">
        <ele>656.4</ele>
        <time>2021-07-18T13:24:42Z</time>
      </trkpt>
      <trkpt lat="46.84465" lon="5.8636">
        <ele>656.5</ele>
        <time>2021-07-18T13:24:46Z</time>
      </trkpt>
      <trkpt lat="46.84467" lon="5.86367">
        <ele>656.6</ele>
        <time>2021-07-18T13:24:50Z</time>
      </trkpt>
      <trkpt lat="46.8447" lon="5.86371">
        <ele>656.4</ele>
        <time>2021-07-18T13:24:58Z</time>
      </trkpt>
      <trkpt lat="46.84472" lon="5.86378">
        <ele>655.5</ele>
        <time>2021-07-18T13:25:04Z</time>
      </trkpt>
      <trkpt lat="46.84474" lon="5.86384">
        <ele>655.3</ele>
        <time>2021-07-18T13:25:10Z</time>
      </trkpt>
      <trkpt lat="46.84476" lon="5.86391">
        <ele>655.2</ele>
        <time>2021-07-18T13:25:15Z</time>
      </trkpt>
      <trkpt lat="46.84478" lon="5.86398">
        <ele>655.4</ele>
        <time>2021-07-18T13:25:21Z</time>
      </trkpt>
      <trkpt lat="46.84482" lon="5.86401">
        <ele>656.1</ele>
        <time>2021-07-18T13:25:27Z</time>
      </trkpt>
      <trkpt lat="46.84485" lon="5.86407">
        <ele>656.4</ele>
        <time>2021-07-18T13:25:31Z</time>
      </trkpt>
      <trkpt lat="46.84486" lon="5.86414">
        <ele>656.8</ele>
        <time>2021-07-18T13:25:35Z</time>
      </trkpt>
      <trkpt lat="46.84483" lon="5.86421">
        <ele>657.7</ele>
        <time>2021-07-18T13:25:41Z</time>
      </trkpt>
      <trkpt lat="46.84478" lon="5.86425">
        <ele>658.4</ele>
        <time>2021-07-18T13:25:45Z</time>
      </trkpt>
      <trkpt lat="46.84474" lon="5.86428">
        <ele>659</ele>
        <time>2021-07-18T13:25:49Z</time>
      </trkpt>
      <trkpt lat="46.84476" lon="5.86434">
        <ele>659.8</ele>
        <time>2021-07-18T13:25:53Z</time>
      </trkpt>
      <trkpt lat="46.84479" lon="5.8644">
        <ele>660.4</ele>
        <time>2021-07-18T13:25:56Z</time>
      </trkpt>
      <trkpt lat="46.84482" lon="5.86445">
        <ele>661.2</ele>
        <time>2021-07-18T13:25:59Z</time>
      </trkpt>
      <trkpt lat="46.84485" lon="5.86451">
        <ele>662.5</ele>
        <time>2021-07-18T13:26:04Z</time>
      </trkpt>
      <trkpt lat="46.84483" lon="5.86457">
        <ele>663.3</ele>
        <time>2021-07-18T13:26:10Z</time>
      </trkpt>
      <trkpt lat="46.84481" lon="5.86464">
        <ele>663.7</ele>
        <time>2021-07-18T13:26:15Z</time>
      </trkpt>
      <trkpt lat="46.84483" lon="5.86471">
        <ele>664.1</ele>
        <time>2021-07-18T13:26:24Z</time>
      </trkpt>
      <trkpt lat="46.84481" lon="5.86479">
        <ele>664.2</ele>
        <time>2021-07-18T13:26:29Z</time>
      </trkpt>
      <trkpt lat="46.84481" lon="5.86485">
        <ele>664.6</ele>
        <time>2021-07-18T13:26:33Z</time>
      </trkpt>
      <trkpt lat="46.84479" lon="5.86493">
        <ele>665</ele>
        <time>2021-07-18T13:26:38Z</time>
      </trkpt>
      <trkpt lat="46.84477" lon="5.865">
        <ele>665.5</ele>
        <time>2021-07-18T13:26:42Z</time>
      </trkpt>
      <trkpt lat="46.84474" lon="5.86506">
        <ele>665.9</ele>
        <time>2021-07-18T13:26:46Z</time>
      </trkpt>
      <trkpt lat="46.84471" lon="5.8651">
        <ele>666.3</ele>
        <time>2021-07-18T13:26:53Z</time>
      </trkpt>
      <trkpt lat="46.84467" lon="5.86516">
        <ele>666.4</ele>
        <time>2021-07-18T13:26:58Z</time>
      </trkpt>
      <trkpt lat="46.84465" lon="5.8651">
        <ele>667.1</ele>
        <time>2021-07-18T13:27:08Z</time>
      </trkpt>
      <trkpt lat="46.84462" lon="5.86504">
        <ele>667.5</ele>
        <time>2021-07-18T13:27:14Z</time>
      </trkpt>
      <trkpt lat="46.84467" lon="5.86506">
        <ele>666.7</ele>
        <time>2021-07-18T13:27:33Z</time>
      </trkpt>
      <trkpt lat="46.84468" lon="5.86512">
        <ele>670.1</ele>
        <time>2021-07-18T13:28:05Z</time>
      </trkpt>
      <trkpt lat="46.84463" lon="5.86513">
        <ele>673</ele>
        <time>2021-07-18T13:28:49Z</time>
      </trkpt>
      <trkpt lat="46.84468" lon="5.86512">
        <ele>673</ele>
        <time>2021-07-18T13:29:01Z</time>
      </trkpt>
      <trkpt lat="46.84463" lon="5.86508">
        <ele>671.4</ele>
        <time>2021-07-18T13:29:13Z</time>
      </trkpt>
      <trkpt lat="46.84458" lon="5.86505">
        <ele>671</ele>
        <time>2021-07-18T13:29:17Z</time>
      </trkpt>
      <trkpt lat="46.84462" lon="5.86509">
        <ele>670.8</ele>
        <time>2021-07-18T13:29:25Z</time>
      </trkpt>
      <trkpt lat="46.84458" lon="5.86507">
        <ele>674.9</ele>
        <time>2021-07-18T13:30:01Z</time>
      </trkpt>
      <trkpt lat="46.84453" lon="5.86509">
        <ele>674.9</ele>
        <time>2021-07-18T13:30:30Z</time>
      </trkpt>
      <trkpt lat="46.84448" lon="5.8651">
        <ele>673.9</ele>
        <time>2021-07-18T13:30:36Z</time>
      </trkpt>
      <trkpt lat="46.84443" lon="5.86512">
        <ele>673.1</ele>
        <time>2021-07-18T13:30:42Z</time>
      </trkpt>
      <trkpt lat="46.84438" lon="5.8651">
        <ele>672.5</ele>
        <time>2021-07-18T13:30:47Z</time>
      </trkpt>
      <trkpt lat="46.84433" lon="5.8651">
        <ele>671.7</ele>
        <time>2021-07-18T13:30:54Z</time>
      </trkpt>
      <trkpt lat="46.84429" lon="5.8651">
        <ele>671.6</ele>
        <time>2021-07-18T13:30:59Z</time>
      </trkpt>
      <trkpt lat="46.84423" lon="5.86512">
        <ele>672.1</ele>
        <time>2021-07-18T13:31:04Z</time>
      </trkpt>
      <trkpt lat="46.84418" lon="5.86515">
        <ele>672.2</ele>
        <time>2021-07-18T13:31:09Z</time>
      </trkpt>
      <trkpt lat="46.84414" lon="5.86518">
        <ele>672.2</ele>
        <time>2021-07-18T13:31:15Z</time>
      </trkpt>
      <trkpt lat="46.84409" lon="5.8652">
        <ele>672.5</ele>
        <time>2021-07-18T13:31:19Z</time>
      </trkpt>
      <trkpt lat="46.84405" lon="5.86524">
        <ele>672.7</ele>
        <time>2021-07-18T13:31:24Z</time>
      </trkpt>
      <trkpt lat="46.84403" lon="5.8653">
        <ele>673</ele>
        <time>2021-07-18T13:31:30Z</time>
      </trkpt>
      <trkpt lat="46.84401" lon="5.86537">
        <ele>673.8</ele>
        <time>2021-07-18T13:31:34Z</time>
      </trkpt>
      <trkpt lat="46.84396" lon="5.86537">
        <ele>675</ele>
        <time>2021-07-18T13:31:40Z</time>
      </trkpt>
      <trkpt lat="46.84392" lon="5.86532">
        <ele>675</ele>
        <time>2021-07-18T13:31:44Z</time>
      </trkpt>
      <trkpt lat="46.84389" lon="5.86527">
        <ele>669.1</ele>
        <time>2021-07-18T13:32:10Z</time>
      </trkpt>
      <trkpt lat="46.84395" lon="5.86528">
        <ele>667.9</ele>
        <time>2021-07-18T13:32:15Z</time>
      </trkpt>
      <trkpt lat="46.844" lon="5.86531">
        <ele>667.4</ele>
        <time>2021-07-18T13:32:19Z</time>
      </trkpt>
      <trkpt lat="46.84398" lon="5.86538">
        <ele>666.9</ele>
        <time>2021-07-18T13:32:23Z</time>
      </trkpt>
      <trkpt lat="46.84393" lon="5.86541">
        <ele>666.8</ele>
        <time>2021-07-18T13:32:26Z</time>
      </trkpt>
      <trkpt lat="46.84388" lon="5.86542">
        <ele>667.1</ele>
        <time>2021-07-18T13:32:30Z</time>
      </trkpt>
      <trkpt lat="46.84384" lon="5.86535">
        <ele>667.9</ele>
        <time>2021-07-18T13:32:45Z</time>
      </trkpt>
      <trkpt lat="46.84385" lon="5.86528">
        <ele>667.9</ele>
        <time>2021-07-18T13:32:52Z</time>
      </trkpt>
      <trkpt lat="46.8439" lon="5.86526">
        <ele>670.3</ele>
        <time>2021-07-18T13:33:13Z</time>
      </trkpt>
      <trkpt lat="46.84394" lon="5.86531">
        <ele>673.2</ele>
        <time>2021-07-18T13:33:24Z</time>
      </trkpt>
      <trkpt lat="46.84398" lon="5.86535">
        <ele>673.1</ele>
        <time>2021-07-18T13:33:28Z</time>
      </trkpt>
      <trkpt lat="46.84405" lon="5.86529">
        <ele>674.7</ele>
        <time>2021-07-18T13:33:31Z</time>
      </trkpt>
      <trkpt lat="46.8441" lon="5.86529">
        <ele>676</ele>
        <time>2021-07-18T13:33:34Z</time>
      </trkpt>
      <trkpt lat="46.84415" lon="5.86531">
        <ele>676.9</ele>
        <time>2021-07-18T13:33:37Z</time>
      </trkpt>
      <trkpt lat="46.84409" lon="5.86533">
        <ele>679.4</ele>
        <time>2021-07-18T13:33:49Z</time>
      </trkpt>
      <trkpt lat="46.84398" lon="5.86516">
        <ele>679.6</ele>
        <time>2021-07-18T13:33:52Z</time>
      </trkpt>
      <trkpt lat="46.84391" lon="5.86512">
        <ele>679.8</ele>
        <time>2021-07-18T13:33:55Z</time>
      </trkpt>
      <trkpt lat="46.8439" lon="5.86519">
        <ele>679.2</ele>
        <time>2021-07-18T13:34:01Z</time>
      </trkpt>
      <trkpt lat="46.84389" lon="5.86525">
        <ele>678.6</ele>
        <time>2021-07-18T13:34:05Z</time>
      </trkpt>
      <trkpt lat="46.84393" lon="5.86529">
        <ele>677.9</ele>
        <time>2021-07-18T13:34:09Z</time>
      </trkpt>
      <trkpt lat="46.844" lon="5.8653">
        <ele>678.2</ele>
        <time>2021-07-18T13:34:12Z</time>
      </trkpt>
      <trkpt lat="46.84405" lon="5.8653">
        <ele>678.6</ele>
        <time>2021-07-18T13:34:15Z</time>
      </trkpt>
      <trkpt lat="46.844" lon="5.86533">
        <ele>678.4</ele>
        <time>2021-07-18T13:34:24Z</time>
      </trkpt>
      <trkpt lat="46.84395" lon="5.86536">
        <ele>678.4</ele>
        <time>2021-07-18T13:34:27Z</time>
      </trkpt>
      <trkpt lat="46.844" lon="5.86539">
        <ele>679.5</ele>
        <time>2021-07-18T13:34:37Z</time>
      </trkpt>
      <trkpt lat="46.844" lon="5.86532">
        <ele>680.5</ele>
        <time>2021-07-18T13:34:46Z</time>
      </trkpt>
      <trkpt lat="46.84405" lon="5.86536">
        <ele>679.8</ele>
        <time>2021-07-18T13:34:57Z</time>
      </trkpt>
      <trkpt lat="46.84409" lon="5.86538">
        <ele>678.9</ele>
        <time>2021-07-18T13:35:05Z</time>
      </trkpt>
      <trkpt lat="46.84414" lon="5.86538">
        <ele>678.6</ele>
        <time>2021-07-18T13:35:10Z</time>
      </trkpt>
      <trkpt lat="46.84418" lon="5.86542">
        <ele>678.3</ele>
        <time>2021-07-18T13:35:16Z</time>
      </trkpt>
      <trkpt lat="46.84423" lon="5.86543">
        <ele>678.4</ele>
        <time>2021-07-18T13:35:21Z</time>
      </trkpt>
      <trkpt lat="46.84427" lon="5.86547">
        <ele>678.4</ele>
        <time>2021-07-18T13:35:25Z</time>
      </trkpt>
      <trkpt lat="46.84429" lon="5.86553">
        <ele>678.3</ele>
        <time>2021-07-18T13:35:28Z</time>
      </trkpt>
      <trkpt lat="46.84431" lon="5.8656">
        <ele>678.1</ele>
        <time>2021-07-18T13:35:32Z</time>
      </trkpt>
      <trkpt lat="46.84431" lon="5.86566">
        <ele>678.4</ele>
        <time>2021-07-18T13:35:38Z</time>
      </trkpt>
      <trkpt lat="46.8443" lon="5.86573">
        <ele>679</ele>
        <time>2021-07-18T13:35:44Z</time>
      </trkpt>
      <trkpt lat="46.84426" lon="5.86576">
        <ele>679.4</ele>
        <time>2021-07-18T13:35:49Z</time>
      </trkpt>
      <trkpt lat="46.8442" lon="5.86577">
        <ele>680.9</ele>
        <time>2021-07-18T13:35:57Z</time>
      </trkpt>
      <trkpt lat="46.84416" lon="5.86581">
        <ele>680.9</ele>
        <time>2021-07-18T13:36:00Z</time>
      </trkpt>
      <trkpt lat="46.84412" lon="5.86585">
        <ele>681</ele>
        <time>2021-07-18T13:36:04Z</time>
      </trkpt>
      <trkpt lat="46.84414" lon="5.86593">
        <ele>680.5</ele>
        <time>2021-07-18T13:36:13Z</time>
      </trkpt>
      <trkpt lat="46.84414" lon="5.86601">
        <ele>679.3</ele>
        <time>2021-07-18T13:36:21Z</time>
      </trkpt>
      <trkpt lat="46.84416" lon="5.86608">
        <ele>680.4</ele>
        <time>2021-07-18T13:36:25Z</time>
      </trkpt>
      <trkpt lat="46.84412" lon="5.8661">
        <ele>682</ele>
        <time>2021-07-18T13:36:40Z</time>
      </trkpt>
      <trkpt lat="46.84407" lon="5.86608">
        <ele>683.8</ele>
        <time>2021-07-18T13:36:50Z</time>
      </trkpt>
      <trkpt lat="46.84407" lon="5.86615">
        <ele>683.3</ele>
        <time>2021-07-18T13:37:01Z</time>
      </trkpt>
      <trkpt lat="46.84409" lon="5.86621">
        <ele>683</ele>
        <time>2021-07-18T13:37:05Z</time>
      </trkpt>
      <trkpt lat="46.84407" lon="5.86616">
        <ele>682.5</ele>
        <time>2021-07-18T13:37:12Z</time>
      </trkpt>
      <trkpt lat="46.84409" lon="5.86608">
        <ele>681.4</ele>
        <time>2021-07-18T13:37:18Z</time>
      </trkpt>
      <trkpt lat="46.84404" lon="5.86612">
        <ele>679.4</ele>
        <time>2021-07-18T13:37:36Z</time>
      </trkpt>
      <trkpt lat="46.84401" lon="5.86618">
        <ele>678</ele>
        <time>2021-07-18T13:37:41Z</time>
      </trkpt>
      <trkpt lat="46.84399" lon="5.86624">
        <ele>675.7</ele>
        <time>2021-07-18T13:37:45Z</time>
      </trkpt>
      <trkpt lat="46.84394" lon="5.8662">
        <ele>673</ele>
        <time>2021-07-18T13:37:55Z</time>
      </trkpt>
      <trkpt lat="46.84392" lon="5.86627">
        <ele>670.8</ele>
        <time>2021-07-18T13:38:03Z</time>
      </trkpt>
      <trkpt lat="46.84395" lon="5.86634">
        <ele>668</ele>
        <time>2021-07-18T13:38:14Z</time>
      </trkpt>
      <trkpt lat="46.84395" lon="5.86641">
        <ele>666.9</ele>
        <time>2021-07-18T13:38:21Z</time>
      </trkpt>
      <trkpt lat="46.84391" lon="5.8665">
        <ele>666.6</ele>
        <time>2021-07-18T13:38:25Z</time>
      </trkpt>
      <trkpt lat="46.84387" lon="5.86658">
        <ele>666.7</ele>
        <time>2021-07-18T13:38:28Z</time>
      </trkpt>
      <trkpt lat="46.84383" lon="5.86661">
        <ele>666.4</ele>
        <time>2021-07-18T13:38:33Z</time>
      </trkpt>
      <trkpt lat="46.84381" lon="5.86668">
        <ele>666.7</ele>
        <time>2021-07-18T13:38:48Z</time>
      </trkpt>
      <trkpt lat="46.84376" lon="5.86671">
        <ele>667.4</ele>
        <time>2021-07-18T13:38:52Z</time>
      </trkpt>
      <trkpt lat="46.84371" lon="5.86676">
        <ele>667.9</ele>
        <time>2021-07-18T13:38:55Z</time>
      </trkpt>
      <trkpt lat="46.84364" lon="5.86682">
        <ele>668.4</ele>
        <time>2021-07-18T13:38:58Z</time>
      </trkpt>
      <trkpt lat="46.8436" lon="5.86683">
        <ele>668.8</ele>
        <time>2021-07-18T13:39:01Z</time>
      </trkpt>
      <trkpt lat="46.84355" lon="5.86681">
        <ele>669.2</ele>
        <time>2021-07-18T13:39:08Z</time>
      </trkpt>
      <trkpt lat="46.84351" lon="5.86685">
        <ele>669</ele>
        <time>2021-07-18T13:39:15Z</time>
      </trkpt>
      <trkpt lat="46.84349" lon="5.86691">
        <ele>670.3</ele>
        <time>2021-07-18T13:39:25Z</time>
      </trkpt>
      <trkpt lat="46.84352" lon="5.86697">
        <ele>670.6</ele>
        <time>2021-07-18T13:39:31Z</time>
      </trkpt>
      <trkpt lat="46.8435" lon="5.86704">
        <ele>671.1</ele>
        <time>2021-07-18T13:39:38Z</time>
      </trkpt>
      <trkpt lat="46.84353" lon="5.8671">
        <ele>672</ele>
        <time>2021-07-18T13:39:43Z</time>
      </trkpt>
      <trkpt lat="46.84357" lon="5.86716">
        <ele>672.7</ele>
        <time>2021-07-18T13:39:46Z</time>
      </trkpt>
      <trkpt lat="46.84359" lon="5.86723">
        <ele>673.6</ele>
        <time>2021-07-18T13:39:49Z</time>
      </trkpt>
      <trkpt lat="46.84358" lon="5.8673">
        <ele>674.8</ele>
        <time>2021-07-18T13:39:57Z</time>
      </trkpt>
      <trkpt lat="46.84357" lon="5.86737">
        <ele>675.5</ele>
        <time>2021-07-18T13:40:02Z</time>
      </trkpt>
      <trkpt lat="46.84356" lon="5.86743">
        <ele>676</ele>
        <time>2021-07-18T13:40:09Z</time>
      </trkpt>
      <trkpt lat="46.84353" lon="5.8675">
        <ele>676.7</ele>
        <time>2021-07-18T13:40:15Z</time>
      </trkpt>
      <trkpt lat="46.84352" lon="5.86756">
        <ele>677.2</ele>
        <time>2021-07-18T13:40:20Z</time>
      </trkpt>
      <trkpt lat="46.84351" lon="5.86763">
        <ele>677.8</ele>
        <time>2021-07-18T13:40:24Z</time>
      </trkpt>
      <trkpt lat="46.84347" lon="5.86768">
        <ele>679.5</ele>
        <time>2021-07-18T13:40:30Z</time>
      </trkpt>
      <trkpt lat="46.84344" lon="5.86773">
        <ele>680.7</ele>
        <time>2021-07-18T13:40:35Z</time>
      </trkpt>
      <trkpt lat="46.8434" lon="5.86778">
        <ele>681.5</ele>
        <time>2021-07-18T13:40:41Z</time>
      </trkpt>
      <trkpt lat="46.84338" lon="5.86784">
        <ele>681.7</ele>
        <time>2021-07-18T13:40:49Z</time>
      </trkpt>
      <trkpt lat="46.84334" lon="5.86789">
        <ele>681.9</ele>
        <time>2021-07-18T13:40:55Z</time>
      </trkpt>
      <trkpt lat="46.84329" lon="5.86793">
        <ele>682.2</ele>
        <time>2021-07-18T13:40:59Z</time>
      </trkpt>
      <trkpt lat="46.84325" lon="5.86796">
        <ele>683.3</ele>
        <time>2021-07-18T13:41:04Z</time>
      </trkpt>
      <trkpt lat="46.84321" lon="5.86801">
        <ele>685.2</ele>
        <time>2021-07-18T13:41:11Z</time>
      </trkpt>
      <trkpt lat="46.84319" lon="5.86808">
        <ele>686.8</ele>
        <time>2021-07-18T13:41:16Z</time>
      </trkpt>
      <trkpt lat="46.84315" lon="5.8681">
        <ele>688.8</ele>
        <time>2021-07-18T13:41:23Z</time>
      </trkpt>
      <trkpt lat="46.8431" lon="5.86809">
        <ele>690.2</ele>
        <time>2021-07-18T13:41:29Z</time>
      </trkpt>
      <trkpt lat="46.84305" lon="5.8681">
        <ele>690.7</ele>
        <time>2021-07-18T13:41:34Z</time>
      </trkpt>
      <trkpt lat="46.84301" lon="5.86812">
        <ele>691.1</ele>
        <time>2021-07-18T13:41:40Z</time>
      </trkpt>
      <trkpt lat="46.84296" lon="5.86811">
        <ele>691.4</ele>
        <time>2021-07-18T13:41:46Z</time>
      </trkpt>
      <trkpt lat="46.84291" lon="5.86812">
        <ele>691.4</ele>
        <time>2021-07-18T13:41:51Z</time>
      </trkpt>
      <trkpt lat="46.8429" lon="5.86805">
        <ele>690.6</ele>
        <time>2021-07-18T13:42:01Z</time>
      </trkpt>
      <trkpt lat="46.84295" lon="5.86803">
        <ele>689.5</ele>
        <time>2021-07-18T13:42:04Z</time>
      </trkpt>
      <trkpt lat="46.84299" lon="5.86802">
        <ele>688.2</ele>
        <time>2021-07-18T13:42:10Z</time>
      </trkpt>
      <trkpt lat="46.84301" lon="5.86795">
        <ele>686.7</ele>
        <time>2021-07-18T13:42:17Z</time>
      </trkpt>
      <trkpt lat="46.84301" lon="5.86788">
        <ele>684.9</ele>
        <time>2021-07-18T13:42:26Z</time>
      </trkpt>
      <trkpt lat="46.84301" lon="5.86794">
        <ele>688.1</ele>
        <time>2021-07-18T13:43:50Z</time>
      </trkpt>
      <trkpt lat="46.84298" lon="5.86788">
        <ele>688.6</ele>
        <time>2021-07-18T13:43:59Z</time>
      </trkpt>
      <trkpt lat="46.84293" lon="5.86785">
        <ele>688.3</ele>
        <time>2021-07-18T13:44:20Z</time>
      </trkpt>
      <trkpt lat="46.84289" lon="5.86787">
        <ele>689.9</ele>
        <time>2021-07-18T13:44:41Z</time>
      </trkpt>
      <trkpt lat="46.84288" lon="5.86781">
        <ele>689.9</ele>
        <time>2021-07-18T13:44:57Z</time>
      </trkpt>
      <trkpt lat="46.84291" lon="5.86776">
        <ele>689.3</ele>
        <time>2021-07-18T13:45:20Z</time>
      </trkpt>
      <trkpt lat="46.84293" lon="5.86782">
        <ele>687.2</ele>
        <time>2021-07-18T13:45:29Z</time>
      </trkpt>
      <trkpt lat="46.84289" lon="5.86785">
        <ele>687</ele>
        <time>2021-07-18T13:45:37Z</time>
      </trkpt>
      <trkpt lat="46.84293" lon="5.86789">
        <ele>687.9</ele>
        <time>2021-07-18T13:45:49Z</time>
      </trkpt>
      <trkpt lat="46.84292" lon="5.86796">
        <ele>686.9</ele>
        <time>2021-07-18T13:46:15Z</time>
      </trkpt>
      <trkpt lat="46.84294" lon="5.86803">
        <ele>686.2</ele>
        <time>2021-07-18T13:46:18Z</time>
      </trkpt>
      <trkpt lat="46.84294" lon="5.8681">
        <ele>685.6</ele>
        <time>2021-07-18T13:46:22Z</time>
      </trkpt>
      <trkpt lat="46.84294" lon="5.86818">
        <ele>685.7</ele>
        <time>2021-07-18T13:46:27Z</time>
      </trkpt>
      <trkpt lat="46.84294" lon="5.86824">
        <ele>685.3</ele>
        <time>2021-07-18T13:46:33Z</time>
      </trkpt>
      <trkpt lat="46.84298" lon="5.8683">
        <ele>682.8</ele>
        <time>2021-07-18T13:46:50Z</time>
      </trkpt>
      <trkpt lat="46.84298" lon="5.86837">
        <ele>681.1</ele>
        <time>2021-07-18T13:46:57Z</time>
      </trkpt>
      <trkpt lat="46.84299" lon="5.86845">
        <ele>680.2</ele>
        <time>2021-07-18T13:47:01Z</time>
      </trkpt>
      <trkpt lat="46.84298" lon="5.86854">
        <ele>679.3</ele>
        <time>2021-07-18T13:47:05Z</time>
      </trkpt>
      <trkpt lat="46.84296" lon="5.8686">
        <ele>678.7</ele>
        <time>2021-07-18T13:47:08Z</time>
      </trkpt>
      <trkpt lat="46.84295" lon="5.86867">
        <ele>678.5</ele>
        <time>2021-07-18T13:47:12Z</time>
      </trkpt>
      <trkpt lat="46.84294" lon="5.86874">
        <ele>678.6</ele>
        <time>2021-07-18T13:47:18Z</time>
      </trkpt>
      <trkpt lat="46.84293" lon="5.86881">
        <ele>679</ele>
        <time>2021-07-18T13:47:22Z</time>
      </trkpt>
      <trkpt lat="46.84294" lon="5.86889">
        <ele>679.9</ele>
        <time>2021-07-18T13:47:26Z</time>
      </trkpt>
      <trkpt lat="46.84291" lon="5.86895">
        <ele>681.5</ele>
        <time>2021-07-18T13:47:30Z</time>
      </trkpt>
      <trkpt lat="46.84289" lon="5.86901">
        <ele>683.2</ele>
        <time>2021-07-18T13:47:34Z</time>
      </trkpt>
      <trkpt lat="46.84286" lon="5.86908">
        <ele>684.9</ele>
        <time>2021-07-18T13:47:39Z</time>
      </trkpt>
      <trkpt lat="46.84282" lon="5.86914">
        <ele>686.4</ele>
        <time>2021-07-18T13:47:44Z</time>
      </trkpt>
      <trkpt lat="46.84281" lon="5.8692">
        <ele>689.5</ele>
        <time>2021-07-18T13:47:56Z</time>
      </trkpt>
      <trkpt lat="46.84281" lon="5.86928">
        <ele>690.4</ele>
        <time>2021-07-18T13:48:02Z</time>
      </trkpt>
      <trkpt lat="46.84279" lon="5.86935">
        <ele>690.6</ele>
        <time>2021-07-18T13:48:06Z</time>
      </trkpt>
      <trkpt lat="46.84279" lon="5.86943">
        <ele>691</ele>
        <time>2021-07-18T13:48:09Z</time>
      </trkpt>
      <trkpt lat="46.84277" lon="5.86949">
        <ele>691.2</ele>
        <time>2021-07-18T13:48:13Z</time>
      </trkpt>
      <trkpt lat="46.84273" lon="5.86953">
        <ele>689.8</ele>
        <time>2021-07-18T13:48:22Z</time>
      </trkpt>
      <trkpt lat="46.84269" lon="5.86954">
        <ele>688.6</ele>
        <time>2021-07-18T13:48:29Z</time>
      </trkpt>
      <trkpt lat="46.84265" lon="5.86958">
        <ele>688</ele>
        <time>2021-07-18T13:48:40Z</time>
      </trkpt>
      <trkpt lat="46.84262" lon="5.86963">
        <ele>686.9</ele>
        <time>2021-07-18T13:48:50Z</time>
      </trkpt>
      <trkpt lat="46.84258" lon="5.86968">
        <ele>686.3</ele>
        <time>2021-07-18T13:48:56Z</time>
      </trkpt>
      <trkpt lat="46.84256" lon="5.86974">
        <ele>685.8</ele>
        <time>2021-07-18T13:49:01Z</time>
      </trkpt>
      <trkpt lat="46.84255" lon="5.86981">
        <ele>685.6</ele>
        <time>2021-07-18T13:49:04Z</time>
      </trkpt>
      <trkpt lat="46.84254" lon="5.86988">
        <ele>685.5</ele>
        <time>2021-07-18T13:49:07Z</time>
      </trkpt>
      <trkpt lat="46.84252" lon="5.86995">
        <ele>685.3</ele>
        <time>2021-07-18T13:49:10Z</time>
      </trkpt>
      <trkpt lat="46.8425" lon="5.87001">
        <ele>685.2</ele>
        <time>2021-07-18T13:49:16Z</time>
      </trkpt>
      <trkpt lat="46.84245" lon="5.87003">
        <ele>685.1</ele>
        <time>2021-07-18T13:49:24Z</time>
      </trkpt>
      <trkpt lat="46.84241" lon="5.87006">
        <ele>684.8</ele>
        <time>2021-07-18T13:49:29Z</time>
      </trkpt>
      <trkpt lat="46.84237" lon="5.87013">
        <ele>684.5</ele>
        <time>2021-07-18T13:49:33Z</time>
      </trkpt>
      <trkpt lat="46.84235" lon="5.87019">
        <ele>683.8</ele>
        <time>2021-07-18T13:49:38Z</time>
      </trkpt>
      <trkpt lat="46.84232" lon="5.87024">
        <ele>683.2</ele>
        <time>2021-07-18T13:49:42Z</time>
      </trkpt>
      <trkpt lat="46.8423" lon="5.87031">
        <ele>682.6</ele>
        <time>2021-07-18T13:49:48Z</time>
      </trkpt>
      <trkpt lat="46.8423" lon="5.87038">
        <ele>682.6</ele>
        <time>2021-07-18T13:49:52Z</time>
      </trkpt>
      <trkpt lat="46.84226" lon="5.87043">
        <ele>682.9</ele>
        <time>2021-07-18T13:49:57Z</time>
      </trkpt>
      <trkpt lat="46.84223" lon="5.87047">
        <ele>684</ele>
        <time>2021-07-18T13:50:09Z</time>
      </trkpt>
      <trkpt lat="46.84218" lon="5.8705">
        <ele>683.4</ele>
        <time>2021-07-18T13:50:15Z</time>
      </trkpt>
      <trkpt lat="46.84213" lon="5.87053">
        <ele>683.1</ele>
        <time>2021-07-18T13:50:19Z</time>
      </trkpt>
      <trkpt lat="46.84209" lon="5.87057">
        <ele>683.1</ele>
        <time>2021-07-18T13:50:24Z</time>
      </trkpt>
      <trkpt lat="46.84207" lon="5.87063">
        <ele>683.2</ele>
        <time>2021-07-18T13:50:30Z</time>
      </trkpt>
      <trkpt lat="46.84204" lon="5.87069">
        <ele>683.4</ele>
        <time>2021-07-18T13:50:35Z</time>
      </trkpt>
      <trkpt lat="46.84201" lon="5.87076">
        <ele>682.3</ele>
        <time>2021-07-18T13:50:42Z</time>
      </trkpt>
      <trkpt lat="46.84197" lon="5.87081">
        <ele>681.8</ele>
        <time>2021-07-18T13:50:46Z</time>
      </trkpt>
      <trkpt lat="46.84194" lon="5.87086">
        <ele>681.1</ele>
        <time>2021-07-18T13:50:51Z</time>
      </trkpt>
      <trkpt lat="46.84194" lon="5.87094">
        <ele>680</ele>
        <time>2021-07-18T13:50:56Z</time>
      </trkpt>
      <trkpt lat="46.84194" lon="5.87101">
        <ele>679.3</ele>
        <time>2021-07-18T13:51:02Z</time>
      </trkpt>
      <trkpt lat="46.84191" lon="5.87106">
        <ele>679.4</ele>
        <time>2021-07-18T13:51:08Z</time>
      </trkpt>
      <trkpt lat="46.8419" lon="5.87113">
        <ele>678.7</ele>
        <time>2021-07-18T13:51:16Z</time>
      </trkpt>
      <trkpt lat="46.84191" lon="5.8712">
        <ele>678.6</ele>
        <time>2021-07-18T13:51:19Z</time>
      </trkpt>
      <trkpt lat="46.84191" lon="5.87128">
        <ele>678.6</ele>
        <time>2021-07-18T13:51:23Z</time>
      </trkpt>
      <trkpt lat="46.84191" lon="5.87135">
        <ele>679.2</ele>
        <time>2021-07-18T13:51:26Z</time>
      </trkpt>
      <trkpt lat="46.84193" lon="5.87142">
        <ele>680.1</ele>
        <time>2021-07-18T13:51:29Z</time>
      </trkpt>
      <trkpt lat="46.84195" lon="5.87149">
        <ele>680.5</ele>
        <time>2021-07-18T13:51:35Z</time>
      </trkpt>
      <trkpt lat="46.84192" lon="5.87155">
        <ele>678.4</ele>
        <time>2021-07-18T13:51:47Z</time>
      </trkpt>
      <trkpt lat="46.84191" lon="5.87162">
        <ele>678.4</ele>
        <time>2021-07-18T13:51:50Z</time>
      </trkpt>
      <trkpt lat="46.84189" lon="5.87171">
        <ele>678.6</ele>
        <time>2021-07-18T13:51:53Z</time>
      </trkpt>
      <trkpt lat="46.84188" lon="5.87178">
        <ele>679</ele>
        <time>2021-07-18T13:51:56Z</time>
      </trkpt>
      <trkpt lat="46.84186" lon="5.87185">
        <ele>679.4</ele>
        <time>2021-07-18T13:52:00Z</time>
      </trkpt>
      <trkpt lat="46.84185" lon="5.87192">
        <ele>679.6</ele>
        <time>2021-07-18T13:52:05Z</time>
      </trkpt>
      <trkpt lat="46.84185" lon="5.87199">
        <ele>679.9</ele>
        <time>2021-07-18T13:52:11Z</time>
      </trkpt>
      <trkpt lat="46.84185" lon="5.87206">
        <ele>680.4</ele>
        <time>2021-07-18T13:52:17Z</time>
      </trkpt>
      <trkpt lat="46.8418" lon="5.87215">
        <ele>679.9</ele>
        <time>2021-07-18T13:52:30Z</time>
      </trkpt>
      <trkpt lat="46.84176" lon="5.87222">
        <ele>679.9</ele>
        <time>2021-07-18T13:52:34Z</time>
      </trkpt>
      <trkpt lat="46.84174" lon="5.8723">
        <ele>680.1</ele>
        <time>2021-07-18T13:52:37Z</time>
      </trkpt>
      <trkpt lat="46.8417" lon="5.8724">
        <ele>680.9</ele>
        <time>2021-07-18T13:52:40Z</time>
      </trkpt>
      <trkpt lat="46.84167" lon="5.87246">
        <ele>681.9</ele>
        <time>2021-07-18T13:52:43Z</time>
      </trkpt>
      <trkpt lat="46.84162" lon="5.87252">
        <ele>683.2</ele>
        <time>2021-07-18T13:52:47Z</time>
      </trkpt>
      <trkpt lat="46.84159" lon="5.87257">
        <ele>684.1</ele>
        <time>2021-07-18T13:52:50Z</time>
      </trkpt>
      <trkpt lat="46.84154" lon="5.8726">
        <ele>685.3</ele>
        <time>2021-07-18T13:52:54Z</time>
      </trkpt>
      <trkpt lat="46.84152" lon="5.87266">
        <ele>685.3</ele>
        <time>2021-07-18T13:53:02Z</time>
      </trkpt>
      <trkpt lat="46.8415" lon="5.87273">
        <ele>684.7</ele>
        <time>2021-07-18T13:53:26Z</time>
      </trkpt>
      <trkpt lat="46.84148" lon="5.87279">
        <ele>684.4</ele>
        <time>2021-07-18T13:53:32Z</time>
      </trkpt>
      <trkpt lat="46.84144" lon="5.87283">
        <ele>683.3</ele>
        <time>2021-07-18T13:53:40Z</time>
      </trkpt>
      <trkpt lat="46.84141" lon="5.8729">
        <ele>682.2</ele>
        <time>2021-07-18T13:53:47Z</time>
      </trkpt>
      <trkpt lat="46.84139" lon="5.87296">
        <ele>682.3</ele>
        <time>2021-07-18T13:53:51Z</time>
      </trkpt>
      <trkpt lat="46.84136" lon="5.87302">
        <ele>682.4</ele>
        <time>2021-07-18T13:53:57Z</time>
      </trkpt>
      <trkpt lat="46.84133" lon="5.87308">
        <ele>681.7</ele>
        <time>2021-07-18T13:54:04Z</time>
      </trkpt>
      <trkpt lat="46.8413" lon="5.87314">
        <ele>681.8</ele>
        <time>2021-07-18T13:54:08Z</time>
      </trkpt>
      <trkpt lat="46.84125" lon="5.87317">
        <ele>680.5</ele>
        <time>2021-07-18T13:54:14Z</time>
      </trkpt>
      <trkpt lat="46.8412" lon="5.87319">
        <ele>679.3</ele>
        <time>2021-07-18T13:54:18Z</time>
      </trkpt>
      <trkpt lat="46.84115" lon="5.8732">
        <ele>678.5</ele>
        <time>2021-07-18T13:54:23Z</time>
      </trkpt>
      <trkpt lat="46.8411" lon="5.8732">
        <ele>678.4</ele>
        <time>2021-07-18T13:54:27Z</time>
      </trkpt>
      <trkpt lat="46.84105" lon="5.87317">
        <ele>678.4</ele>
        <time>2021-07-18T13:54:31Z</time>
      </trkpt>
      <trkpt lat="46.84099" lon="5.87319">
        <ele>678.9</ele>
        <time>2021-07-18T13:54:35Z</time>
      </trkpt>
      <trkpt lat="46.84094" lon="5.87319">
        <ele>679.5</ele>
        <time>2021-07-18T13:54:39Z</time>
      </trkpt>
      <trkpt lat="46.84089" lon="5.8732">
        <ele>680.1</ele>
        <time>2021-07-18T13:54:43Z</time>
      </trkpt>
      <trkpt lat="46.84084" lon="5.8732">
        <ele>680.8</ele>
        <time>2021-07-18T13:54:47Z</time>
      </trkpt>
      <trkpt lat="46.8408" lon="5.87323">
        <ele>681.4</ele>
        <time>2021-07-18T13:54:52Z</time>
      </trkpt>
      <trkpt lat="46.84076" lon="5.87328">
        <ele>681.7</ele>
        <time>2021-07-18T13:54:58Z</time>
      </trkpt>
      <trkpt lat="46.84072" lon="5.87334">
        <ele>681.9</ele>
        <time>2021-07-18T13:55:03Z</time>
      </trkpt>
      <trkpt lat="46.84068" lon="5.87339">
        <ele>682.2</ele>
        <time>2021-07-18T13:55:09Z</time>
      </trkpt>
      <trkpt lat="46.84064" lon="5.87343">
        <ele>682.2</ele>
        <time>2021-07-18T13:55:14Z</time>
      </trkpt>
      <trkpt lat="46.84069" lon="5.87341">
        <ele>676.9</ele>
        <time>2021-07-18T13:55:34Z</time>
      </trkpt>
      <trkpt lat="46.84075" lon="5.87341">
        <ele>675.2</ele>
        <time>2021-07-18T13:55:40Z</time>
      </trkpt>
      <trkpt lat="46.8408" lon="5.87342">
        <ele>674</ele>
        <time>2021-07-18T13:55:44Z</time>
      </trkpt>
      <trkpt lat="46.84084" lon="5.87346">
        <ele>672.7</ele>
        <time>2021-07-18T13:55:48Z</time>
      </trkpt>
      <trkpt lat="46.84089" lon="5.87348">
        <ele>671.4</ele>
        <time>2021-07-18T13:55:52Z</time>
      </trkpt>
      <trkpt lat="46.84095" lon="5.87347">
        <ele>670.5</ele>
        <time>2021-07-18T13:55:56Z</time>
      </trkpt>
      <trkpt lat="46.841" lon="5.87345">
        <ele>669.6</ele>
        <time>2021-07-18T13:56:00Z</time>
      </trkpt>
      <trkpt lat="46.84105" lon="5.87344">
        <ele>669</ele>
        <time>2021-07-18T13:56:04Z</time>
      </trkpt>
      <trkpt lat="46.8411" lon="5.87343">
        <ele>668.3</ele>
        <time>2021-07-18T13:56:08Z</time>
      </trkpt>
      <trkpt lat="46.84115" lon="5.87343">
        <ele>667.6</ele>
        <time>2021-07-18T13:56:13Z</time>
      </trkpt>
      <trkpt lat="46.8412" lon="5.87343">
        <ele>666.4</ele>
        <time>2021-07-18T13:56:19Z</time>
      </trkpt>
      <trkpt lat="46.84124" lon="5.87344">
        <ele>665.4</ele>
        <time>2021-07-18T13:56:23Z</time>
      </trkpt>
      <trkpt lat="46.8413" lon="5.87344">
        <ele>664.9</ele>
        <time>2021-07-18T13:56:27Z</time>
      </trkpt>
      <trkpt lat="46.84135" lon="5.87345">
        <ele>664.5</ele>
        <time>2021-07-18T13:56:33Z</time>
      </trkpt>
      <trkpt lat="46.8414" lon="5.87347">
        <ele>664.8</ele>
        <time>2021-07-18T13:56:36Z</time>
      </trkpt>
      <trkpt lat="46.84145" lon="5.87346">
        <ele>665.5</ele>
        <time>2021-07-18T13:56:39Z</time>
      </trkpt>
      <trkpt lat="46.8415" lon="5.87346">
        <ele>666.4</ele>
        <time>2021-07-18T13:56:42Z</time>
      </trkpt>
      <trkpt lat="46.84155" lon="5.87348">
        <ele>668</ele>
        <time>2021-07-18T13:56:46Z</time>
      </trkpt>
      <trkpt lat="46.8416" lon="5.87347">
        <ele>669.6</ele>
        <time>2021-07-18T13:56:51Z</time>
      </trkpt>
      <trkpt lat="46.84164" lon="5.87347">
        <ele>670.4</ele>
        <time>2021-07-18T13:56:54Z</time>
      </trkpt>
      <trkpt lat="46.8417" lon="5.87348">
        <ele>672</ele>
        <time>2021-07-18T13:56:58Z</time>
      </trkpt>
      <trkpt lat="46.84176" lon="5.87347">
        <ele>673.7</ele>
        <time>2021-07-18T13:57:02Z</time>
      </trkpt>
      <trkpt lat="46.84181" lon="5.87347">
        <ele>674.9</ele>
        <time>2021-07-18T13:57:05Z</time>
      </trkpt>
      <trkpt lat="46.84185" lon="5.87351">
        <ele>676.8</ele>
        <time>2021-07-18T13:57:10Z</time>
      </trkpt>
      <trkpt lat="46.8419" lon="5.87355">
        <ele>678.4</ele>
        <time>2021-07-18T13:57:15Z</time>
      </trkpt>
      <trkpt lat="46.84194" lon="5.87357">
        <ele>679.2</ele>
        <time>2021-07-18T13:57:18Z</time>
      </trkpt>
      <trkpt lat="46.842" lon="5.8736">
        <ele>680.4</ele>
        <time>2021-07-18T13:57:22Z</time>
      </trkpt>
      <trkpt lat="46.84204" lon="5.87364">
        <ele>681.6</ele>
        <time>2021-07-18T13:57:26Z</time>
      </trkpt>
      <trkpt lat="46.84204" lon="5.87371">
        <ele>682.2</ele>
        <time>2021-07-18T13:57:31Z</time>
      </trkpt>
      <trkpt lat="46.84203" lon="5.87378">
        <ele>683.1</ele>
        <time>2021-07-18T13:57:39Z</time>
      </trkpt>
      <trkpt lat="46.842" lon="5.87386">
        <ele>683.8</ele>
        <time>2021-07-18T13:57:43Z</time>
      </trkpt>
      <trkpt lat="46.84196" lon="5.87391">
        <ele>684.5</ele>
        <time>2021-07-18T13:57:47Z</time>
      </trkpt>
      <trkpt lat="46.84196" lon="5.87398">
        <ele>685.6</ele>
        <time>2021-07-18T13:57:53Z</time>
      </trkpt>
      <trkpt lat="46.84193" lon="5.87404">
        <ele>685.5</ele>
        <time>2021-07-18T13:57:57Z</time>
      </trkpt>
      <trkpt lat="46.8419" lon="5.87409">
        <ele>684.7</ele>
        <time>2021-07-18T13:58:02Z</time>
      </trkpt>
      <trkpt lat="46.8419" lon="5.87416">
        <ele>684.4</ele>
        <time>2021-07-18T13:58:09Z</time>
      </trkpt>
      <trkpt lat="46.84186" lon="5.87421">
        <ele>682.8</ele>
        <time>2021-07-18T13:58:19Z</time>
      </trkpt>
      <trkpt lat="46.84182" lon="5.87426">
        <ele>681</ele>
        <time>2021-07-18T13:58:25Z</time>
      </trkpt>
      <trkpt lat="46.84179" lon="5.87431">
        <ele>680.1</ele>
        <time>2021-07-18T13:58:30Z</time>
      </trkpt>
      <trkpt lat="46.84175" lon="5.87436">
        <ele>679.5</ele>
        <time>2021-07-18T13:58:36Z</time>
      </trkpt>
      <trkpt lat="46.8417" lon="5.8744">
        <ele>678.9</ele>
        <time>2021-07-18T13:58:43Z</time>
      </trkpt>
      <trkpt lat="46.84166" lon="5.87444">
        <ele>678.4</ele>
        <time>2021-07-18T13:58:48Z</time>
      </trkpt>
      <trkpt lat="46.84165" lon="5.87451">
        <ele>678.4</ele>
        <time>2021-07-18T13:58:53Z</time>
      </trkpt>
      <trkpt lat="46.84163" lon="5.87458">
        <ele>678.3</ele>
        <time>2021-07-18T13:58:59Z</time>
      </trkpt>
      <trkpt lat="46.84161" lon="5.87464">
        <ele>678</ele>
        <time>2021-07-18T13:59:04Z</time>
      </trkpt>
      <trkpt lat="46.84159" lon="5.87471">
        <ele>676.6</ele>
        <time>2021-07-18T13:59:14Z</time>
      </trkpt>
      <trkpt lat="46.8416" lon="5.87477">
        <ele>676.3</ele>
        <time>2021-07-18T13:59:18Z</time>
      </trkpt>
      <trkpt lat="46.84157" lon="5.87484">
        <ele>675.9</ele>
        <time>2021-07-18T13:59:23Z</time>
      </trkpt>
      <trkpt lat="46.84155" lon="5.87492">
        <ele>676.1</ele>
        <time>2021-07-18T13:59:27Z</time>
      </trkpt>
      <trkpt lat="46.84154" lon="5.87499">
        <ele>676.8</ele>
        <time>2021-07-18T13:59:31Z</time>
      </trkpt>
      <trkpt lat="46.84152" lon="5.87505">
        <ele>677.5</ele>
        <time>2021-07-18T13:59:35Z</time>
      </trkpt>
      <trkpt lat="46.84151" lon="5.87512">
        <ele>677.8</ele>
        <time>2021-07-18T13:59:41Z</time>
      </trkpt>
      <trkpt lat="46.84151" lon="5.87519">
        <ele>676.5</ele>
        <time>2021-07-18T13:59:50Z</time>
      </trkpt>
      <trkpt lat="46.84151" lon="5.87526">
        <ele>675.9</ele>
        <time>2021-07-18T13:59:54Z</time>
      </trkpt>
      <trkpt lat="46.84152" lon="5.87534">
        <ele>675.1</ele>
        <time>2021-07-18T14:00:00Z</time>
      </trkpt>
      <trkpt lat="46.84153" lon="5.8754">
        <ele>674.2</ele>
        <time>2021-07-18T14:00:04Z</time>
      </trkpt>
      <trkpt lat="46.84155" lon="5.87548">
        <ele>673.3</ele>
        <time>2021-07-18T14:00:09Z</time>
      </trkpt>
      <trkpt lat="46.84157" lon="5.87555">
        <ele>673.2</ele>
        <time>2021-07-18T14:00:12Z</time>
      </trkpt>
      <trkpt lat="46.84158" lon="5.87562">
        <ele>673.3</ele>
        <time>2021-07-18T14:00:16Z</time>
      </trkpt>
      <trkpt lat="46.84161" lon="5.87568">
        <ele>673.4</ele>
        <time>2021-07-18T14:00:20Z</time>
      </trkpt>
      <trkpt lat="46.84164" lon="5.87573">
        <ele>673.4</ele>
        <time>2021-07-18T14:00:26Z</time>
      </trkpt>
      <trkpt lat="46.84168" lon="5.87578">
        <ele>673.4</ele>
        <time>2021-07-18T14:00:32Z</time>
      </trkpt>
      <trkpt lat="46.84168" lon="5.87585">
        <ele>672.6</ele>
        <time>2021-07-18T14:00:39Z</time>
      </trkpt>
      <trkpt lat="46.84169" lon="5.87592">
        <ele>672.3</ele>
        <time>2021-07-18T14:00:49Z</time>
      </trkpt>
      <trkpt lat="46.84173" lon="5.87597">
        <ele>671.8</ele>
        <time>2021-07-18T14:00:53Z</time>
      </trkpt>
      <trkpt lat="46.84175" lon="5.87603">
        <ele>671</ele>
        <time>2021-07-18T14:00:58Z</time>
      </trkpt>
      <trkpt lat="46.84178" lon="5.87609">
        <ele>670.3</ele>
        <time>2021-07-18T14:01:03Z</time>
      </trkpt>
      <trkpt lat="46.84179" lon="5.87617">
        <ele>669.8</ele>
        <time>2021-07-18T14:01:13Z</time>
      </trkpt>
      <trkpt lat="46.8418" lon="5.87623">
        <ele>669.4</ele>
        <time>2021-07-18T14:01:19Z</time>
      </trkpt>
      <trkpt lat="46.8418" lon="5.8763">
        <ele>669</ele>
        <time>2021-07-18T14:01:24Z</time>
      </trkpt>
      <trkpt lat="46.84181" lon="5.87637">
        <ele>668.4</ele>
        <time>2021-07-18T14:01:28Z</time>
      </trkpt>
      <trkpt lat="46.84183" lon="5.87643">
        <ele>666.9</ele>
        <time>2021-07-18T14:01:36Z</time>
      </trkpt>
      <trkpt lat="46.84186" lon="5.87648">
        <ele>666.3</ele>
        <time>2021-07-18T14:01:42Z</time>
      </trkpt>
      <trkpt lat="46.8419" lon="5.87653">
        <ele>663.7</ele>
        <time>2021-07-18T14:01:55Z</time>
      </trkpt>
      <trkpt lat="46.8419" lon="5.8766">
        <ele>663</ele>
        <time>2021-07-18T14:01:59Z</time>
      </trkpt>
      <trkpt lat="46.84192" lon="5.87667">
        <ele>662.5</ele>
        <time>2021-07-18T14:02:03Z</time>
      </trkpt>
      <trkpt lat="46.84194" lon="5.87675">
        <ele>662.1</ele>
        <time>2021-07-18T14:02:13Z</time>
      </trkpt>
      <trkpt lat="46.84196" lon="5.87683">
        <ele>662.2</ele>
        <time>2021-07-18T14:02:17Z</time>
      </trkpt>
      <trkpt lat="46.84201" lon="5.87685">
        <ele>662.3</ele>
        <time>2021-07-18T14:02:20Z</time>
      </trkpt>
      <trkpt lat="46.84205" lon="5.87688">
        <ele>662.3</ele>
        <time>2021-07-18T14:02:24Z</time>
      </trkpt>
      <trkpt lat="46.84209" lon="5.87692">
        <ele>661.9</ele>
        <time>2021-07-18T14:02:30Z</time>
      </trkpt>
      <trkpt lat="46.84213" lon="5.87697">
        <ele>661.2</ele>
        <time>2021-07-18T14:02:35Z</time>
      </trkpt>
      <trkpt lat="46.84215" lon="5.87703">
        <ele>660.6</ele>
        <time>2021-07-18T14:02:42Z</time>
      </trkpt>
      <trkpt lat="46.84214" lon="5.87709">
        <ele>660.3</ele>
        <time>2021-07-18T14:02:51Z</time>
      </trkpt>
      <trkpt lat="46.84217" lon="5.87716">
        <ele>661.1</ele>
        <time>2021-07-18T14:02:57Z</time>
      </trkpt>
      <trkpt lat="46.84221" lon="5.87721">
        <ele>661.6</ele>
        <time>2021-07-18T14:03:00Z</time>
      </trkpt>
      <trkpt lat="46.84225" lon="5.87725">
        <ele>662.1</ele>
        <time>2021-07-18T14:03:03Z</time>
      </trkpt>
      <trkpt lat="46.8423" lon="5.87728">
        <ele>662.7</ele>
        <time>2021-07-18T14:03:07Z</time>
      </trkpt>
      <trkpt lat="46.84235" lon="5.87729">
        <ele>663.8</ele>
        <time>2021-07-18T14:03:11Z</time>
      </trkpt>
      <trkpt lat="46.8424" lon="5.87732">
        <ele>665.1</ele>
        <time>2021-07-18T14:03:16Z</time>
      </trkpt>
      <trkpt lat="46.8424" lon="5.87739">
        <ele>666.8</ele>
        <time>2021-07-18T14:03:24Z</time>
      </trkpt>
      <trkpt lat="46.84239" lon="5.87747">
        <ele>666.9</ele>
        <time>2021-07-18T14:03:30Z</time>
      </trkpt>
      <trkpt lat="46.84239" lon="5.87754">
        <ele>666.9</ele>
        <time>2021-07-18T14:03:34Z</time>
      </trkpt>
      <trkpt lat="46.8424" lon="5.8776">
        <ele>667</ele>
        <time>2021-07-18T14:03:38Z</time>
      </trkpt>
      <trkpt lat="46.84239" lon="5.87767">
        <ele>667.1</ele>
        <time>2021-07-18T14:03:43Z</time>
      </trkpt>
      <trkpt lat="46.84241" lon="5.87774">
        <ele>667.4</ele>
        <time>2021-07-18T14:03:48Z</time>
      </trkpt>
      <trkpt lat="46.84241" lon="5.87781">
        <ele>668.2</ele>
        <time>2021-07-18T14:03:51Z</time>
      </trkpt>
      <trkpt lat="46.84242" lon="5.87789">
        <ele>669.1</ele>
        <time>2021-07-18T14:03:54Z</time>
      </trkpt>
      <trkpt lat="46.84238" lon="5.87794">
        <ele>669.8</ele>
        <time>2021-07-18T14:04:02Z</time>
      </trkpt>
      <trkpt lat="46.84234" lon="5.87796">
        <ele>669.2</ele>
        <time>2021-07-18T14:04:09Z</time>
      </trkpt>
      <trkpt lat="46.84233" lon="5.87804">
        <ele>667.9</ele>
        <time>2021-07-18T14:04:15Z</time>
      </trkpt>
      <trkpt lat="46.84232" lon="5.87812">
        <ele>667.4</ele>
        <time>2021-07-18T14:04:18Z</time>
      </trkpt>
      <trkpt lat="46.8423" lon="5.87819">
        <ele>666.6</ele>
        <time>2021-07-18T14:04:21Z</time>
      </trkpt>
      <trkpt lat="46.84228" lon="5.87825">
        <ele>665.5</ele>
        <time>2021-07-18T14:04:25Z</time>
      </trkpt>
      <trkpt lat="46.84228" lon="5.87832">
        <ele>664.2</ele>
        <time>2021-07-18T14:04:30Z</time>
      </trkpt>
      <trkpt lat="46.84233" lon="5.87829">
        <ele>661.9</ele>
        <time>2021-07-18T14:04:47Z</time>
      </trkpt>
      <trkpt lat="46.84237" lon="5.87826">
        <ele>660.7</ele>
        <time>2021-07-18T14:04:56Z</time>
      </trkpt>
      <trkpt lat="46.8424" lon="5.87832">
        <ele>658.9</ele>
        <time>2021-07-18T14:05:04Z</time>
      </trkpt>
      <trkpt lat="46.84244" lon="5.87833">
        <ele>657.5</ele>
        <time>2021-07-18T14:05:10Z</time>
      </trkpt>
      <trkpt lat="46.84247" lon="5.87839">
        <ele>656.4</ele>
        <time>2021-07-18T14:05:21Z</time>
      </trkpt>
      <trkpt lat="46.84242" lon="5.87837">
        <ele>658.5</ele>
        <time>2021-07-18T14:06:02Z</time>
      </trkpt>
      <trkpt lat="46.8424" lon="5.87843">
        <ele>657.9</ele>
        <time>2021-07-18T14:06:12Z</time>
      </trkpt>
      <trkpt lat="46.84243" lon="5.87849">
        <ele>658.6</ele>
        <time>2021-07-18T14:06:39Z</time>
      </trkpt>
      <trkpt lat="46.84248" lon="5.87848">
        <ele>662.4</ele>
        <time>2021-07-18T14:07:01Z</time>
      </trkpt>
      <trkpt lat="46.84247" lon="5.87855">
        <ele>664.3</ele>
        <time>2021-07-18T14:07:31Z</time>
      </trkpt>
      <trkpt lat="46.84248" lon="5.87848">
        <ele>665.8</ele>
        <time>2021-07-18T14:07:47Z</time>
      </trkpt>
      <trkpt lat="46.84244" lon="5.87852">
        <ele>670</ele>
        <time>2021-07-18T14:08:10Z</time>
      </trkpt>
      <trkpt lat="46.84248" lon="5.87853">
        <ele>671.1</ele>
        <time>2021-07-18T14:08:54Z</time>
      </trkpt>
      <trkpt lat="46.84244" lon="5.87852">
        <ele>670.1</ele>
        <time>2021-07-18T14:09:15Z</time>
      </trkpt>
      <trkpt lat="46.84239" lon="5.87851">
        <ele>670.9</ele>
        <time>2021-07-18T14:09:25Z</time>
      </trkpt>
      <trkpt lat="46.84243" lon="5.87853">
        <ele>676.1</ele>
        <time>2021-07-18T14:10:21Z</time>
      </trkpt>
      <trkpt lat="46.84238" lon="5.87854">
        <ele>681</ele>
        <time>2021-07-18T14:10:42Z</time>
      </trkpt>
      <trkpt lat="46.84243" lon="5.8785">
        <ele>681.4</ele>
        <time>2021-07-18T14:10:53Z</time>
      </trkpt>
      <trkpt lat="46.84249" lon="5.87849">
        <ele>679.6</ele>
        <time>2021-07-18T14:10:57Z</time>
      </trkpt>
      <trkpt lat="46.84254" lon="5.87849">
        <ele>677.9</ele>
        <time>2021-07-18T14:11:01Z</time>
      </trkpt>
      <trkpt lat="46.84258" lon="5.87853">
        <ele>676.5</ele>
        <time>2021-07-18T14:11:05Z</time>
      </trkpt>
      <trkpt lat="46.84261" lon="5.87858">
        <ele>675.6</ele>
        <time>2021-07-18T14:11:08Z</time>
      </trkpt>
      <trkpt lat="46.84265" lon="5.87863">
        <ele>674.9</ele>
        <time>2021-07-18T14:11:11Z</time>
      </trkpt>
      <trkpt lat="46.84269" lon="5.87867">
        <ele>674.2</ele>
        <time>2021-07-18T14:11:15Z</time>
      </trkpt>
      <trkpt lat="46.84273" lon="5.8787">
        <ele>673.4</ele>
        <time>2021-07-18T14:11:19Z</time>
      </trkpt>
      <trkpt lat="46.84277" lon="5.87874">
        <ele>670.9</ele>
        <time>2021-07-18T14:11:30Z</time>
      </trkpt>
      <trkpt lat="46.84282" lon="5.87876">
        <ele>670.9</ele>
        <time>2021-07-18T14:11:34Z</time>
      </trkpt>
      <trkpt lat="46.84288" lon="5.87875">
        <ele>670.4</ele>
        <time>2021-07-18T14:11:41Z</time>
      </trkpt>
      <trkpt lat="46.84292" lon="5.87877">
        <ele>669.7</ele>
        <time>2021-07-18T14:11:47Z</time>
      </trkpt>
      <trkpt lat="46.84297" lon="5.87878">
        <ele>668.2</ele>
        <time>2021-07-18T14:11:57Z</time>
      </trkpt>
      <trkpt lat="46.84301" lon="5.87883">
        <ele>667.8</ele>
        <time>2021-07-18T14:12:03Z</time>
      </trkpt>
      <trkpt lat="46.84306" lon="5.87885">
        <ele>667.6</ele>
        <time>2021-07-18T14:12:07Z</time>
      </trkpt>
      <trkpt lat="46.84311" lon="5.87887">
        <ele>667.2</ele>
        <time>2021-07-18T14:12:11Z</time>
      </trkpt>
      <trkpt lat="46.84316" lon="5.87889">
        <ele>666.4</ele>
        <time>2021-07-18T14:12:15Z</time>
      </trkpt>
      <trkpt lat="46.8432" lon="5.87893">
        <ele>665.2</ele>
        <time>2021-07-18T14:12:20Z</time>
      </trkpt>
      <trkpt lat="46.84325" lon="5.87896">
        <ele>664.5</ele>
        <time>2021-07-18T14:12:24Z</time>
      </trkpt>
      <trkpt lat="46.84329" lon="5.87897">
        <ele>664.6</ele>
        <time>2021-07-18T14:12:27Z</time>
      </trkpt>
      <trkpt lat="46.84335" lon="5.87898">
        <ele>665.5</ele>
        <time>2021-07-18T14:12:31Z</time>
      </trkpt>
      <trkpt lat="46.8434" lon="5.879">
        <ele>667.1</ele>
        <time>2021-07-18T14:12:35Z</time>
      </trkpt>
      <trkpt lat="46.84345" lon="5.87901">
        <ele>668.4</ele>
        <time>2021-07-18T14:12:40Z</time>
      </trkpt>
      <trkpt lat="46.84349" lon="5.87905">
        <ele>669.1</ele>
        <time>2021-07-18T14:12:44Z</time>
      </trkpt>
      <trkpt lat="46.8435" lon="5.87911">
        <ele>669.5</ele>
        <time>2021-07-18T14:12:47Z</time>
      </trkpt>
      <trkpt lat="46.84353" lon="5.87916">
        <ele>670.3</ele>
        <time>2021-07-18T14:12:51Z</time>
      </trkpt>
      <trkpt lat="46.84354" lon="5.87923">
        <ele>671.5</ele>
        <time>2021-07-18T14:12:56Z</time>
      </trkpt>
      <trkpt lat="46.84355" lon="5.8793">
        <ele>672.1</ele>
        <time>2021-07-18T14:13:01Z</time>
      </trkpt>
      <trkpt lat="46.84358" lon="5.87938">
        <ele>672.9</ele>
        <time>2021-07-18T14:13:06Z</time>
      </trkpt>
      <trkpt lat="46.84361" lon="5.87945">
        <ele>674.1</ele>
        <time>2021-07-18T14:13:09Z</time>
      </trkpt>
      <trkpt lat="46.84363" lon="5.87952">
        <ele>676.2</ele>
        <time>2021-07-18T14:13:13Z</time>
      </trkpt>
      <trkpt lat="46.84364" lon="5.87959">
        <ele>678.3</ele>
        <time>2021-07-18T14:13:18Z</time>
      </trkpt>
      <trkpt lat="46.84361" lon="5.87965">
        <ele>679</ele>
        <time>2021-07-18T14:13:23Z</time>
      </trkpt>
      <trkpt lat="46.8436" lon="5.87971">
        <ele>679.3</ele>
        <time>2021-07-18T14:13:28Z</time>
      </trkpt>
      <trkpt lat="46.84362" lon="5.87978">
        <ele>679.8</ele>
        <time>2021-07-18T14:13:33Z</time>
      </trkpt>
      <trkpt lat="46.84364" lon="5.87984">
        <ele>680.1</ele>
        <time>2021-07-18T14:13:37Z</time>
      </trkpt>
      <trkpt lat="46.84369" lon="5.87985">
        <ele>680.4</ele>
        <time>2021-07-18T14:13:41Z</time>
      </trkpt>
      <trkpt lat="46.84375" lon="5.87984">
        <ele>680.6</ele>
        <time>2021-07-18T14:13:44Z</time>
      </trkpt>
      <trkpt lat="46.8438" lon="5.87984">
        <ele>681.1</ele>
        <time>2021-07-18T14:13:47Z</time>
      </trkpt>
      <trkpt lat="46.84385" lon="5.87986">
        <ele>681.6</ele>
        <time>2021-07-18T14:13:50Z</time>
      </trkpt>
      <trkpt lat="46.84391" lon="5.87985">
        <ele>682.4</ele>
        <time>2021-07-18T14:13:53Z</time>
      </trkpt>
      <trkpt lat="46.84396" lon="5.87985">
        <ele>683.3</ele>
        <time>2021-07-18T14:13:57Z</time>
      </trkpt>
      <trkpt lat="46.84401" lon="5.87984">
        <ele>683.7</ele>
        <time>2021-07-18T14:14:02Z</time>
      </trkpt>
      <trkpt lat="46.84405" lon="5.87984">
        <ele>684</ele>
        <time>2021-07-18T14:14:08Z</time>
      </trkpt>
      <trkpt lat="46.84407" lon="5.87991">
        <ele>684.6</ele>
        <time>2021-07-18T14:14:15Z</time>
      </trkpt>
      <trkpt lat="46.84407" lon="5.87999">
        <ele>685.2</ele>
        <time>2021-07-18T14:14:19Z</time>
      </trkpt>
      <trkpt lat="46.84409" lon="5.88006">
        <ele>686.3</ele>
        <time>2021-07-18T14:14:25Z</time>
      </trkpt>
      <trkpt lat="46.8441" lon="5.88013">
        <ele>686.7</ele>
        <time>2021-07-18T14:14:30Z</time>
      </trkpt>
      <trkpt lat="46.84411" lon="5.8802">
        <ele>686.7</ele>
        <time>2021-07-18T14:14:34Z</time>
      </trkpt>
      <trkpt lat="46.84412" lon="5.88028">
        <ele>685.7</ele>
        <time>2021-07-18T14:14:39Z</time>
      </trkpt>
      <trkpt lat="46.84416" lon="5.88034">
        <ele>685</ele>
        <time>2021-07-18T14:14:43Z</time>
      </trkpt>
      <trkpt lat="46.8442" lon="5.88039">
        <ele>685</ele>
        <time>2021-07-18T14:14:46Z</time>
      </trkpt>
      <trkpt lat="46.84423" lon="5.88045">
        <ele>685.4</ele>
        <time>2021-07-18T14:14:50Z</time>
      </trkpt>
      <trkpt lat="46.84426" lon="5.88051">
        <ele>686.4</ele>
        <time>2021-07-18T14:14:54Z</time>
      </trkpt>
      <trkpt lat="46.84429" lon="5.88056">
        <ele>687.2</ele>
        <time>2021-07-18T14:14:58Z</time>
      </trkpt>
      <trkpt lat="46.84432" lon="5.88061">
        <ele>688</ele>
        <time>2021-07-18T14:15:03Z</time>
      </trkpt>
      <trkpt lat="46.84435" lon="5.88067">
        <ele>688.7</ele>
        <time>2021-07-18T14:15:07Z</time>
      </trkpt>
      <trkpt lat="46.84436" lon="5.88073">
        <ele>688.9</ele>
        <time>2021-07-18T14:15:10Z</time>
      </trkpt>
      <trkpt lat="46.84439" lon="5.88078">
        <ele>689.7</ele>
        <time>2021-07-18T14:15:14Z</time>
      </trkpt>
      <trkpt lat="46.84443" lon="5.88082">
        <ele>690.2</ele>
        <time>2021-07-18T14:15:18Z</time>
      </trkpt>
      <trkpt lat="46.84447" lon="5.88088">
        <ele>690.6</ele>
        <time>2021-07-18T14:15:23Z</time>
      </trkpt>
      <trkpt lat="46.84449" lon="5.88096">
        <ele>692</ele>
        <time>2021-07-18T14:15:28Z</time>
      </trkpt>
      <trkpt lat="46.84452" lon="5.88101">
        <ele>693.3</ele>
        <time>2021-07-18T14:15:32Z</time>
      </trkpt>
      <trkpt lat="46.84456" lon="5.88105">
        <ele>694.8</ele>
        <time>2021-07-18T14:15:36Z</time>
      </trkpt>
      <trkpt lat="46.8446" lon="5.88106">
        <ele>696.8</ele>
        <time>2021-07-18T14:15:41Z</time>
      </trkpt>
      <trkpt lat="46.84465" lon="5.88109">
        <ele>699.4</ele>
        <time>2021-07-18T14:15:47Z</time>
      </trkpt>
      <trkpt lat="46.84468" lon="5.88116">
        <ele>701.3</ele>
        <time>2021-07-18T14:15:52Z</time>
      </trkpt>
      <trkpt lat="46.84471" lon="5.88121">
        <ele>702.4</ele>
        <time>2021-07-18T14:15:56Z</time>
      </trkpt>
      <trkpt lat="46.84475" lon="5.88125">
        <ele>703.1</ele>
        <time>2021-07-18T14:16:00Z</time>
      </trkpt>
      <trkpt lat="46.8448" lon="5.88126">
        <ele>703.7</ele>
        <time>2021-07-18T14:16:05Z</time>
      </trkpt>
      <trkpt lat="46.84484" lon="5.8813">
        <ele>704.1</ele>
        <time>2021-07-18T14:16:09Z</time>
      </trkpt>
      <trkpt lat="46.84486" lon="5.88136">
        <ele>704.2</ele>
        <time>2021-07-18T14:16:14Z</time>
      </trkpt>
      <trkpt lat="46.84489" lon="5.88142">
        <ele>704.3</ele>
        <time>2021-07-18T14:16:20Z</time>
      </trkpt>
      <trkpt lat="46.84491" lon="5.88148">
        <ele>704.8</ele>
        <time>2021-07-18T14:16:24Z</time>
      </trkpt>
      <trkpt lat="46.84494" lon="5.88154">
        <ele>705.9</ele>
        <time>2021-07-18T14:16:28Z</time>
      </trkpt>
      <trkpt lat="46.84497" lon="5.8816">
        <ele>706.8</ele>
        <time>2021-07-18T14:16:32Z</time>
      </trkpt>
      <trkpt lat="46.84501" lon="5.88164">
        <ele>707.4</ele>
        <time>2021-07-18T14:16:36Z</time>
      </trkpt>
      <trkpt lat="46.84506" lon="5.88167">
        <ele>707.6</ele>
        <time>2021-07-18T14:16:40Z</time>
      </trkpt>
      <trkpt lat="46.84511" lon="5.88168">
        <ele>707.5</ele>
        <time>2021-07-18T14:16:44Z</time>
      </trkpt>
      <trkpt lat="46.84514" lon="5.88174">
        <ele>707.9</ele>
        <time>2021-07-18T14:16:49Z</time>
      </trkpt>
      <trkpt lat="46.84513" lon="5.88181">
        <ele>710</ele>
        <time>2021-07-18T14:16:58Z</time>
      </trkpt>
      <trkpt lat="46.84508" lon="5.88183">
        <ele>710.9</ele>
        <time>2021-07-18T14:17:05Z</time>
      </trkpt>
      <trkpt lat="46.84508" lon="5.8819">
        <ele>711.4</ele>
        <time>2021-07-18T14:17:15Z</time>
      </trkpt>
      <trkpt lat="46.84509" lon="5.88183">
        <ele>713.9</ele>
        <time>2021-07-18T14:17:27Z</time>
      </trkpt>
      <trkpt lat="46.84504" lon="5.8818">
        <ele>713.3</ele>
        <time>2021-07-18T14:17:35Z</time>
      </trkpt>
      <trkpt lat="46.84503" lon="5.88173">
        <ele>711.2</ele>
        <time>2021-07-18T14:17:54Z</time>
      </trkpt>
      <trkpt lat="46.84508" lon="5.88169">
        <ele>711.7</ele>
        <time>2021-07-18T14:18:34Z</time>
      </trkpt>
      <trkpt lat="46.84513" lon="5.88166">
        <ele>710.9</ele>
        <time>2021-07-18T14:18:37Z</time>
      </trkpt>
      <trkpt lat="46.84517" lon="5.88162">
        <ele>710</ele>
        <time>2021-07-18T14:18:40Z</time>
      </trkpt>
      <trkpt lat="46.84515" lon="5.88169">
        <ele>704.6</ele>
        <time>2021-07-18T14:18:59Z</time>
      </trkpt>
      <trkpt lat="46.84511" lon="5.88174">
        <ele>703.6</ele>
        <time>2021-07-18T14:19:03Z</time>
      </trkpt>
      <trkpt lat="46.84511" lon="5.88182">
        <ele>703.5</ele>
        <time>2021-07-18T14:19:17Z</time>
      </trkpt>
      <trkpt lat="46.84513" lon="5.88188">
        <ele>704.1</ele>
        <time>2021-07-18T14:19:20Z</time>
      </trkpt>
      <trkpt lat="46.84515" lon="5.88195">
        <ele>704.5</ele>
        <time>2021-07-18T14:19:23Z</time>
      </trkpt>
      <trkpt lat="46.84518" lon="5.882">
        <ele>704.8</ele>
        <time>2021-07-18T14:19:27Z</time>
      </trkpt>
      <trkpt lat="46.84521" lon="5.88207">
        <ele>705.1</ele>
        <time>2021-07-18T14:19:32Z</time>
      </trkpt>
      <trkpt lat="46.84521" lon="5.88214">
        <ele>705.1</ele>
        <time>2021-07-18T14:19:35Z</time>
      </trkpt>
      <trkpt lat="46.84523" lon="5.88222">
        <ele>705.4</ele>
        <time>2021-07-18T14:19:39Z</time>
      </trkpt>
      <trkpt lat="46.84526" lon="5.88229">
        <ele>705.3</ele>
        <time>2021-07-18T14:19:43Z</time>
      </trkpt>
      <trkpt lat="46.8453" lon="5.88234">
        <ele>705</ele>
        <time>2021-07-18T14:19:48Z</time>
      </trkpt>
      <trkpt lat="46.84534" lon="5.8824">
        <ele>704.4</ele>
        <time>2021-07-18T14:19:52Z</time>
      </trkpt>
      <trkpt lat="46.84537" lon="5.88247">
        <ele>704.1</ele>
        <time>2021-07-18T14:19:56Z</time>
      </trkpt>
      <trkpt lat="46.84541" lon="5.88251">
        <ele>703.7</ele>
        <time>2021-07-18T14:20:00Z</time>
      </trkpt>
      <trkpt lat="46.84545" lon="5.88256">
        <ele>703.6</ele>
        <time>2021-07-18T14:20:04Z</time>
      </trkpt>
      <trkpt lat="46.84548" lon="5.88261">
        <ele>703.6</ele>
        <time>2021-07-18T14:20:07Z</time>
      </trkpt>
      <trkpt lat="46.8455" lon="5.88267">
        <ele>703.7</ele>
        <time>2021-07-18T14:20:10Z</time>
      </trkpt>
      <trkpt lat="46.84552" lon="5.88273">
        <ele>704.2</ele>
        <time>2021-07-18T14:20:13Z</time>
      </trkpt>
      <trkpt lat="46.84553" lon="5.88282">
        <ele>704.9</ele>
        <time>2021-07-18T14:20:17Z</time>
      </trkpt>
      <trkpt lat="46.84554" lon="5.8829">
        <ele>705.3</ele>
        <time>2021-07-18T14:20:20Z</time>
      </trkpt>
      <trkpt lat="46.84556" lon="5.88297">
        <ele>705.4</ele>
        <time>2021-07-18T14:20:24Z</time>
      </trkpt>
      <trkpt lat="46.84558" lon="5.88304">
        <ele>705.1</ele>
        <time>2021-07-18T14:20:29Z</time>
      </trkpt>
      <trkpt lat="46.84558" lon="5.88311">
        <ele>704.7</ele>
        <time>2021-07-18T14:20:33Z</time>
      </trkpt>
      <trkpt lat="46.84559" lon="5.88318">
        <ele>704.3</ele>
        <time>2021-07-18T14:20:37Z</time>
      </trkpt>
      <trkpt lat="46.84563" lon="5.88325">
        <ele>704</ele>
        <time>2021-07-18T14:20:40Z</time>
      </trkpt>
      <trkpt lat="46.84566" lon="5.88332">
        <ele>703.4</ele>
        <time>2021-07-18T14:20:43Z</time>
      </trkpt>
      <trkpt lat="46.84569" lon="5.88338">
        <ele>702.8</ele>
        <time>2021-07-18T14:20:46Z</time>
      </trkpt>
      <trkpt lat="46.8457" lon="5.88345">
        <ele>701.9</ele>
        <time>2021-07-18T14:20:50Z</time>
      </trkpt>
      <trkpt lat="46.84573" lon="5.88352">
        <ele>701.1</ele>
        <time>2021-07-18T14:20:54Z</time>
      </trkpt>
      <trkpt lat="46.84577" lon="5.88358">
        <ele>700.3</ele>
        <time>2021-07-18T14:20:58Z</time>
      </trkpt>
      <trkpt lat="46.8458" lon="5.88364">
        <ele>699</ele>
        <time>2021-07-18T14:21:02Z</time>
      </trkpt>
      <trkpt lat="46.84584" lon="5.88369">
        <ele>697.3</ele>
        <time>2021-07-18T14:21:07Z</time>
      </trkpt>
      <trkpt lat="46.8459" lon="5.88372">
        <ele>696.2</ele>
        <time>2021-07-18T14:21:11Z</time>
      </trkpt>
      <trkpt lat="46.84593" lon="5.88375">
        <ele>695.6</ele>
        <time>2021-07-18T14:21:14Z</time>
      </trkpt>
      <trkpt lat="46.84599" lon="5.88379">
        <ele>694.6</ele>
        <time>2021-07-18T14:21:18Z</time>
      </trkpt>
      <trkpt lat="46.84603" lon="5.88384">
        <ele>693.9</ele>
        <time>2021-07-18T14:21:22Z</time>
      </trkpt>
      <trkpt lat="46.84607" lon="5.88391">
        <ele>693.7</ele>
        <time>2021-07-18T14:21:25Z</time>
      </trkpt>
      <trkpt lat="46.8461" lon="5.88397">
        <ele>694.1</ele>
        <time>2021-07-18T14:21:28Z</time>
      </trkpt>
      <trkpt lat="46.84613" lon="5.88403">
        <ele>694.7</ele>
        <time>2021-07-18T14:21:31Z</time>
      </trkpt>
      <trkpt lat="46.84618" lon="5.88406">
        <ele>695.2</ele>
        <time>2021-07-18T14:21:35Z</time>
      </trkpt>
      <trkpt lat="46.84622" lon="5.88411">
        <ele>695.1</ele>
        <time>2021-07-18T14:21:40Z</time>
      </trkpt>
      <trkpt lat="46.84624" lon="5.88417">
        <ele>695</ele>
        <time>2021-07-18T14:21:43Z</time>
      </trkpt>
      <trkpt lat="46.84627" lon="5.88423">
        <ele>694.9</ele>
        <time>2021-07-18T14:21:46Z</time>
      </trkpt>
      <trkpt lat="46.84631" lon="5.88429">
        <ele>695.3</ele>
        <time>2021-07-18T14:21:50Z</time>
      </trkpt>
      <trkpt lat="46.84635" lon="5.88433">
        <ele>695.6</ele>
        <time>2021-07-18T14:21:54Z</time>
      </trkpt>
      <trkpt lat="46.84638" lon="5.88438">
        <ele>695.4</ele>
        <time>2021-07-18T14:21:58Z</time>
      </trkpt>
      <trkpt lat="46.84641" lon="5.88443">
        <ele>694.8</ele>
        <time>2021-07-18T14:22:02Z</time>
      </trkpt>
      <trkpt lat="46.84645" lon="5.88448">
        <ele>694.3</ele>
        <time>2021-07-18T14:22:06Z</time>
      </trkpt>
      <trkpt lat="46.84648" lon="5.88454">
        <ele>693.5</ele>
        <time>2021-07-18T14:22:10Z</time>
      </trkpt>
      <trkpt lat="46.84651" lon="5.8846">
        <ele>692.9</ele>
        <time>2021-07-18T14:22:13Z</time>
      </trkpt>
      <trkpt lat="46.84655" lon="5.88465">
        <ele>691.8</ele>
        <time>2021-07-18T14:22:17Z</time>
      </trkpt>
      <trkpt lat="46.84658" lon="5.88471">
        <ele>691.2</ele>
        <time>2021-07-18T14:22:20Z</time>
      </trkpt>
      <trkpt lat="46.84662" lon="5.88478">
        <ele>690.9</ele>
        <time>2021-07-18T14:22:23Z</time>
      </trkpt>
      <trkpt lat="46.84666" lon="5.88482">
        <ele>691.2</ele>
        <time>2021-07-18T14:22:26Z</time>
      </trkpt>
      <trkpt lat="46.8467" lon="5.88488">
        <ele>692</ele>
        <time>2021-07-18T14:22:29Z</time>
      </trkpt>
      <trkpt lat="46.84673" lon="5.88494">
        <ele>693.1</ele>
        <time>2021-07-18T14:22:33Z</time>
      </trkpt>
      <trkpt lat="46.84676" lon="5.88501">
        <ele>693.7</ele>
        <time>2021-07-18T14:22:38Z</time>
      </trkpt>
      <trkpt lat="46.84681" lon="5.88503">
        <ele>693.8</ele>
        <time>2021-07-18T14:22:42Z</time>
      </trkpt>
      <trkpt lat="46.84686" lon="5.88504">
        <ele>693.2</ele>
        <time>2021-07-18T14:22:47Z</time>
      </trkpt>
      <trkpt lat="46.8469" lon="5.8851">
        <ele>692.4</ele>
        <time>2021-07-18T14:22:51Z</time>
      </trkpt>
      <trkpt lat="46.84693" lon="5.88517">
        <ele>691.8</ele>
        <time>2021-07-18T14:22:55Z</time>
      </trkpt>
      <trkpt lat="46.84697" lon="5.88522">
        <ele>691.8</ele>
        <time>2021-07-18T14:22:58Z</time>
      </trkpt>
      <trkpt lat="46.84701" lon="5.88526">
        <ele>692</ele>
        <time>2021-07-18T14:23:01Z</time>
      </trkpt>
      <trkpt lat="46.84705" lon="5.8853">
        <ele>692.6</ele>
        <time>2021-07-18T14:23:05Z</time>
      </trkpt>
      <trkpt lat="46.8471" lon="5.88534">
        <ele>693.4</ele>
        <time>2021-07-18T14:23:09Z</time>
      </trkpt>
      <trkpt lat="46.84715" lon="5.88537">
        <ele>694.4</ele>
        <time>2021-07-18T14:23:13Z</time>
      </trkpt>
      <trkpt lat="46.84719" lon="5.88541">
        <ele>695.9</ele>
        <time>2021-07-18T14:23:18Z</time>
      </trkpt>
      <trkpt lat="46.84722" lon="5.88547">
        <ele>696.2</ele>
        <time>2021-07-18T14:23:23Z</time>
      </trkpt>
      <trkpt lat="46.84723" lon="5.88554">
        <ele>696.3</ele>
        <time>2021-07-18T14:23:27Z</time>
      </trkpt>
      <trkpt lat="46.84725" lon="5.88562">
        <ele>696.7</ele>
        <time>2021-07-18T14:23:31Z</time>
      </trkpt>
      <trkpt lat="46.84728" lon="5.88568">
        <ele>697.1</ele>
        <time>2021-07-18T14:23:35Z</time>
      </trkpt>
      <trkpt lat="46.84732" lon="5.88573">
        <ele>698.1</ele>
        <time>2021-07-18T14:23:40Z</time>
      </trkpt>
      <trkpt lat="46.84735" lon="5.8858">
        <ele>699.2</ele>
        <time>2021-07-18T14:23:45Z</time>
      </trkpt>
      <trkpt lat="46.84737" lon="5.88586">
        <ele>699.8</ele>
        <time>2021-07-18T14:23:48Z</time>
      </trkpt>
      <trkpt lat="46.84741" lon="5.8859">
        <ele>700.7</ele>
        <time>2021-07-18T14:23:51Z</time>
      </trkpt>
      <trkpt lat="46.84747" lon="5.88592">
        <ele>701.9</ele>
        <time>2021-07-18T14:23:55Z</time>
      </trkpt>
      <trkpt lat="46.84751" lon="5.88594">
        <ele>703.6</ele>
        <time>2021-07-18T14:24:00Z</time>
      </trkpt>
      <trkpt lat="46.84753" lon="5.886">
        <ele>704.8</ele>
        <time>2021-07-18T14:24:09Z</time>
      </trkpt>
      <trkpt lat="46.84755" lon="5.88607">
        <ele>704.4</ele>
        <time>2021-07-18T14:24:13Z</time>
      </trkpt>
      <trkpt lat="46.84756" lon="5.88616">
        <ele>703.8</ele>
        <time>2021-07-18T14:24:16Z</time>
      </trkpt>
      <trkpt lat="46.84757" lon="5.88627">
        <ele>703.4</ele>
        <time>2021-07-18T14:24:19Z</time>
      </trkpt>
      <trkpt lat="46.84758" lon="5.88633">
        <ele>702.9</ele>
        <time>2021-07-18T14:24:23Z</time>
      </trkpt>
      <trkpt lat="46.84761" lon="5.88639">
        <ele>702.5</ele>
        <time>2021-07-18T14:24:28Z</time>
      </trkpt>
      <trkpt lat="46.84764" lon="5.88647">
        <ele>702.9</ele>
        <time>2021-07-18T14:24:32Z</time>
      </trkpt>
      <trkpt lat="46.84767" lon="5.88652">
        <ele>703.5</ele>
        <time>2021-07-18T14:24:36Z</time>
      </trkpt>
      <trkpt lat="46.8477" lon="5.88659">
        <ele>704.4</ele>
        <time>2021-07-18T14:24:40Z</time>
      </trkpt>
      <trkpt lat="46.84774" lon="5.88665">
        <ele>705.6</ele>
        <time>2021-07-18T14:24:44Z</time>
      </trkpt>
      <trkpt lat="46.84778" lon="5.8867">
        <ele>706.5</ele>
        <time>2021-07-18T14:24:48Z</time>
      </trkpt>
      <trkpt lat="46.84782" lon="5.88675">
        <ele>707.1</ele>
        <time>2021-07-18T14:24:52Z</time>
      </trkpt>
      <trkpt lat="46.84787" lon="5.88679">
        <ele>708</ele>
        <time>2021-07-18T14:24:56Z</time>
      </trkpt>
      <trkpt lat="46.84791" lon="5.88683">
        <ele>709.2</ele>
        <time>2021-07-18T14:25:00Z</time>
      </trkpt>
      <trkpt lat="46.84795" lon="5.88688">
        <ele>710.3</ele>
        <time>2021-07-18T14:25:05Z</time>
      </trkpt>
      <trkpt lat="46.848" lon="5.8869">
        <ele>711.1</ele>
        <time>2021-07-18T14:25:09Z</time>
      </trkpt>
      <trkpt lat="46.84805" lon="5.88693">
        <ele>711.6</ele>
        <time>2021-07-18T14:25:13Z</time>
      </trkpt>
      <trkpt lat="46.84809" lon="5.887">
        <ele>712.3</ele>
        <time>2021-07-18T14:25:17Z</time>
      </trkpt>
      <trkpt lat="46.84811" lon="5.88707">
        <ele>712.7</ele>
        <time>2021-07-18T14:25:20Z</time>
      </trkpt>
      <trkpt lat="46.84813" lon="5.88713">
        <ele>712.6</ele>
        <time>2021-07-18T14:25:24Z</time>
      </trkpt>
      <trkpt lat="46.84816" lon="5.88719">
        <ele>712.3</ele>
        <time>2021-07-18T14:25:28Z</time>
      </trkpt>
      <trkpt lat="46.8482" lon="5.88725">
        <ele>712.2</ele>
        <time>2021-07-18T14:25:32Z</time>
      </trkpt>
      <trkpt lat="46.84823" lon="5.88732">
        <ele>712.3</ele>
        <time>2021-07-18T14:25:35Z</time>
      </trkpt>
      <trkpt lat="46.84826" lon="5.88737">
        <ele>712.3</ele>
        <time>2021-07-18T14:25:39Z</time>
      </trkpt>
      <trkpt lat="46.8483" lon="5.88742">
        <ele>712.2</ele>
        <time>2021-07-18T14:25:43Z</time>
      </trkpt>
      <trkpt lat="46.84834" lon="5.88746">
        <ele>712</ele>
        <time>2021-07-18T14:25:49Z</time>
      </trkpt>
      <trkpt lat="46.84838" lon="5.88748">
        <ele>711.7</ele>
        <time>2021-07-18T14:25:55Z</time>
      </trkpt>
      <trkpt lat="46.84841" lon="5.88755">
        <ele>711.3</ele>
        <time>2021-07-18T14:25:59Z</time>
      </trkpt>
      <trkpt lat="46.84843" lon="5.88762">
        <ele>710.9</ele>
        <time>2021-07-18T14:26:03Z</time>
      </trkpt>
      <trkpt lat="46.84845" lon="5.88768">
        <ele>709.9</ele>
        <time>2021-07-18T14:26:10Z</time>
      </trkpt>
      <trkpt lat="46.84849" lon="5.88774">
        <ele>709.5</ele>
        <time>2021-07-18T14:26:14Z</time>
      </trkpt>
      <trkpt lat="46.84851" lon="5.8878">
        <ele>709.1</ele>
        <time>2021-07-18T14:26:17Z</time>
      </trkpt>
      <trkpt lat="46.84854" lon="5.88786">
        <ele>708.8</ele>
        <time>2021-07-18T14:26:21Z</time>
      </trkpt>
      <trkpt lat="46.84856" lon="5.88795">
        <ele>707.9</ele>
        <time>2021-07-18T14:26:26Z</time>
      </trkpt>
      <trkpt lat="46.84858" lon="5.88802">
        <ele>707.2</ele>
        <time>2021-07-18T14:26:30Z</time>
      </trkpt>
      <trkpt lat="46.84861" lon="5.88808">
        <ele>706.6</ele>
        <time>2021-07-18T14:26:35Z</time>
      </trkpt>
      <trkpt lat="46.84865" lon="5.88812">
        <ele>706.4</ele>
        <time>2021-07-18T14:26:39Z</time>
      </trkpt>
      <trkpt lat="46.84868" lon="5.88817">
        <ele>706.5</ele>
        <time>2021-07-18T14:26:43Z</time>
      </trkpt>
      <trkpt lat="46.84872" lon="5.88823">
        <ele>706.9</ele>
        <time>2021-07-18T14:26:47Z</time>
      </trkpt>
      <trkpt lat="46.84876" lon="5.88827">
        <ele>707</ele>
        <time>2021-07-18T14:26:52Z</time>
      </trkpt>
      <trkpt lat="46.84877" lon="5.88835">
        <ele>706.7</ele>
        <time>2021-07-18T14:26:57Z</time>
      </trkpt>
      <trkpt lat="46.84878" lon="5.88842">
        <ele>706.8</ele>
        <time>2021-07-18T14:27:00Z</time>
      </trkpt>
      <trkpt lat="46.84878" lon="5.88849">
        <ele>706.9</ele>
        <time>2021-07-18T14:27:03Z</time>
      </trkpt>
      <trkpt lat="46.84881" lon="5.88855">
        <ele>706.7</ele>
        <time>2021-07-18T14:27:08Z</time>
      </trkpt>
      <trkpt lat="46.84887" lon="5.88855">
        <ele>706.4</ele>
        <time>2021-07-18T14:27:12Z</time>
      </trkpt>
      <trkpt lat="46.84892" lon="5.88858">
        <ele>706.8</ele>
        <time>2021-07-18T14:27:16Z</time>
      </trkpt>
      <trkpt lat="46.84895" lon="5.88865">
        <ele>708.1</ele>
        <time>2021-07-18T14:27:22Z</time>
      </trkpt>
      <trkpt lat="46.84899" lon="5.88871">
        <ele>708.5</ele>
        <time>2021-07-18T14:27:26Z</time>
      </trkpt>
      <trkpt lat="46.84903" lon="5.88876">
        <ele>709.3</ele>
        <time>2021-07-18T14:27:30Z</time>
      </trkpt>
      <trkpt lat="46.84907" lon="5.88882">
        <ele>711</ele>
        <time>2021-07-18T14:27:34Z</time>
      </trkpt>
      <trkpt lat="46.84909" lon="5.88888">
        <ele>712.5</ele>
        <time>2021-07-18T14:27:38Z</time>
      </trkpt>
      <trkpt lat="46.84911" lon="5.88895">
        <ele>714.2</ele>
        <time>2021-07-18T14:27:43Z</time>
      </trkpt>
      <trkpt lat="46.84913" lon="5.88903">
        <ele>715.1</ele>
        <time>2021-07-18T14:27:47Z</time>
      </trkpt>
      <trkpt lat="46.84915" lon="5.88908">
        <ele>715.4</ele>
        <time>2021-07-18T14:27:51Z</time>
      </trkpt>
      <trkpt lat="46.84918" lon="5.88916">
        <ele>715.1</ele>
        <time>2021-07-18T14:27:55Z</time>
      </trkpt>
      <trkpt lat="46.84919" lon="5.88922">
        <ele>715</ele>
        <time>2021-07-18T14:27:59Z</time>
      </trkpt>
      <trkpt lat="46.84922" lon="5.88928">
        <ele>715.2</ele>
        <time>2021-07-18T14:28:04Z</time>
      </trkpt>
      <trkpt lat="46.84925" lon="5.88934">
        <ele>715.6</ele>
        <time>2021-07-18T14:28:09Z</time>
      </trkpt>
      <trkpt lat="46.84924" lon="5.88941">
        <ele>715.8</ele>
        <time>2021-07-18T14:28:13Z</time>
      </trkpt>
      <trkpt lat="46.84923" lon="5.88948">
        <ele>715.7</ele>
        <time>2021-07-18T14:28:16Z</time>
      </trkpt>
      <trkpt lat="46.84924" lon="5.88955">
        <ele>715.8</ele>
        <time>2021-07-18T14:28:20Z</time>
      </trkpt>
      <trkpt lat="46.84925" lon="5.88963">
        <ele>715.9</ele>
        <time>2021-07-18T14:28:24Z</time>
      </trkpt>
      <trkpt lat="46.84928" lon="5.88969">
        <ele>716.3</ele>
        <time>2021-07-18T14:28:27Z</time>
      </trkpt>
      <trkpt lat="46.84931" lon="5.88974">
        <ele>716.7</ele>
        <time>2021-07-18T14:28:31Z</time>
      </trkpt>
      <trkpt lat="46.84934" lon="5.88979">
        <ele>717</ele>
        <time>2021-07-18T14:28:36Z</time>
      </trkpt>
      <trkpt lat="46.84938" lon="5.88984">
        <ele>716.8</ele>
        <time>2021-07-18T14:28:43Z</time>
      </trkpt>
      <trkpt lat="46.8494" lon="5.88991">
        <ele>716.5</ele>
        <time>2021-07-18T14:28:47Z</time>
      </trkpt>
      <trkpt lat="46.84941" lon="5.88998">
        <ele>716.1</ele>
        <time>2021-07-18T14:28:50Z</time>
      </trkpt>
      <trkpt lat="46.84945" lon="5.89002">
        <ele>715.9</ele>
        <time>2021-07-18T14:28:53Z</time>
      </trkpt>
      <trkpt lat="46.8495" lon="5.89006">
        <ele>715.8</ele>
        <time>2021-07-18T14:28:58Z</time>
      </trkpt>
      <trkpt lat="46.84952" lon="5.89013">
        <ele>715.7</ele>
        <time>2021-07-18T14:29:02Z</time>
      </trkpt>
      <trkpt lat="46.84953" lon="5.8902">
        <ele>715.4</ele>
        <time>2021-07-18T14:29:06Z</time>
      </trkpt>
      <trkpt lat="46.84958" lon="5.89026">
        <ele>715</ele>
        <time>2021-07-18T14:29:10Z</time>
      </trkpt>
      <trkpt lat="46.84963" lon="5.89031">
        <ele>714.9</ele>
        <time>2021-07-18T14:29:13Z</time>
      </trkpt>
      <trkpt lat="46.84968" lon="5.89034">
        <ele>714.4</ele>
        <time>2021-07-18T14:29:16Z</time>
      </trkpt>
      <trkpt lat="46.84972" lon="5.89036">
        <ele>713.7</ele>
        <time>2021-07-18T14:29:19Z</time>
      </trkpt>
      <trkpt lat="46.84977" lon="5.89039">
        <ele>713</ele>
        <time>2021-07-18T14:29:22Z</time>
      </trkpt>
      <trkpt lat="46.84981" lon="5.89043">
        <ele>712.5</ele>
        <time>2021-07-18T14:29:27Z</time>
      </trkpt>
      <trkpt lat="46.84985" lon="5.89049">
        <ele>712.5</ele>
        <time>2021-07-18T14:29:31Z</time>
      </trkpt>
      <trkpt lat="46.84989" lon="5.89055">
        <ele>712.6</ele>
        <time>2021-07-18T14:29:35Z</time>
      </trkpt>
      <trkpt lat="46.84992" lon="5.89061">
        <ele>712.5</ele>
        <time>2021-07-18T14:29:40Z</time>
      </trkpt>
      <trkpt lat="46.84995" lon="5.89066">
        <ele>711.9</ele>
        <time>2021-07-18T14:29:45Z</time>
      </trkpt>
      <trkpt lat="46.84999" lon="5.89071">
        <ele>711.2</ele>
        <time>2021-07-18T14:29:49Z</time>
      </trkpt>
      <trkpt lat="46.85002" lon="5.89077">
        <ele>710.8</ele>
        <time>2021-07-18T14:29:52Z</time>
      </trkpt>
      <trkpt lat="46.85005" lon="5.89085">
        <ele>710.7</ele>
        <time>2021-07-18T14:29:55Z</time>
      </trkpt>
      <trkpt lat="46.85007" lon="5.89095">
        <ele>710.7</ele>
        <time>2021-07-18T14:29:58Z</time>
      </trkpt>
      <trkpt lat="46.85008" lon="5.89102">
        <ele>710.8</ele>
        <time>2021-07-18T14:30:01Z</time>
      </trkpt>
      <trkpt lat="46.85012" lon="5.89107">
        <ele>710.8</ele>
        <time>2021-07-18T14:30:07Z</time>
      </trkpt>
      <trkpt lat="46.85016" lon="5.89112">
        <ele>710.9</ele>
        <time>2021-07-18T14:30:12Z</time>
      </trkpt>
      <trkpt lat="46.85019" lon="5.89119">
        <ele>710.6</ele>
        <time>2021-07-18T14:30:16Z</time>
      </trkpt>
      <trkpt lat="46.85023" lon="5.89124">
        <ele>710.7</ele>
        <time>2021-07-18T14:30:19Z</time>
      </trkpt>
      <trkpt lat="46.85026" lon="5.89129">
        <ele>711</ele>
        <time>2021-07-18T14:30:22Z</time>
      </trkpt>
      <trkpt lat="46.85029" lon="5.89136">
        <ele>711.9</ele>
        <time>2021-07-18T14:30:26Z</time>
      </trkpt>
      <trkpt lat="46.85031" lon="5.89142">
        <ele>712.6</ele>
        <time>2021-07-18T14:30:30Z</time>
      </trkpt>
      <trkpt lat="46.85032" lon="5.89149">
        <ele>713</ele>
        <time>2021-07-18T14:30:33Z</time>
      </trkpt>
      <trkpt lat="46.85035" lon="5.89155">
        <ele>713.2</ele>
        <time>2021-07-18T14:30:38Z</time>
      </trkpt>
      <trkpt lat="46.85039" lon="5.8916">
        <ele>713.4</ele>
        <time>2021-07-18T14:30:42Z</time>
      </trkpt>
      <trkpt lat="46.85043" lon="5.89167">
        <ele>713.8</ele>
        <time>2021-07-18T14:30:46Z</time>
      </trkpt>
      <trkpt lat="46.85047" lon="5.89173">
        <ele>714.1</ele>
        <time>2021-07-18T14:30:50Z</time>
      </trkpt>
      <trkpt lat="46.8505" lon="5.89179">
        <ele>714.4</ele>
        <time>2021-07-18T14:30:53Z</time>
      </trkpt>
      <trkpt lat="46.85052" lon="5.89185">
        <ele>714.7</ele>
        <time>2021-07-18T14:30:56Z</time>
      </trkpt>
      <trkpt lat="46.85056" lon="5.8919">
        <ele>715.2</ele>
        <time>2021-07-18T14:31:00Z</time>
      </trkpt>
      <trkpt lat="46.8506" lon="5.89194">
        <ele>716</ele>
        <time>2021-07-18T14:31:05Z</time>
      </trkpt>
      <trkpt lat="46.85065" lon="5.89195">
        <ele>716.2</ele>
        <time>2021-07-18T14:31:11Z</time>
      </trkpt>
      <trkpt lat="46.85069" lon="5.89196">
        <ele>715.9</ele>
        <time>2021-07-18T14:31:16Z</time>
      </trkpt>
      <trkpt lat="46.85074" lon="5.89199">
        <ele>715.4</ele>
        <time>2021-07-18T14:31:21Z</time>
      </trkpt>
      <trkpt lat="46.85077" lon="5.89204">
        <ele>714.3</ele>
        <time>2021-07-18T14:31:26Z</time>
      </trkpt>
      <trkpt lat="46.85079" lon="5.89211">
        <ele>711.6</ele>
        <time>2021-07-18T14:31:32Z</time>
      </trkpt>
      <trkpt lat="46.85082" lon="5.89216">
        <ele>709.7</ele>
        <time>2021-07-18T14:31:36Z</time>
      </trkpt>
      <trkpt lat="46.85087" lon="5.8922">
        <ele>707.8</ele>
        <time>2021-07-18T14:31:41Z</time>
      </trkpt>
      <trkpt lat="46.85091" lon="5.89224">
        <ele>706.9</ele>
        <time>2021-07-18T14:31:45Z</time>
      </trkpt>
      <trkpt lat="46.85094" lon="5.89229">
        <ele>706.1</ele>
        <time>2021-07-18T14:31:49Z</time>
      </trkpt>
      <trkpt lat="46.851" lon="5.89231">
        <ele>704.6</ele>
        <time>2021-07-18T14:31:55Z</time>
      </trkpt>
      <trkpt lat="46.85104" lon="5.89234">
        <ele>704</ele>
        <time>2021-07-18T14:32:00Z</time>
      </trkpt>
      <trkpt lat="46.85108" lon="5.8924">
        <ele>704.1</ele>
        <time>2021-07-18T14:32:05Z</time>
      </trkpt>
      <trkpt lat="46.85112" lon="5.89243">
        <ele>704.9</ele>
        <time>2021-07-18T14:32:09Z</time>
      </trkpt>
      <trkpt lat="46.85116" lon="5.89248">
        <ele>706.3</ele>
        <time>2021-07-18T14:32:15Z</time>
      </trkpt>
      <trkpt lat="46.85119" lon="5.89254">
        <ele>707.2</ele>
        <time>2021-07-18T14:32:19Z</time>
      </trkpt>
      <trkpt lat="46.85123" lon="5.89259">
        <ele>707.6</ele>
        <time>2021-07-18T14:32:23Z</time>
      </trkpt>
      <trkpt lat="46.85126" lon="5.89265">
        <ele>707.7</ele>
        <time>2021-07-18T14:32:27Z</time>
      </trkpt>
      <trkpt lat="46.85131" lon="5.89269">
        <ele>707.8</ele>
        <time>2021-07-18T14:32:30Z</time>
      </trkpt>
      <trkpt lat="46.85135" lon="5.89273">
        <ele>708</ele>
        <time>2021-07-18T14:32:33Z</time>
      </trkpt>
      <trkpt lat="46.85139" lon="5.89277">
        <ele>708.4</ele>
        <time>2021-07-18T14:32:36Z</time>
      </trkpt>
      <trkpt lat="46.85144" lon="5.89281">
        <ele>708.7</ele>
        <time>2021-07-18T14:32:42Z</time>
      </trkpt>
      <trkpt lat="46.85148" lon="5.89283">
        <ele>708.9</ele>
        <time>2021-07-18T14:32:45Z</time>
      </trkpt>
      <trkpt lat="46.85153" lon="5.89286">
        <ele>709.2</ele>
        <time>2021-07-18T14:32:48Z</time>
      </trkpt>
      <trkpt lat="46.85157" lon="5.8929">
        <ele>709.7</ele>
        <time>2021-07-18T14:32:51Z</time>
      </trkpt>
      <trkpt lat="46.85161" lon="5.89295">
        <ele>710.3</ele>
        <time>2021-07-18T14:32:54Z</time>
      </trkpt>
      <trkpt lat="46.85166" lon="5.89298">
        <ele>711</ele>
        <time>2021-07-18T14:32:57Z</time>
      </trkpt>
      <trkpt lat="46.8517" lon="5.89299">
        <ele>711.8</ele>
        <time>2021-07-18T14:33:01Z</time>
      </trkpt>
      <trkpt lat="46.85174" lon="5.89303">
        <ele>712.9</ele>
        <time>2021-07-18T14:33:10Z</time>
      </trkpt>
      <trkpt lat="46.85178" lon="5.89308">
        <ele>713.4</ele>
        <time>2021-07-18T14:33:15Z</time>
      </trkpt>
      <trkpt lat="46.85182" lon="5.8931">
        <ele>713.4</ele>
        <time>2021-07-18T14:33:21Z</time>
      </trkpt>
      <trkpt lat="46.85187" lon="5.89314">
        <ele>713.1</ele>
        <time>2021-07-18T14:33:26Z</time>
      </trkpt>
      <trkpt lat="46.85192" lon="5.89316">
        <ele>713</ele>
        <time>2021-07-18T14:33:29Z</time>
      </trkpt>
      <trkpt lat="46.85197" lon="5.89319">
        <ele>712.8</ele>
        <time>2021-07-18T14:33:32Z</time>
      </trkpt>
      <trkpt lat="46.85203" lon="5.8932">
        <ele>712.5</ele>
        <time>2021-07-18T14:33:36Z</time>
      </trkpt>
      <trkpt lat="46.85207" lon="5.89324">
        <ele>712.3</ele>
        <time>2021-07-18T14:33:40Z</time>
      </trkpt>
      <trkpt lat="46.85211" lon="5.89327">
        <ele>712</ele>
        <time>2021-07-18T14:33:43Z</time>
      </trkpt>
      <trkpt lat="46.85217" lon="5.89332">
        <ele>711.3</ele>
        <time>2021-07-18T14:33:46Z</time>
      </trkpt>
      <trkpt lat="46.85224" lon="5.89334">
        <ele>710</ele>
        <time>2021-07-18T14:33:49Z</time>
      </trkpt>
      <trkpt lat="46.85228" lon="5.89339">
        <ele>709.2</ele>
        <time>2021-07-18T14:33:52Z</time>
      </trkpt>
      <trkpt lat="46.85231" lon="5.89346">
        <ele>708.8</ele>
        <time>2021-07-18T14:33:56Z</time>
      </trkpt>
      <trkpt lat="46.85234" lon="5.89352">
        <ele>708.8</ele>
        <time>2021-07-18T14:34:01Z</time>
      </trkpt>
      <trkpt lat="46.85238" lon="5.89357">
        <ele>709</ele>
        <time>2021-07-18T14:34:05Z</time>
      </trkpt>
      <trkpt lat="46.85242" lon="5.89362">
        <ele>709.7</ele>
        <time>2021-07-18T14:34:10Z</time>
      </trkpt>
      <trkpt lat="46.85247" lon="5.89362">
        <ele>709.9</ele>
        <time>2021-07-18T14:34:17Z</time>
      </trkpt>
      <trkpt lat="46.85243" lon="5.89367">
        <ele>708.8</ele>
        <time>2021-07-18T14:34:25Z</time>
      </trkpt>
      <trkpt lat="46.85239" lon="5.8937">
        <ele>708.1</ele>
        <time>2021-07-18T14:34:30Z</time>
      </trkpt>
      <trkpt lat="46.85234" lon="5.89371">
        <ele>707.2</ele>
        <time>2021-07-18T14:34:40Z</time>
      </trkpt>
      <trkpt lat="46.85239" lon="5.89371">
        <ele>706.9</ele>
        <time>2021-07-18T14:35:04Z</time>
      </trkpt>
      <trkpt lat="46.85241" lon="5.89378">
        <ele>706.3</ele>
        <time>2021-07-18T14:35:11Z</time>
      </trkpt>
      <trkpt lat="46.85244" lon="5.89384">
        <ele>705</ele>
        <time>2021-07-18T14:35:15Z</time>
      </trkpt>
      <trkpt lat="46.85246" lon="5.89391">
        <ele>703.1</ele>
        <time>2021-07-18T14:35:21Z</time>
      </trkpt>
      <trkpt lat="46.85251" lon="5.89394">
        <ele>700.3</ele>
        <time>2021-07-18T14:35:28Z</time>
      </trkpt>
      <trkpt lat="46.85254" lon="5.894">
        <ele>696.9</ele>
        <time>2021-07-18T14:35:43Z</time>
      </trkpt>
      <trkpt lat="46.85257" lon="5.89405">
        <ele>695.7</ele>
        <time>2021-07-18T14:35:48Z</time>
      </trkpt>
      <trkpt lat="46.85262" lon="5.8941">
        <ele>694.6</ele>
        <time>2021-07-18T14:35:52Z</time>
      </trkpt>
      <trkpt lat="46.85265" lon="5.89415">
        <ele>693.8</ele>
        <time>2021-07-18T14:35:56Z</time>
      </trkpt>
      <trkpt lat="46.85269" lon="5.89418">
        <ele>693.3</ele>
        <time>2021-07-18T14:36:00Z</time>
      </trkpt>
      <trkpt lat="46.85273" lon="5.89423">
        <ele>692.9</ele>
        <time>2021-07-18T14:36:04Z</time>
      </trkpt>
      <trkpt lat="46.85276" lon="5.89429">
        <ele>693.4</ele>
        <time>2021-07-18T14:36:08Z</time>
      </trkpt>
      <trkpt lat="46.85279" lon="5.89435">
        <ele>693.8</ele>
        <time>2021-07-18T14:36:11Z</time>
      </trkpt>
      <trkpt lat="46.85282" lon="5.89441">
        <ele>694.4</ele>
        <time>2021-07-18T14:36:15Z</time>
      </trkpt>
      <trkpt lat="46.85284" lon="5.89448">
        <ele>695</ele>
        <time>2021-07-18T14:36:19Z</time>
      </trkpt>
      <trkpt lat="46.85287" lon="5.89454">
        <ele>695.5</ele>
        <time>2021-07-18T14:36:23Z</time>
      </trkpt>
      <trkpt lat="46.85289" lon="5.8946">
        <ele>695.7</ele>
        <time>2021-07-18T14:36:28Z</time>
      </trkpt>
      <trkpt lat="46.85291" lon="5.89467">
        <ele>695.9</ele>
        <time>2021-07-18T14:36:35Z</time>
      </trkpt>
      <trkpt lat="46.85293" lon="5.89475">
        <ele>696</ele>
        <time>2021-07-18T14:36:40Z</time>
      </trkpt>
      <trkpt lat="46.85297" lon="5.89481">
        <ele>695.9</ele>
        <time>2021-07-18T14:36:44Z</time>
      </trkpt>
      <trkpt lat="46.85299" lon="5.89488">
        <ele>695.6</ele>
        <time>2021-07-18T14:36:49Z</time>
      </trkpt>
      <trkpt lat="46.85302" lon="5.89493">
        <ele>695</ele>
        <time>2021-07-18T14:36:53Z</time>
      </trkpt>
      <trkpt lat="46.85304" lon="5.89499">
        <ele>694.3</ele>
        <time>2021-07-18T14:36:57Z</time>
      </trkpt>
      <trkpt lat="46.85304" lon="5.89507">
        <ele>693</ele>
        <time>2021-07-18T14:37:01Z</time>
      </trkpt>
      <trkpt lat="46.85305" lon="5.89514">
        <ele>691.8</ele>
        <time>2021-07-18T14:37:04Z</time>
      </trkpt>
      <trkpt lat="46.85307" lon="5.8952">
        <ele>690.6</ele>
        <time>2021-07-18T14:37:07Z</time>
      </trkpt>
      <trkpt lat="46.85312" lon="5.89523">
        <ele>689.3</ele>
        <time>2021-07-18T14:37:10Z</time>
      </trkpt>
      <trkpt lat="46.85315" lon="5.89527">
        <ele>687.4</ele>
        <time>2021-07-18T14:37:14Z</time>
      </trkpt>
      <trkpt lat="46.85319" lon="5.89533">
        <ele>685.4</ele>
        <time>2021-07-18T14:37:19Z</time>
      </trkpt>
      <trkpt lat="46.85322" lon="5.89536">
        <ele>684.8</ele>
        <time>2021-07-18T14:37:23Z</time>
      </trkpt>
      <trkpt lat="46.85327" lon="5.89541">
        <ele>684.8</ele>
        <time>2021-07-18T14:37:27Z</time>
      </trkpt>
      <trkpt lat="46.8533" lon="5.89546">
        <ele>684.2</ele>
        <time>2021-07-18T14:37:32Z</time>
      </trkpt>
      <trkpt lat="46.85332" lon="5.89553">
        <ele>683.1</ele>
        <time>2021-07-18T14:37:37Z</time>
      </trkpt>
      <trkpt lat="46.85335" lon="5.89559">
        <ele>682.2</ele>
        <time>2021-07-18T14:37:42Z</time>
      </trkpt>
      <trkpt lat="46.85338" lon="5.89565">
        <ele>681.9</ele>
        <time>2021-07-18T14:37:46Z</time>
      </trkpt>
      <trkpt lat="46.85341" lon="5.8957">
        <ele>681.6</ele>
        <time>2021-07-18T14:37:51Z</time>
      </trkpt>
      <trkpt lat="46.85345" lon="5.89576">
        <ele>681.5</ele>
        <time>2021-07-18T14:37:56Z</time>
      </trkpt>
      <trkpt lat="46.85348" lon="5.89583">
        <ele>681.5</ele>
        <time>2021-07-18T14:38:04Z</time>
      </trkpt>
      <trkpt lat="46.85351" lon="5.89588">
        <ele>680.2</ele>
        <time>2021-07-18T14:38:11Z</time>
      </trkpt>
      <trkpt lat="46.85355" lon="5.89592">
        <ele>679.1</ele>
        <time>2021-07-18T14:38:15Z</time>
      </trkpt>
      <trkpt lat="46.85359" lon="5.89595">
        <ele>678.8</ele>
        <time>2021-07-18T14:38:18Z</time>
      </trkpt>
      <trkpt lat="46.85364" lon="5.89599">
        <ele>679.2</ele>
        <time>2021-07-18T14:38:22Z</time>
      </trkpt>
      <trkpt lat="46.85368" lon="5.89602">
        <ele>680</ele>
        <time>2021-07-18T14:38:26Z</time>
      </trkpt>
      <trkpt lat="46.85373" lon="5.89604">
        <ele>681.6</ele>
        <time>2021-07-18T14:38:31Z</time>
      </trkpt>
      <trkpt lat="46.85377" lon="5.89606">
        <ele>682.7</ele>
        <time>2021-07-18T14:38:38Z</time>
      </trkpt>
      <trkpt lat="46.85383" lon="5.89603">
        <ele>682.7</ele>
        <time>2021-07-18T14:38:45Z</time>
      </trkpt>
      <trkpt lat="46.85389" lon="5.89605">
        <ele>682.2</ele>
        <time>2021-07-18T14:38:49Z</time>
      </trkpt>
      <trkpt lat="46.85394" lon="5.89605">
        <ele>682.1</ele>
        <time>2021-07-18T14:38:52Z</time>
      </trkpt>
      <trkpt lat="46.85399" lon="5.89605">
        <ele>682</ele>
        <time>2021-07-18T14:38:55Z</time>
      </trkpt>
      <trkpt lat="46.85404" lon="5.8961">
        <ele>681.5</ele>
        <time>2021-07-18T14:39:01Z</time>
      </trkpt>
      <trkpt lat="46.85409" lon="5.89608">
        <ele>677.4</ele>
        <time>2021-07-18T14:39:18Z</time>
      </trkpt>
      <trkpt lat="46.85414" lon="5.89604">
        <ele>676.9</ele>
        <time>2021-07-18T14:39:21Z</time>
      </trkpt>
      <trkpt lat="46.85419" lon="5.89604">
        <ele>676.5</ele>
        <time>2021-07-18T14:39:25Z</time>
      </trkpt>
      <trkpt lat="46.85425" lon="5.89604">
        <ele>676.1</ele>
        <time>2021-07-18T14:39:31Z</time>
      </trkpt>
      <trkpt lat="46.8543" lon="5.89603">
        <ele>676.1</ele>
        <time>2021-07-18T14:39:34Z</time>
      </trkpt>
      <trkpt lat="46.85435" lon="5.89602">
        <ele>675.9</ele>
        <time>2021-07-18T14:39:39Z</time>
      </trkpt>
      <trkpt lat="46.85441" lon="5.89603">
        <ele>675.9</ele>
        <time>2021-07-18T14:39:43Z</time>
      </trkpt>
      <trkpt lat="46.85445" lon="5.89605">
        <ele>675.9</ele>
        <time>2021-07-18T14:39:46Z</time>
      </trkpt>
      <trkpt lat="46.8545" lon="5.89606">
        <ele>675.9</ele>
        <time>2021-07-18T14:39:49Z</time>
      </trkpt>
      <trkpt lat="46.85456" lon="5.89607">
        <ele>676.1</ele>
        <time>2021-07-18T14:39:52Z</time>
      </trkpt>
      <trkpt lat="46.85462" lon="5.89606">
        <ele>676.3</ele>
        <time>2021-07-18T14:39:55Z</time>
      </trkpt>
      <trkpt lat="46.85466" lon="5.89609">
        <ele>676.4</ele>
        <time>2021-07-18T14:39:58Z</time>
      </trkpt>
      <trkpt lat="46.8547" lon="5.89614">
        <ele>676.6</ele>
        <time>2021-07-18T14:40:01Z</time>
      </trkpt>
      <trkpt lat="46.85473" lon="5.89621">
        <ele>676.4</ele>
        <time>2021-07-18T14:40:05Z</time>
      </trkpt>
      <trkpt lat="46.85476" lon="5.89627">
        <ele>676</ele>
        <time>2021-07-18T14:40:09Z</time>
      </trkpt>
      <trkpt lat="46.8548" lon="5.89631">
        <ele>675.5</ele>
        <time>2021-07-18T14:40:14Z</time>
      </trkpt>
      <trkpt lat="46.85484" lon="5.89636">
        <ele>674.3</ele>
        <time>2021-07-18T14:40:21Z</time>
      </trkpt>
      <trkpt lat="46.85488" lon="5.89643">
        <ele>673.4</ele>
        <time>2021-07-18T14:40:26Z</time>
      </trkpt>
      <trkpt lat="46.85492" lon="5.89648">
        <ele>672.9</ele>
        <time>2021-07-18T14:40:30Z</time>
      </trkpt>
      <trkpt lat="46.85497" lon="5.89651">
        <ele>672.5</ele>
        <time>2021-07-18T14:40:34Z</time>
      </trkpt>
      <trkpt lat="46.85501" lon="5.89656">
        <ele>671.4</ele>
        <time>2021-07-18T14:40:41Z</time>
      </trkpt>
      <trkpt lat="46.85506" lon="5.89656">
        <ele>669.9</ele>
        <time>2021-07-18T14:40:48Z</time>
      </trkpt>
      <trkpt lat="46.8551" lon="5.89659">
        <ele>668.4</ele>
        <time>2021-07-18T14:40:55Z</time>
      </trkpt>
      <trkpt lat="46.85515" lon="5.89663">
        <ele>667.3</ele>
        <time>2021-07-18T14:40:59Z</time>
      </trkpt>
      <trkpt lat="46.8552" lon="5.89667">
        <ele>666.5</ele>
        <time>2021-07-18T14:41:03Z</time>
      </trkpt>
      <trkpt lat="46.85524" lon="5.89671">
        <ele>666.2</ele>
        <time>2021-07-18T14:41:06Z</time>
      </trkpt>
      <trkpt lat="46.85529" lon="5.89674">
        <ele>666.1</ele>
        <time>2021-07-18T14:41:09Z</time>
      </trkpt>
      <trkpt lat="46.85534" lon="5.89674">
        <ele>665.8</ele>
        <time>2021-07-18T14:41:12Z</time>
      </trkpt>
      <trkpt lat="46.85539" lon="5.89675">
        <ele>665.8</ele>
        <time>2021-07-18T14:41:16Z</time>
      </trkpt>
      <trkpt lat="46.85543" lon="5.89679">
        <ele>666.1</ele>
        <time>2021-07-18T14:41:21Z</time>
      </trkpt>
      <trkpt lat="46.85547" lon="5.89683">
        <ele>666.7</ele>
        <time>2021-07-18T14:41:27Z</time>
      </trkpt>
      <trkpt lat="46.85552" lon="5.89685">
        <ele>668.4</ele>
        <time>2021-07-18T14:41:34Z</time>
      </trkpt>
      <trkpt lat="46.85556" lon="5.89683">
        <ele>669.3</ele>
        <time>2021-07-18T14:41:39Z</time>
      </trkpt>
      <trkpt lat="46.85561" lon="5.89683">
        <ele>670.1</ele>
        <time>2021-07-18T14:41:48Z</time>
      </trkpt>
      <trkpt lat="46.85566" lon="5.89684">
        <ele>670.1</ele>
        <time>2021-07-18T14:41:51Z</time>
      </trkpt>
      <trkpt lat="46.85572" lon="5.89686">
        <ele>669.8</ele>
        <time>2021-07-18T14:41:54Z</time>
      </trkpt>
      <trkpt lat="46.85576" lon="5.8969">
        <ele>669.4</ele>
        <time>2021-07-18T14:41:57Z</time>
      </trkpt>
      <trkpt lat="46.85581" lon="5.89692">
        <ele>668.8</ele>
        <time>2021-07-18T14:42:00Z</time>
      </trkpt>
      <trkpt lat="46.85587" lon="5.89695">
        <ele>668</ele>
        <time>2021-07-18T14:42:03Z</time>
      </trkpt>
      <trkpt lat="46.85592" lon="5.89697">
        <ele>666.8</ele>
        <time>2021-07-18T14:42:08Z</time>
      </trkpt>
      <trkpt lat="46.85597" lon="5.89699">
        <ele>664.1</ele>
        <time>2021-07-18T14:42:16Z</time>
      </trkpt>
      <trkpt lat="46.85602" lon="5.89702">
        <ele>662.5</ele>
        <time>2021-07-18T14:42:19Z</time>
      </trkpt>
      <trkpt lat="46.85607" lon="5.89703">
        <ele>660.6</ele>
        <time>2021-07-18T14:42:23Z</time>
      </trkpt>
      <trkpt lat="46.85612" lon="5.89704">
        <ele>659.4</ele>
        <time>2021-07-18T14:42:28Z</time>
      </trkpt>
      <trkpt lat="46.85617" lon="5.89707">
        <ele>657.9</ele>
        <time>2021-07-18T14:42:37Z</time>
      </trkpt>
      <trkpt lat="46.85622" lon="5.89711">
        <ele>657</ele>
        <time>2021-07-18T14:42:41Z</time>
      </trkpt>
      <trkpt lat="46.85626" lon="5.89714">
        <ele>656.4</ele>
        <time>2021-07-18T14:42:44Z</time>
      </trkpt>
      <trkpt lat="46.85631" lon="5.89716">
        <ele>655.5</ele>
        <time>2021-07-18T14:42:49Z</time>
      </trkpt>
      <trkpt lat="46.85635" lon="5.89717">
        <ele>654.6</ele>
        <time>2021-07-18T14:42:57Z</time>
      </trkpt>
      <trkpt lat="46.85641" lon="5.89719">
        <ele>653.9</ele>
        <time>2021-07-18T14:43:02Z</time>
      </trkpt>
      <trkpt lat="46.85646" lon="5.8972">
        <ele>653.4</ele>
        <time>2021-07-18T14:43:05Z</time>
      </trkpt>
      <trkpt lat="46.85652" lon="5.89722">
        <ele>652.6</ele>
        <time>2021-07-18T14:43:09Z</time>
      </trkpt>
      <trkpt lat="46.85656" lon="5.89724">
        <ele>651.7</ele>
        <time>2021-07-18T14:43:14Z</time>
      </trkpt>
      <trkpt lat="46.85661" lon="5.89723">
        <ele>650.9</ele>
        <time>2021-07-18T14:43:18Z</time>
      </trkpt>
      <trkpt lat="46.85665" lon="5.89726">
        <ele>649.5</ele>
        <time>2021-07-18T14:43:25Z</time>
      </trkpt>
      <trkpt lat="46.8567" lon="5.89727">
        <ele>648.6</ele>
        <time>2021-07-18T14:43:30Z</time>
      </trkpt>
      <trkpt lat="46.85675" lon="5.89725">
        <ele>648.3</ele>
        <time>2021-07-18T14:43:33Z</time>
      </trkpt>
      <trkpt lat="46.8568" lon="5.89725">
        <ele>647.7</ele>
        <time>2021-07-18T14:43:37Z</time>
      </trkpt>
      <trkpt lat="46.85684" lon="5.89727">
        <ele>647.1</ele>
        <time>2021-07-18T14:43:41Z</time>
      </trkpt>
      <trkpt lat="46.85687" lon="5.89735">
        <ele>646.5</ele>
        <time>2021-07-18T14:43:45Z</time>
      </trkpt>
      <trkpt lat="46.85688" lon="5.89743">
        <ele>646</ele>
        <time>2021-07-18T14:43:48Z</time>
      </trkpt>
      <trkpt lat="46.8569" lon="5.8975">
        <ele>645.5</ele>
        <time>2021-07-18T14:43:53Z</time>
      </trkpt>
      <trkpt lat="46.85694" lon="5.89754">
        <ele>645.6</ele>
        <time>2021-07-18T14:43:57Z</time>
      </trkpt>
      <trkpt lat="46.85698" lon="5.89758">
        <ele>645.5</ele>
        <time>2021-07-18T14:44:00Z</time>
      </trkpt>
      <trkpt lat="46.85703" lon="5.89758">
        <ele>645.7</ele>
        <time>2021-07-18T14:44:03Z</time>
      </trkpt>
      <trkpt lat="46.85709" lon="5.89759">
        <ele>646.2</ele>
        <time>2021-07-18T14:44:07Z</time>
      </trkpt>
      <trkpt lat="46.85715" lon="5.89761">
        <ele>646.7</ele>
        <time>2021-07-18T14:44:10Z</time>
      </trkpt>
      <trkpt lat="46.8572" lon="5.89764">
        <ele>647.2</ele>
        <time>2021-07-18T14:44:13Z</time>
      </trkpt>
      <trkpt lat="46.85722" lon="5.89771">
        <ele>647.9</ele>
        <time>2021-07-18T14:44:17Z</time>
      </trkpt>
      <trkpt lat="46.85724" lon="5.89779">
        <ele>648.6</ele>
        <time>2021-07-18T14:44:21Z</time>
      </trkpt>
      <trkpt lat="46.85727" lon="5.89785">
        <ele>649.7</ele>
        <time>2021-07-18T14:44:24Z</time>
      </trkpt>
      <trkpt lat="46.85731" lon="5.89791">
        <ele>651.5</ele>
        <time>2021-07-18T14:44:27Z</time>
      </trkpt>
      <trkpt lat="46.85735" lon="5.89796">
        <ele>653.3</ele>
        <time>2021-07-18T14:44:30Z</time>
      </trkpt>
      <trkpt lat="46.85738" lon="5.89799">
        <ele>655.9</ele>
        <time>2021-07-18T14:44:34Z</time>
      </trkpt>
      <trkpt lat="46.85742" lon="5.89803">
        <ele>658.3</ele>
        <time>2021-07-18T14:44:39Z</time>
      </trkpt>
      <trkpt lat="46.85747" lon="5.89803">
        <ele>659.9</ele>
        <time>2021-07-18T14:44:45Z</time>
      </trkpt>
      <trkpt lat="46.85753" lon="5.89804">
        <ele>660.3</ele>
        <time>2021-07-18T14:44:49Z</time>
      </trkpt>
      <trkpt lat="46.85749" lon="5.89809">
        <ele>655.7</ele>
        <time>2021-07-18T14:45:09Z</time>
      </trkpt>
      <trkpt lat="46.85746" lon="5.89805">
        <ele>655.6</ele>
        <time>2021-07-18T14:45:22Z</time>
      </trkpt>
      <trkpt lat="46.85747" lon="5.89798">
        <ele>657.5</ele>
        <time>2021-07-18T14:45:49Z</time>
      </trkpt>
      <trkpt lat="46.85748" lon="5.89804">
        <ele>660.5</ele>
        <time>2021-07-18T14:46:03Z</time>
      </trkpt>
      <trkpt lat="46.85752" lon="5.898">
        <ele>660.9</ele>
        <time>2021-07-18T14:49:22Z</time>
      </trkpt>
      <trkpt lat="46.85757" lon="5.89802">
        <ele>661.9</ele>
        <time>2021-07-18T14:50:09Z</time>
      </trkpt>
      <trkpt lat="46.8576" lon="5.89808">
        <ele>665</ele>
        <time>2021-07-18T14:52:12Z</time>
      </trkpt>
      <trkpt lat="46.85757" lon="5.89802">
        <ele>664.4</ele>
        <time>2021-07-18T14:56:47Z</time>
      </trkpt>
      <trkpt lat="46.85786" lon="5.898">
        <ele>660.8</ele>
        <time>2021-07-18T15:02:04Z</time>
      </trkpt>
    </trkseg>
  </trk>
</gpx>